# Wetter Temperatur Luftdruck Luftfeuchtigkeit Sichtweite Windgeschwindigkeit Windrichtung Zeit
1 Clear 11 1015 46 10000 3.1 360 19:42 17.10.2019
2 Clear 12 1014 41 10000 5.1 270 19:20 17.10.2019
3 Clear 12 1014 41 10000 5.1 270 19:20 17.10.2019
4 Clear 12 1014 41 10000 5.1 270 18:59 17.10.2019
5 Clear 12 1014 33 10000 5.1 290 18:38 17.10.2019
6 Clear 12 1014 33 10000 5.1 290 18:20 17.10.2019
7 Clear 13 1014 33 10000 6.2 280 17:43 17.10.2019
8 Clear 13 1014 33 10000 6.2 280 17:43 17.10.2019
9 Clear 13 1014 33 10000 6.2 280 17:24 17.10.2019
10 Clear 14 1014 29 10000 6.7 270 16:59 17.10.2019
11 Clear 14 1014 29 10000 5.7 270 16:40 17.10.2019
12 Clear 14 1014 29 10000 5.7 270 16:19 17.10.2019
13 Clear 15 1014 29 10000 7.2 280 15:57 17.10.2019
14 Clear 15 1014 29 10000 7.2 290 15:38 17.10.2019
15 Clear 15 1014 29 10000 7.2 290 15:20 17.10.2019
16 Clear 16 1014 27 10000 7.7 280 14:56 17.10.2019
17 Clear 16 1014 25 10000 8.2 260 14:38 17.10.2019
18 Clear 16 1014 25 10000 8.2 260 14:20 17.10.2019
19 Clear 17 1013 29 10000 6.2 270 13:40 17.10.2019
20 Clear 17 1012 25 10000 9.8 280 13:20 17.10.2019
21 Clear 17 1012 25 10000 9.8 280 12:58 17.10.2019
22 Clear 17 1012 25 10000 8.7 260 12:38 17.10.2019
23 Clear 18 1012 23 10000 8.7 260 12:19 17.10.2019
24 Clear 18 1012 23 10000 8.7 260 11:55 17.10.2019
25 Clear 18 1012 23 10000 8.7 260 11:55 17.10.2019
26 Clear 18 1012 23 10000 8.7 260 11:55 17.10.2019
27 Clear 18 1012 23 10000 8.7 260 11:55 17.10.2019
28 Clear 18 1011 20 10000 8.7 260 11:37 17.10.2019
29 Clear 18 1011 22 10000 7.7 250 11:18 17.10.2019
30 Clear 19 1010 16 10000 10.8 260 10:42 17.10.2019
31 Clear 19 1010 16 10000 10.8 260 10:42 17.10.2019
32 Clear 19 1009 19 10000 10.3 260 10:20 17.10.2019
33 Clear 20 1009 19 10000 10.3 260 09:57 17.10.2019
34 Clear 20 1009 19 10000 9.8 270 09:38 17.10.2019
35 Clouds 21 1008 18 10000 9.3 270 09:20 17.10.2019
36 Clouds 22 1008 18 10000 9.3 270 08:56 17.10.2019
37 Clouds 22 1007 15 10000 15.4 260 08:37 17.10.2019
38 Clouds 22 1007 15 10000 15.4 260 08:18 17.10.2019
39 Clouds 22 1007 15 10000 15.4 260 08:18 17.10.2019
40 Clouds 23 1007 23 10000 11.8 270 07:43 17.10.2019
41 Clouds 24 1006 20 10000 13.4 270 07:21 17.10.2019
42 -273 0 0 0 0 0 07:21 17.10.2019
43 -273 0 0 0 0 0 06:56 17.10.2019
44 Clouds 25 1005 19 10000 15.4 280 06:38 17.10.2019
45 Clouds 25 1005 19 10000 15.4 280 06:19 17.10.2019
46 Clouds 26 1005 21 10000 11.8 280 05:41 17.10.2019
47 Clouds 27 1005 21 10000 11.8 280 05:20 17.10.2019
48 Clouds 28 1004 21 10000 9.8 290 04:50 17.10.2019
49 Clouds 27 1004 44 10000 11.3 260 03:49 17.10.2019
50 Clouds 26 1005 39 10000 2.6 250 02:35 17.10.2019
51 Clouds 22 1006 68 10000 7.2 270 00:44 17.10.2019
52 Clouds 21 1006 68 10000 7.2 270 00:22 17.10.2019
53 Clouds 20 1006 68 10000 7.2 270 23:59 16.10.2019
54 Clouds 19 1006 72 10000 3.1 300 23:41 16.10.2019
55 Clouds 19 1006 72 10000 3.1 300 23:19 16.10.2019
56 Clouds 19 1006 72 10000 3.1 300 23:19 16.10.2019
57 Clouds 18 1006 77 10000 2.6 280 22:55 16.10.2019
58 Clouds 18 1006 77 10000 2.6 280 22:55 16.10.2019
59 Clouds 17 1006 77 10000 2.1 310 22:36 16.10.2019
60 Clouds 17 1006 77 10000 2.1 310 22:36 16.10.2019
61 Clouds 16 1006 87 10000 1.512 273 22:18 16.10.2019
62 Clouds 16 1006 88 10000 1.5 270 21:55 16.10.2019
63 Clouds 16 1006 93 10000 3.1 280 21:37 16.10.2019
64 Clouds 16 1006 93 10000 3.1 280 21:18 16.10.2019
65 Rain 16 1006 88 10000 2.1 300 20:56 16.10.2019
66 Rain 16 1006 82 10000 2.713 327 20:38 16.10.2019
67 Rain 16 1006 82 10000 2.713 327 20:20 16.10.2019
68 Rain 17 1007 88 10000 4.6 180 19:42 16.10.2019
69 Rain 17 1007 88 10000 3.6 170 19:21 16.10.2019
70 Rain 17 1007 88 10000 4.6 180 19:21 16.10.2019
71 Rain 17 1007 88 10000 3.6 170 18:59 16.10.2019
72 Rain 17 1007 93 10000 4.6 160 18:39 16.10.2019
73 Rain 18 1007 93 10000 4.6 160 18:19 16.10.2019
74 Rain 18 1008 88 10000 4.1 160 17:56 16.10.2019
75 Rain 18 1008 88 10000 4.1 150 17:37 16.10.2019
76 Rain 18 1009 88 10000 4.6 150 17:19 16.10.2019
77 Rain 18 1009 88 10000 4.6 150 16:58 16.10.2019
78 Rain 19 1009 88 10000 3.6 200 16:38 16.10.2019
79 Rain 19 1009 82 10000 4.1 180 16:20 16.10.2019
80 Rain 19 1009 82 10000 4.1 180 15:55 16.10.2019
81 Rain 19 1008 63 10000 3.1 100 15:36 16.10.2019
82 Rain 19 1008 63 10000 3.1 100 15:18 16.10.2019
83 Rain 19 1008 63 10000 3.1 100 15:18 16.10.2019
84 -273 0 0 0 0 0 14:55 16.10.2019
85 Rain 19 1009 77 10000 4.6 60 14:36 16.10.2019
86 Rain 19 1009 77 10000 4.6 60 14:18 16.10.2019
87 Rain 20 1009 77 10000 6.2 50 13:55 16.10.2019
88 Rain 20 1009 72 10000 5.1 60 13:36 16.10.2019
89 Rain 20 1009 72 10000 5.1 60 13:18 16.10.2019
90 Rain 21 1009 38 10000 4.1 40 12:40 16.10.2019
91 Rain 22 1009 38 10000 4.1 40 12:18 16.10.2019
92 Rain 22 1009 38 10000 4.1 40 11:42 16.10.2019
93 Rain 22 1010 41 10000 2.6 320 11:18 16.10.2019
94 Clouds 23 1009 33 10000 2.6 330 10:39 16.10.2019
95 Clouds 23 1008 33 10000 3.1 310 10:20 16.10.2019
96 Clouds 23 1008 33 10000 1.5 290 09:56 16.10.2019
97 Clouds 24 1008 38 10000 3.6 270 09:38 16.10.2019
98 Rain 24 1008 38 10000 3.6 270 09:19 16.10.2019
99 Rain 24 1009 77 10000 2.6 170 08:43 16.10.2019
100 Rain 24 1009 77 10000 2.6 170 08:24 16.10.2019
101 Rain 24 1009 72 10000 4.052 248 07:46 16.10.2019
102 Rain 23 1009 77 10000 2.6 130 07:26 16.10.2019
103 Rain 23 1009 77 10000 2.6 130 07:25 16.10.2019
104 Rain 23 1009 72 10000 3.6 160 06:59 16.10.2019
105 Rain 23 1009 72 10000 5.1 120 06:39 16.10.2019
106 Clouds 24 1009 72 10000 4.1 120 05:54 16.10.2019
107 Clouds 23 1011 68 10000 2.1 110 03:26 16.10.2019
108 Clouds 22 1011 77 10000 4.6 150 02:49 16.10.2019
109 Clouds 19 1012 77 10000 6.2 170 01:19 16.10.2019
110 Clouds 19 1012 82 10000 7.2 170 00:50 16.10.2019
111 Clouds 18 1012 82 10000 6.7 180 00:32 16.10.2019
112 Clouds 17 1012 82 10000 6.2 190 23:41 15.10.2019
113 Clouds 17 1012 88 10000 7.2 190 23:22 15.10.2019
114 Clouds 17 1012 88 10000 7.7 190 22:56 15.10.2019
115 Clouds 16 1012 88 10000 8.2 180 22:38 15.10.2019
116 Clouds 16 1012 88 10000 8.2 180 22:20 15.10.2019
117 Clouds 16 1011 88 10000 8.7 170 21:56 15.10.2019
118 Clouds 17 1011 88 10000 8.7 170 21:56 15.10.2019
119 Clouds 16 1011 93 10000 9.8 180 21:38 15.10.2019
120 Clouds 16 1011 93 10000 9.8 180 21:20 15.10.2019
121 Clouds 16 1011 93 10000 8.7 180 20:58 15.10.2019
122 Clouds 16 1011 93 10000 8.7 180 20:39 15.10.2019
123 Clouds 16 1011 93 10000 8.7 190 20:21 15.10.2019
124 Clouds 16 1010 93 10000 7.2 190 19:59 15.10.2019
125 Rain 16 1010 93 10000 6.2 200 19:40 15.10.2019
126 Rain 16 1010 93 10000 6.2 200 19:20 15.10.2019
127 Rain 16 1010 93 8000 2.6 220 18:55 15.10.2019
128 Clouds 15 1009 100 10000 2.62 180 18:36 15.10.2019
129 Clear 15 1009 100 10000 1.787 197 18:18 15.10.2019
130 Clear 15 1010 100 10000 1.787 197 17:41 15.10.2019
131 Clear 15 1010 100 10000 1.787 197 17:41 15.10.2019
132 Clouds 16 1010 88 10000 2.6 340 17:21 15.10.2019
133 Clouds 16 1010 88 10000 3.1 350 16:59 15.10.2019
134 Clouds 16 1010 88 10000 3.1 350 16:59 15.10.2019
135 Clouds 16 1010 88 10000 3.1 350 16:40 15.10.2019
136 Clear 16 1011 87 10000 2.1 240 16:21 15.10.2019
137 Clouds 17 1011 88 10000 3.1 360 15:55 15.10.2019
138 Clouds 17 1011 88 10000 3.1 360 15:55 15.10.2019
139 Clouds 17 1011 88 10000 4.6 20 15:37 15.10.2019
140 Clouds 17 1011 88 10000 4.6 20 15:19 15.10.2019
141 Clouds 18 1010 88 10000 7.2 40 14:38 15.10.2019
142 Clouds 18 1010 88 10000 7.2 40 14:20 15.10.2019
143 Clear 18 1011 87 10000 0.628 74 13:59 15.10.2019
144 Clear 18 1011 87 10000 0.628 74 13:40 15.10.2019
145 Clear 19 1011 82 10000 0.628 74 13:20 15.10.2019
146 Clouds 19 1011 83 10000 8.2 20 12:44 15.10.2019
147 Clouds 19 1011 83 10000 8.2 20 12:22 15.10.2019
148 Clear 19 1010 64 10000 2.1 180 11:59 15.10.2019
149 Clouds 20 1010 77 10000 8.2 30 11:40 15.10.2019
150 Clouds 20 1010 77 10000 8.2 30 11:19 15.10.2019
151 Clouds 20 1009 83 10000 6.7 10 10:46 15.10.2019
152 Clouds 21 1009 78 10000 8.2 30 10:24 15.10.2019
153 Clouds 21 1009 78 10000 6.7 10 09:59 15.10.2019
154 Clouds 22 1009 78 10000 6.7 10 09:40 15.10.2019
155 Clouds 23 1009 78 10000 6.7 10 09:21 15.10.2019
156 Clouds 23 1009 78 10000 6.7 10 09:21 15.10.2019
157 Clouds 23 1009 69 10000 6.7 10 08:58 15.10.2019
158 Clouds 23 1009 68 10000 9.3 40 08:39 15.10.2019
159 Clouds 24 1009 68 10000 9.3 40 08:19 15.10.2019
160 Clear 25 1009 57 10000 8.7 40 07:43 15.10.2019
161 Clear 25 1009 57 10000 8.7 40 07:23 15.10.2019
162 Clear 26 1009 53 10000 8.7 50 06:57 15.10.2019
163 Clear 26 1009 53 10000 7.7 50 06:39 15.10.2019
164 Clear 27 1010 47 10000 8.2 40 05:56 15.10.2019
165 Clear 26 1010 47 10000 6.7 50 05:37 15.10.2019
166 Clear 27 1011 44 10000 7.2 50 04:49 15.10.2019
167 Clear 26 1011 50 10000 6.7 70 04:19 15.10.2019
168 Clear 25 1012 50 10000 6.7 40 03:35 15.10.2019
169 Clear 24 1013 56 10000 6.7 40 01:59 15.10.2019
170 Clear 22 1013 60 10000 2.1 270 01:40 15.10.2019
171 Clear 21 1013 68 10000 2.1 270 00:59 15.10.2019
172 Clear 19 1013 72 10000 2.1 290 00:26 15.10.2019
173 Clear 18 1013 77 10000 2.6 300 23:59 14.10.2019
174 Clear 16 1013 77 10000 2.6 300 23:37 14.10.2019
175 Clear 16 1013 82 10000 2.1 290 23:19 14.10.2019
176 Clear 16 1013 82 10000 2.1 290 23:19 14.10.2019
177 Clear 14 1013 87 10000 2.6 290 22:40 14.10.2019
178 Clear 14 1013 87 10000 3.1 280 22:21 14.10.2019
179 Clear 13 1013 87 10000 2.1 310 21:58 14.10.2019
180 Clear 13 1013 93 10000 1.41 295.162 21:40 14.10.2019
181 Clouds 12 1013 100 10000 1.16 254.312 21:21 14.10.2019
182 Clear 13 1012 93 10000 1.16 266.101 20:58 14.10.2019
183 Clear 13 1012 87 10000 1.16 266.101 20:38 14.10.2019
184 Clear 13 1012 87 10000 1.16 266.101 20:19 14.10.2019
185 Clear 13 1012 93 10000 1.16 266.101 19:55 14.10.2019
186 Clear 13 1012 87 10000 1.162 266 19:37 14.10.2019
187 Clear 13 1012 87 10000 1.16 266.101 19:19 14.10.2019
188 Clouds 13 1013 100 10000 1.16 266.101 18:57 14.10.2019
189 Clouds 13 1013 93 10000 1.16 266.101 18:37 14.10.2019
190 Clear 13 1013 100 10000 0.36 153.795 18:18 14.10.2019
191 Clear 14 1013 87 10000 0.36 153.795 17:41 14.10.2019
192 Clear 14 1013 87 10000 0.36 153.795 17:23 14.10.2019
193 Clear 15 1013 82 10000 0.36 153.795 16:56 14.10.2019
194 Clear 15 1014 82 10000 2.1 230 16:38 14.10.2019
195 Clear 15 1014 87 10000 0.36 153.795 16:19 14.10.2019
196 Clear 16 1014 93 10000 0.36 153.795 15:41 14.10.2019
197 Clouds 16 1014 93 10000 0.67 13.353 15:22 14.10.2019
198 Clouds 17 1014 87 10000 1 270 14:44 14.10.2019
199 Clouds 17 1014 87 10000 1 270 14:26 14.10.2019
200 Clouds 17 1014 77 10000 1 90 13:59 14.10.2019
201 Clouds 17 1014 72 10000 2.1 70 13:40 14.10.2019
202 Clouds 17 1014 77 10000 2.1 150 13:21 14.10.2019
203 Rain 18 1014 77 10000 5.7 30 12:42 14.10.2019
204 Rain 18 1014 77 10000 5.7 30 12:21 14.10.2019
205 Rain 18 1014 77 10000 5.7 30 12:21 14.10.2019
206 Rain 18 1014 72 10000 6.2 40 11:59 14.10.2019
207 Clear 18 1013 72 10000 5.7 50 11:41 14.10.2019
208 Clear 18 1013 72 10000 5.7 50 11:22 14.10.2019
209 Clouds 18 1013 68 10000 6.2 40 10:44 14.10.2019
210 Clouds 19 1013 64 10000 7.7 40 10:23 14.10.2019
211 Clouds 19 1013 64 10000 7.7 40 09:59 14.10.2019
212 Clouds 19 1013 60 10000 7.7 40 09:40 14.10.2019
213 Clouds 19 1013 60 10000 7.7 40 09:40 14.10.2019
214 Clear 21 1012 60 10000 7.7 50 09:20 14.10.2019
215 Clear 21 1012 60 10000 7.7 50 08:48 14.10.2019
216 Clear 22 1013 56 10000 7.7 50 08:23 14.10.2019
217 Clouds 23 1013 49 10000 6.7 40 07:45 14.10.2019
218 Clouds 23 1013 53 10000 7.7 40 07:23 14.10.2019
219 Clouds 23 1013 53 10000 7.7 40 06:56 14.10.2019
220 Clouds 23 1013 56 10000 7.2 40 06:28 14.10.2019
221 Clouds 24 1014 49 10000 6.7 60 05:55 14.10.2019
222 Clouds 24 1015 53 10000 6.2 40 04:59 14.10.2019
223 Clouds 23 1016 49 10000 4.1 30 03:50 14.10.2019
224 Clouds 22 1016 49 10000 4.1 30 03:23 14.10.2019
225 Clouds 21 1017 49 10000 6.7 40 02:25 14.10.2019
226 Clear 19 1018 55 10000 4.1 350 01:19 14.10.2019
227 Clear 17 1018 63 10000 4.6 340 00:42 14.10.2019
228 Clear 16 1017 67 10000 2.6 320 00:18 14.10.2019
229 Clear 14 1018 67 10000 2.6 320 23:40 13.10.2019
230 Clear 13 1018 93 10000 1.47 324.231 23:19 13.10.2019
231 Clear 12 1018 100 10000 1.47 324.231 22:57 13.10.2019
232 Clear 11 1017 100 10000 1.47 324.231 22:39 13.10.2019
233 Clear 11 1017 100 10000 1.47 324.231 22:19 13.10.2019
234 Clear 10 1017 100 10000 1.47 324.231 21:57 13.10.2019
235 Clear 10 1017 93 10000 1.5 290 21:36 13.10.2019
236 Clear 10 1017 82 10000 3.1 360 21:18 13.10.2019
237 Clear 10 1017 82 10000 3.1 360 20:56 13.10.2019
238 Clouds 10 1017 100 10000 0.5 140 20:37 13.10.2019
239 Clouds 10 1017 100 10000 0.5 140 20:37 13.10.2019
240 Clouds 10 1017 100 10000 0.5 140 20:37 13.10.2019
241 Clouds 10 1017 100 10000 0.5 140 20:19 13.10.2019
242 -273 0 0 0 0 0 19:55 13.10.2019
243 Clear 10 1017 82 10000 2.6 350 19:36 13.10.2019
244 Clear 10 1017 82 10000 3.1 320 19:18 13.10.2019
245 Clear 10 1017 82 10000 3.1 320 18:54 13.10.2019
246 Clear 10 1018 82 10000 2.6 350 18:36 13.10.2019
247 Rain 10 1018 100 10000 2.1 30 18:18 13.10.2019
248 Rain 10 1018 100 10000 3.1 70 17:42 13.10.2019
249 Rain 10 1018 100 10000 3.1 70 17:42 13.10.2019
250 Rain 10 1018 100 10000 3.1 70 17:24 13.10.2019
251 Clouds 10 1019 93 10000 0.88 359.083 16:45 13.10.2019
252 Clouds 10 1019 93 10000 0.88 359.083 16:45 13.10.2019
253 Clouds 10 1020 93 10000 0.88 359.083 16:20 13.10.2019
254 Clouds 11 1020 93 10000 0.88 359.083 15:59 13.10.2019
255 Clouds 10 1020 93 10000 0.88 359.083 15:59 13.10.2019
256 Clouds 11 1020 93 10000 1.5 360 15:39 13.10.2019
257 Clouds 11 1020 93 10000 1.5 360 15:21 13.10.2019
258 Clouds 11 1020 93 10000 1.45 307.035 14:59 13.10.2019
259 Clouds 12 1020 87 10000 1.45 307.035 14:40 13.10.2019
260 Clouds 12 1020 87 10000 1.45 307.035 14:22 13.10.2019
261 Clouds 12 1020 87 10000 1.45 307.035 13:59 13.10.2019
262 Clouds 12 1020 87 10000 1.45 307.035 13:38 13.10.2019
263 Clouds 12 1020 87 10000 1.45 307.035 13:38 13.10.2019
264 Clouds 12 1020 87 10000 1.47 325.443 13:20 13.10.2019
265 Clouds 13 1020 82 10000 1.47 325.443 12:56 13.10.2019
266 Clouds 13 1020 76 10000 1.47 325.443 12:38 13.10.2019
267 Clear 14 1019 63 10000 3.1 40 12:19 13.10.2019
268 Clear 14 1019 63 10000 3.1 40 11:56 13.10.2019
269 Clear 14 1019 63 10000 3.6 40 11:38 13.10.2019
270 Clear 15 1019 63 10000 3.6 40 11:19 13.10.2019
271 Clear 15 1019 59 10000 5.1 70 10:42 13.10.2019
272 Clear 16 1019 59 10000 5.1 70 10:23 13.10.2019
273 Clouds 16 1019 59 10000 5.7 90 09:57 13.10.2019
274 Clouds 17 1019 55 10000 5.1 90 09:38 13.10.2019
275 Clouds 17 1019 55 10000 5.1 90 09:19 13.10.2019
276 Clouds 18 1019 55 10000 5.1 90 08:43 13.10.2019
277 Clouds 18 1018 52 10000 5.7 80 08:22 13.10.2019
278 Clouds 18 1018 55 10000 5.7 120 07:47 13.10.2019
279 Clouds 18 1018 55 10000 5.7 120 07:28 13.10.2019
280 Rain 19 1019 52 10000 4.6 90 06:48 13.10.2019
281 Clouds 19 1019 55 10000 5.1 130 05:57 13.10.2019
282 Clouds 19 1020 63 10000 5.7 130 04:59 13.10.2019
283 Rain 19 1020 59 10000 4.1 140 04:33 13.10.2019
284 Rain 17 1021 72 10000 2.1 170 02:48 13.10.2019
285 Clouds 17 1021 77 10000 3.6 210 02:23 13.10.2019
286 Rain 16 1021 77 10000 3.6 240 01:34 13.10.2019
287 Rain 16 1021 77 10000 3.6 240 01:34 13.10.2019
288 Rain 15 1021 82 10000 2.6 280 00:52 13.10.2019
289 Rain 13 1021 82 10000 3.6 290 00:22 13.10.2019
290 Rain 13 1021 87 10000 3.1 280 23:59 12.10.2019
291 Rain 12 1021 87 10000 3.1 290 23:40 12.10.2019
292 Rain 12 1021 87 10000 3.1 290 23:40 12.10.2019
293 Rain 12 1021 87 10000 3.1 290 23:21 12.10.2019
294 Drizzle 11 1021 87 10000 3.1 300 22:58 12.10.2019
295 Clouds 10 1021 100 10000 1.5 130 22:40 12.10.2019
296 Clouds 10 1021 100 10000 1.5 130 22:21 12.10.2019
297 Clouds 10 1021 100 10000 1.5 207.764 21:56 12.10.2019
298 Rain 10 1020 93 10000 1.5 207.764 21:38 12.10.2019
299 Rain 10 1020 93 10000 1.94 208.305 21:20 12.10.2019
300 Rain 10 1020 93 10000 2.36 214.895 20:45 12.10.2019
301 Rain 11 1020 87 10000 6.7 220 20:27 12.10.2019
302 Rain 11 1020 93 10000 2.36 214.895 19:42 12.10.2019
303 Rain 11 1020 93 10000 2.36 214.895 19:24 12.10.2019
304 Rain 11 1020 93 10000 3.6 210 18:59 12.10.2019
305 Rain 11 1020 93 10000 4.1 210 18:41 12.10.2019
306 Rain 11 1020 93 10000 4.1 210 18:23 12.10.2019
307 Rain 11 1020 87 10000 4.6 220 17:45 12.10.2019
308 Rain 11 1020 87 10000 4.6 220 17:21 12.10.2019
309 Rain 12 1020 93 10000 4.6 230 16:58 12.10.2019
310 Rain 12 1020 93 10000 4.6 230 16:58 12.10.2019
311 Rain 12 1020 87 10000 4.1 240 16:40 12.10.2019
312 Rain 12 1020 87 10000 4.1 240 16:20 12.10.2019
313 Rain 12 1021 87 10000 3.1 270 15:56 12.10.2019
314 Rain 12 1021 87 10000 3.6 300 15:37 12.10.2019
315 Rain 12 1021 87 10000 3.6 300 15:18 12.10.2019
316 Rain 12 1021 77 10000 6.2 180 14:39 12.10.2019
317 Rain 13 1021 77 10000 6.2 180 14:20 12.10.2019
318 Rain 13 1021 82 10000 4.6 210 13:50 12.10.2019
319 Rain 13 1020 82 10000 5.7 210 13:32 12.10.2019
320 Clouds 13 1020 77 10000 4.1 200 12:55 12.10.2019
321 Rain 13 1020 82 10000 5.1 220 12:37 12.10.2019
322 Rain 13 1020 72 10000 5.1 220 12:19 12.10.2019
323 Clouds 13 1020 93 10000 2.1 230 11:43 12.10.2019
324 Clouds 13 1020 93 10000 2.1 230 11:22 12.10.2019
325 Rain 13 1019 72 10000 5.7 130 10:58 12.10.2019
326 Rain 13 1019 77 10000 6.2 210 10:39 12.10.2019
327 Rain 13 1019 100 10000 1.5 250 10:20 12.10.2019
328 Rain 14 1019 100 10000 1.5 250 09:57 12.10.2019
329 Rain 14 1018 100 10000 2.1 250 09:37 12.10.2019
330 Rain 14 1018 93 10000 2.6 200 09:19 12.10.2019
331 Rain 14 1018 93 10000 3.1 170 08:43 12.10.2019
332 Rain 14 1018 93 10000 3.1 170 08:23 12.10.2019
333 Rain 14 1017 67 10000 7.7 170 07:50 12.10.2019
334 Rain 14 1017 67 10000 7.7 170 07:30 12.10.2019
335 Rain 15 1017 63 10000 8.2 150 06:27 12.10.2019
336 Rain 16 1018 72 10000 8.2 160 05:42 12.10.2019
337 Rain 17 1018 72 10000 6.7 170 04:34 12.10.2019
338 Rain 17 1018 77 10000 6.7 190 03:53 12.10.2019
339 Rain 16 1018 48 10000 6.7 140 02:45 12.10.2019
340 Rain 16 1018 52 10000 7.2 130 01:32 12.10.2019
341 Rain 16 1019 77 10000 4.1 190 01:32 12.10.2019
342 Rain 15 1019 59 10000 7.2 120 00:55 12.10.2019
343 Rain 15 1019 59 10000 7.2 120 00:55 12.10.2019
344 Clouds 15 1018 59 10000 6.7 130 00:37 12.10.2019
345 Rain 13 1018 93 10000 3.6 180 23:55 11.10.2019
346 Rain 13 1018 100 10000 2.6 230 23:36 11.10.2019
347 Rain 12 1018 100 10000 2.6 230 23:18 11.10.2019
348 Rain 12 1018 93 10000 2.6 240 22:37 11.10.2019
349 Clouds 12 1018 93 10000 2.6 240 22:19 11.10.2019
350 Rain 11 1017 100 10000 3.1 210 21:43 11.10.2019
351 Rain 11 1017 100 10000 2.6 230 21:21 11.10.2019
352 Rain 11 1017 100 10000 2.6 230 20:57 11.10.2019
353 Rain 11 1017 100 10000 2.6 230 20:57 11.10.2019
354 Rain 11 1017 100 10000 2.6 240 20:39 11.10.2019
355 Rain 11 1017 100 10000 3.6 210 20:20 11.10.2019
356 Rain 11 1017 100 10000 3.6 210 19:55 11.10.2019
357 Rain 11 1017 100 10000 3.1 210 19:37 11.10.2019
358 Rain 11 1017 100 10000 3.1 210 19:37 11.10.2019
359 Rain 11 1017 100 10000 3.1 210 19:18 11.10.2019
360 Rain 11 1017 100 10000 3.1 210 19:18 11.10.2019
361 Rain 11 1017 100 10000 3.1 210 19:18 11.10.2019
362 Rain 11 1017 93 2500 6.2 210 18:56 11.10.2019
363 Rain 11 1018 100 10000 2.6 200 18:37 11.10.2019
364 Rain 11 1018 93 10000 6.2 250 18:18 11.10.2019
365 Rain 11 1018 93 10000 6.2 250 17:57 11.10.2019
366 Rain 11 1018 93 8000 5.7 240 17:37 11.10.2019
367 Rain 11 1018 93 6000 5.1 200 17:18 11.10.2019
368 Rain 11 1018 93 8000 5.7 240 17:18 11.10.2019
369 Rain 12 1018 87 10000 4.1 240 16:41 11.10.2019
370 Rain 12 1018 87 10000 4.1 240 16:21 11.10.2019
371 Rain 12 1018 93 10000 5.7 230 15:59 11.10.2019
372 Rain 12 1019 100 10000 2.6 190 15:39 11.10.2019
373 Rain 12 1019 100 10000 2.6 190 15:19 11.10.2019
374 Rain 12 1019 100 10000 1.5 180 14:48 11.10.2019
375 Rain 12 1018 82 10000 4.1 130 14:29 11.10.2019
376 Rain 12 1018 87 10000 5.1 150 13:57 11.10.2019
377 Rain 12 1019 82 10000 5.7 160 13:39 11.10.2019
378 Rain 12 1019 82 10000 5.7 160 13:21 11.10.2019
379 Rain 12 1019 82 10000 5.7 160 13:21 11.10.2019
380 Rain 12 1019 100 10000 3.09 128.327 12:56 11.10.2019
381 Rain 12 1018 82 10000 0.5 150 12:38 11.10.2019
382 Rain 13 1018 71 10000 6.7 120 12:19 11.10.2019
383 Clouds 13 1018 100 10000 2.54 135.479 11:41 11.10.2019
384 Clouds 13 1018 100 10000 2.54 135.479 11:41 11.10.2019
385 Clouds 13 1018 100 10000 2.54 135.479 11:22 11.10.2019
386 Clouds 13 1018 100 10000 2.54 135.479 11:22 11.10.2019
387 Clouds 13 1018 100 10000 2.54 135.479 10:59 11.10.2019
388 Clouds 13 1018 100 10000 2.54 135.479 10:59 11.10.2019
389 Clouds 13 1017 59 10000 4.1 140 10:41 11.10.2019
390 Clouds 14 1017 59 10000 4.1 140 10:23 11.10.2019
391 Rain 14 1017 59 10000 4.6 130 09:56 11.10.2019
392 Clouds 14 1017 59 10000 5.1 140 09:37 11.10.2019
393 Clouds 15 1017 63 10000 5.1 140 09:19 11.10.2019
394 Clouds 15 1017 63 10000 5.1 140 08:55 11.10.2019
395 Clouds 15 1017 55 10000 5.7 140 08:37 11.10.2019
396 Clouds 15 1016 55 10000 6.2 140 08:19 11.10.2019
397 Clouds 15 1017 52 10000 5.7 130 07:44 11.10.2019
398 Clouds 16 1017 52 10000 5.7 130 07:25 11.10.2019
399 Clouds 16 1017 59 10000 5.7 130 06:49 11.10.2019
400 Clouds 16 1017 63 10000 5.1 130 06:24 11.10.2019
401 Rain 16 1017 55 10000 5.7 130 05:41 11.10.2019
402 Rain 16 1018 55 10000 6.2 130 04:59 11.10.2019
403 Rain 15 1018 55 10000 5.7 130 04:28 11.10.2019
404 Clouds 17 1019 72 10000 4.6 170 02:41 11.10.2019
405 Rain 16 1020 72 10000 6.2 170 00:52 11.10.2019
406 Rain 15 1020 77 10000 7.7 180 00:29 11.10.2019
407 Rain 15 1019 77 10000 2.6 240 23:48 10.10.2019
408 Clouds 13 1019 77 10000 2.6 270 23:23 10.10.2019
409 Clouds 13 1019 82 10000 2.6 300 22:58 10.10.2019
410 Clouds 12 1019 100 6000 2.01 194.05 22:40 10.10.2019
411 Clouds 12 1019 100 6000 2.01 194.05 22:21 10.10.2019
412 Clouds 12 1019 100 6000 2.01 194.05 22:21 10.10.2019
413 Clouds 12 1019 100 6000 2.01 194.05 22:21 10.10.2019
414 Clouds 11 1019 93 8000 2.1 330 21:59 10.10.2019
415 Rain 11 1019 87 10000 2.01 194.05 21:40 10.10.2019
416 Rain 11 1019 87 10000 1.25 209.455 21:22 10.10.2019
417 Rain 11 1019 87 10000 4.1 210 20:57 10.10.2019
418 Rain 12 1019 93 10000 0.73 174.578 20:39 10.10.2019
419 Rain 12 1019 100 10000 2.6 200 20:18 10.10.2019
420 Rain 12 1019 100 10000 2.6 200 20:18 10.10.2019
421 Rain 12 1019 93 10000 0.73 174.578 19:54 10.10.2019
422 Rain 12 1019 93 10000 0.73 174.578 19:36 10.10.2019
423 Rain 12 1019 76 10000 3.1 10 19:18 10.10.2019
424 Rain 12 1019 76 10000 2.1 50 18:41 10.10.2019
425 Rain 12 1020 76 10000 4.6 110 18:20 10.10.2019
426 Rain 12 1020 76 10000 4.6 110 17:57 10.10.2019
427 Rain 13 1020 87 10000 2.6 240 17:37 10.10.2019
428 Drizzle 13 1020 82 10000 2.6 260 17:18 10.10.2019
429 Drizzle 13 1020 82 10000 2.6 260 16:48 10.10.2019
430 Clouds 13 1021 93 10000 1.5 290 16:27 10.10.2019
431 Rain 13 1021 100 10000 1 300 15:59 10.10.2019
432 Rain 13 1021 67 10000 3.1 90 15:39 10.10.2019
433 Rain 13 1021 67 10000 3.1 90 15:39 10.10.2019
434 Rain 13 1021 67 10000 3.1 90 15:20 10.10.2019
435 Rain 13 1021 100 10000 1.5 310 14:56 10.10.2019
436 Rain 14 1021 63 10000 3.6 140 14:37 10.10.2019
437 Rain 14 1021 63 10000 3.6 140 14:19 10.10.2019
438 Clouds 14 1021 67 10000 2.6 100 13:55 10.10.2019
439 Clouds 14 1021 72 10000 3.6 120 13:37 10.10.2019
440 Clouds 14 1021 67 10000 5.1 130 13:18 10.10.2019
441 Clouds 14 1021 67 10000 5.1 130 12:42 10.10.2019
442 Clouds 15 1021 67 10000 5.7 130 12:21 10.10.2019
443 Clouds 15 1021 67 10000 5.7 130 11:58 10.10.2019
444 Clouds 15 1021 67 10000 7.2 140 11:40 10.10.2019
445 Clouds 15 1021 63 10000 6.7 140 11:19 10.10.2019
446 Clouds 15 1021 67 10000 7.2 140 10:47 10.10.2019
447 Clouds 16 1021 67 10000 7.2 140 10:28 10.10.2019
448 Clouds 16 1020 67 10000 6.7 140 09:59 10.10.2019
449 Clouds 16 1020 67 10000 8.2 130 09:41 10.10.2019
450 Clouds 17 1020 63 10000 6.7 140 09:23 10.10.2019
451 Clouds 17 1020 63 10000 6.7 140 08:59 10.10.2019
452 Clouds 17 1020 63 10000 7.2 150 08:39 10.10.2019
453 Clouds 18 1020 63 10000 8.2 150 08:20 10.10.2019
454 Clouds 18 1020 63 10000 8.7 150 07:47 10.10.2019
455 Clouds 18 1020 63 10000 8.7 150 07:25 10.10.2019
456 Clouds 19 1020 63 10000 7.7 160 06:55 10.10.2019
457 Clouds 19 1021 67 10000 8.7 170 06:36 10.10.2019
458 Clouds 19 1021 67 10000 8.2 180 05:39 10.10.2019
459 Clouds 19 1021 67 10000 8.2 180 05:18 10.10.2019
460 Clouds 19 1022 63 10000 8.2 180 04:34 10.10.2019
461 Clouds 18 1023 63 10000 7.7 190 02:29 10.10.2019
462 Clouds 18 1023 67 10000 7.7 200 01:37 10.10.2019
463 Clouds 17 1023 67 10000 7.7 200 01:18 10.10.2019
464 Clouds 16 1023 63 10000 6.7 210 00:33 10.10.2019
465 Clouds 14 1023 62 10000 7.7 190 23:55 09.10.2019
466 Clouds 14 1023 67 10000 7.2 220 23:36 09.10.2019
467 Clouds 13 1023 67 10000 7.7 220 23:18 09.10.2019
468 Clouds 13 1023 67 10000 7.2 220 23:18 09.10.2019
469 Clouds 12 1023 71 10000 7.7 220 22:41 09.10.2019
470 Clouds 11 1023 71 10000 7.7 220 22:22 09.10.2019
471 Clear 10 1023 87 10000 2.1 270 21:58 09.10.2019
472 Clear 10 1023 87 10000 1.5 260 21:39 09.10.2019
473 Clear 10 1023 87 10000 1.5 260 21:39 09.10.2019
474 Clear 10 1023 93 10000 2.1 270 21:19 09.10.2019
475 Clouds 10 1023 93 10000 2.1 270 20:55 09.10.2019
476 Clouds 10 1022 87 10000 2.48 231.409 20:37 09.10.2019
477 Rain 11 1022 76 10000 7.2 200 20:18 09.10.2019
478 Rain 11 1022 76 10000 7.2 200 20:18 09.10.2019
479 Rain 11 1022 76 10000 7.2 200 20:18 09.10.2019
480 Rain 11 1022 76 10000 4.6 230 19:45 09.10.2019
481 Rain 11 1022 76 10000 4.6 230 19:23 09.10.2019
482 Rain 11 1022 76 10000 7.7 210 18:57 09.10.2019
483 Clouds 11 1022 71 10000 2.6 210 18:37 09.10.2019
484 Rain 12 1022 76 10000 4.6 260 18:18 09.10.2019
485 Rain 12 1022 76 10000 4.6 260 17:55 09.10.2019
486 Rain 12 1022 76 10000 4.6 260 17:36 09.10.2019
487 Rain 12 1023 71 10000 5.1 260 17:18 09.10.2019
488 Clouds 12 1023 67 10000 4.6 260 16:40 09.10.2019
489 Clouds 12 1023 67 10000 4.6 260 16:22 09.10.2019
490 Clouds 13 1023 67 10000 4.1 260 15:58 09.10.2019
491 Clouds 13 1023 67 10000 4.6 250 15:39 09.10.2019
492 Clouds 13 1023 67 10000 4.6 250 15:39 09.10.2019
493 Clouds 13 1024 62 10000 2.6 230 15:20 09.10.2019
494 Clouds 13 1024 62 10000 2.6 230 14:58 09.10.2019
495 Clouds 13 1024 62 10000 3.1 220 14:39 09.10.2019
496 Clouds 14 1023 67 10000 8.7 190 14:18 09.10.2019
497 Clouds 14 1023 67 10000 8.7 170 13:40 09.10.2019
498 Clouds 14 1023 67 10000 8.7 170 13:21 09.10.2019
499 Clouds 14 1023 63 10000 8.7 180 12:59 09.10.2019
500 Clouds 15 1023 67 10000 8.7 180 12:40 09.10.2019
501 Clouds 15 1023 67 10000 8.7 180 12:21 09.10.2019
502 Clouds 15 1023 67 10000 9.3 180 11:55 09.10.2019
503 Clouds 15 1022 67 10000 6.7 180 11:37 09.10.2019
504 Clouds 15 1022 67 10000 6.7 180 11:19 09.10.2019
505 Clouds 15 1022 63 10000 6.7 180 10:44 09.10.2019
506 Clouds 15 1022 63 10000 6.7 180 10:22 09.10.2019
507 Rain 16 1022 67 10000 6.7 180 09:59 09.10.2019
508 Rain 16 1022 67 10000 11.3 170 09:40 09.10.2019
509 Rain 17 1021 59 10000 6.7 180 09:19 09.10.2019
510 Rain 17 1021 63 10000 11.3 180 08:43 09.10.2019
511 Rain 17 1021 63 10000 11.3 180 08:23 09.10.2019
512 Rain 17 1021 59 10000 11.8 180 07:59 09.10.2019
513 Rain 17 1021 63 10000 12.3 180 07:39 09.10.2019
514 Rain 18 1021 63 10000 12.3 180 07:21 09.10.2019
515 Rain 18 1021 59 10000 11.8 180 06:52 09.10.2019
516 Rain 18 1021 59 10000 11.8 180 06:52 09.10.2019
517 Rain 19 1021 59 10000 10.3 170 06:19 09.10.2019
518 Rain 19 1022 55 10000 10.3 170 05:44 09.10.2019
519 Clouds 19 1022 55 10000 9.8 180 04:26 09.10.2019
520 Clouds 18 1022 51 10000 9.8 190 02:54 09.10.2019
521 Clouds 17 1022 62 10000 9.3 210 01:44 09.10.2019
522 Clouds 16 1022 58 10000 10.3 190 01:21 09.10.2019
523 Clouds 16 1022 58 10000 10.3 190 00:57 09.10.2019
524 Clouds 15 1022 67 10000 8.2 210 00:39 09.10.2019
525 Clouds 14 1021 58 10000 7.7 200 00:20 09.10.2019
526 Clouds 13 1021 62 10000 5.7 270 23:40 08.10.2019
527 Clouds 12 1021 62 10000 7.7 200 23:19 08.10.2019
528 Clouds 12 1021 62 10000 7.7 200 22:58 08.10.2019
529 Clouds 11 1021 66 10000 7.7 200 22:39 08.10.2019
530 Clouds 11 1021 66 10000 7.7 200 22:20 08.10.2019
531 Clouds 11 1020 62 10000 7.7 200 22:20 08.10.2019
532 Clouds 10 1020 62 10000 7.7 200 21:57 08.10.2019
533 Clouds 10 1020 62 10000 4.6 270 21:39 08.10.2019
534 Clouds 10 1020 62 10000 4.6 270 21:19 08.10.2019
535 Clouds 10 1019 62 10000 6.2 250 20:57 08.10.2019
536 Clouds 10 1019 62 10000 6.2 250 20:57 08.10.2019
537 Clouds 10 1019 62 10000 6.2 250 20:57 08.10.2019
538 Clouds 10 1019 62 10000 7.2 250 20:39 08.10.2019
539 Clouds 10 1019 62 10000 7.7 260 20:21 08.10.2019
540 Clouds 11 1019 62 10000 7.7 260 19:58 08.10.2019
541 Clouds 11 1019 62 10000 7.2 260 19:40 08.10.2019
542 Clouds 11 1019 62 10000 7.2 250 19:22 08.10.2019
543 Clouds 11 1019 62 10000 7.2 250 18:55 08.10.2019
544 Clouds 11 1019 62 10000 7.2 250 18:55 08.10.2019
545 Clear 11 1019 62 10000 7.2 260 18:36 08.10.2019
546 Clear 11 1019 62 10000 7.7 260 18:18 08.10.2019
547 Clouds 11 1019 66 10000 8.2 260 17:40 08.10.2019
548 Clouds 11 1019 66 10000 8.2 260 17:21 08.10.2019
549 Clouds 12 1019 66 10000 8.7 250 16:59 08.10.2019
550 Clouds 12 1019 62 10000 7.7 250 16:40 08.10.2019
551 Clouds 12 1018 62 10000 7.2 260 16:21 08.10.2019
552 Clouds 12 1019 62 10000 7.7 260 15:41 08.10.2019
553 Clouds 12 1018 62 10000 7.2 250 15:22 08.10.2019
554 Clouds 12 1019 62 10000 7.7 260 15:22 08.10.2019
555 Clouds 12 1018 62 10000 7.2 250 14:59 08.10.2019
556 Clouds 13 1018 62 10000 7.2 250 14:41 08.10.2019
557 Clouds 13 1018 62 10000 7.2 250 14:21 08.10.2019
558 Clouds 13 1018 62 10000 6.7 250 13:57 08.10.2019
559 Clouds 13 1017 58 10000 7.7 230 13:39 08.10.2019
560 Clouds 13 1017 58 10000 7.7 230 13:20 08.10.2019
561 Clouds 14 1017 62 10000 7.2 240 12:59 08.10.2019
562 Clouds 14 1017 71 10000 7.2 210 12:38 08.10.2019
563 Clouds 14 1017 76 10000 7.7 210 12:19 08.10.2019
564 Drizzle 14 1016 76 10000 8.2 200 11:43 08.10.2019
565 Drizzle 14 1016 76 10000 8.2 200 11:24 08.10.2019
566 Rain 14 1015 71 10000 9.8 210 10:59 08.10.2019
567 Rain 15 1014 72 10000 9.3 200 10:39 08.10.2019
568 Rain 15 1014 77 10000 10.8 190 10:20 08.10.2019
569 Rain 15 1014 77 10000 10.8 190 10:20 08.10.2019
570 Clouds 16 1014 77 10000 10.8 190 09:58 08.10.2019
571 Clouds 16 1013 77 10000 8.7 200 09:39 08.10.2019
572 Rain 16 1013 77 10000 6.2 210 09:20 08.10.2019
573 Rain 17 1012 82 10000 7.7 210 08:43 08.10.2019
574 Rain 17 1012 82 10000 7.7 210 08:25 08.10.2019
575 Rain 17 1011 82 10000 11.8 190 07:46 08.10.2019
576 Rain 18 1011 82 10000 11.8 190 07:23 08.10.2019
577 Rain 18 1010 82 10000 11.3 190 06:56 08.10.2019
578 Rain 19 1010 82 10000 12.9 180 06:34 08.10.2019
579 Rain 21 1009 77 10000 12.3 180 05:57 08.10.2019
580 Rain 21 1009 77 10000 12.3 180 05:57 08.10.2019
581 Rain 21 1009 77 10000 10.8 170 05:38 08.10.2019
582 Rain 21 1009 77 10000 10.8 170 05:38 08.10.2019
583 Clouds 22 1009 28 10000 7.7 270 04:42 08.10.2019
584 Rain 23 1009 40 10000 10.3 200 03:30 08.10.2019
585 Clouds 22 1010 43 10000 6.7 260 02:40 08.10.2019
586 Clouds 21 1011 56 10000 4.6 260 01:49 08.10.2019
587 Clouds 20 1011 56 10000 4.6 260 01:31 08.10.2019
588 Clouds 19 1011 68 10000 3.6 250 00:55 08.10.2019
589 Clouds 18 1011 77 10000 4.1 240 00:22 08.10.2019
590 Clouds 17 1010 88 10000 3.1 260 23:43 07.10.2019
591 Clouds 16 1011 100 10000 1.5 10 23:21 07.10.2019
592 Clouds 16 1010 93 10000 2.6 270 22:58 07.10.2019
593 Clouds 16 1010 93 10000 2.6 270 22:58 07.10.2019
594 Rain 16 1010 88 10000 2.6 300 22:40 07.10.2019
595 Rain 15 1010 88 10000 1.5 310 22:21 07.10.2019
596 Rain 15 1010 88 10000 1.5 310 22:21 07.10.2019
597 Clouds 15 1010 100 4500 1.76 281.527 21:58 07.10.2019
598 Clouds 15 1010 93 9000 1.76 281.527 21:40 07.10.2019
599 Clouds 15 1009 100 10000 1.17 288.482 21:20 07.10.2019
600 Clouds 15 1009 100 10000 1.07 269.085 20:58 07.10.2019
601 Clouds 15 1009 88 10000 1.5 240 20:39 07.10.2019
602 Clouds 15 1009 88 10000 1.5 240 20:39 07.10.2019
603 Clouds 15 1009 88 10000 1.5 240 20:21 07.10.2019
604 Clouds 16 1009 93 10000 1.07 269.085 19:59 07.10.2019
605 Clear 16 1010 93 10000 2.1 250 19:41 07.10.2019
606 Clear 16 1010 93 10000 2.1 250 19:41 07.10.2019
607 Clouds 16 1010 100 3700 1.5 260 19:20 07.10.2019
608 Clouds 16 1010 88 10000 1.5 210 18:59 07.10.2019
609 Clouds 17 1010 88 10000 1.07 269.085 18:39 07.10.2019
610 Clouds 17 1010 88 10000 0.33 339.444 18:19 07.10.2019
611 Clouds 17 1010 88 10000 0.33 339.444 17:54 07.10.2019
612 Clouds 17 1011 82 10000 0.33 339.444 17:36 07.10.2019
613 Clouds 18 1011 82 10000 0.33 339.444 17:18 07.10.2019
614 Clouds 18 1011 82 10000 0.5 150 16:43 07.10.2019
615 Clouds 18 1011 82 10000 0.5 150 16:25 07.10.2019
616 Clouds 18 1011 77 10000 3.1 90 15:46 07.10.2019
617 Clouds 18 1011 77 10000 3.1 90 15:26 07.10.2019
618 Clouds 18 1012 77 10000 3.1 90 14:58 07.10.2019
619 Clouds 18 1012 77 10000 3.1 90 14:40 07.10.2019
620 Clouds 18 1012 77 10000 3.1 90 14:22 07.10.2019
621 Clouds 18 1012 77 10000 3.1 120 13:44 07.10.2019
622 Clouds 18 1012 77 10000 3.1 120 13:21 07.10.2019
623 Clouds 19 1012 77 10000 3.1 120 12:57 07.10.2019
624 Clouds 19 1013 77 10000 2.6 140 12:39 07.10.2019
625 Clouds 19 1013 77 10000 2.6 140 12:20 07.10.2019
626 Clouds 19 1012 77 10000 2.6 120 12:20 07.10.2019
627 Clouds 19 1012 77 10000 2.6 120 11:59 07.10.2019
628 Clouds 19 1012 77 10000 3.1 130 11:39 07.10.2019
629 Clouds 19 1012 77 10000 3.1 130 11:20 07.10.2019
630 Clouds 19 1011 72 10000 4.1 110 10:43 07.10.2019
631 Clouds 19 1011 72 10000 4.1 110 10:23 07.10.2019
632 Clouds 19 1011 77 10000 4.1 110 09:58 07.10.2019
633 Clouds 19 1010 72 10000 4.6 130 09:38 07.10.2019
634 Clouds 20 1010 72 10000 4.6 130 09:20 07.10.2019
635 Clouds 20 1010 77 10000 5.7 130 08:44 07.10.2019
636 Clouds 20 1010 72 10000 5.1 130 08:21 07.10.2019
637 Clouds 21 1010 72 10000 5.1 130 07:55 07.10.2019
638 Clouds 21 1010 72 10000 5.7 130 07:36 07.10.2019
639 Clouds 21 1010 72 10000 5.7 130 07:18 07.10.2019
640 Clouds 22 1010 68 10000 6.2 140 06:43 07.10.2019
641 Clouds 23 1010 73 10000 6.2 130 06:20 07.10.2019
642 Clouds 23 1011 68 10000 6.2 130 05:27 07.10.2019
643 Clouds 24 1011 68 10000 6.7 150 04:54 07.10.2019
644 Clouds 24 1011 64 10000 6.7 150 03:51 07.10.2019
645 Clouds 24 1011 68 10000 7.2 150 03:32 07.10.2019
646 Clouds 23 1012 77 10000 5.7 170 02:53 07.10.2019
647 Clouds 23 1012 77 10000 8.7 180 02:19 07.10.2019
648 Clouds 22 1012 77 10000 2.6 140 01:24 07.10.2019
649 Clear 21 1012 77 10000 9.8 190 00:55 07.10.2019
650 Clear 20 1011 77 10000 8.7 190 00:36 07.10.2019
651 Clear 20 1011 77 10000 8.7 190 00:18 07.10.2019
652 Clear 19 1011 82 10000 8.2 190 23:40 06.10.2019
653 Clear 18 1011 82 10000 8.2 190 23:21 06.10.2019
654 Clear 17 1011 82 10000 9.3 190 22:58 06.10.2019
655 Clear 17 1010 82 10000 8.7 190 22:39 06.10.2019
656 Clear 17 1010 82 10000 8.7 190 22:21 06.10.2019
657 Clear 16 1010 82 10000 6.7 190 21:56 06.10.2019
658 Clear 16 1009 82 10000 5.7 190 21:37 06.10.2019
659 Clear 16 1009 88 10000 6.2 190 21:19 06.10.2019
660 Clear 17 1009 88 10000 6.2 190 20:57 06.10.2019
661 Clear 17 1009 88 10000 5.7 190 20:38 06.10.2019
662 Clear 17 1008 93 10000 5.7 190 20:20 06.10.2019
663 Clear 17 1008 93 10000 5.7 190 19:57 06.10.2019
664 Clear 17 1008 82 10000 5.1 170 19:37 06.10.2019
665 Clear 17 1008 82 10000 5.1 170 19:19 06.10.2019
666 Clear 18 1008 88 10000 5.1 180 18:56 06.10.2019
667 Clear 18 1008 88 10000 5.1 180 18:38 06.10.2019
668 Clear 17 1008 88 10000 5.1 180 18:19 06.10.2019
669 Clear 17 1008 88 10000 5.1 180 18:19 06.10.2019
670 Clear 17 1008 88 10000 4.1 180 17:43 06.10.2019
671 Clear 17 1008 88 10000 4.1 180 17:20 06.10.2019
672 Clouds 17 1009 100 10000 2.1 330 16:58 06.10.2019
673 Clouds 18 1009 93 4600 2.3 258.817 16:40 06.10.2019
674 Clear 18 1008 88 10000 3.1 20 16:22 06.10.2019
675 Clear 18 1009 88 10000 2.3 258.817 15:45 06.10.2019
676 Clear 18 1009 88 10000 1.22 276.112 15:22 06.10.2019
677 Clear 18 1009 88 10000 2.6 30 14:58 06.10.2019
678 Clear 18 1009 88 10000 3.1 60 14:40 06.10.2019
679 Clear 18 1009 88 10000 3.1 60 14:22 06.10.2019
680 Clouds 19 1009 77 10000 3.6 40 13:55 06.10.2019
681 Clouds 19 1009 82 10000 3.1 210 13:37 06.10.2019
682 Clouds 19 1009 82 10000 3.1 210 13:19 06.10.2019
683 Clear 19 1009 82 10000 7.2 20 12:55 06.10.2019
684 Clear 20 1009 82 10000 7.2 20 12:37 06.10.2019
685 Clear 20 1009 82 10000 7.2 20 12:19 06.10.2019
686 Clear 20 1009 82 10000 7.7 30 11:43 06.10.2019
687 Clear 20 1009 82 10000 7.7 30 11:24 06.10.2019
688 Clear 20 1009 82 10000 7.7 30 11:24 06.10.2019
689 Clear 20 1009 82 10000 7.7 30 10:58 06.10.2019
690 Clear 21 1009 77 10000 8.7 40 10:39 06.10.2019
691 Clear 21 1009 77 10000 9.3 40 10:21 06.10.2019
692 Clear 22 1009 73 10000 9.3 40 09:42 06.10.2019
693 Clear 22 1009 73 10000 9.3 40 09:42 06.10.2019
694 Clear 24 1009 73 10000 9.3 40 09:21 06.10.2019
695 Clear 24 1009 73 10000 9.3 40 09:21 06.10.2019
696 Clear 25 1009 73 10000 9.8 40 08:59 06.10.2019
697 Clear 25 1009 68 10000 9.8 40 08:39 06.10.2019
698 Clear 25 1009 68 10000 9.8 30 08:19 06.10.2019
699 Clear 25 1010 64 10000 8.7 40 07:42 06.10.2019
700 Clear 24 1011 68 10000 9.3 30 07:18 06.10.2019
701 Rain 23 1012 68 10000 7.7 30 06:19 06.10.2019
702 Clear 23 1012 64 10000 9.3 30 05:27 06.10.2019
703 Clouds 21 1015 60 10000 8.2 20 03:23 06.10.2019
704 Clouds 20 1017 64 10000 8.2 30 02:40 06.10.2019
705 Clouds 20 1017 64 10000 8.2 30 02:40 06.10.2019
706 Clouds 20 1017 64 10000 8.2 30 02:19 06.10.2019
707 Clouds 18 1017 68 10000 6.2 20 01:38 06.10.2019
708 Clouds 18 1017 68 10000 6.2 20 01:20 06.10.2019
709 Clouds 17 1018 68 10000 5.1 10 00:45 06.10.2019
710 Clouds 17 1018 68 10000 5.1 10 00:24 06.10.2019
711 Clouds 16 1019 72 10000 3.6 330 23:44 05.10.2019
712 Clouds 15 1018 93 10000 3.1 70 23:22 05.10.2019
713 Clouds 15 1018 82 10000 5.1 350 22:58 05.10.2019
714 Clouds 15 1018 82 10000 4.6 340 22:39 05.10.2019
715 Clouds 15 1018 82 10000 4.6 340 22:20 05.10.2019
716 Clouds 15 1018 82 10000 4.1 360 22:20 05.10.2019
717 Clouds 15 1018 82 10000 4.1 360 21:56 05.10.2019
718 Clouds 14 1018 100 10000 2.1 350 21:37 05.10.2019
719 Clouds 15 1018 82 10000 4.6 350 21:18 05.10.2019
720 Clouds 15 1018 82 10000 4.6 350 20:55 05.10.2019
721 Clouds 15 1018 82 10000 4.6 350 20:36 05.10.2019
722 Clouds 15 1018 82 10000 4.6 350 20:18 05.10.2019
723 Clouds 15 1020 100 10000 1.5 30 19:37 05.10.2019
724 Clouds 15 1020 100 10000 1.5 30 19:19 05.10.2019
725 -273 0 0 0 0 0 18:55 05.10.2019
726 Clouds 15 1020 82 10000 4.1 350 18:37 05.10.2019
727 Clouds 15 1020 82 10000 4.1 350 18:19 05.10.2019
728 Clouds 15 1021 82 10000 4.1 330 17:43 05.10.2019
729 Clouds 15 1020 82 10000 4.1 350 17:23 05.10.2019
730 Clouds 16 1020 82 10000 4.1 350 16:57 05.10.2019
731 Clouds 16 1021 93 10000 2.3 16.384 16:39 05.10.2019
732 Clouds 16 1021 93 10000 2.3 16.384 16:20 05.10.2019
733 Clouds 16 1021 93 10000 2.3 16.384 16:20 05.10.2019
734 Clouds 16 1021 93 10000 2.3 16.384 15:56 05.10.2019
735 Clouds 16 1022 93 10000 2.3 16.384 15:38 05.10.2019
736 Clouds 16 1021 93 10000 1.61 18.875 15:19 05.10.2019
737 Clouds 16 1022 93 10000 1.61 18.875 14:43 05.10.2019
738 Clouds 16 1022 93 10000 1.61 18.875 14:24 05.10.2019
739 Clouds 16 1022 93 10000 1.61 18.875 13:58 05.10.2019
740 Clouds 16 1022 93 10000 2.1 290 13:40 05.10.2019
741 Clouds 16 1022 68 10000 3.1 30 13:19 05.10.2019
742 Clouds 16 1023 72 10000 3.1 50 12:43 05.10.2019
743 Clouds 16 1022 72 10000 3.6 50 12:19 05.10.2019
744 Clouds 16 1022 72 10000 3.6 50 11:44 05.10.2019
745 Clouds 16 1022 72 10000 2.6 50 11:23 05.10.2019
746 Clouds 17 1022 72 10000 3.6 80 10:59 05.10.2019
747 Clouds 17 1022 72 10000 3.6 90 10:40 05.10.2019
748 Clouds 17 1022 72 10000 3.6 90 10:21 05.10.2019
749 Clouds 17 1022 72 10000 4.1 120 09:56 05.10.2019
750 Clouds 17 1022 72 10000 4.1 60 09:37 05.10.2019
751 Clouds 17 1022 72 10000 4.1 60 09:19 05.10.2019
752 Clouds 18 1022 77 10000 4.6 170 08:39 05.10.2019
753 Clouds 18 1022 77 10000 4.6 170 08:19 05.10.2019
754 Clouds 18 1022 72 10000 5.1 180 07:52 05.10.2019
755 Rain 18 1022 77 10000 5.7 180 07:31 05.10.2019
756 Clouds 18 1022 77 10000 5.7 170 06:57 05.10.2019
757 Clouds 18 1022 77 10000 5.1 180 06:24 05.10.2019
758 Clouds 18 1023 72 10000 6.2 180 05:40 05.10.2019
759 Clouds 17 1023 82 10000 6.7 180 03:39 05.10.2019
760 Clouds 17 1023 82 10000 6.7 180 03:39 05.10.2019
761 Rain 16 1023 87 10000 5.7 190 03:21 05.10.2019
762 Rain 15 1024 93 7000 6.2 170 01:30 05.10.2019
763 Rain 15 1024 93 10000 6.2 170 00:58 05.10.2019
764 Rain 15 1024 100 10000 5.1 170 00:40 05.10.2019
765 Rain 15 1024 100 10000 5.1 170 00:22 05.10.2019
766 Rain 15 1023 93 9000 6.7 160 23:43 04.10.2019
767 Rain 15 1023 93 9000 6.7 160 23:43 04.10.2019
768 Rain 15 1023 93 9000 6.7 160 23:24 04.10.2019
769 Rain 16 1023 93 4000 5.7 180 22:58 04.10.2019
770 Rain 16 1022 93 10000 2.6 150 22:39 04.10.2019
771 Rain 15 1022 93 3000 5.1 210 22:19 04.10.2019
772 Rain 16 1022 93 3000 5.1 210 21:56 04.10.2019
773 Rain 16 1021 93 10000 3.1 150 21:38 04.10.2019
774 Rain 16 1021 93 10000 3.1 190 21:19 04.10.2019
775 Rain 16 1021 93 10000 3.1 190 20:54 04.10.2019
776 Rain 16 1021 93 10000 2.6 150 20:36 04.10.2019
777 Rain 16 1022 87 10000 4.6 190 20:18 04.10.2019
778 Rain 16 1022 88 10000 5.1 210 19:41 04.10.2019
779 Rain 16 1022 88 10000 5.1 210 19:23 04.10.2019
780 Rain 16 1021 82 10000 3.1 170 18:56 04.10.2019
781 Rain 16 1021 87 10000 2.1 250 18:37 04.10.2019
782 Rain 16 1021 82 10000 2.6 200 18:19 04.10.2019
783 Rain 16 1021 77 10000 2.6 130 17:42 04.10.2019
784 Rain 17 1021 77 10000 2.6 130 17:22 04.10.2019
785 Clouds 17 1021 77 10000 3.1 120 16:59 04.10.2019
786 Clouds 17 1022 77 10000 4.1 150 16:41 04.10.2019
787 Clouds 17 1022 77 10000 4.1 150 16:19 04.10.2019
788 Clouds 17 1022 77 10000 4.1 150 16:19 04.10.2019
789 Clouds 17 1022 77 10000 4.1 150 15:58 04.10.2019
790 Clouds 17 1022 72 10000 4.1 150 15:39 04.10.2019
791 Clouds 17 1022 72 10000 4.6 150 15:20 04.10.2019
792 Clouds 17 1022 72 10000 4.6 150 14:58 04.10.2019
793 Clouds 17 1021 72 10000 5.1 130 14:39 04.10.2019
794 Clouds 17 1021 72 10000 5.1 130 14:21 04.10.2019
795 Clouds 18 1021 72 10000 5.1 130 13:46 04.10.2019
796 Clouds 18 1021 72 10000 5.7 120 13:24 04.10.2019
797 Clouds 18 1022 72 10000 6.2 150 12:59 04.10.2019
798 Clouds 18 1021 72 10000 7.2 140 12:40 04.10.2019
799 Clouds 18 1021 72 10000 7.2 140 12:22 04.10.2019
800 Clouds 18 1020 77 10000 7.2 150 11:43 04.10.2019
801 Clouds 18 1020 77 10000 7.2 150 11:42 04.10.2019
802 Clouds 18 1020 77 10000 7.2 150 11:22 04.10.2019
803 Clouds 18 1020 72 10000 7.2 150 10:56 04.10.2019
804 Clouds 18 1019 72 10000 8.7 150 10:37 04.10.2019
805 Clouds 18 1018 72 10000 8.7 150 10:19 04.10.2019
806 Clouds 19 1018 77 10000 9.3 150 09:43 04.10.2019
807 Rain 19 1018 72 10000 10.3 150 09:25 04.10.2019
808 Rain 20 1017 72 10000 9.8 150 08:46 04.10.2019
809 Rain 21 1017 72 10000 9.8 150 08:27 04.10.2019
810 Clouds 21 1017 77 10000 10.3 160 07:56 04.10.2019
811 Clouds 22 1017 73 10000 10.3 160 07:37 04.10.2019
812 Clouds 22 1017 77 10000 10.3 170 07:18 04.10.2019
813 Clouds 24 1016 82 10000 11.3 170 06:40 04.10.2019
814 Clouds 26 1016 82 10000 11.3 170 06:21 04.10.2019
815 Clouds 33 1014 17 10000 7.7 240 05:22 04.10.2019
816 Clouds 33 1015 17 10000 7.2 270 04:53 04.10.2019
817 Clear 33 1016 15 10000 6.7 310 03:32 04.10.2019
818 Clear 31 1017 18 10000 6.7 320 02:45 04.10.2019
819 Clear 30 1017 22 10000 5.7 310 01:54 04.10.2019
820 Clear 28 1017 23 10000 5.1 320 01:27 04.10.2019
821 Clear 25 1018 33 10000 3.1 310 00:44 04.10.2019
822 Clear 21 1018 42 10000 2.1 300 23:41 03.10.2019
823 Clear 19 1018 42 10000 2.1 300 23:22 03.10.2019
824 Clear 19 1018 42 10000 2.1 300 23:22 03.10.2019
825 Clear 18 1018 48 10000 3.6 320 22:58 03.10.2019
826 Clear 18 1018 48 10000 3.6 320 22:40 03.10.2019
827 Clear 17 1018 48 10000 3.6 320 22:21 03.10.2019
828 Clear 17 1017 52 10000 3.6 330 21:59 03.10.2019
829 Clear 17 1017 55 10000 3.6 320 21:40 03.10.2019
830 Clear 16 1017 52 10000 2.6 320 21:21 03.10.2019
831 Clear 16 1017 52 10000 2.6 320 20:58 03.10.2019
832 Clear 16 1017 52 10000 3.6 300 20:40 03.10.2019
833 Clear 16 1017 52 10000 3.6 310 20:22 03.10.2019
834 Clear 16 1017 52 10000 3.6 310 19:59 03.10.2019
835 Clear 16 1017 52 10000 3.6 310 19:59 03.10.2019
836 Clear 16 1017 55 10000 3.1 300 19:40 03.10.2019
837 Clear 17 1017 55 10000 3.1 300 19:20 03.10.2019
838 Clear 17 1017 45 10000 3.6 310 18:57 03.10.2019
839 Clear 17 1017 45 10000 3.6 310 18:57 03.10.2019
840 Clear 17 1017 40 10000 3.1 320 18:38 03.10.2019
841 Clear 17 1017 40 10000 3.1 320 18:38 03.10.2019
842 Clear 17 1018 40 10000 3.1 330 18:19 03.10.2019
843 Clear 18 1018 40 10000 3.6 340 17:43 03.10.2019
844 Clear 18 1018 40 10000 3.6 340 17:23 03.10.2019
845 Clear 17 1018 37 10000 3.1 330 16:59 03.10.2019
846 Clear 17 1019 42 10000 2.6 350 16:40 03.10.2019
847 Clear 17 1019 42 10000 2.6 350 16:22 03.10.2019
848 -273 0 0 0 0 0 15:55 03.10.2019
849 Clear 20 1019 55 10000 2.31 278.806 15:37 03.10.2019
850 Clear 19 1019 35 10000 1.5 30 15:18 03.10.2019
851 Clear 20 1019 43 10000 1.5 50 14:39 03.10.2019
852 Clear 19 1019 43 10000 1.5 50 14:20 03.10.2019
853 Clear 20 1020 72 10000 1.84 333.268 13:56 03.10.2019
854 Clear 20 1020 72 10000 1.84 333.268 13:56 03.10.2019
855 Clear 21 1020 68 10000 1 200 13:38 03.10.2019
856 Clear 21 1020 68 10000 1 200 13:38 03.10.2019
857 Clear 21 1020 49 10000 1.86 328.092 13:19 03.10.2019
858 Clear 22 1020 49 10000 1.86 328.092 12:54 03.10.2019
859 Clear 22 1019 31 10000 2.6 10 12:36 03.10.2019
860 Clear 22 1019 31 10000 2.6 10 12:18 03.10.2019
861 Clear 23 1019 36 10000 5.1 30 11:40 03.10.2019
862 Clear 23 1019 36 10000 5.1 30 11:22 03.10.2019
863 Clear 23 1019 41 10000 6.2 30 10:58 03.10.2019
864 Clear 24 1019 38 10000 6.7 30 10:39 03.10.2019
865 Clear 25 1019 32 10000 7.7 30 10:18 03.10.2019
866 Clear 25 1019 32 10000 7.7 30 09:57 03.10.2019
867 Clear 25 1019 31 10000 8.2 30 09:38 03.10.2019
868 Clear 27 1019 31 10000 8.2 30 09:19 03.10.2019
869 Clear 27 1019 32 10000 7.7 40 08:43 03.10.2019
870 Clear 28 1019 32 10000 7.7 40 08:25 03.10.2019
871 Clear 28 1019 32 10000 9.3 50 07:56 03.10.2019
872 Clear 29 1019 26 10000 7.7 50 07:37 03.10.2019
873 Clear 29 1019 26 10000 7.7 50 07:37 03.10.2019
874 Clear 29 1019 25 10000 8.7 50 07:19 03.10.2019
875 Clear 29 1020 23 10000 8.2 40 06:45 03.10.2019
876 Clear 30 1020 22 10000 5.7 110 06:18 03.10.2019
877 Clear 30 1021 15 10000 4.1 60 05:38 03.10.2019
878 Clear 30 1022 17 10000 3.1 350 04:50 03.10.2019
879 Clear 30 1022 17 10000 3.1 350 04:25 03.10.2019
880 Clear 28 1023 23 10000 2.1 280 03:21 03.10.2019
881 Clear 26 1024 27 10000 2.6 310 02:33 03.10.2019
882 Clear 24 1024 40 10000 3.1 280 01:51 03.10.2019
883 Clear 24 1024 40 10000 3.1 280 01:32 03.10.2019
884 Clear 20 1024 52 10000 3.1 320 00:47 03.10.2019
885 Clear 18 1024 59 10000 3.1 300 00:18 03.10.2019
886 Clear 16 1024 67 10000 4.1 300 23:43 02.10.2019
887 Clear 15 1024 67 10000 4.1 300 23:21 02.10.2019
888 Clear 14 1024 77 10000 3.6 340 22:44 02.10.2019
889 Clear 14 1024 77 10000 3.6 340 22:44 02.10.2019
890 Clear 13 1023 72 10000 3.1 330 22:21 02.10.2019
891 Clear 13 1023 72 10000 3.1 330 21:56 02.10.2019
892 Clear 13 1023 72 10000 3.1 330 21:56 02.10.2019
893 Clear 12 1023 82 10000 2.6 310 21:38 02.10.2019
894 Clear 12 1023 82 10000 2.1 300 21:20 02.10.2019
895 Clear 12 1023 82 10000 2.1 300 20:57 02.10.2019
896 Clear 12 1023 77 10000 3.1 310 20:38 02.10.2019
897 Clear 12 1023 77 10000 3.1 310 20:20 02.10.2019
898 Clear 12 1023 77 10000 3.1 310 20:20 02.10.2019
899 Clear 13 1023 82 10000 2.6 340 19:55 02.10.2019
900 Clear 13 1023 82 10000 2.6 340 19:55 02.10.2019
901 Clear 13 1023 82 10000 2.6 340 19:55 02.10.2019
902 Clear 13 1023 77 10000 3.1 310 19:36 02.10.2019
903 Clear 13 1023 77 10000 3.1 310 19:36 02.10.2019
904 Clear 13 1023 77 10000 2.6 310 19:18 02.10.2019
905 Clear 13 1023 77 10000 2.6 310 18:56 02.10.2019
906 Clear 13 1023 72 10000 2.6 280 18:37 02.10.2019
907 Clear 13 1024 93 10000 2.03 274.047 18:19 02.10.2019
908 Clear 13 1024 72 10000 2.03 274.047 17:42 02.10.2019
909 Clear 13 1024 87 10000 2.03 274.047 17:21 02.10.2019
910 Clear 13 1024 87 10000 2.03 274.047 16:59 02.10.2019
911 Clear 14 1024 72 10000 1.5 10 16:41 02.10.2019
912 Clear 14 1024 82 10000 2.03 274.047 16:21 02.10.2019
913 Clear 14 1024 82 10000 2.03 274.047 15:57 02.10.2019
914 Clear 15 1024 77 10000 2.03 274.047 15:38 02.10.2019
915 Clear 15 1025 72 10000 4.6 40 15:18 02.10.2019
916 Clear 15 1025 72 10000 4.6 40 14:55 02.10.2019
917 Clear 16 1025 72 10000 3.1 40 14:37 02.10.2019
918 Clear 16 1025 72 10000 3.1 40 14:37 02.10.2019
919 Clear 16 1025 68 10000 3.6 20 14:18 02.10.2019
920 Clear 17 1024 63 10000 1 350 13:42 02.10.2019
921 Clear 17 1025 68 10000 3.1 30 13:23 02.10.2019
922 Clear 18 1024 64 10000 2.6 30 12:56 02.10.2019
923 Clear 18 1024 64 10000 2.6 30 12:37 02.10.2019
924 Clear 18 1024 64 10000 2.6 30 12:37 02.10.2019
925 Clear 19 1024 60 10000 4.6 30 12:18 02.10.2019
926 Clear 19 1024 60 10000 7.2 30 11:43 02.10.2019
927 Clear 20 1024 60 10000 7.2 30 11:22 02.10.2019
928 Clear 20 1023 56 10000 7.7 40 10:41 02.10.2019
929 Clear 21 1023 56 10000 7.7 40 10:20 02.10.2019
930 Clear 21 1023 60 10000 7.7 40 09:57 02.10.2019
931 Clear 21 1023 56 10000 9.8 40 09:36 02.10.2019
932 Clear 23 1023 53 10000 9.8 40 09:18 02.10.2019
933 Clear 24 1023 49 10000 7.7 40 08:42 02.10.2019
934 Clear 25 1023 49 10000 7.7 40 08:22 02.10.2019
935 Clear 25 1023 47 10000 9.8 30 07:56 02.10.2019
936 Clear 25 1023 53 10000 8.7 50 07:37 02.10.2019
937 Clear 26 1023 49 10000 8.2 50 07:19 02.10.2019
938 Clear 26 1023 49 10000 8.2 50 07:19 02.10.2019
939 Clear 26 1024 50 10000 7.7 50 06:31 02.10.2019
940 Clear 26 1025 47 10000 7.2 40 05:52 02.10.2019
941 Clear 26 1025 47 10000 7.2 40 05:23 02.10.2019
942 Clear 26 1026 49 10000 4.6 30 04:43 02.10.2019
943 Clear 25 1026 49 10000 4.1 20 03:51 02.10.2019
944 Clear 22 1028 46 10000 3.6 10 02:39 02.10.2019
945 Clear 22 1028 46 10000 3.6 10 02:21 02.10.2019
946 Clear 19 1029 56 10000 2.6 300 01:21 02.10.2019
947 Clear 18 1029 67 10000 3.6 320 00:43 02.10.2019
948 Clear 16 1028 72 10000 3.1 320 00:23 02.10.2019
949 Clear 14 1028 76 10000 3.6 320 23:42 01.10.2019
950 Clear 13 1028 76 10000 3.6 320 23:24 01.10.2019
951 Clear 12 1028 82 10000 4.6 310 22:58 01.10.2019
952 Clear 11 1028 82 10000 4.1 320 22:39 01.10.2019
953 Clear 10 1028 82 10000 3.1 330 22:19 01.10.2019
954 -273 0 0 0 0 0 21:55 01.10.2019
955 Clear 10 1027 82 10000 3.1 350 21:37 01.10.2019
956 Rain 10 1027 82 10000 2.6 350 21:18 01.10.2019
957 Rain 10 1027 82 10000 2.6 350 20:54 01.10.2019
958 Rain 10 1027 82 10000 2.6 340 20:36 01.10.2019
959 Clear 10 1027 100 6000 1.64 300.545 20:18 01.10.2019
960 Clear 10 1027 87 10000 3.1 320 19:44 01.10.2019
961 Clear 10 1027 87 10000 3.1 320 19:26 01.10.2019
962 Clear 10 1027 82 10000 1.64 300.545 18:59 01.10.2019
963 Clear 11 1028 82 10000 0.5 10 18:39 01.10.2019
964 Clear 10 1028 82 10000 0.5 10 18:39 01.10.2019
965 Clear 11 1028 82 10000 0.5 10 18:39 01.10.2019
966 Clear 11 1028 93 10000 1 10 18:21 01.10.2019
967 Clear 13 1028 77 10000 2.1 340 17:57 01.10.2019
968 Clear 13 1029 77 10000 3.1 310 17:38 01.10.2019
969 Clear 11 1029 100 10000 2.2 326.353 17:19 01.10.2019
970 Clear 12 1029 77 10000 3.6 310 16:57 01.10.2019
971 Clear 12 1029 77 10000 3.6 310 16:57 01.10.2019
972 Clear 12 1029 77 10000 3.6 320 16:39 01.10.2019
973 Clear 12 1029 100 10000 2.2 326.353 16:20 01.10.2019
974 Clear 13 1029 77 10000 4.1 340 15:42 01.10.2019
975 Clear 13 1030 87 10000 1.5 30 15:21 01.10.2019
976 Clear 13 1029 82 10000 3.1 70 14:41 01.10.2019
977 Clear 14 1029 82 10000 3.1 70 14:20 01.10.2019
978 Clear 14 1030 82 10000 2.6 70 13:57 01.10.2019
979 Clear 14 1029 76 10000 2.6 60 13:39 01.10.2019
980 Clear 14 1029 76 10000 2.6 60 13:20 01.10.2019
981 Clear 14 1029 76 10000 2.6 60 13:20 01.10.2019
982 Clear 14 1029 76 10000 2.6 60 13:20 01.10.2019
983 Clear 15 1029 77 10000 2.6 70 12:57 01.10.2019
984 Clear 15 1029 77 10000 2.6 80 12:39 01.10.2019
985 Clear 15 1029 77 10000 2.6 80 12:39 01.10.2019
986 Clear 16 1029 72 10000 2.6 70 12:18 01.10.2019
987 Clear 16 1029 72 10000 2.6 70 11:57 01.10.2019
988 Clear 16 1028 72 10000 3.1 70 11:38 01.10.2019
989 Clear 16 1028 59 10000 6.7 40 11:18 01.10.2019
990 Clear 16 1028 59 10000 7.2 40 10:49 01.10.2019
991 Clear 17 1028 59 10000 7.2 40 10:29 01.10.2019
992 Clear 17 1028 55 10000 8.7 40 09:49 01.10.2019
993 Clear 18 1028 55 10000 8.7 40 09:31 01.10.2019
994 Clear 19 1028 52 10000 6.7 40 08:57 01.10.2019
995 Clear 19 1028 52 10000 7.7 40 08:39 01.10.2019
996 Clear 20 1028 52 10000 7.7 40 08:21 01.10.2019
997 Clouds 20 1028 48 10000 7.2 30 07:43 01.10.2019
998 Clouds 20 1028 49 10000 7.7 40 07:24 01.10.2019
999 Clouds 21 1028 49 10000 6.2 30 06:47 01.10.2019
1000 Clouds 20 1029 49 10000 5.7 50 06:18 01.10.2019
1001 Clouds 20 1029 49 10000 5.7 50 06:18 01.10.2019
1002 Clouds 20 1029 49 10000 6.2 30 05:46 01.10.2019
1003 Clouds 20 1030 52 10000 5.1 20 05:18 01.10.2019
1004 Clouds 19 1030 55 10000 3.6 50 04:27 01.10.2019
1005 Rain 17 1031 67 10000 2.1 160 02:26 01.10.2019
1006 Clouds 18 1031 72 10000 4.1 70 01:58 01.10.2019
1007 Rain 16 1031 87 10000 1.81 58.042 00:53 01.10.2019
1008 Rain 15 1031 87 10000 1.14 104.376 00:28 01.10.2019
1009 Rain 15 1031 82 10000 2.6 360 23:56 30.09.2019
1010 Rain 14 1031 77 10000 3.6 50 23:38 30.09.2019
1011 Rain 13 1030 87 10000 5.1 180 23:19 30.09.2019
1012 Rain 12 1030 100 10000 1.14 104.376 22:43 30.09.2019
1013 Rain 11 1030 93 10000 1.14 104.376 22:24 30.09.2019
1014 Rain 11 1030 93 10000 1.14 104.376 21:57 30.09.2019
1015 Rain 11 1030 93 10000 1.14 104.376 21:38 30.09.2019
1016 Rain 11 1030 81 10000 0.5 240 21:19 30.09.2019
1017 Rain 11 1030 81 10000 0.5 240 20:57 30.09.2019
1018 Rain 11 1029 81 10000 1.5 240 20:39 30.09.2019
1019 Rain 11 1029 81 10000 1.5 240 20:20 30.09.2019
1020 Clouds 12 1029 82 10000 3.6 220 19:56 30.09.2019
1021 Clouds 12 1029 82 10000 3.1 240 19:38 30.09.2019
1022 Clear 12 1029 82 10000 3.6 210 19:19 30.09.2019
1023 Clear 13 1029 76 10000 4.6 230 18:57 30.09.2019
1024 Clear 13 1029 76 10000 4.6 230 18:37 30.09.2019
1025 Clear 13 1029 72 10000 4.1 230 18:19 30.09.2019
1026 Clear 14 1029 72 10000 3.1 170 17:43 30.09.2019
1027 Clear 14 1029 72 10000 3.1 170 17:23 30.09.2019
1028 Clouds 14 1029 77 10000 5.1 150 16:57 30.09.2019
1029 Clouds 14 1029 77 10000 5.1 150 16:39 30.09.2019
1030 Rain 14 1029 76 10000 2.6 240 16:19 30.09.2019
1031 Rain 14 1029 76 10000 2.6 240 16:19 30.09.2019
1032 Clouds 14 1029 67 10000 4.6 160 15:58 30.09.2019
1033 Clouds 15 1029 72 10000 6.2 180 15:38 30.09.2019
1034 Clouds 15 1029 72 10000 6.2 170 15:19 30.09.2019
1035 Clouds 15 1029 72 10000 6.2 170 14:57 30.09.2019
1036 Clouds 15 1029 72 10000 6.7 170 14:37 30.09.2019
1037 Clouds 15 1029 67 10000 5.7 170 14:19 30.09.2019
1038 Clouds 15 1029 67 10000 5.7 170 13:57 30.09.2019
1039 Clouds 15 1028 67 10000 6.2 170 13:38 30.09.2019
1040 Clouds 15 1028 67 10000 6.7 170 13:20 30.09.2019
1041 Clouds 15 1028 67 10000 6.2 170 12:43 30.09.2019
1042 Clouds 15 1028 67 10000 6.2 170 12:22 30.09.2019
1043 -273 0 0 0 0 0 11:57 30.09.2019
1044 Clouds 15 1027 67 10000 5.7 170 11:57 30.09.2019
1045 Clouds 15 1027 67 10000 5.7 170 11:38 30.09.2019
1046 Clouds 15 1027 67 10000 5.7 170 11:19 30.09.2019
1047 Clouds 15 1026 67 10000 6.7 170 10:41 30.09.2019
1048 Clouds 15 1026 67 10000 7.2 170 10:20 30.09.2019
1049 Clouds 15 1026 67 10000 7.2 170 09:59 30.09.2019
1050 Clouds 15 1026 63 10000 7.2 170 09:40 30.09.2019
1051 Clouds 15 1026 63 10000 7.2 170 09:40 30.09.2019
1052 Clouds 15 1026 63 10000 7.2 170 09:21 30.09.2019
1053 Clouds 16 1025 59 10000 7.2 160 08:51 30.09.2019
1054 Clouds 16 1025 59 10000 7.7 160 08:33 30.09.2019
1055 Clouds 16 1025 63 10000 8.7 170 07:47 30.09.2019
1056 Clouds 16 1025 63 10000 8.7 160 07:28 30.09.2019
1057 Rain 16 1025 67 10000 8.2 150 06:59 30.09.2019
1058 Rain 16 1025 67 10000 8.2 150 06:41 30.09.2019
1059 Rain 15 1025 82 10000 8.2 160 05:51 30.09.2019
1060 Rain 15 1025 82 10000 8.2 160 05:51 30.09.2019
1061 Rain 15 1025 82 10000 8.2 160 05:33 30.09.2019
1062 Clouds 18 1024 72 10000 4.1 130 02:49 30.09.2019
1063 Rain 17 1024 82 10000 3.1 140 01:50 30.09.2019
1064 Rain 17 1024 82 10000 3.1 110 00:57 30.09.2019
1065 Rain 16 1023 82 10000 3.1 160 00:37 30.09.2019
1066 Rain 16 1023 87 10000 3.1 220 00:18 30.09.2019
1067 Rain 14 1022 87 10000 3.1 240 23:40 29.09.2019
1068 Rain 14 1022 87 10000 3.1 240 23:20 29.09.2019
1069 Rain 13 1022 87 10000 2.6 230 22:44 29.09.2019
1070 Rain 12 1022 87 10000 2.6 230 22:25 29.09.2019
1071 Rain 12 1022 87 10000 2.6 230 22:25 29.09.2019
1072 Rain 12 1022 87 10000 2.6 230 22:25 29.09.2019
1073 Rain 12 1021 93 10000 2.6 220 21:59 29.09.2019
1074 Clouds 12 1021 87 10000 2.51 126.496 21:39 29.09.2019
1075 Clouds 12 1021 87 10000 1 110 21:20 29.09.2019
1076 Clouds 12 1021 87 10000 1 110 20:59 29.09.2019
1077 Clouds 13 1021 87 10000 3.1 110 20:41 29.09.2019
1078 Clouds 13 1021 87 10000 3.6 110 20:19 29.09.2019
1079 -273 0 0 0 0 0 19:56 29.09.2019
1080 -273 0 0 0 0 0 19:55 29.09.2019
1081 Clouds 13 1021 87 10000 2.6 110 19:36 29.09.2019
1082 Clouds 13 1021 87 10000 3.6 110 19:18 29.09.2019
1083 Clouds 13 1021 87 10000 3.6 110 18:55 29.09.2019
1084 Clear 13 1021 87 10000 4.1 120 18:36 29.09.2019
1085 Clear 13 1021 87 10000 4.1 130 18:18 29.09.2019
1086 Rain 14 1021 87 10000 4.1 150 17:55 29.09.2019
1087 Rain 13 1021 87 10000 4.1 150 17:36 29.09.2019
1088 Rain 14 1021 93 10000 4.6 120 17:18 29.09.2019
1089 Rain 14 1021 93 10000 4.6 120 16:54 29.09.2019
1090 Rain 14 1022 87 8000 4.1 240 16:36 29.09.2019
1091 Rain 15 1022 82 10000 2.6 220 16:18 29.09.2019
1092 Rain 15 1021 63 10000 0.5 110 16:18 29.09.2019
1093 Clouds 15 1022 67 10000 2.6 120 15:41 29.09.2019
1094 Clear 15 1021 63 10000 3.1 120 15:19 29.09.2019
1095 Clear 16 1021 63 10000 3.1 120 14:59 29.09.2019
1096 Clouds 15 1021 67 10000 3.6 150 14:39 29.09.2019
1097 Clouds 15 1021 63 10000 3.6 140 14:20 29.09.2019
1098 Clouds 15 1021 63 10000 3.6 140 13:57 29.09.2019
1099 Clouds 15 1020 63 10000 4.1 130 13:38 29.09.2019
1100 Clouds 16 1020 63 10000 4.1 130 13:18 29.09.2019
1101 Clouds 16 1020 63 10000 4.6 130 12:57 29.09.2019
1102 Clouds 16 1020 63 10000 4.6 130 12:39 29.09.2019
1103 Clouds 16 1020 63 10000 5.1 130 12:21 29.09.2019
1104 Clouds 16 1020 63 10000 5.1 130 11:55 29.09.2019
1105 Clear 16 1018 67 10000 4.1 140 11:37 29.09.2019
1106 Clouds 16 1018 63 10000 5.1 130 11:18 29.09.2019
1107 Clear 17 1018 63 10000 5.7 110 10:55 29.09.2019
1108 Clear 17 1018 63 10000 5.7 110 10:36 29.09.2019
1109 Clouds 17 1017 59 10000 5.1 130 10:18 29.09.2019
1110 Clouds 17 1017 59 10000 5.1 130 09:42 29.09.2019
1111 Clouds 18 1017 59 10000 5.1 130 09:20 29.09.2019
1112 Clouds 19 1016 56 10000 6.2 100 08:57 29.09.2019
1113 Clear 19 1016 52 10000 8.7 60 08:37 29.09.2019
1114 Clear 20 1015 49 10000 8.7 60 08:18 29.09.2019
1115 Clear 20 1015 52 10000 8.7 60 07:41 29.09.2019
1116 Clear 21 1015 52 10000 8.7 60 07:23 29.09.2019
1117 Clear 22 1015 49 10000 6.7 60 06:42 29.09.2019
1118 Clear 22 1017 46 10000 5.1 90 04:57 29.09.2019
1119 Clear 21 1017 32 10000 4.1 80 04:25 29.09.2019
1120 Clear 21 1017 32 10000 4.1 80 03:55 29.09.2019
1121 Clouds 19 1018 48 10000 2.6 300 02:40 29.09.2019
1122 Clouds 18 1019 52 10000 1.5 290 02:18 29.09.2019
1123 Clouds 17 1018 55 10000 1 300 01:30 29.09.2019
1124 Clouds 16 1019 59 10000 3.1 310 00:47 29.09.2019
1125 Clouds 15 1019 62 10000 3.1 310 00:20 29.09.2019
1126 Clouds 13 1019 66 10000 2.6 330 23:42 28.09.2019
1127 Clouds 12 1019 66 10000 2.6 330 23:22 28.09.2019
1128 Clouds 11 1019 71 10000 3.6 300 22:57 28.09.2019
1129 Clouds 10 1018 76 10000 3.6 330 22:38 28.09.2019
1130 Clouds 10 1018 76 10000 2.6 340 22:20 28.09.2019
1131 Clouds 9 1018 76 10000 2.6 340 21:56 28.09.2019
1132 Clouds 10 1018 71 10000 2.1 310 21:37 28.09.2019
1133 Clouds 10 1018 76 10000 2.6 300 21:19 28.09.2019
1134 Clouds 10 1018 76 10000 2.6 300 20:57 28.09.2019
1135 Clouds 11 1018 71 10000 3.1 270 20:38 28.09.2019
1136 Clouds 11 1018 71 10000 5.1 260 20:18 28.09.2019
1137 Clouds 11 1018 71 10000 5.1 260 19:55 28.09.2019
1138 Clouds 12 1018 71 10000 4.6 260 19:36 28.09.2019
1139 Clouds 12 1018 71 10000 4.6 260 19:18 28.09.2019
1140 Clouds 12 1018 71 10000 5.1 290 18:42 28.09.2019
1141 Clouds 12 1019 76 10000 4.1 290 18:22 28.09.2019
1142 Clouds 12 1019 76 10000 4.1 290 17:59 28.09.2019
1143 Clouds 12 1019 71 10000 4.1 290 17:40 28.09.2019
1144 -273 0 0 0 0 0 17:21 28.09.2019
1145 Clouds 12 1019 67 10000 3.1 260 16:55 28.09.2019
1146 Clouds 12 1019 71 10000 3.6 280 16:37 28.09.2019
1147 Clouds 12 1019 71 10000 3.6 280 16:18 28.09.2019
1148 Clouds 13 1019 72 10000 5.7 170 15:40 28.09.2019
1149 Clouds 13 1019 72 10000 5.7 170 15:22 28.09.2019
1150 Clouds 13 1019 72 10000 7.2 170 14:55 28.09.2019
1151 Clouds 13 1019 72 10000 7.2 170 14:55 28.09.2019
1152 Clouds 13 1019 72 10000 7.2 170 14:37 28.09.2019
1153 Clouds 13 1019 72 10000 9.8 180 14:19 28.09.2019
1154 Clouds 13 1019 77 10000 8.7 170 13:43 28.09.2019
1155 Clouds 14 1019 72 10000 9.3 170 13:20 28.09.2019
1156 Clouds 14 1019 72 10000 9.3 170 13:20 28.09.2019
1157 Clouds 14 1019 72 10000 9.3 170 12:58 28.09.2019
1158 Clouds 14 1019 72 10000 8.7 180 12:39 28.09.2019
1159 Clouds 14 1019 67 10000 8.7 170 12:18 28.09.2019
1160 Clouds 15 1018 67 10000 8.2 170 11:42 28.09.2019
1161 Clouds 15 1018 67 10000 9.3 180 11:21 28.09.2019
1162 Clouds 15 1018 59 10000 8.2 170 10:59 28.09.2019
1163 Clouds 15 1018 59 10000 8.2 170 10:39 28.09.2019
1164 Clouds 16 1017 59 10000 7.7 170 10:19 28.09.2019
1165 Clear 16 1017 55 10000 9.8 170 09:41 28.09.2019
1166 Clear 17 1017 55 10000 9.8 170 09:22 28.09.2019
1167 Rain 18 1016 51 10000 8.2 160 08:55 28.09.2019
1168 Rain 18 1016 48 10000 8.7 160 08:37 28.09.2019
1169 Rain 18 1016 48 10000 9.3 150 08:18 28.09.2019
1170 Rain 19 1016 45 10000 8.7 160 07:43 28.09.2019
1171 Rain 19 1016 45 10000 8.7 150 07:19 28.09.2019
1172 Rain 19 1016 45 10000 8.7 150 06:52 28.09.2019
1173 Rain 19 1016 42 10000 8.2 160 06:30 28.09.2019
1174 Rain 20 1016 52 10000 8.7 170 05:43 28.09.2019
1175 Clouds 20 1015 36 10000 3.6 150 05:20 28.09.2019
1176 Clear 21 1016 59 10000 6.7 160 04:38 28.09.2019
1177 Clear 20 1016 59 10000 6.7 160 03:49 28.09.2019
1178 Clouds 20 1016 59 10000 6.7 160 03:21 28.09.2019
1179 Clouds 19 1016 59 10000 6.2 180 02:44 28.09.2019
1180 Clouds 19 1016 63 10000 6.2 170 02:26 28.09.2019
1181 Clouds 18 1016 55 10000 3.6 190 01:47 28.09.2019
1182 Clouds 18 1016 67 10000 6.7 190 01:26 28.09.2019
1183 Clouds 17 1016 72 10000 7.7 170 00:52 28.09.2019
1184 Clouds 16 1016 72 10000 7.7 170 00:31 28.09.2019
1185 Clouds 16 1016 72 10000 9.3 170 23:58 27.09.2019
1186 Clouds 15 1015 72 10000 9.8 180 23:36 27.09.2019
1187 Clouds 15 1015 72 10000 9.8 180 23:18 27.09.2019
1188 Clouds 15 1015 77 10000 10.3 180 22:44 27.09.2019
1189 Clouds 14 1015 77 10000 10.3 180 22:19 27.09.2019
1190 Clouds 14 1014 77 10000 12.3 170 21:56 27.09.2019
1191 Clouds 14 1013 82 10000 11.8 180 21:37 27.09.2019
1192 Clouds 15 1013 82 10000 11.3 190 21:18 27.09.2019
1193 Clouds 15 1013 82 10000 11.3 190 20:55 27.09.2019
1194 Clouds 15 1012 63 10000 9.3 190 20:37 27.09.2019
1195 Clouds 16 1011 31 10000 10.3 180 20:18 27.09.2019
1196 Clear 15 1012 31 10000 4.1 340 19:43 27.09.2019
1197 Clouds 16 1012 31 10000 10.3 180 19:23 27.09.2019
1198 Clouds 16 1012 34 10000 10.3 180 18:58 27.09.2019
1199 Clouds 16 1012 34 10000 10.3 180 18:39 27.09.2019
1200 Clouds 17 1013 29 10000 10.3 180 18:20 27.09.2019
1201 Clouds 17 1013 29 10000 10.3 180 18:20 27.09.2019
1202 Clouds 17 1013 29 10000 10.3 180 17:55 27.09.2019
1203 Clouds 17 1013 29 10000 10.3 180 17:36 27.09.2019
1204 Clear 17 1013 29 10000 4.1 360 17:18 27.09.2019
1205 Clear 18 1013 29 10000 4.1 360 16:54 27.09.2019
1206 Clear 18 1013 32 10000 4.1 360 16:36 27.09.2019
1207 Clear 18 1014 30 10000 4.1 360 16:18 27.09.2019
1208 Clear 18 1014 30 10000 4.6 360 15:43 27.09.2019
1209 Clear 17 1014 28 10000 4.6 360 15:20 27.09.2019
1210 Clear 18 1014 28 10000 4.6 360 14:56 27.09.2019
1211 Clouds 18 1015 34 10000 3.1 10 14:38 27.09.2019
1212 Clouds 18 1015 36 10000 2.1 20 14:18 27.09.2019
1213 Clouds 17 1015 36 10000 2.1 20 13:57 27.09.2019
1214 Clouds 18 1015 34 10000 2.6 10 13:38 27.09.2019
1215 Clouds 18 1015 34 10000 2.6 340 13:19 27.09.2019
1216 Clouds 19 1015 30 10000 2.6 340 12:44 27.09.2019
1217 Clear 20 1015 26 10000 2.1 290 12:22 27.09.2019
1218 Clear 20 1015 32 10000 2.6 240 11:57 27.09.2019
1219 Clear 20 1015 43 10000 5.1 290 11:37 27.09.2019
1220 Clear 21 1014 64 10000 5.1 290 11:19 27.09.2019
1221 Clear 20 1014 40 10000 5.1 290 10:42 27.09.2019
1222 Clear 21 1013 46 10000 2.6 50 10:21 27.09.2019
1223 Clear 22 1013 46 10000 2.6 50 09:56 27.09.2019
1224 Clear 22 1013 46 10000 3.1 50 09:38 27.09.2019
1225 Clear 23 1013 46 10000 3.1 50 09:18 27.09.2019
1226 Clear 24 1013 44 10000 5.1 40 08:41 27.09.2019
1227 Clear 24 1013 36 10000 5.7 90 08:21 27.09.2019
1228 Clear 24 1013 36 10000 5.7 90 08:21 27.09.2019
1229 Clear 25 1013 21 10000 5.1 40 07:49 27.09.2019
1230 Clear 25 1013 19 10000 5.1 40 07:26 27.09.2019
1231 Clear 25 1014 20 10000 3.6 90 06:46 27.09.2019
1232 Clear 25 1014 19 10000 5.1 290 06:28 27.09.2019
1233 Clear 25 1014 19 10000 5.1 290 05:54 27.09.2019
1234 Clear 25 1015 20 10000 5.1 290 05:34 27.09.2019
1235 Clear 25 1015 22 10000 5.1 300 04:52 27.09.2019
1236 Clear 23 1017 27 10000 4.1 270 03:38 27.09.2019
1237 Clear 20 1019 56 10000 2.6 290 01:56 27.09.2019
1238 Clear 19 1019 60 10000 3.1 290 01:31 27.09.2019
1239 Clear 17 1019 72 10000 4.1 310 00:41 27.09.2019
1240 Rain 16 1019 77 10000 3.6 320 23:57 26.09.2019
1241 Rain 15 1020 82 10000 3.6 330 23:39 26.09.2019
1242 Rain 13 1020 82 10000 3.1 320 23:20 26.09.2019
1243 Rain 13 1020 82 10000 3.1 320 22:58 26.09.2019
1244 Clear 13 1020 87 10000 3.1 330 22:40 26.09.2019
1245 Clear 12 1019 87 10000 2.6 330 22:18 26.09.2019
1246 Clear 12 1019 87 10000 2.6 330 21:59 26.09.2019
1247 Clear 12 1019 87 10000 2.12 284.888 21:38 26.09.2019
1248 Clear 12 1019 87 10000 1.84 265.065 21:19 26.09.2019
1249 Clear 12 1019 87 10000 1.73 268.41 20:59 26.09.2019
1250 Clear 12 1019 87 10000 2.6 270 20:59 26.09.2019
1251 Clouds 12 1020 100 100 0.5 20 20:40 26.09.2019
1252 Clouds 12 1020 100 100 0.5 20 20:21 26.09.2019
1253 Clear 12 1020 87 10000 2.6 260 19:59 26.09.2019
1254 Clear 13 1020 87 10000 2.1 290 19:40 26.09.2019
1255 Clouds 13 1020 100 6000 1.73 268.41 19:18 26.09.2019
1256 Clouds 13 1020 82 10000 2.6 280 18:56 26.09.2019
1257 Clouds 14 1020 82 10000 2.6 280 18:37 26.09.2019
1258 Clouds 14 1021 82 10000 2.1 310 18:18 26.09.2019
1259 Clouds 14 1021 82 10000 1.75 244.977 17:38 26.09.2019
1260 Clouds 14 1021 82 10000 1.75 244.977 17:38 26.09.2019
1261 Rain 15 1021 82 10000 2.6 300 17:19 26.09.2019
1262 Rain 15 1021 82 10000 2.6 300 16:57 26.09.2019
1263 Rain 15 1022 82 10000 3.1 270 16:39 26.09.2019
1264 Clouds 16 1022 87 10000 1.75 244.977 16:20 26.09.2019
1265 Rain 16 1022 77 10000 3.1 350 15:56 26.09.2019
1266 Rain 16 1022 77 10000 3.1 350 15:37 26.09.2019
1267 Rain 16 1022 77 10000 3.1 350 15:18 26.09.2019
1268 Clouds 16 1022 82 10000 1.5 80 14:41 26.09.2019
1269 Clouds 16 1022 82 10000 1.5 80 14:23 26.09.2019
1270 Clouds 17 1022 72 10000 4.1 20 13:58 26.09.2019
1271 Clouds 17 1022 87 10000 1 30 13:40 26.09.2019
1272 Clouds 17 1022 72 10000 4.6 40 13:19 26.09.2019
1273 Clouds 17 1022 72 10000 4.6 40 12:56 26.09.2019
1274 Clouds 17 1022 72 10000 5.7 50 12:38 26.09.2019
1275 Clouds 17 1022 72 10000 4.6 40 12:19 26.09.2019
1276 Clouds 17 1022 72 10000 5.7 50 11:42 26.09.2019
1277 Clouds 17 1022 72 10000 5.7 50 11:21 26.09.2019
1278 Clouds 17 1022 72 10000 8.2 50 10:55 26.09.2019
1279 Clouds 17 1022 72 10000 8.2 50 10:37 26.09.2019
1280 Clouds 17 1022 72 10000 7.7 60 10:19 26.09.2019
1281 Clouds 17 1022 72 10000 7.7 60 10:19 26.09.2019
1282 Clouds 18 1022 63 10000 9.3 50 09:43 26.09.2019
1283 Clouds 18 1022 63 10000 9.3 50 09:25 26.09.2019
1284 Clouds 19 1021 68 10000 8.7 60 08:56 26.09.2019
1285 Clouds 19 1021 60 10000 9.3 60 08:38 26.09.2019
1286 Clouds 19 1022 56 10000 9.3 50 08:19 26.09.2019
1287 Clouds 19 1022 60 10000 9.3 70 07:41 26.09.2019
1288 Clouds 20 1022 60 10000 7.7 60 07:20 26.09.2019
1289 Clouds 20 1022 56 10000 7.7 50 06:43 26.09.2019
1290 Clouds 21 1023 60 10000 7.7 60 06:25 26.09.2019
1291 Clouds 21 1022 56 10000 7.7 50 06:25 26.09.2019
1292 Clouds 21 1023 59 10000 7.7 60 05:44 26.09.2019
1293 Clouds 21 1023 59 10000 7.7 60 05:24 26.09.2019
1294 Clouds 19 1026 52 10000 2.6 80 02:51 26.09.2019
1295 Clouds 18 1026 63 10000 1 250 01:53 26.09.2019
1296 Clouds 18 1026 63 10000 1 250 01:53 26.09.2019
1297 Clouds 18 1026 63 10000 1 250 01:28 26.09.2019
1298 Clouds 17 1027 63 10000 2.1 290 00:56 26.09.2019
1299 Clouds 16 1027 63 10000 2.1 290 00:37 26.09.2019
1300 Clouds 15 1027 72 10000 2.6 320 23:58 25.09.2019
1301 Clouds 14 1027 77 10000 2.1 330 23:39 25.09.2019
1302 Clouds 13 1026 76 10000 3.1 340 23:18 25.09.2019
1303 Clouds 12 1026 82 10000 2.6 350 22:42 25.09.2019
1304 Clouds 12 1026 82 10000 0.5 330 22:21 25.09.2019
1305 Clouds 11 1026 82 10000 0.5 330 21:57 25.09.2019
1306 Clouds 11 1026 77 10000 2.1 300 21:39 25.09.2019
1307 Clouds 11 1026 77 10000 2.1 300 21:39 25.09.2019
1308 Rain 11 1026 87 10000 0.31 182.425 21:19 25.09.2019
1309 Rain 11 1026 87 10000 0.31 182.425 20:58 25.09.2019
1310 Rain 12 1026 87 10000 0.05 93.302 20:40 25.09.2019
1311 Rain 12 1026 87 10000 0.05 93.302 20:22 25.09.2019
1312 Rain 12 1026 93 10000 0.05 93.302 19:55 25.09.2019
1313 Rain 12 1026 93 10000 0.05 93.302 19:36 25.09.2019
1314 Rain 12 1026 93 10000 0.05 93.302 19:18 25.09.2019
1315 Rain 12 1026 87 10000 1.5 230 18:55 25.09.2019
1316 Rain 12 1026 87 10000 1.5 230 18:37 25.09.2019
1317 Rain 12 1026 87 10000 1.5 230 18:37 25.09.2019
1318 Clouds 12 1026 72 10000 3.6 90 18:18 25.09.2019
1319 Clouds 13 1027 72 10000 3.6 90 17:40 25.09.2019
1320 Clouds 13 1027 72 10000 3.1 80 17:20 25.09.2019
1321 Clouds 14 1027 72 10000 3.1 80 16:56 25.09.2019
1322 Clouds 14 1027 72 10000 2.6 100 16:37 25.09.2019
1323 Clouds 14 1027 72 10000 2.6 100 16:19 25.09.2019
1324 Rain 14 1027 82 10000 2.6 210 15:42 25.09.2019
1325 Clouds 14 1027 67 10000 3.1 100 15:23 25.09.2019
1326 Clouds 14 1027 67 10000 2.6 130 14:58 25.09.2019
1327 -273 0 0 0 0 0 14:39 25.09.2019
1328 Clouds 15 1028 63 10000 3.1 90 14:21 25.09.2019
1329 Clouds 15 1028 63 10000 3.1 90 13:56 25.09.2019
1330 Clouds 15 1028 63 10000 3.1 90 13:56 25.09.2019
1331 Clouds 15 1028 67 10000 3.6 80 13:38 25.09.2019
1332 Clouds 15 1028 67 10000 3.1 90 13:19 25.09.2019
1333 Clouds 15 1027 63 10000 4.1 110 12:42 25.09.2019
1334 Clouds 15 1027 67 10000 4.1 130 12:23 25.09.2019
1335 Clouds 15 1027 67 10000 4.1 130 11:59 25.09.2019
1336 Clouds 15 1027 67 10000 4.1 130 11:59 25.09.2019
1337 Clouds 15 1027 63 10000 5.1 130 11:40 25.09.2019
1338 Clouds 15 1026 67 10000 5.1 120 11:19 25.09.2019
1339 Clouds 16 1026 67 10000 5.7 120 10:45 25.09.2019
1340 Clouds 16 1026 67 10000 5.7 120 10:26 25.09.2019
1341 Clouds 16 1026 63 10000 6.2 130 09:58 25.09.2019
1342 Clouds 16 1026 63 10000 6.2 130 09:58 25.09.2019
1343 Clouds 17 1025 63 10000 6.2 130 09:38 25.09.2019
1344 Clouds 17 1025 63 10000 6.2 130 09:20 25.09.2019
1345 Clouds 17 1025 63 10000 7.2 140 08:55 25.09.2019
1346 Clouds 18 1025 63 10000 7.2 140 08:37 25.09.2019
1347 Clouds 18 1025 63 10000 7.2 140 08:18 25.09.2019
1348 Clouds 18 1026 63 10000 7.2 140 07:40 25.09.2019
1349 Clouds 18 1026 63 10000 7.7 140 07:22 25.09.2019
1350 Clouds 19 1026 63 10000 7.2 140 06:52 25.09.2019
1351 Clouds 19 1026 63 10000 7.2 140 06:32 25.09.2019
1352 Clouds 20 1026 63 10000 6.7 150 05:39 25.09.2019
1353 Clouds 20 1026 40 10000 4.6 140 04:58 25.09.2019
1354 Clouds 18 1028 39 10000 3.1 300 02:32 25.09.2019
1355 Clouds 17 1028 48 10000 3.1 280 01:29 25.09.2019
1356 Clouds 15 1028 47 10000 5.1 290 00:37 25.09.2019
1357 Clouds 14 1028 47 10000 4.6 290 00:19 25.09.2019
1358 Clouds 11 1028 54 10000 4.6 280 23:41 24.09.2019
1359 Clouds 11 1027 58 10000 4.6 270 23:22 24.09.2019
1360 Clouds 10 1027 58 10000 4.6 270 22:56 24.09.2019
1361 Clouds 10 1027 58 10000 4.6 270 22:56 24.09.2019
1362 Clouds 8 1027 58 10000 4.6 260 22:38 24.09.2019
1363 Clouds 8 1027 62 10000 1.5 280 22:18 24.09.2019
1364 Clear 7 1027 100 10000 2.61 240.59 21:54 24.09.2019
1365 Clear 8 1026 62 10000 3.1 270 21:36 24.09.2019
1366 Clear 7 1026 62 10000 3.6 250 21:18 24.09.2019
1367 Clear 7 1026 62 10000 3.6 250 20:55 24.09.2019
1368 Clear 7 1026 62 10000 3.6 250 20:55 24.09.2019
1369 Clear 8 1025 62 10000 3.6 250 20:37 24.09.2019
1370 Clear 8 1026 100 10000 2.52 238.44 20:18 24.09.2019
1371 Clear 8 1026 93 10000 2.52 238.44 19:41 24.09.2019
1372 Clear 8 1026 93 10000 2.52 238.44 19:19 24.09.2019
1373 Clear 8 1026 93 10000 2.52 238.44 19:19 24.09.2019
1374 Clear 9 1026 62 10000 5.7 250 18:57 24.09.2019
1375 Clear 9 1026 62 10000 5.7 250 18:39 24.09.2019
1376 Clear 9 1026 71 10000 2.6 280 18:20 24.09.2019
1377 Clear 9 1026 71 10000 2.6 280 18:20 24.09.2019
1378 Clear 9 1026 76 10000 2.1 250 17:56 24.09.2019
1379 Clear 9 1026 93 10000 2.83 237.649 17:37 24.09.2019
1380 Clear 10 1026 76 10000 2.1 250 17:19 24.09.2019
1381 Clear 10 1026 76 10000 3.6 230 16:42 24.09.2019
1382 Clear 10 1026 82 10000 3.6 210 16:20 24.09.2019
1383 Clear 11 1026 82 10000 3.6 210 15:58 24.09.2019
1384 Clear 10 1026 93 10000 2.83 237.649 15:39 24.09.2019
1385 Clear 10 1026 93 10000 2.01 202.884 15:21 24.09.2019
1386 Clear 11 1026 67 10000 2.1 270 14:39 24.09.2019
1387 Clear 12 1026 67 10000 1.5 280 14:18 24.09.2019
1388 Clear 12 1026 59 10000 1.5 270 13:45 24.09.2019
1389 Clear 13 1026 76 10000 0.5 220 13:22 24.09.2019
1390 Clear 13 1026 67 10000 1 150 12:57 24.09.2019
1391 Clear 14 1026 67 10000 1 150 12:39 24.09.2019
1392 Clear 14 1025 59 10000 2.6 40 12:18 24.09.2019
1393 Clear 15 1025 59 10000 2.1 50 11:41 24.09.2019
1394 Clear 16 1024 55 10000 3.6 40 11:21 24.09.2019
1395 Clear 16 1024 55 10000 3.6 40 10:56 24.09.2019
1396 Clear 16 1024 55 10000 4.1 50 10:36 24.09.2019
1397 Clear 16 1024 55 10000 5.1 50 10:18 24.09.2019
1398 Clear 17 1023 52 10000 5.1 40 09:45 24.09.2019
1399 Clear 18 1023 42 10000 8.7 40 09:27 24.09.2019
1400 Clear 18 1023 42 10000 8.7 40 08:57 24.09.2019
1401 Clear 18 1023 42 10000 7.2 50 08:38 24.09.2019
1402 Clear 19 1023 37 10000 8.2 50 08:20 24.09.2019
1403 Clear 19 1023 42 10000 7.7 60 07:52 24.09.2019
1404 Clear 20 1023 42 10000 7.7 80 07:25 24.09.2019
1405 Clear 20 1023 37 10000 7.7 90 06:57 24.09.2019
1406 Clear 20 1023 37 10000 7.7 90 06:36 24.09.2019
1407 Clear 20 1023 37 10000 7.7 90 06:36 24.09.2019
1408 Clear 21 1024 22 10000 3.1 340 05:52 24.09.2019
1409 Clear 21 1024 22 10000 3.1 340 05:20 24.09.2019
1410 Clouds 19 1026 29 10000 3.1 330 03:45 24.09.2019
1411 Clouds 18 1026 34 10000 2.6 240 02:57 24.09.2019
1412 Clouds 17 1027 34 10000 2.1 290 02:39 24.09.2019
1413 Clouds 17 1027 42 10000 4.1 280 01:40 24.09.2019
1414 Clouds 14 1027 44 10000 5.1 260 00:40 24.09.2019
1415 Clouds 13 1027 47 10000 5.7 260 00:21 24.09.2019
1416 Clouds 11 1027 54 10000 4.6 270 23:41 23.09.2019
1417 Clouds 10 1027 54 10000 4.6 270 23:22 23.09.2019
1418 Clouds 8 1026 61 10000 4.1 300 22:40 23.09.2019
1419 Clouds 8 1026 61 10000 4.1 300 22:21 23.09.2019
1420 Clouds 7 1026 57 10000 3.1 320 22:21 23.09.2019
1421 Clouds 7 1026 57 10000 3.1 320 21:59 23.09.2019
1422 Clouds 7 1026 57 10000 4.1 260 21:41 23.09.2019
1423 Clear 7 1025 57 10000 5.1 260 21:20 23.09.2019
1424 Clouds 7 1026 57 10000 4.1 260 21:20 23.09.2019
1425 Clear 7 1025 57 10000 5.1 260 20:58 23.09.2019
1426 Clear 7 1025 57 10000 4.6 260 20:39 23.09.2019
1427 Clear 7 1025 57 10000 5.1 280 20:18 23.09.2019
1428 Clear 7 1025 57 10000 5.1 280 20:18 23.09.2019
1429 Clear 7 1025 57 10000 5.1 280 20:18 23.09.2019
1430 Clear 8 1025 53 10000 4.6 290 19:40 23.09.2019
1431 Clear 8 1025 50 10000 4.1 260 19:22 23.09.2019
1432 Clear 8 1025 50 10000 4.1 260 18:59 23.09.2019
1433 Clear 8 1025 53 10000 5.1 250 18:40 23.09.2019
1434 Clear 8 1026 87 10000 2.51 230.156 18:19 23.09.2019
1435 Clear 8 1025 50 10000 4.6 250 17:56 23.09.2019
1436 Clear 9 1025 50 10000 4.6 250 17:38 23.09.2019
1437 Clear 9 1026 50 10000 4.6 240 17:20 23.09.2019
1438 Clear 9 1026 50 10000 4.6 240 16:55 23.09.2019
1439 Clear 9 1026 43 10000 4.1 240 16:36 23.09.2019
1440 Clear 10 1026 43 10000 4.1 240 16:36 23.09.2019
1441 Clear 10 1026 43 10000 3.1 230 16:18 23.09.2019
1442 Clear 10 1026 43 10000 3.1 230 15:56 23.09.2019
1443 Clear 10 1026 43 10000 4.6 230 15:56 23.09.2019
1444 Clear 11 1026 43 10000 4.6 230 15:38 23.09.2019
1445 Clear 11 1026 41 10000 5.1 240 15:18 23.09.2019
1446 Clear 12 1026 41 10000 6.2 250 14:40 23.09.2019
1447 Clear 12 1026 60 10000 6.2 260 14:20 23.09.2019
1448 Clear 13 1026 60 10000 6.2 260 13:58 23.09.2019
1449 Clear 13 1025 60 10000 4.6 250 13:38 23.09.2019
1450 Clear 13 1025 38 10000 5.7 230 13:18 23.09.2019
1451 Clear 13 1025 38 10000 5.7 230 13:18 23.09.2019
1452 Clear 14 1025 33 10000 7.7 250 12:44 23.09.2019
1453 Clouds 14 1024 48 10000 5.1 250 12:23 23.09.2019
1454 Clouds 14 1024 48 10000 5.1 250 12:23 23.09.2019
1455 Clouds 14 1024 48 10000 5.1 250 11:58 23.09.2019
1456 Clouds 15 1024 38 10000 5.1 210 11:40 23.09.2019
1457 Clouds 15 1023 48 10000 5.7 250 11:22 23.09.2019
1458 Clear 16 1023 48 10000 8.7 260 10:49 23.09.2019
1459 Clear 16 1022 33 10000 12.9 240 10:22 23.09.2019
1460 Clear 16 1022 33 10000 12.9 240 10:22 23.09.2019
1461 Clear 16 1022 33 10000 12.9 240 09:59 23.09.2019
1462 Clear 17 1021 33 10000 11.8 240 09:38 23.09.2019
1463 Clear 17 1021 34 10000 9.8 230 09:20 23.09.2019
1464 Clear 18 1021 45 10000 7.7 250 08:47 23.09.2019
1465 Clear 18 1021 45 10000 7.7 250 08:28 23.09.2019
1466 Clear 19 1020 42 10000 7.7 250 07:57 23.09.2019
1467 Clear 20 1020 39 10000 4.6 120 07:28 23.09.2019
1468 Clear 20 1020 39 10000 5.7 110 06:40 23.09.2019
1469 Clear 21 1020 36 10000 6.7 140 05:54 23.09.2019
1470 Clear 21 1020 24 10000 6.7 270 05:21 23.09.2019
1471 Clear 21 1020 24 10000 6.7 270 04:54 23.09.2019
1472 Clear 21 1021 34 10000 4.1 250 03:33 23.09.2019
1473 Clear 18 1023 39 10000 4.6 300 01:19 23.09.2019
1474 Clear 16 1023 51 10000 4.6 290 00:23 23.09.2019
1475 Clear 14 1023 51 10000 3.6 260 23:57 22.09.2019
1476 Clear 13 1023 51 10000 3.6 260 23:33 22.09.2019
1477 Clear 11 1022 58 10000 2.6 270 22:59 22.09.2019
1478 Clouds 11 1022 62 10000 4.6 250 22:41 22.09.2019
1479 Clouds 10 1022 62 10000 4.6 250 22:22 22.09.2019
1480 Clouds 10 1022 54 10000 4.6 250 21:55 22.09.2019
1481 Clouds 10 1022 54 10000 4.6 250 21:55 22.09.2019
1482 Clear 10 1022 54 10000 5.1 250 21:36 22.09.2019
1483 Clouds 10 1022 93 10000 3.89 235.1 21:18 22.09.2019
1484 Clear 11 1021 58 10000 4.1 250 20:42 22.09.2019
1485 Clear 11 1022 100 10000 3.09 235.41 20:23 22.09.2019
1486 Clear 12 1021 62 10000 4.1 240 19:55 22.09.2019
1487 Clear 12 1021 62 10000 4.1 240 19:37 22.09.2019
1488 Clear 12 1021 62 10000 4.1 250 19:19 22.09.2019
1489 Clear 12 1022 67 10000 5.1 230 18:55 22.09.2019
1490 Clear 13 1022 67 10000 5.1 230 18:36 22.09.2019
1491 Clear 13 1022 93 10000 3.08 227.894 18:18 22.09.2019
1492 Clouds 14 1022 77 10000 4.6 230 17:41 22.09.2019
1493 Clouds 14 1022 77 10000 4.6 230 17:22 22.09.2019
1494 Clouds 14 1022 87 10000 4.6 220 16:46 22.09.2019
1495 Clouds 14 1022 87 10000 4.6 220 16:27 22.09.2019
1496 Clouds 14 1022 87 10000 5.1 220 15:58 22.09.2019
1497 Clouds 14 1022 87 10000 4.6 210 15:40 22.09.2019
1498 Clouds 15 1022 82 10000 5.1 220 15:22 22.09.2019
1499 Clouds 16 1022 88 10000 4.1 220 14:46 22.09.2019
1500 Clouds 16 1022 88 10000 4.1 220 14:26 22.09.2019
1501 Clouds 16 1022 88 10000 4.1 220 13:59 22.09.2019
1502 Clouds 16 1022 88 10000 3.6 220 13:41 22.09.2019
1503 Clouds 16 1022 88 10000 2.6 170 13:22 22.09.2019
1504 Clouds 16 1022 88 10000 2.6 170 12:56 22.09.2019
1505 Clouds 16 1022 82 10000 3.1 150 12:38 22.09.2019
1506 Clouds 16 1022 77 10000 2.6 130 12:18 22.09.2019
1507 Clouds 17 1021 77 10000 3.6 130 11:43 22.09.2019
1508 Clouds 17 1021 77 10000 3.6 130 11:24 22.09.2019
1509 Clouds 17 1021 77 10000 4.6 130 10:55 22.09.2019
1510 Clouds 17 1021 77 10000 4.6 130 10:37 22.09.2019
1511 Clouds 18 1021 77 10000 4.6 130 10:19 22.09.2019
1512 Clouds 18 1021 77 10000 4.6 130 10:19 22.09.2019
1513 Clear 18 1020 64 10000 5.7 130 09:42 22.09.2019
1514 Clouds 19 1020 56 10000 6.2 130 09:21 22.09.2019
1515 Clouds 19 1020 56 10000 6.2 130 08:55 22.09.2019
1516 Clear 19 1020 45 10000 6.7 130 08:37 22.09.2019
1517 Clear 20 1020 45 10000 6.7 130 08:18 22.09.2019
1518 Clear 21 1019 43 10000 7.2 130 07:41 22.09.2019
1519 Clear 21 1019 43 10000 7.2 130 07:23 22.09.2019
1520 Clear 22 1019 46 10000 5.7 110 06:56 22.09.2019
1521 Clear 23 1020 46 10000 4.1 120 05:45 22.09.2019
1522 Clouds 21 1021 56 10000 4.1 120 03:54 22.09.2019
1523 Clear 21 1021 63 10000 4.1 200 02:44 22.09.2019
1524 Clear 20 1021 63 10000 4.1 200 02:24 22.09.2019
1525 Rain 20 1021 68 10000 5.7 200 01:35 22.09.2019
1526 Rain 18 1020 72 10000 7.2 220 00:40 22.09.2019
1527 Rain 18 1020 72 10000 1.5 250 00:21 22.09.2019
1528 Clear 18 1019 88 10000 2.6 230 23:47 21.09.2019
1529 Clear 18 1019 88 10000 2.6 230 23:27 21.09.2019
1530 Rain 18 1018 77 10000 2.6 360 22:43 21.09.2019
1531 Rain 18 1018 77 10000 4.1 220 22:23 21.09.2019
1532 Rain 18 1018 77 10000 4.1 220 21:58 21.09.2019
1533 Drizzle 18 1018 72 10000 2.6 330 21:40 21.09.2019
1534 Drizzle 18 1017 77 10000 2.6 10 21:19 21.09.2019
1535 Clear 18 1016 72 10000 3.1 350 20:41 21.09.2019
1536 Clouds 17 1016 77 10000 1.5 80 20:23 21.09.2019
1537 Clouds 18 1016 77 10000 1.5 80 19:58 21.09.2019
1538 Clear 18 1016 77 10000 3.1 360 19:39 21.09.2019
1539 Clear 18 1017 77 10000 2.6 350 19:18 21.09.2019
1540 Clear 18 1017 93 10000 1.68 252.447 18:40 21.09.2019
1541 Drizzle 18 1017 88 10000 2.6 220 18:21 21.09.2019
1542 Clear 18 1017 88 10000 3.1 40 17:42 21.09.2019
1543 Clear 18 1017 88 10000 3.1 40 17:42 21.09.2019
1544 Clear 18 1017 88 10000 3.1 40 17:42 21.09.2019
1545 Clear 19 1017 77 10000 2.6 40 17:23 21.09.2019
1546 Clear 19 1017 88 10000 3.1 40 17:23 21.09.2019
1547 Clear 19 1017 77 10000 2.6 40 16:56 21.09.2019
1548 Clear 19 1017 82 10000 2.1 10 16:37 21.09.2019
1549 Clear 19 1017 82 10000 3.6 20 16:19 21.09.2019
1550 Clear 19 1017 82 10000 3.1 10 15:42 21.09.2019
1551 Clear 18 1017 77 10000 3.6 30 15:21 21.09.2019
1552 Clear 18 1017 82 10000 5.1 50 14:48 21.09.2019
1553 Clear 19 1017 82 10000 5.1 50 14:29 21.09.2019
1554 Rain 19 1018 72 10000 2.6 360 13:50 21.09.2019
1555 Clouds 19 1018 72 10000 2.6 360 13:29 21.09.2019
1556 Clouds 19 1018 77 10000 3.4 10.385 12:59 21.09.2019
1557 Clear 19 1018 73 10000 7.7 50 12:41 21.09.2019
1558 Clouds 20 1018 64 10000 1.5 130 12:21 21.09.2019
1559 Clear 20 1018 68 10000 4.1 80 11:59 21.09.2019
1560 Clouds 20 1018 68 10000 4.1 30 11:41 21.09.2019
1561 Rain 21 1017 73 10000 7.7 30 11:21 21.09.2019
1562 Clear 20 1017 73 10000 11.3 30 10:41 21.09.2019
1563 Clear 20 1017 77 10000 9.8 30 10:23 21.09.2019
1564 Clear 21 1017 77 10000 9.8 30 09:57 21.09.2019
1565 Clear 21 1017 73 10000 9.8 30 09:38 21.09.2019
1566 Clear 22 1017 73 10000 9.8 30 09:20 21.09.2019
1567 Clear 23 1017 68 10000 10.8 30 08:51 21.09.2019
1568 Clear 23 1017 68 10000 10.3 40 08:27 21.09.2019
1569 Clear 23 1017 68 10000 10.8 30 07:41 21.09.2019
1570 Clear 24 1017 64 10000 10.8 40 07:23 21.09.2019
1571 Clear 24 1017 64 10000 10.8 30 06:51 21.09.2019
1572 Clear 25 1017 64 10000 10.8 30 06:31 21.09.2019
1573 Clouds 25 1018 60 10000 8.7 30 04:53 21.09.2019
1574 Clouds 24 1019 64 10000 8.2 30 04:34 21.09.2019
1575 Clouds 19 1021 72 10000 6.7 10 02:31 21.09.2019
1576 Clouds 19 1022 72 10000 6.7 10 01:54 21.09.2019
1577 Clouds 19 1022 72 10000 6.7 10 01:36 21.09.2019
1578 Clouds 17 1022 77 10000 6.7 10 00:40 21.09.2019
1579 Clouds 17 1015 87 0 2.24 308 00:19 21.09.2019
1580 Clouds 16 1022 100 10000 2.36 5.889 23:42 20.09.2019
1581 Clouds 16 1021 82 10000 6.2 20 23:24 20.09.2019
1582 Clouds 16 1021 82 10000 7.2 10 22:41 20.09.2019
1583 Clouds 15 1021 82 10000 7.2 10 22:23 20.09.2019
1584 Clouds 15 1021 82 10000 8.2 20 21:57 20.09.2019
1585 Clouds 16 1021 82 10000 8.2 30 21:38 20.09.2019
1586 Clouds 16 1021 82 10000 7.7 20 21:20 20.09.2019
1587 Clouds 16 1021 82 10000 7.7 20 20:56 20.09.2019
1588 Clouds 16 1021 77 10000 6.7 30 20:37 20.09.2019
1589 Clouds 16 1021 77 10000 5.1 20 20:18 20.09.2019
1590 Clouds 16 1021 77 10000 8.2 20 19:45 20.09.2019
1591 Clouds 16 1021 93 3000 1.29 33.727 19:26 20.09.2019
1592 Clouds 17 1021 82 10000 7.2 30 18:58 20.09.2019
1593 Clouds 17 1021 82 10000 7.2 30 18:38 20.09.2019
1594 Clouds 17 1022 82 10000 8.2 30 18:18 20.09.2019
1595 Clouds 17 1022 82 10000 6.7 30 17:46 20.09.2019
1596 Clouds 17 1022 82 10000 6.7 30 17:26 20.09.2019
1597 Clouds 17 1022 82 10000 6.7 30 16:54 20.09.2019
1598 Clouds 17 1022 82 10000 7.7 30 16:36 20.09.2019
1599 Clouds 17 1023 82 10000 7.2 30 16:18 20.09.2019
1600 Clouds 18 1023 77 10000 8.2 30 15:41 20.09.2019
1601 Clouds 18 1023 77 10000 8.2 30 15:22 20.09.2019
1602 Clouds 18 1023 82 10000 8.7 30 14:44 20.09.2019
1603 Clouds 18 1023 78 0 6.71 20 14:20 20.09.2019
1604 Clouds 18 1016 90 0 3.13 308 14:20 20.09.2019
1605 Clouds 18 1024 82 10000 9.3 30 13:59 20.09.2019
1606 Clouds 18 1024 82 10000 9.3 30 13:40 20.09.2019
1607 Clouds 18 1024 82 10000 9.3 30 13:21 20.09.2019
1608 Clouds 18 1024 82 10000 9.3 30 12:40 20.09.2019
1609 Clouds 18 1023 77 10000 9.8 40 12:22 20.09.2019
1610 Clouds 18 1023 77 10000 9.3 40 11:51 20.09.2019
1611 Clouds 18 1023 77 10000 9.3 40 11:26 20.09.2019
1612 Clouds 18 1023 82 10000 8.2 40 10:58 20.09.2019
1613 Clouds 18 1023 82 10000 7.7 40 10:40 20.09.2019
1614 Clouds 18 1023 82 10000 7.7 40 10:40 20.09.2019
1615 Clouds 18 1023 82 10000 7.7 40 10:22 20.09.2019
1616 Clouds 18 1016 89 0 1.34 17 10:22 20.09.2019
1617 Clouds 19 1022 72 10000 9.3 40 09:38 20.09.2019
1618 Clouds 19 1022 72 10000 9.3 40 09:38 20.09.2019
1619 Clouds 19 1022 72 10000 9.8 40 09:19 20.09.2019
1620 Clouds 20 1022 68 10000 10.3 50 08:48 20.09.2019
1621 Clouds 20 1022 68 10000 10.3 50 08:28 20.09.2019
1622 Clouds 20 1022 68 10000 10.3 40 07:59 20.09.2019
1623 Clouds 20 1022 68 10000 10.8 40 07:40 20.09.2019
1624 Clouds 21 1023 64 10000 10.3 40 07:22 20.09.2019
1625 Clouds 21 1023 64 10000 8.7 50 06:42 20.09.2019
1626 Clouds 21 1023 64 10000 8.7 50 06:42 20.09.2019
1627 Clouds 21 1023 64 10000 9.3 60 06:18 20.09.2019
1628 Clouds 21 1025 68 10000 8.7 40 04:32 20.09.2019
1629 Rain 20 1026 68 10000 9.8 30 03:27 20.09.2019
1630 Clouds 20 1026 68 10000 7.2 30 02:22 20.09.2019
1631 Clouds 19 1027 72 10000 7.7 20 01:43 20.09.2019
1632 Clouds 19 1027 72 10000 7.7 20 01:43 20.09.2019
1633 Rain 19 1027 77 10000 5.1 30 00:43 20.09.2019
1634 Rain 17 1026 88 10000 4.1 50 23:56 19.09.2019
1635 Clouds 16 1026 88 10000 4.1 50 23:38 19.09.2019
1636 Clouds 15 1026 93 10000 2.1 40 23:18 19.09.2019
1637 Clouds 14 1026 93 10000 1.65 18.644 22:40 19.09.2019
1638 Clouds 14 1026 93 10000 1.65 18.644 22:22 19.09.2019
1639 Clouds 14 1026 93 10000 1.65 18.644 21:57 19.09.2019
1640 Clouds 14 1026 87 10000 1.65 18.644 21:39 19.09.2019
1641 Clouds 14 1026 88 10000 1 30 21:19 19.09.2019
1642 Clouds 14 1026 88 10000 1 30 20:57 19.09.2019
1643 Clouds 14 1026 88 10000 1 30 20:57 19.09.2019
1644 Clouds 14 1026 88 10000 1.5 50 20:39 19.09.2019
1645 Rain 14 1026 88 10000 2.6 10 20:19 19.09.2019
1646 Rain 14 1025 100 250 1.06 21.59 19:54 19.09.2019
1647 Rain 14 1025 100 250 1.06 21.59 19:36 19.09.2019
1648 Rain 14 1025 100 1500 1.06 21.59 19:18 19.09.2019
1649 Clouds 15 1026 82 10000 3.1 20 18:41 19.09.2019
1650 Rain 15 1026 93 600 0.5 250 18:22 19.09.2019
1651 Clouds 16 1026 82 10000 2.6 30 17:44 19.09.2019
1652 Clouds 16 1026 82 10000 2.6 30 17:25 19.09.2019
1653 Clouds 16 1026 88 10000 4.1 30 16:59 19.09.2019
1654 Clouds 16 1026 88 10000 4.1 30 16:59 19.09.2019
1655 Clouds 16 1026 88 10000 4.6 40 16:40 19.09.2019
1656 Clouds 16 1026 88 10000 4.6 40 16:20 19.09.2019
1657 Clouds 17 1026 88 10000 4.6 50 15:41 19.09.2019
1658 Clouds 17 1026 88 10000 4.6 50 15:22 19.09.2019
1659 Clear 17 1026 100 10000 1.52 45.802 14:58 19.09.2019
1660 Clouds 17 1026 88 10000 4.1 50 14:39 19.09.2019
1661 Clouds 17 1026 82 10000 2.6 40 14:21 19.09.2019
1662 Clouds 17 1026 88 10000 3.1 40 13:57 19.09.2019
1663 Clouds 17 1026 88 10000 3.1 40 13:37 19.09.2019
1664 Clouds 17 1026 88 10000 3.1 40 13:37 19.09.2019
1665 Clouds 17 1026 82 10000 3.6 40 13:18 19.09.2019
1666 Rain 17 1026 88 10000 2.1 120 12:37 19.09.2019
1667 Clear 17 1026 82 10000 2.6 100 12:18 19.09.2019
1668 Clouds 17 1026 77 10000 4.6 50 11:41 19.09.2019
1669 Clouds 18 1026 77 10000 4.6 50 11:22 19.09.2019
1670 Clear 17 1025 82 10000 2.1 90 10:59 19.09.2019
1671 Clouds 18 1025 77 10000 5.7 50 10:40 19.09.2019
1672 Clouds 18 1025 77 10000 5.7 50 10:21 19.09.2019
1673 Clouds 18 1025 77 10000 6.7 50 09:58 19.09.2019
1674 Clouds 18 1025 77 10000 6.7 60 09:40 19.09.2019
1675 Clouds 19 1025 72 10000 7.2 60 09:20 19.09.2019
1676 Clouds 19 1025 72 10000 7.2 50 08:51 19.09.2019
1677 Clouds 20 1025 72 10000 7.2 50 08:26 19.09.2019
1678 Clouds 20 1024 68 10000 8.2 60 07:45 19.09.2019
1679 Clouds 20 1025 68 10000 7.2 50 07:24 19.09.2019
1680 Clouds 20 1025 68 10000 7.2 50 06:59 19.09.2019
1681 Clouds 20 1025 72 10000 5.7 70 06:40 19.09.2019
1682 Clouds 20 1025 72 10000 7.2 50 06:21 19.09.2019
1683 Clouds 20 1025 68 10000 6.2 60 05:49 19.09.2019
1684 Rain 20 1026 72 10000 7.7 40 04:23 19.09.2019
1685 Clouds 19 1026 68 10000 4.6 50 03:20 19.09.2019
1686 Rain 17 1027 88 10000 1.22 71.416 01:40 19.09.2019
1687 Rain 16 1027 88 10000 2.6 30 01:19 19.09.2019
1688 Rain 15 1027 93 10000 3.6 50 00:43 19.09.2019
1689 Rain 15 1027 93 10000 2.6 40 00:20 19.09.2019
1690 Rain 15 1026 100 10000 2.1 140 23:38 18.09.2019
1691 Rain 15 1026 100 10000 2.1 140 23:20 18.09.2019
1692 Rain 14 1026 93 10000 0.5 160 22:42 18.09.2019
1693 Rain 14 1026 93 10000 0.5 160 22:20 18.09.2019
1694 Clouds 14 1025 93 10000 0.5 100 21:58 18.09.2019
1695 Rain 14 1025 100 10000 0.93 229.098 21:40 18.09.2019
1696 Rain 14 1025 100 10000 1.4 199.538 21:18 18.09.2019
1697 Rain 14 1024 100 10000 1.5 210 20:58 18.09.2019
1698 Rain 14 1024 100 10000 1.5 210 20:40 18.09.2019
1699 Rain 14 1025 93 10000 3.1 70 20:22 18.09.2019
1700 Rain 14 1024 93 10000 3.1 60 19:57 18.09.2019
1701 Rain 14 1024 93 10000 3.1 60 19:38 18.09.2019
1702 Rain 14 1024 93 10000 3.1 130 19:19 18.09.2019
1703 Rain 14 1024 93 10000 3.1 130 19:19 18.09.2019
1704 Rain 14 1024 93 10000 3.1 130 18:55 18.09.2019
1705 Rain 14 1024 100 10000 4.1 180 18:37 18.09.2019
1706 Rain 14 1025 100 10000 5.1 190 18:19 18.09.2019
1707 Rain 14 1025 93 10000 5.1 190 17:57 18.09.2019
1708 Rain 14 1025 100 10000 5.1 190 17:57 18.09.2019
1709 Rain 14 1025 93 10000 5.1 190 17:39 18.09.2019
1710 Rain 14 1025 100 10000 4.6 210 17:18 18.09.2019
1711 Clouds 14 1025 93 10000 5.1 200 16:55 18.09.2019
1712 Clouds 14 1025 93 10000 5.1 200 16:37 18.09.2019
1713 Clouds 14 1025 100 10000 5.7 180 16:18 18.09.2019
1714 Clouds 14 1025 100 10000 4.6 180 15:55 18.09.2019
1715 Rain 14 1025 100 10000 4.6 180 15:36 18.09.2019
1716 Rain 14 1025 100 10000 5.1 200 15:18 18.09.2019
1717 Rain 14 1025 100 10000 5.1 200 14:57 18.09.2019
1718 Rain 14 1025 93 10000 5.1 200 14:38 18.09.2019
1719 Rain 14 1025 93 10000 5.1 200 14:20 18.09.2019
1720 Rain 14 1025 100 10000 5.7 200 13:43 18.09.2019
1721 Rain 15 1025 100 10000 5.7 200 13:19 18.09.2019
1722 Rain 15 1025 100 8000 6.2 150 12:55 18.09.2019
1723 Rain 15 1025 100 8000 6.2 150 12:36 18.09.2019
1724 Rain 15 1025 100 8000 5.1 170 12:18 18.09.2019
1725 Rain 15 1025 100 10000 5.1 170 11:39 18.09.2019
1726 Rain 15 1025 100 10000 5.1 160 11:19 18.09.2019
1727 Rain 15 1025 93 7000 5.7 160 10:41 18.09.2019
1728 Rain 15 1025 93 7000 5.7 160 10:22 18.09.2019
1729 Rain 15 1024 93 10000 5.1 130 09:58 18.09.2019
1730 Rain 15 1024 93 10000 5.1 130 09:40 18.09.2019
1731 Rain 15 1024 93 10000 5.1 130 09:40 18.09.2019
1732 Rain 15 1024 93 10000 5.1 130 09:22 18.09.2019
1733 Rain 15 1024 93 10000 5.7 140 08:46 18.09.2019
1734 Rain 15 1024 93 10000 5.7 140 08:26 18.09.2019
1735 Rain 16 1024 93 10000 7.7 140 07:59 18.09.2019
1736 Rain 16 1024 93 6000 5.1 210 07:41 18.09.2019
1737 Rain 16 1023 93 6000 8.2 190 07:23 18.09.2019
1738 Rain 15 1023 100 6000 8.7 180 06:41 18.09.2019
1739 Rain 15 1024 100 8000 11.3 170 05:58 18.09.2019
1740 Rain 15 1023 100 8000 12.9 170 05:22 18.09.2019
1741 Rain 14 1025 100 3500 10.3 170 03:25 18.09.2019
1742 Rain 14 1025 100 6000 11.3 160 02:40 18.09.2019
1743 Rain 14 1025 100 2000 12.3 170 01:35 18.09.2019
1744 Rain 13 1025 93 4000 11.3 170 00:51 18.09.2019
1745 Rain 13 1025 93 4000 11.8 170 00:28 18.09.2019
1746 Rain 13 1024 93 7000 11.8 160 23:47 17.09.2019
1747 Rain 13 1024 93 7000 11.8 160 23:23 17.09.2019
1748 Rain 13 1024 93 6000 12.9 160 22:55 17.09.2019
1749 Rain 13 1024 93 6000 12.9 160 22:36 17.09.2019
1750 Rain 13 1024 93 10000 11.8 160 22:18 17.09.2019
1751 Rain 12 1024 93 9000 11.8 160 21:54 17.09.2019
1752 Rain 12 1024 93 9000 11.8 160 21:36 17.09.2019
1753 Rain 12 1023 93 4000 11.3 160 21:18 17.09.2019
1754 Rain 12 1023 93 4000 11.3 160 20:54 17.09.2019
1755 Rain 12 1023 93 9000 10.8 170 20:36 17.09.2019
1756 Rain 12 1023 100 4000 10.3 170 20:18 17.09.2019
1757 Rain 12 1023 93 5000 11.3 170 19:40 17.09.2019
1758 Rain 12 1023 93 4000 12.9 180 19:20 17.09.2019
1759 Rain 12 1023 93 5000 11.8 160 18:59 17.09.2019
1760 Rain 12 1023 93 5000 11.8 160 18:41 17.09.2019
1761 Rain 12 1023 93 5000 11.8 160 18:22 17.09.2019
1762 Rain 13 1023 93 3000 11.3 160 17:55 17.09.2019
1763 Rain 13 1023 93 3000 11.3 160 17:36 17.09.2019
1764 Rain 13 1023 93 4000 12.9 170 17:18 17.09.2019
1765 Rain 13 1023 87 8000 13.4 170 16:41 17.09.2019
1766 Rain 13 1023 87 8000 13.4 170 16:41 17.09.2019
1767 Rain 13 1023 87 8000 13.4 170 16:41 17.09.2019
1768 Rain 13 1023 87 8000 13.4 170 16:22 17.09.2019
1769 Rain 13 1023 87 4000 13.4 170 15:58 17.09.2019
1770 Rain 13 1023 87 10000 12.3 160 15:37 17.09.2019
1771 Rain 13 1024 93 10000 10.8 160 15:19 17.09.2019
1772 Rain 13 1024 87 9000 10.8 150 14:55 17.09.2019
1773 Rain 13 1024 87 9000 10.8 150 14:37 17.09.2019
1774 Rain 13 1024 87 9000 10.8 150 14:19 17.09.2019
1775 Rain 13 1024 82 10000 11.8 150 13:42 17.09.2019
1776 Rain 13 1024 82 10000 11.8 150 13:23 17.09.2019
1777 Rain 13 1024 87 10000 12.9 150 12:56 17.09.2019
1778 Rain 13 1023 87 8000 12.3 150 12:37 17.09.2019
1779 Rain 13 1023 87 5000 12.3 140 12:18 17.09.2019
1780 Rain 13 1023 100 9000 5.7 190 11:42 17.09.2019
1781 Rain 13 1023 100 9000 5.7 190 11:24 17.09.2019
1782 Rain 13 1023 100 9000 5.7 190 11:24 17.09.2019
1783 -273 0 0 0 0 0 10:55 17.09.2019
1784 Rain 13 1022 100 6000 6.2 210 10:37 17.09.2019
1785 Rain 13 1021 93 9000 15.4 130 10:18 17.09.2019
1786 Rain 13 1021 87 9000 13.9 130 09:41 17.09.2019
1787 Rain 13 1021 87 9000 13.9 130 09:21 17.09.2019
1788 Rain 13 1020 100 6000 11.3 150 08:50 17.09.2019
1789 Rain 13 1020 100 6000 11.3 150 08:32 17.09.2019
1790 Rain 12 1020 100 6000 10.3 150 07:59 17.09.2019
1791 Rain 12 1020 93 9000 10.8 150 07:39 17.09.2019
1792 Rain 12 1020 93 6000 10.3 150 07:21 17.09.2019
1793 Rain 12 1020 93 6000 10.8 140 06:47 17.09.2019
1794 Rain 12 1020 93 8000 10.8 140 06:23 17.09.2019
1795 Rain 12 1020 93 4000 9.8 160 05:49 17.09.2019
1796 Rain 11 1021 93 9000 9.8 160 04:31 17.09.2019
1797 Rain 10 1022 100 10000 4.1 210 02:58 17.09.2019
1798 Rain 9 1022 100 8000 9.8 210 02:39 17.09.2019
1799 Rain 9 1022 93 8000 9.8 200 01:26 17.09.2019
1800 Rain 9 1022 93 10000 9.8 210 00:40 17.09.2019
1801 Rain 8 1022 100 10000 3.6 220 23:40 16.09.2019
1802 Rain 8 1022 93 9000 8.7 210 23:19 16.09.2019
1803 Rain 8 1022 93 9000 8.7 210 22:56 16.09.2019
1804 Rain 8 1022 100 10000 4.1 220 22:38 16.09.2019
1805 Rain 8 1021 100 10000 3.6 240 22:20 16.09.2019
1806 Rain 8 1021 100 10000 3.6 240 21:55 16.09.2019
1807 Rain 8 1021 100 10000 3.6 240 21:55 16.09.2019
1808 Rain 8 1021 100 9000 7.2 210 21:36 16.09.2019
1809 Rain 8 1021 93 8000 8.7 210 21:18 16.09.2019
1810 Rain 9 1021 93 7000 9.3 200 20:40 16.09.2019
1811 Rain 9 1021 93 7000 9.3 200 20:40 16.09.2019
1812 Rain 9 1021 93 7000 9.3 200 20:40 16.09.2019
1813 Rain 9 1021 93 6000 9.8 200 20:21 16.09.2019
1814 Rain 9 1021 93 6000 9.8 200 19:57 16.09.2019
1815 Rain 9 1020 93 6000 10.3 200 19:39 16.09.2019
1816 Rain 10 1021 93 10000 12.9 190 19:19 16.09.2019
1817 Rain 10 1020 87 10000 9.3 190 18:47 16.09.2019
1818 Rain 10 1021 87 10000 7.7 170 18:29 16.09.2019
1819 Rain 10 1021 87 10000 7.7 170 17:58 16.09.2019
1820 Rain 11 1021 87 10000 11.3 170 17:39 16.09.2019
1821 Rain 11 1022 87 9000 11.8 170 17:21 16.09.2019
1822 Rain 11 1021 93 4500 12.3 170 16:55 16.09.2019
1823 Rain 11 1021 93 4500 12.3 170 16:37 16.09.2019
1824 Rain 12 1021 100 7000 9.8 170 16:18 16.09.2019
1825 Rain 12 1021 100 7000 9.8 170 15:55 16.09.2019
1826 Rain 12 1021 93 6000 11.3 170 15:37 16.09.2019
1827 Rain 12 1021 93 6000 11.3 170 15:37 16.09.2019
1828 Rain 13 1021 93 4000 9.8 170 15:18 16.09.2019
1829 Rain 13 1020 93 5000 10.8 160 14:43 16.09.2019
1830 Rain 13 1021 87 8000 8.7 160 14:23 16.09.2019
1831 Rain 14 1021 87 8000 8.7 160 13:57 16.09.2019
1832 Rain 14 1020 87 9000 10.3 170 13:38 16.09.2019
1833 Rain 15 1020 82 10000 8.7 140 13:20 16.09.2019
1834 Clouds 15 1020 77 10000 7.7 150 12:43 16.09.2019
1835 Clouds 15 1020 77 10000 9.3 160 12:24 16.09.2019
1836 Clouds 16 1020 82 10000 9.3 170 11:55 16.09.2019
1837 Clouds 16 1020 77 10000 9.3 160 11:55 16.09.2019
1838 Clouds 16 1020 82 10000 9.3 170 11:37 16.09.2019
1839 Clouds 16 1020 82 10000 9.3 170 11:37 16.09.2019
1840 Clouds 16 1019 72 10000 10.8 160 11:19 16.09.2019
1841 Clouds 16 1018 72 10000 10.8 160 10:38 16.09.2019
1842 Clouds 16 1018 72 10000 10.8 160 10:19 16.09.2019
1843 Clouds 16 1017 77 10000 10.8 150 09:57 16.09.2019
1844 Clouds 16 1016 77 10000 11.8 160 09:38 16.09.2019
1845 Clouds 17 1016 77 10000 11.8 160 09:19 16.09.2019
1846 Rain 17 1015 77 10000 12.9 180 08:46 16.09.2019
1847 Rain 17 1015 77 10000 12.9 180 08:25 16.09.2019
1848 Rain 18 1014 82 9000 12.9 180 07:56 16.09.2019
1849 Clouds 19 1014 88 8000 14.9 180 07:37 16.09.2019
1850 Clear 20 1014 82 10000 14.4 190 07:19 16.09.2019
1851 Clear 25 1013 68 10000 12.3 190 06:45 16.09.2019
1852 Clear 27 1013 49 10000 7.7 170 06:26 16.09.2019
1853 Clouds 28 1013 10 10000 12.9 180 05:49 16.09.2019
1854 Clouds 28 1013 10 10000 12.9 180 05:29 16.09.2019
1855 Clear 27 1013 10 10000 3.6 320 04:38 16.09.2019
1856 Clear 25 1014 28 10000 2.6 260 02:36 16.09.2019
1857 Clear 21 1015 34 10000 3.43 322.823 00:44 16.09.2019
1858 Clear 19 1015 28 10000 3.6 330 00:26 16.09.2019
1859 Clear 18 1015 36 10000 2.6 290 23:44 15.09.2019
1860 Clear 17 1015 36 10000 3.1 300 23:21 15.09.2019
1861 Clear 16 1015 36 10000 3.1 300 22:59 15.09.2019
1862 Clear 16 1015 44 10000 2.1 340 22:37 15.09.2019
1863 Clear 16 1015 51 10000 3.1 350 22:18 15.09.2019
1864 Clear 15 1015 54 10000 3.1 330 21:55 15.09.2019
1865 Clear 15 1015 54 10000 3.1 330 21:37 15.09.2019
1866 Clear 14 1015 55 10000 2.6 340 21:18 15.09.2019
1867 Clear 14 1015 62 10000 3.1 350 20:44 15.09.2019
1868 Clear 14 1015 62 10000 3.1 350 20:44 15.09.2019
1869 Clear 14 1015 62 10000 3.1 350 20:25 15.09.2019
1870 Clear 14 1016 62 10000 1.5 340 19:47 15.09.2019
1871 Clear 14 1016 62 10000 1.5 340 19:27 15.09.2019
1872 Clear 14 1016 55 10000 2.6 300 18:56 15.09.2019
1873 Clear 14 1016 55 10000 2.6 300 18:38 15.09.2019
1874 Clear 14 1016 55 10000 2.6 350 18:20 15.09.2019
1875 Clear 15 1017 59 10000 2.1 360 17:43 15.09.2019
1876 Clear 15 1017 59 10000 2.1 360 17:22 15.09.2019
1877 Clear 15 1017 52 10000 2.6 350 16:58 15.09.2019
1878 Clear 15 1017 55 10000 1.45 286.809 16:40 15.09.2019
1879 Clear 15 1017 55 10000 1.45 286.809 16:40 15.09.2019
1880 Clear 16 1017 52 10000 1.45 286.809 16:21 15.09.2019
1881 Clear 16 1017 48 10000 2.1 340 15:56 15.09.2019
1882 Clear 17 1017 48 10000 2.1 340 15:37 15.09.2019
1883 Clear 17 1018 45 10000 0.5 290 15:18 15.09.2019
1884 Clear 17 1018 45 10000 0.5 290 14:55 15.09.2019
1885 Clear 17 1018 43 10000 0.5 10 14:37 15.09.2019
1886 Clear 17 1018 52 10000 3.1 20 14:18 15.09.2019
1887 Clear 18 1018 52 10000 2.6 10 13:43 15.09.2019
1888 Clear 18 1018 49 10000 3.1 20 13:21 15.09.2019
1889 Clear 18 1018 56 10000 2.1 20 12:42 15.09.2019
1890 Clear 19 1018 52 10000 3.1 10 12:24 15.09.2019
1891 Clear 19 1018 52 10000 3.1 10 11:58 15.09.2019
1892 Clear 19 1018 49 10000 3.6 30 11:40 15.09.2019
1893 Clear 20 1018 46 10000 4.6 20 11:20 15.09.2019
1894 Clear 21 1017 43 10000 5.1 30 10:42 15.09.2019
1895 Clear 22 1017 35 10000 6.7 30 10:22 15.09.2019
1896 Clear 22 1017 35 10000 6.7 30 09:58 15.09.2019
1897 Clear 23 1017 33 10000 8.2 30 09:37 15.09.2019
1898 Clear 25 1017 33 10000 8.2 30 09:19 15.09.2019
1899 Clear 26 1017 31 10000 8.2 40 08:45 15.09.2019
1900 Clear 26 1017 31 10000 8.2 40 08:26 15.09.2019
1901 Clear 26 1017 26 10000 7.2 30 07:48 15.09.2019
1902 Clear 27 1017 24 10000 6.2 70 07:26 15.09.2019
1903 Clear 28 1018 15 10000 4.6 70 06:39 15.09.2019
1904 Clear 24 1021 31 10000 4.6 320 03:25 15.09.2019
1905 Clear 21 1022 40 10000 4.6 320 02:33 15.09.2019
1906 Clear 18 1022 55 10000 4.6 320 01:39 15.09.2019
1907 Clear 17 1022 63 10000 5.7 310 01:19 15.09.2019
1908 Clear 15 1022 71 10000 5.7 320 00:43 15.09.2019
1909 Clear 13 1022 81 10000 5.7 320 00:21 15.09.2019
1910 Clear 12 1022 81 10000 5.7 320 23:58 14.09.2019
1911 Clear 11 1022 87 10000 5.1 320 23:39 14.09.2019
1912 Rain 10 1022 87 10000 5.1 320 23:39 14.09.2019
1913 Clear 11 1022 87 10000 5.1 320 23:39 14.09.2019
1914 Rain 10 1022 81 10000 4.6 310 23:21 14.09.2019
1915 Rain 9 1022 81 10000 4.6 310 22:59 14.09.2019
1916 Clear 9 1022 81 10000 4.6 300 22:40 14.09.2019
1917 Rain 8 1022 81 10000 4.6 300 22:20 14.09.2019
1918 Clear 9 1022 81 10000 4.6 310 21:56 14.09.2019
1919 Clear 8 1021 81 10000 3.6 320 21:38 14.09.2019
1920 Clear 8 1021 81 10000 3.6 320 21:19 14.09.2019
1921 Clear 8 1021 87 10000 3.1 320 20:40 14.09.2019
1922 Clear 8 1021 81 10000 3.1 320 20:22 14.09.2019
1923 Clear 8 1021 81 10000 3.1 320 19:59 14.09.2019
1924 Clear 8 1021 81 10000 3.1 320 19:59 14.09.2019
1925 Clear 8 1022 81 10000 3.6 310 19:40 14.09.2019
1926 Clear 8 1022 100 10000 2.06 290.005 19:20 14.09.2019
1927 Clear 8 1022 76 10000 3.1 350 18:42 14.09.2019
1928 Clear 9 1023 93 10000 1.9 276.447 18:22 14.09.2019
1929 Clear 9 1023 93 10000 1.9 276.447 17:59 14.09.2019
1930 Clear 9 1023 100 10000 1.9 276.447 17:39 14.09.2019
1931 Clear 9 1023 100 10000 1.9 276.447 17:21 14.09.2019
1932 Clear 9 1023 100 10000 1.5 30 16:46 14.09.2019
1933 Clear 9 1024 100 10000 1.9 276.447 16:24 14.09.2019
1934 Clear 10 1024 100 10000 1.9 276.447 15:56 14.09.2019
1935 Clear 10 1024 93 10000 1.9 276.447 15:56 14.09.2019
1936 Clear 10 1024 93 10000 1.9 276.447 15:38 14.09.2019
1937 Clear 10 1024 93 10000 1.31 242.454 15:18 14.09.2019
1938 Clear 10 1024 93 10000 2.1 310 14:43 14.09.2019
1939 Clear 10 1024 81 10000 1.31 242.454 14:19 14.09.2019
1940 Clear 11 1024 81 10000 1.31 242.454 13:48 14.09.2019
1941 Clear 11 1024 81 10000 1.27 248.82 13:23 14.09.2019
1942 Clear 12 1024 81 10000 1.27 248.82 12:58 14.09.2019
1943 Clear 12 1024 62 10000 2.6 110 12:37 14.09.2019
1944 Clear 13 1023 67 10000 3.1 140 12:18 14.09.2019
1945 Clear 14 1023 63 10000 3.6 150 11:40 14.09.2019
1946 Clear 14 1023 63 10000 3.6 150 11:19 14.09.2019
1947 Clear 15 1023 63 10000 4.1 140 10:38 14.09.2019
1948 Clear 15 1023 63 10000 4.1 140 10:20 14.09.2019
1949 Clear 16 1022 55 10000 4.6 130 09:57 14.09.2019
1950 Clear 16 1022 55 10000 4.6 130 09:39 14.09.2019
1951 Clear 17 1022 55 10000 5.1 130 09:19 14.09.2019
1952 Clear 18 1022 55 10000 5.7 130 08:46 14.09.2019
1953 Clear 18 1022 55 10000 5.7 130 08:24 14.09.2019
1954 Clear 18 1022 52 10000 5.7 130 07:47 14.09.2019
1955 Clouds 19 1022 52 10000 6.2 130 07:28 14.09.2019
1956 Clouds 19 1022 48 10000 6.2 130 06:52 14.09.2019
1957 Clouds 19 1022 48 10000 6.2 130 06:28 14.09.2019
1958 Clouds 20 1022 55 10000 6.2 150 05:26 14.09.2019
1959 Clouds 20 1023 63 10000 5.7 180 03:46 14.09.2019
1960 Clouds 20 1023 68 10000 7.2 180 02:55 14.09.2019
1961 Clouds 19 1023 63 10000 7.7 170 01:55 14.09.2019
1962 Clouds 18 1023 59 10000 6.2 210 01:23 14.09.2019
1963 Clouds 18 1023 59 10000 6.2 210 00:59 14.09.2019
1964 Clouds 17 1022 51 10000 5.1 220 00:39 14.09.2019
1965 Clouds 17 1022 51 10000 5.1 220 00:39 14.09.2019
1966 Clouds 16 1022 55 10000 5.7 230 00:21 14.09.2019
1967 Clouds 16 1022 55 10000 5.7 230 00:21 14.09.2019
1968 Clouds 16 1022 55 10000 5.7 230 00:21 14.09.2019
1969 Clouds 16 1022 55 10000 5.7 230 00:21 14.09.2019
1970 Clouds 14 1021 55 10000 6.7 230 23:38 13.09.2019
1971 Clouds 13 1021 62 10000 7.7 180 23:19 13.09.2019
1972 Clouds 12 1021 62 10000 7.7 180 22:59 13.09.2019
1973 Clear 11 1021 66 10000 1.5 220 22:39 13.09.2019
1974 Clouds 10 1020 66 10000 7.7 180 22:20 13.09.2019
1975 Clouds 11 1020 66 10000 7.7 180 21:56 13.09.2019
1976 Clear 11 1019 66 10000 5.1 230 21:37 13.09.2019
1977 Clear 11 1019 66 10000 5.1 230 21:19 13.09.2019
1978 Clear 9 1019 71 10000 5.1 230 20:55 13.09.2019
1979 Clear 10 1018 81 10000 3.6 320 20:36 13.09.2019
1980 Clear 10 1018 81 10000 3.6 320 20:18 13.09.2019
1981 Clear 9 1018 87 10000 3.1 320 19:43 13.09.2019
1982 Clouds 9 1019 93 150 1.5 200 19:22 13.09.2019
1983 Clear 10 1018 87 10000 3.1 290 18:58 13.09.2019
1984 Clear 10 1018 87 10000 3.1 290 18:37 13.09.2019
1985 Clear 10 1019 82 10000 1.49 264.339 18:19 13.09.2019
1986 Clouds 10 1019 100 250 1.5 340 17:44 13.09.2019
1987 Clouds 10 1020 100 500 1.49 264.339 17:21 13.09.2019
1988 Clear 11 1019 82 10000 3.1 350 16:59 13.09.2019
1989 Clouds 11 1020 93 10000 1.5 230 16:39 13.09.2019
1990 Clouds 11 1020 93 10000 1.49 264.339 16:18 13.09.2019
1991 Clouds 12 1020 93 10000 1.49 264.339 15:42 13.09.2019
1992 Clouds 12 1020 93 10000 1.67 329.632 15:23 13.09.2019
1993 Clouds 13 1020 93 10000 1.67 329.632 14:55 13.09.2019
1994 Clouds 14 1020 93 10000 2.1 10 14:37 13.09.2019
1995 Clouds 14 1020 87 10000 2.6 40 14:18 13.09.2019
1996 Clouds 14 1021 82 10000 0.5 110 13:41 13.09.2019
1997 Clouds 14 1021 82 10000 1.32 303.787 13:22 13.09.2019
1998 Clouds 14 1021 77 10000 1.32 303.787 12:45 13.09.2019
1999 Clear 14 1021 72 10000 3.1 30 12:25 13.09.2019
2000 Clear 14 1021 72 10000 3.1 30 12:25 13.09.2019
2001 Clear 15 1021 72 10000 3.1 30 11:57 13.09.2019
2002 Clear 15 1021 67 10000 3.6 40 11:20 13.09.2019
2003 Clear 16 1021 67 10000 3.6 40 10:57 13.09.2019
2004 Clear 16 1020 63 10000 4.6 40 10:37 13.09.2019
2005 Clear 16 1020 63 10000 5.7 50 10:18 13.09.2019
2006 Clear 17 1020 63 10000 6.7 70 09:43 13.09.2019
2007 Clear 18 1020 59 10000 6.7 60 09:20 13.09.2019
2008 Clear 18 1020 59 10000 6.7 60 08:55 13.09.2019
2009 Clear 19 1020 59 10000 5.7 70 08:37 13.09.2019
2010 Clear 19 1020 55 10000 5.7 80 08:19 13.09.2019
2011 Clear 20 1020 59 10000 5.1 90 07:41 13.09.2019
2012 Clear 20 1020 55 10000 4.6 80 07:21 13.09.2019
2013 Clouds 21 1020 55 10000 4.1 50 06:38 13.09.2019
2014 Clouds 21 1022 59 10000 4.1 130 05:34 13.09.2019
2015 Clouds 20 1023 59 10000 4.1 120 03:53 13.09.2019
2016 Clouds 19 1023 59 10000 4.1 120 03:25 13.09.2019
2017 Clouds 18 1024 67 10000 6.7 150 02:20 13.09.2019
2018 Rain 18 1024 67 10000 7.7 140 01:37 13.09.2019
2019 Rain 16 1024 72 10000 7.2 150 00:59 13.09.2019
2020 Rain 15 1024 72 10000 6.7 150 00:35 13.09.2019
2021 Rain 14 1022 77 10000 4.1 160 23:53 12.09.2019
2022 Rain 14 1022 77 10000 4.1 160 23:26 12.09.2019
2023 Clouds 14 1022 82 10000 4.6 150 22:58 12.09.2019
2024 Clouds 13 1021 77 10000 5.1 160 22:40 12.09.2019
2025 Clouds 13 1021 82 10000 5.7 150 22:22 12.09.2019
2026 Clouds 13 1021 82 10000 5.7 150 21:56 12.09.2019
2027 Clouds 13 1020 82 10000 5.1 150 21:37 12.09.2019
2028 Clouds 13 1020 82 10000 6.7 160 21:19 12.09.2019
2029 Clouds 13 1020 82 10000 7.2 160 20:44 12.09.2019
2030 Clouds 13 1020 82 10000 7.2 160 20:23 12.09.2019
2031 Clear 14 1019 77 10000 7.7 160 19:58 12.09.2019
2032 Clear 14 1019 77 10000 7.7 160 19:40 12.09.2019
2033 Clear 13 1019 67 10000 5.7 190 19:19 12.09.2019
2034 Clear 12 1019 67 10000 5.7 190 18:57 12.09.2019
2035 Clear 13 1018 72 10000 3.1 190 18:36 12.09.2019
2036 Clear 13 1018 72 10000 3.1 210 18:18 12.09.2019
2037 Clear 14 1018 63 10000 1.5 150 17:41 12.09.2019
2038 Clear 14 1018 63 10000 3.6 200 17:20 12.09.2019
2039 Clear 14 1018 63 10000 3.6 200 16:58 12.09.2019
2040 Clear 14 1018 42 10000 2.1 100 16:40 12.09.2019
2041 Clear 14 1018 42 10000 2.1 100 16:19 12.09.2019
2042 Clouds 14 1018 54 10000 0.5 230 15:41 12.09.2019
2043 Rain 14 1018 54 10000 0.5 230 15:23 12.09.2019
2044 Clear 15 1019 55 10000 0.5 110 14:46 12.09.2019
2045 Rain 16 1019 41 10000 2.1 270 14:23 12.09.2019
2046 Clear 16 1019 45 10000 2.6 150 13:59 12.09.2019
2047 Clear 16 1019 55 10000 5.1 200 13:38 12.09.2019
2048 Clear 17 1019 48 10000 3.6 200 13:20 12.09.2019
2049 Clouds 17 1018 34 10000 2.6 110 12:47 12.09.2019
2050 Drizzle 19 1018 34 10000 3.6 150 12:19 12.09.2019
2051 Clear 19 1018 28 10000 3.6 150 11:57 12.09.2019
2052 Clear 19 1018 28 10000 3.6 150 11:39 12.09.2019
2053 Clear 19 1017 32 10000 2.1 230 11:21 12.09.2019
2054 Rain 20 1017 16 10000 2.6 280 10:48 12.09.2019
2055 Rain 20 1017 16 10000 2.6 280 10:26 12.09.2019
2056 Clear 21 1017 15 10000 3.6 270 09:56 12.09.2019
2057 Clear 22 1017 15 10000 3.6 270 09:36 12.09.2019
2058 Clear 22 1017 17 10000 4.1 240 09:18 12.09.2019
2059 Clear 23 1017 17 10000 4.6 240 08:41 12.09.2019
2060 Clear 23 1016 24 10000 4.1 220 08:22 12.09.2019
2061 Clear 24 1016 22 10000 5.1 230 07:45 12.09.2019
2062 Clear 24 1016 13 10000 6.2 250 07:20 12.09.2019
2063 Clear 25 1016 14 10000 6.2 250 06:51 12.09.2019
2064 Clear 26 1016 14 10000 6.2 250 06:31 12.09.2019
2065 Clear 26 1018 15 10000 6.2 250 05:52 12.09.2019
2066 Clear 26 1018 15 10000 6.2 250 05:34 12.09.2019
2067 Clear 24 1019 16 10000 6.2 330 04:42 12.09.2019
2068 Clear 21 1022 34 10000 5.7 330 03:18 12.09.2019
2069 Clear 16 1023 62 10000 4.6 310 01:42 12.09.2019
2070 Clear 15 1024 62 10000 4.1 310 01:21 12.09.2019
2071 Clear 14 1024 62 10000 4.6 320 00:45 12.09.2019
2072 Clear 12 1024 71 10000 4.6 320 00:27 12.09.2019
2073 Clear 10 1024 81 10000 3.6 330 23:43 11.09.2019
2074 Clear 9 1024 81 10000 3.6 330 23:25 11.09.2019
2075 Rain 8 1024 87 10000 4.6 320 22:57 11.09.2019
2076 Clear 7 1024 87 10000 4.1 310 22:38 11.09.2019
2077 Rain 7 1024 87 10000 4.1 310 22:19 11.09.2019
2078 Clear 7 1024 87 10000 4.1 330 21:57 11.09.2019
2079 Clear 7 1024 87 10000 4.1 330 21:39 11.09.2019
2080 Clear 7 1024 100 10000 2.2 282.512 21:20 11.09.2019
2081 Clear 7 1024 100 10000 2.2 282.512 20:54 11.09.2019
2082 Clear 7 1024 87 10000 3.6 320 20:36 11.09.2019
2083 Clear 7 1024 93 10000 3.6 320 20:18 11.09.2019
2084 Clear 7 1024 93 10000 3.6 320 19:55 11.09.2019
2085 Clear 7 1024 87 10000 2.6 340 19:37 11.09.2019
2086 Clear 8 1025 87 10000 2.1 10 19:18 11.09.2019
2087 Clear 8 1025 81 10000 2.16 280.851 18:42 11.09.2019
2088 Clear 8 1026 100 3500 1.45 289.484 18:23 11.09.2019
2089 Clear 8 1027 100 10000 1.45 289.484 17:58 11.09.2019
2090 Clear 8 1027 100 10000 1.45 289.484 17:40 11.09.2019
2091 Clear 8 1027 100 10000 1.45 289.484 17:21 11.09.2019
2092 Clear 9 1027 93 10000 1.45 289.484 16:54 11.09.2019
2093 Clear 9 1027 93 10000 1.45 289.484 16:36 11.09.2019
2094 Clear 9 1027 100 10000 1.45 289.484 16:18 11.09.2019
2095 Clear 10 1027 100 10000 1.45 289.484 15:45 11.09.2019
2096 Clear 10 1027 71 10000 3.1 310 15:22 11.09.2019
2097 Clear 10 1028 93 10000 0.67 350.693 14:57 11.09.2019
2098 Clear 11 1028 93 10000 0.67 350.693 14:38 11.09.2019
2099 Clear 11 1028 67 10000 3.1 320 14:19 11.09.2019
2100 Clear 12 1028 81 10000 3.1 80 13:55 11.09.2019
2101 Clear 12 1028 81 10000 3.1 80 13:36 11.09.2019
2102 Clear 12 1028 81 10000 2.1 40 13:18 11.09.2019
2103 Clear 13 1028 76 10000 1.5 10 12:41 11.09.2019
2104 Clear 13 1028 71 10000 2.1 10 12:21 11.09.2019
2105 Clear 14 1028 71 10000 2.1 10 11:56 11.09.2019
2106 Clear 14 1027 71 10000 3.1 60 11:36 11.09.2019
2107 Clear 15 1027 67 10000 4.1 70 11:18 11.09.2019
2108 Clear 15 1027 59 10000 5.7 30 10:40 11.09.2019
2109 Clear 15 1027 59 10000 7.2 40 10:22 11.09.2019
2110 Clear 16 1027 59 10000 7.2 40 09:56 11.09.2019
2111 Clear 17 1027 55 10000 6.7 30 09:36 11.09.2019
2112 Clear 17 1027 55 10000 7.2 40 09:18 11.09.2019
2113 Clear 19 1027 55 10000 6.7 60 08:40 11.09.2019
2114 Clear 19 1027 52 10000 6.7 70 08:21 11.09.2019
2115 Clear 19 1027 52 10000 6.2 60 07:49 11.09.2019
2116 Clear 19 1027 52 10000 7.2 80 07:23 11.09.2019
2117 Clear 20 1028 48 10000 7.2 90 06:56 11.09.2019
2118 Clear 20 1028 48 10000 7.2 90 06:36 11.09.2019
2119 Clear 20 1028 48 10000 6.7 70 05:53 11.09.2019
2120 Clear 20 1028 48 10000 6.7 70 05:33 11.09.2019
2121 Clear 20 1029 39 10000 1.5 20 04:52 11.09.2019
2122 Clear 19 1029 39 10000 3.1 350 03:58 11.09.2019
2123 Clear 18 1030 39 10000 2.6 10 03:25 11.09.2019
2124 Clouds 17 1031 48 10000 3.1 300 02:28 11.09.2019
2125 Clouds 14 1031 58 10000 4.1 300 01:28 11.09.2019
2126 Clouds 13 1031 62 10000 3.6 300 00:37 11.09.2019
2127 Clouds 11 1031 66 10000 3.6 330 00:18 11.09.2019
2128 Clouds 9 1030 76 10000 3.6 330 23:40 10.09.2019
2129 Clouds 8 1030 76 10000 3.6 320 23:21 10.09.2019
2130 Clouds 7 1030 76 10000 3.6 320 22:54 10.09.2019
2131 Clouds 6 1030 93 10000 1.95 263.364 22:36 10.09.2019
2132 Clouds 6 1030 100 10000 1.95 263.364 22:18 10.09.2019
2133 Clouds 6 1030 100 10000 1.95 263.364 22:18 10.09.2019
2134 Clear 6 1029 81 10000 4.1 310 21:54 10.09.2019
2135 Clear 6 1029 81 10000 4.1 310 21:36 10.09.2019
2136 Clear 6 1028 76 10000 4.1 320 21:18 10.09.2019
2137 Clear 6 1028 76 10000 4.1 320 21:18 10.09.2019
2138 Clear 6 1028 76 10000 4.1 320 20:54 10.09.2019
2139 Clouds 7 1028 76 10000 3.6 350 20:36 10.09.2019
2140 Clouds 7 1028 81 10000 2.6 330 20:18 10.09.2019
2141 -273 0 0 0 0 0 19:55 10.09.2019
2142 -273 0 0 0 0 0 19:55 10.09.2019
2143 Clouds 7 1028 81 10000 3.1 290 19:36 10.09.2019
2144 Clouds 7 1028 76 10000 3.1 310 19:18 10.09.2019
2145 Clear 7 1028 76 10000 3.1 320 18:43 10.09.2019
2146 Clear 8 1028 71 10000 3.6 340 18:22 10.09.2019
2147 Clouds 8 1028 71 10000 3.1 350 17:57 10.09.2019
2148 Clear 8 1029 100 10000 1.5 40 17:39 10.09.2019
2149 Clear 8 1029 93 10000 1.5 40 17:19 10.09.2019
2150 Clear 8 1029 93 10000 1.5 40 16:57 10.09.2019
2151 Clear 9 1030 87 10000 2.1 242.386 16:38 10.09.2019
2152 Clear 9 1030 81 10000 2.1 242.386 16:19 10.09.2019
2153 Clear 9 1030 93 10000 2.1 242.386 15:44 10.09.2019
2154 Clouds 9 1029 66 10000 3.6 270 15:23 10.09.2019
2155 Clouds 9 1029 66 10000 3.6 270 14:58 10.09.2019
2156 Clouds 9 1029 66 10000 3.6 270 14:39 10.09.2019
2157 Clear 9 1029 81 10000 2.33 237.591 14:21 10.09.2019
2158 Clear 10 1029 75 10000 2.6 250 13:47 10.09.2019
2159 Clear 10 1029 75 10000 2.6 250 13:47 10.09.2019
2160 Clouds 10 1028 67 10000 4.6 170 13:23 10.09.2019
2161 Clouds 11 1028 67 10000 6.2 170 12:55 10.09.2019
2162 Clouds 11 1028 67 10000 6.2 170 12:36 10.09.2019
2163 Clouds 12 1027 62 10000 7.2 160 12:18 10.09.2019
2164 Clear 12 1027 62 10000 6.7 160 11:42 10.09.2019
2165 Clouds 13 1026 62 10000 8.2 160 11:22 10.09.2019
2166 Clouds 13 1026 62 10000 8.2 160 10:59 10.09.2019
2167 Clouds 13 1026 62 10000 8.2 160 10:37 10.09.2019
2168 Clouds 14 1026 67 10000 9.8 170 10:18 10.09.2019
2169 Clouds 14 1026 62 10000 6.7 180 09:44 10.09.2019
2170 Clouds 15 1025 62 10000 6.7 180 09:20 10.09.2019
2171 Clouds 15 1025 62 10000 6.7 180 08:56 10.09.2019
2172 Clouds 16 1025 62 10000 9.8 190 08:38 10.09.2019
2173 Clouds 16 1025 62 10000 10.8 180 08:19 10.09.2019
2174 Clouds 16 1025 62 10000 10.3 190 07:43 10.09.2019
2175 Clouds 16 1025 62 10000 10.3 190 07:25 10.09.2019
2176 Clouds 17 1024 62 10000 10.8 180 06:46 10.09.2019
2177 Clouds 17 1024 62 10000 10.8 180 06:28 10.09.2019
2178 Clouds 16 1025 58 10000 10.8 190 04:38 10.09.2019
2179 Drizzle 15 1025 62 10000 9.8 200 02:43 10.09.2019
2180 Clouds 14 1024 62 10000 8.7 200 02:22 10.09.2019
2181 Clouds 14 1024 62 10000 9.3 200 01:52 10.09.2019
2182 Clouds 14 1024 62 10000 9.3 200 01:52 10.09.2019
2183 Clouds 14 1024 62 10000 9.3 200 01:52 10.09.2019
2184 Clouds 14 1024 62 10000 9.3 200 01:52 10.09.2019
2185 Clouds 14 1024 62 10000 9.3 200 01:52 10.09.2019
2186 Clouds 13 1024 54 10000 9.3 210 01:23 10.09.2019
2187 Clouds 12 1024 46 10000 8.2 220 00:44 10.09.2019
2188 Clouds 11 1023 53 10000 6.7 210 00:23 10.09.2019
2189 Clouds 10 1023 61 10000 5.7 270 23:41 09.09.2019
2190 Clouds 9 1022 61 10000 6.7 210 23:19 09.09.2019
2191 Clouds 8 1022 52 10000 5.1 270 22:56 09.09.2019
2192 Clouds 8 1022 52 10000 5.1 270 22:37 09.09.2019
2193 Clouds 8 1022 49 10000 5.7 270 22:19 09.09.2019
2194 Clouds 8 1021 61 10000 5.1 270 21:56 09.09.2019
2195 Clouds 8 1021 61 10000 5.1 270 21:37 09.09.2019
2196 Clouds 8 1021 62 10000 5.1 260 21:19 09.09.2019
2197 Clouds 8 1021 62 10000 5.1 240 20:55 09.09.2019
2198 Clouds 8 1021 62 10000 5.1 240 20:37 09.09.2019
2199 Clouds 8 1021 62 10000 5.1 270 20:18 09.09.2019
2200 Clouds 9 1020 62 10000 5.1 260 19:56 09.09.2019
2201 Clouds 9 1020 62 10000 5.1 260 19:38 09.09.2019
2202 Clouds 9 1020 62 10000 9.8 210 19:19 09.09.2019
2203 Clouds 9 1020 62 10000 9.8 210 18:57 09.09.2019
2204 Clouds 9 1020 62 10000 9.8 210 18:38 09.09.2019
2205 Clouds 9 1020 50 10000 7.7 240 18:20 09.09.2019
2206 Clouds 10 1020 50 10000 8.2 260 17:57 09.09.2019
2207 Clouds 10 1020 50 10000 8.2 260 17:39 09.09.2019
2208 Clouds 10 1020 50 10000 8.7 220 17:20 09.09.2019
2209 Clouds 10 1020 50 10000 9.3 220 16:55 09.09.2019
2210 Clouds 10 1020 50 10000 9.3 220 16:55 09.09.2019
2211 Clouds 10 1020 50 10000 9.3 220 16:37 09.09.2019
2212 Clouds 10 1020 50 10000 8.7 230 16:18 09.09.2019
2213 Clouds 11 1020 50 10000 9.8 230 15:44 09.09.2019
2214 Clouds 11 1019 50 10000 10.3 230 15:24 09.09.2019
2215 Clouds 11 1019 50 10000 10.3 230 14:59 09.09.2019
2216 Clouds 11 1019 58 10000 9.8 230 14:40 09.09.2019
2217 Clouds 11 1019 58 10000 10.8 210 14:22 09.09.2019
2218 Clouds 12 1018 62 10000 11.8 220 13:58 09.09.2019
2219 Clouds 12 1018 62 10000 11.8 220 13:40 09.09.2019
2220 Clouds 12 1018 58 10000 11.8 220 13:19 09.09.2019
2221 Rain 12 1018 58 10000 10.8 220 12:57 09.09.2019
2222 Rain 12 1018 58 10000 10.8 220 12:37 09.09.2019
2223 Rain 12 1017 58 10000 12.9 180 12:18 09.09.2019
2224 Rain 12 1017 62 10000 12.9 180 11:43 09.09.2019
2225 Rain 12 1016 62 10000 12.9 180 11:20 09.09.2019
2226 Rain 12 1016 62 10000 12.9 180 11:20 09.09.2019
2227 Rain 12 1016 62 10000 12.9 180 10:57 09.09.2019
2228 Rain 12 1016 62 10000 7.7 240 10:39 09.09.2019
2229 Rain 12 1016 62 10000 7.7 240 10:19 09.09.2019
2230 Rain 13 1015 62 10000 12.9 180 09:49 09.09.2019
2231 Rain 13 1015 62 10000 12.9 180 09:30 09.09.2019
2232 Rain 14 1014 44 7000 11.3 240 08:57 09.09.2019
2233 Rain 14 1013 58 10000 10.8 200 08:38 09.09.2019
2234 Rain 15 1012 58 10000 12.9 180 08:19 09.09.2019
2235 Rain 15 1012 51 10000 11.8 200 07:44 09.09.2019
2236 Rain 15 1011 48 10000 12.9 180 07:22 09.09.2019
2237 Rain 15 1011 48 10000 12.9 180 06:56 09.09.2019
2238 Rain 15 1011 48 10000 12.9 180 06:56 09.09.2019
2239 Rain 16 1011 48 10000 12.9 180 06:31 09.09.2019
2240 Clear 17 1011 33 10000 10.3 210 04:54 09.09.2019
2241 Clear 15 1011 35 10000 10.3 210 02:43 09.09.2019
2242 Clear 14 1011 41 10000 10.3 210 01:50 09.09.2019
2243 Clear 13 1010 46 10000 10.3 250 00:39 09.09.2019
2244 Clear 12 1010 50 10000 10.3 250 00:21 09.09.2019
2245 Clear 11 1010 50 10000 8.2 250 23:44 08.09.2019
2246 Clear 11 1009 50 10000 7.7 250 23:23 08.09.2019
2247 Clear 11 1009 54 10000 8.7 260 22:56 08.09.2019
2248 Clear 11 1009 54 10000 8.7 260 22:37 08.09.2019
2249 Clear 11 1009 50 10000 9.3 260 22:19 08.09.2019
2250 Rain 11 1009 54 10000 8.7 250 21:42 08.09.2019
2251 Rain 11 1008 54 10000 9.8 250 21:22 08.09.2019
2252 Rain 11 1008 54 10000 9.8 250 20:58 08.09.2019
2253 Rain 11 1008 54 10000 9.3 250 20:39 08.09.2019
2254 Rain 11 1008 54 10000 7.7 260 20:20 08.09.2019
2255 Rain 11 1008 54 10000 7.7 270 19:58 08.09.2019
2256 Rain 11 1008 54 10000 7.7 270 19:37 08.09.2019
2257 Clouds 11 1008 46 10000 4.6 250 19:19 08.09.2019
2258 Clouds 12 1008 46 10000 4.6 250 18:57 08.09.2019
2259 Clear 12 1008 47 10000 8.7 270 18:38 08.09.2019
2260 Clear 12 1008 47 10000 8.2 280 18:18 08.09.2019
2261 Clear 12 1008 43 10000 7.7 270 17:54 08.09.2019
2262 Clear 12 1008 43 10000 7.7 270 17:36 08.09.2019
2263 Clear 11 1009 46 10000 4.1 300 17:18 08.09.2019
2264 Clear 11 1009 46 10000 4.1 300 17:18 08.09.2019
2265 Clouds 10 1009 57 10000 3.1 310 16:43 08.09.2019
2266 Clouds 10 1010 50 10000 2.1 260 16:22 08.09.2019
2267 Clouds 10 1010 53 10000 4.1 270 15:58 08.09.2019
2268 Clear 11 1010 43 10000 6.2 280 15:40 08.09.2019
2269 Clear 11 1010 57 10000 5.7 290 15:21 08.09.2019
2270 Clear 11 1010 57 10000 5.1 300 14:56 08.09.2019
2271 Clear 11 1010 57 10000 5.1 300 14:37 08.09.2019
2272 Clear 12 1011 57 10000 5.1 290 14:19 08.09.2019
2273 -273 0 0 0 0 0 13:55 08.09.2019
2274 Clear 12 1011 58 10000 7.7 280 13:36 08.09.2019
2275 Clear 12 1011 58 10000 8.2 270 13:18 08.09.2019
2276 Clear 13 1012 58 10000 9.8 260 12:41 08.09.2019
2277 Clear 13 1011 51 10000 9.8 260 12:23 08.09.2019
2278 Clear 13 1011 51 10000 9.8 260 11:58 08.09.2019
2279 Clear 13 1011 51 10000 7.7 260 11:58 08.09.2019
2280 Clear 13 1011 51 10000 7.7 260 11:39 08.09.2019
2281 Clear 14 1011 51 10000 10.3 250 11:20 08.09.2019
2282 Clear 14 1011 51 10000 10.3 250 10:57 08.09.2019
2283 Clear 14 1010 33 10000 10.8 260 10:39 08.09.2019
2284 Clear 15 1010 31 10000 10.3 260 10:21 08.09.2019
2285 Clear 16 1010 29 10000 9.3 260 09:38 08.09.2019
2286 Clear 16 1010 33 10000 8.2 260 09:20 08.09.2019
2287 Clear 17 1009 38 10000 9.8 250 08:56 08.09.2019
2288 Clear 18 1009 37 10000 9.8 250 08:38 08.09.2019
2289 Clear 18 1009 25 10000 8.7 240 08:18 08.09.2019
2290 Clear 18 1009 25 10000 8.7 240 08:18 08.09.2019
2291 Clear 19 1009 25 10000 6.7 270 07:39 08.09.2019
2292 Clear 19 1009 25 10000 6.7 270 07:20 08.09.2019
2293 Clear 19 1009 25 10000 7.7 270 06:53 08.09.2019
2294 Clear 19 1009 25 10000 7.7 270 06:31 08.09.2019
2295 Clear 18 1010 25 10000 9.3 270 05:37 08.09.2019
2296 Clouds 17 1012 29 10000 10.3 250 03:56 08.09.2019
2297 Clouds 16 1012 33 10000 10.3 250 02:57 08.09.2019
2298 Clouds 15 1012 33 10000 10.3 250 02:26 08.09.2019
2299 Clouds 15 1013 33 10000 10.3 250 01:49 08.09.2019
2300 Clouds 14 1012 35 10000 10.3 250 01:22 08.09.2019
2301 Clouds 14 1012 37 10000 12.9 250 00:45 08.09.2019
2302 Clouds 13 1012 50 10000 9.3 270 00:26 08.09.2019
2303 Clouds 12 1012 40 10000 8.7 270 23:38 07.09.2019
2304 Clouds 12 1011 50 10000 12.9 250 23:20 07.09.2019
2305 Clouds 11 1011 40 10000 12.9 250 22:58 07.09.2019
2306 Clouds 11 1011 40 10000 12.9 250 22:39 07.09.2019
2307 Clear 11 1010 50 10000 12.9 250 22:20 07.09.2019
2308 Clear 11 1010 50 10000 5.7 260 21:43 07.09.2019
2309 Clear 11 1010 50 10000 5.7 260 21:25 07.09.2019
2310 Clear 12 1010 50 10000 7.2 270 20:58 07.09.2019
2311 Clear 12 1010 50 10000 6.7 260 20:39 07.09.2019
2312 Clear 12 1010 47 10000 7.2 260 20:20 07.09.2019
2313 Clear 12 1010 47 10000 7.2 260 19:55 07.09.2019
2314 Clear 12 1010 43 10000 7.7 250 19:37 07.09.2019
2315 Clear 12 1010 43 10000 9.8 260 19:19 07.09.2019
2316 Clear 13 1010 44 10000 10.8 270 18:56 07.09.2019
2317 Clear 13 1010 44 10000 10.8 270 18:36 07.09.2019
2318 Clear 13 1010 44 10000 10.8 270 18:18 07.09.2019
2319 Clear 13 1010 44 10000 8.7 270 17:56 07.09.2019
2320 Clear 13 1010 44 10000 8.7 270 17:38 07.09.2019
2321 Clear 12 1010 47 10000 11.8 260 17:18 07.09.2019
2322 Clear 12 1010 47 10000 11.8 260 17:18 07.09.2019
2323 Clear 12 1010 47 10000 9.8 260 16:43 07.09.2019
2324 Clear 12 1010 47 10000 8.2 260 16:21 07.09.2019
2325 Clear 12 1010 47 10000 8.2 260 15:57 07.09.2019
2326 Clear 12 1010 44 10000 6.2 260 15:38 07.09.2019
2327 Clear 13 1010 41 10000 6.2 270 15:20 07.09.2019
2328 Clear 13 1010 41 10000 6.2 270 14:55 07.09.2019
2329 Clear 12 1010 41 10000 6.2 270 14:36 07.09.2019
2330 Clear 13 1011 41 10000 8.7 270 14:18 07.09.2019
2331 Clear 13 1010 41 10000 4.6 260 13:43 07.09.2019
2332 Clear 13 1010 53 10000 5.1 270 13:25 07.09.2019
2333 Clear 13 1010 53 10000 5.1 270 13:25 07.09.2019
2334 Clear 13 1010 53 10000 6.7 270 12:54 07.09.2019
2335 Clear 13 1010 53 10000 6.7 270 12:36 07.09.2019
2336 Clear 13 1010 35 10000 6.2 260 12:18 07.09.2019
2337 Clear 14 1009 33 10000 7.7 270 11:40 07.09.2019
2338 Clear 14 1009 33 10000 6.7 270 11:21 07.09.2019
2339 Clear 14 1008 33 10000 10.3 270 10:41 07.09.2019
2340 Clear 14 1008 33 10000 11.8 270 10:22 07.09.2019
2341 Clear 14 1008 33 10000 11.8 270 09:59 07.09.2019
2342 Clear 15 1008 29 10000 11.8 270 09:40 07.09.2019
2343 Clear 15 1008 29 10000 11.8 270 09:40 07.09.2019
2344 Clear 15 1008 38 10000 10.3 270 09:21 07.09.2019
2345 Clear 16 1008 31 10000 7.7 270 08:48 07.09.2019
2346 Clear 17 1006 22 10000 12.3 270 08:30 07.09.2019
2347 Clear 17 1006 22 10000 11.8 270 07:49 07.09.2019
2348 Clear 17 1006 22 10000 12.9 270 07:28 07.09.2019
2349 Clear 17 1008 27 10000 7.7 290 06:57 07.09.2019
2350 Clear 18 1008 27 10000 7.7 290 06:39 07.09.2019
2351 Clear 18 1006 24 10000 9.3 280 05:38 07.09.2019
2352 Clear 18 1006 20 10000 12.9 280 04:26 07.09.2019
2353 Clear 17 1006 23 10000 16.5 280 03:27 07.09.2019
2354 Clear 17 1007 38 10000 12.9 280 02:22 07.09.2019
2355 Clear 16 1007 36 10000 13.4 280 01:27 07.09.2019
2356 Clouds 15 1007 38 10000 15.4 270 00:52 07.09.2019
2357 Clouds 14 1007 44 10000 15.4 270 00:23 07.09.2019
2358 Clouds 14 1006 44 10000 7.7 300 23:57 06.09.2019
2359 Clouds 13 1006 44 10000 7.7 300 23:37 06.09.2019
2360 Clouds 13 1006 50 10000 12.9 290 23:19 06.09.2019
2361 Clouds 13 1006 50 10000 12.9 290 23:19 06.09.2019
2362 Clouds 12 1006 50 10000 12.9 290 22:55 06.09.2019
2363 Clouds 11 1006 54 10000 12.9 270 22:36 06.09.2019
2364 Clouds 11 1006 54 10000 12.9 270 22:18 06.09.2019
2365 Clear 11 1006 54 10000 5.1 270 21:42 06.09.2019
2366 Clear 11 1005 54 10000 5.1 260 21:23 06.09.2019
2367 Clear 11 1005 54 10000 5.1 260 21:00 06.09.2019
2368 Clear 11 1005 57 10000 7.7 260 20:41 06.09.2019
2369 Clear 11 1004 54 10000 4.1 340 20:21 06.09.2019
2370 Clear 11 1004 54 10000 4.1 340 19:59 06.09.2019
2371 Clear 11 1004 54 10000 3.6 310 19:41 06.09.2019
2372 Clear 11 1004 47 10000 11.3 280 19:21 06.09.2019
2373 Clear 12 1004 50 10000 4.1 270 18:55 06.09.2019
2374 Clear 12 1004 50 10000 4.1 270 18:37 06.09.2019
2375 Clear 12 1004 50 10000 10.3 270 18:18 06.09.2019
2376 Clear 12 1003 47 10000 11.8 310 17:39 06.09.2019
2377 Clear 12 1003 43 10000 12.9 300 17:20 06.09.2019
2378 Clear 12 1003 47 10000 12.9 300 16:43 06.09.2019
2379 Clear 13 1003 44 10000 15.9 300 16:20 06.09.2019
2380 Clear 13 1003 44 10000 15.9 300 15:59 06.09.2019
2381 Clear 13 1003 47 10000 12.3 310 15:41 06.09.2019
2382 Clear 13 1004 47 10000 8.7 310 15:22 06.09.2019
2383 Clear 13 1004 47 10000 9.8 310 14:47 06.09.2019
2384 Clear 13 1004 47 10000 8.2 310 14:19 06.09.2019
2385 Clear 13 1004 50 10000 10.3 290 13:44 06.09.2019
2386 Clear 13 1004 50 10000 10.3 290 13:44 06.09.2019
2387 Clear 13 1005 54 10000 9.8 290 13:23 06.09.2019
2388 Clear 13 1004 58 10000 9.3 300 12:58 06.09.2019
2389 Clear 13 1004 58 10000 9.3 300 12:37 06.09.2019
2390 Clear 13 1004 58 10000 9.3 300 12:37 06.09.2019
2391 Rain 13 1004 58 10000 8.7 300 12:18 06.09.2019
2392 Rain 13 1005 71 10000 9.3 270 11:41 06.09.2019
2393 Clouds 15 1005 71 10000 10.3 270 11:23 06.09.2019
2394 Clouds 18 1001 40 10000 14.9 270 10:57 06.09.2019
2395 Dust 19 997 12 10000 15.4 280 10:39 06.09.2019
2396 Dust 25 996 8 10000 13.9 320 10:19 06.09.2019
2397 Dust 28 995 8 10000 15.9 320 09:40 06.09.2019
2398 Rain 28 996 9 10000 13.9 320 09:20 06.09.2019
2399 Clouds 28 996 9 10000 13.9 320 08:56 06.09.2019
2400 Clouds 27 996 60 10000 1 60 08:38 06.09.2019
2401 Clouds 27 997 64 10000 15.4 270 08:20 06.09.2019
2402 Clouds 27 997 64 10000 15.4 270 08:20 06.09.2019
2403 Clouds 26 997 56 10000 10.3 330 07:45 06.09.2019
2404 Clear 27 997 60 10000 6.7 30 07:26 06.09.2019
2405 Clear 26 997 64 10000 7.7 30 06:56 06.09.2019
2406 Clear 27 998 56 10000 7.7 30 05:58 06.09.2019
2407 Clear 26 1000 64 10000 7.2 30 05:27 06.09.2019
2408 Clear 25 1001 56 10000 7.2 40 04:41 06.09.2019
2409 Clouds 21 1003 49 10000 6.7 40 03:45 06.09.2019
2410 Clouds 21 1003 49 10000 6.7 40 03:45 06.09.2019
2411 Clouds 18 1006 60 10000 7.7 10 01:51 06.09.2019
2412 Clouds 16 1008 72 10000 7.7 20 00:38 06.09.2019
2413 Clouds 14 1009 100 10000 1.42 5.967 23:44 05.09.2019
2414 Clouds 13 1009 100 10000 1.42 5.967 23:25 05.09.2019
2415 Clouds 13 1009 100 10000 1.42 5.967 22:56 05.09.2019
2416 Clouds 12 1009 100 10000 1.42 5.967 22:37 05.09.2019
2417 Clouds 12 1009 87 10000 2.1 120 22:19 05.09.2019
2418 Clouds 12 1009 87 10000 2.6 140 21:56 05.09.2019
2419 Clouds 12 1009 87 10000 2.6 140 21:37 05.09.2019
2420 Clouds 12 1010 82 10000 0.93 295.073 21:19 05.09.2019
2421 Clouds 13 1010 87 10000 0.63 252.635 20:55 05.09.2019
2422 Clouds 12 1010 87 10000 0.63 252.635 20:37 05.09.2019
2423 Clouds 13 1010 82 10000 0.63 252.635 20:18 05.09.2019
2424 Clouds 13 1011 100 10000 0.63 252.635 19:42 05.09.2019
2425 Clouds 13 1011 100 10000 0.63 252.635 19:23 05.09.2019
2426 Clouds 13 1011 82 10000 0.63 252.635 18:58 05.09.2019
2427 Clouds 13 1011 100 10000 0.63 252.635 18:39 05.09.2019
2428 Clouds 13 1011 100 10000 1.16 331.555 18:20 05.09.2019
2429 Clouds 13 1012 93 10000 1.16 331.555 17:55 05.09.2019
2430 Clouds 13 1012 93 10000 1.16 331.555 17:37 05.09.2019
2431 Clouds 13 1013 93 10000 1.16 331.555 17:18 05.09.2019
2432 Clouds 13 1013 77 10000 1.16 331.555 16:40 05.09.2019
2433 Clouds 13 1013 93 10000 1.16 331.555 16:20 05.09.2019
2434 Clouds 13 1014 87 10000 1.16 331.555 15:58 05.09.2019
2435 Clouds 13 1014 87 10000 1.16 331.555 15:39 05.09.2019
2436 Clouds 13 1014 87 10000 1.16 331.555 15:39 05.09.2019
2437 Clouds 13 1014 87 10000 1.69 34.945 15:18 05.09.2019
2438 Clouds 14 1014 93 10000 1.69 34.945 14:43 05.09.2019
2439 Clouds 14 1015 93 10000 1.69 34.945 14:22 05.09.2019
2440 Clouds 14 1015 93 10000 1.69 34.945 13:44 05.09.2019
2441 Clear 14 1015 87 10000 1.64 41.442 13:24 05.09.2019
2442 Clear 15 1015 82 10000 1.64 41.442 12:59 05.09.2019
2443 Clear 15 1015 82 10000 1.64 41.442 12:41 05.09.2019
2444 Clear 15 1014 77 10000 2.1 110 12:23 05.09.2019
2445 Clear 16 1014 82 10000 3.1 90 11:44 05.09.2019
2446 Clouds 16 1014 68 10000 3.6 70 11:20 05.09.2019
2447 Clouds 17 1014 68 10000 3.6 70 10:57 05.09.2019
2448 Clouds 17 1014 68 10000 4.1 90 10:37 05.09.2019
2449 Clouds 17 1014 68 10000 4.1 90 10:37 05.09.2019
2450 Clouds 17 1014 63 10000 4.6 90 10:18 05.09.2019
2451 Clouds 18 1013 63 10000 5.1 90 09:41 05.09.2019
2452 Clouds 19 1013 63 10000 6.2 100 09:21 05.09.2019
2453 Clouds 19 1013 60 10000 5.7 110 08:56 05.09.2019
2454 Clouds 20 1013 60 10000 5.7 110 08:38 05.09.2019
2455 Clouds 20 1013 60 10000 5.1 100 08:19 05.09.2019
2456 Clouds 20 1013 56 10000 5.1 90 07:44 05.09.2019
2457 Clouds 21 1013 56 10000 5.7 70 07:24 05.09.2019
2458 Clouds 22 1013 56 10000 5.1 100 06:48 05.09.2019
2459 Clouds 22 1013 56 10000 4.6 90 06:28 05.09.2019
2460 Clouds 22 1014 64 10000 5.1 140 05:47 05.09.2019
2461 Clouds 22 1014 64 10000 5.1 140 05:28 05.09.2019
2462 Clouds 22 1015 64 10000 5.7 130 04:41 05.09.2019
2463 Clouds 22 1015 60 10000 4.6 140 04:18 05.09.2019
2464 Clouds 21 1016 63 10000 3.1 150 02:59 05.09.2019
2465 Clouds 21 1016 63 10000 3.1 150 02:59 05.09.2019
2466 Clear 20 1016 52 10000 3.1 70 02:38 05.09.2019
2467 Clouds 20 1016 63 10000 2.1 280 02:18 05.09.2019
2468 Clear 18 1016 63 10000 3.1 110 00:58 05.09.2019
2469 Clear 17 1016 63 10000 3.1 110 00:40 05.09.2019
2470 Clear 16 1016 72 10000 3.1 240 00:19 05.09.2019
2471 Clear 14 1016 82 10000 4.1 210 23:42 04.09.2019
2472 Clouds 13 1016 82 10000 6.2 190 23:23 04.09.2019
2473 Clear 13 1016 87 10000 6.7 190 22:49 04.09.2019
2474 Clear 13 1015 82 10000 6.2 190 22:21 04.09.2019
2475 Clear 13 1015 82 10000 7.2 190 21:58 04.09.2019
2476 Clear 13 1015 82 10000 7.2 190 21:39 04.09.2019
2477 Clear 13 1014 87 10000 7.7 190 21:20 04.09.2019
2478 Clear 14 1014 87 10000 7.7 190 20:55 04.09.2019
2479 Clear 14 1014 87 10000 7.7 190 20:37 04.09.2019
2480 Clear 14 1014 82 10000 7.7 190 20:18 04.09.2019
2481 Clear 14 1014 82 10000 7.2 190 19:44 04.09.2019
2482 Clouds 13 1014 81 10000 2.6 140 19:24 04.09.2019
2483 Clear 13 1014 82 10000 4.6 210 18:55 04.09.2019
2484 Clear 13 1014 82 10000 4.6 210 18:37 04.09.2019
2485 Clouds 14 1014 71 10000 2.07 253.899 18:19 04.09.2019
2486 Clear 14 1014 77 10000 4.1 190 17:41 04.09.2019
2487 Clear 15 1014 72 10000 4.6 200 17:23 04.09.2019
2488 Clear 15 1014 72 10000 4.6 200 16:57 04.09.2019
2489 Clear 15 1014 63 10000 5.7 360 16:39 04.09.2019
2490 Clear 16 1014 45 10000 4.6 20 16:20 04.09.2019
2491 -273 0 0 0 0 0 15:55 04.09.2019
2492 Clear 17 1014 32 10000 4.1 280 15:37 04.09.2019
2493 Clear 17 1014 32 10000 5.7 270 15:18 04.09.2019
2494 Clear 18 1014 30 10000 4.1 270 14:54 04.09.2019
2495 Clear 18 1014 30 10000 4.1 270 14:36 04.09.2019
2496 Clear 18 1014 30 10000 2.1 280 14:18 04.09.2019
2497 Clear 19 1014 28 10000 3.1 310 13:39 04.09.2019
2498 Clear 20 1014 28 10000 3.6 270 13:21 04.09.2019
2499 Clear 20 1013 25 10000 4.1 280 12:46 04.09.2019
2500 Clear 21 1013 25 10000 4.1 270 12:27 04.09.2019
2501 Clear 21 1013 25 10000 4.1 270 12:27 04.09.2019
2502 Clear 21 1013 25 10000 4.1 270 11:59 04.09.2019
2503 Clear 22 1013 23 10000 7.2 250 11:41 04.09.2019
2504 Clear 22 1013 42 10000 5.1 280 11:21 04.09.2019
2505 Clear 22 1012 16 10000 5.1 270 10:58 04.09.2019
2506 Clear 22 1012 16 10000 5.1 270 10:39 04.09.2019
2507 Clear 23 1012 15 10000 5.7 250 10:21 04.09.2019
2508 Clear 23 1011 14 10000 8.7 240 09:46 04.09.2019
2509 Clear 25 1011 20 10000 6.7 230 09:22 04.09.2019
2510 Clear 26 1011 20 10000 6.7 230 08:57 04.09.2019
2511 Clear 26 1011 12 10000 7.2 240 08:38 04.09.2019
2512 Clear 26 1010 11 10000 6.7 250 08:19 04.09.2019
2513 Clear 27 1010 25 10000 8.2 220 07:43 04.09.2019
2514 Clear 27 1010 14 10000 7.7 230 07:24 04.09.2019
2515 Clear 27 1010 20 10000 6.2 310 06:39 04.09.2019
2516 Clear 25 1012 35 10000 4.1 110 04:56 04.09.2019
2517 Clear 24 1013 38 10000 4.1 110 04:25 04.09.2019
2518 Clear 23 1014 40 10000 4.1 310 03:45 04.09.2019
2519 Clear 17 1015 59 10000 3.1 310 01:22 04.09.2019
2520 Clear 15 1016 58 10000 3.6 320 00:50 04.09.2019
2521 Clear 14 1016 66 10000 4.1 320 00:31 04.09.2019
2522 Clear 11 1015 76 10000 3.6 320 23:54 03.09.2019
2523 Clear 9 1015 71 10000 3.6 320 23:28 03.09.2019
2524 Clear 8 1015 71 10000 3.6 320 22:58 03.09.2019
2525 Clear 8 1015 81 10000 3.1 340 22:39 03.09.2019
2526 Clear 8 1015 81 10000 2.6 340 22:21 03.09.2019
2527 Clear 8 1015 76 10000 3.1 350 21:56 03.09.2019
2528 Clear 8 1015 76 10000 3.1 350 21:36 03.09.2019
2529 Clear 8 1015 81 10000 2.6 340 21:18 03.09.2019
2530 Clear 8 1015 81 10000 2.6 330 20:42 03.09.2019
2531 Clear 9 1014 81 10000 2.1 340 20:24 03.09.2019
2532 Clear 9 1015 81 10000 3.1 310 19:56 03.09.2019
2533 Clear 9 1015 81 10000 3.1 310 19:38 03.09.2019
2534 Clear 9 1015 100 10000 1.68 263.728 19:19 03.09.2019
2535 Clear 9 1015 82 10000 3.1 320 18:45 03.09.2019
2536 Clear 10 1015 93 10000 1.13 233.415 18:27 03.09.2019
2537 Clear 11 1015 76 10000 1.13 233.415 17:59 03.09.2019
2538 Clear 11 1015 76 10000 1.13 233.415 17:40 03.09.2019
2539 Clear 11 1015 82 10000 1.13 233.415 17:20 03.09.2019
2540 Clear 11 1016 76 10000 1.13 233.415 16:58 03.09.2019
2541 Clear 11 1016 76 10000 1.13 233.415 16:38 03.09.2019
2542 Clear 11 1016 74 0 1.34 200 16:20 03.09.2019
2543 Clear 11 1016 74 0 1.34 200 16:20 03.09.2019
2544 Clear 11 1016 76 0 1.79 336 15:41 03.09.2019
2545 Clear 12 1016 77 10000 2.6 270 15:21 03.09.2019
2546 Clear 12 1017 76 0 1.79 348 14:58 03.09.2019
2547 Clear 12 1016 71 10000 0.5 240 14:40 03.09.2019
2548 Clear 12 1016 71 10000 0.5 240 14:20 03.09.2019
2549 Clear 12 1016 71 10000 0.5 240 13:57 03.09.2019
2550 Clear 13 1016 71 10000 0.5 240 13:37 03.09.2019
2551 Clear 13 1016 71 10000 0.5 240 13:37 03.09.2019
2552 Clear 13 1015 66 10000 1 252.503 13:19 03.09.2019
2553 Clear 13 1015 66 10000 1 252.503 13:19 03.09.2019
2554 Clear 14 1015 67 10000 1 252.503 12:56 03.09.2019
2555 Clear 14 1015 67 10000 1 252.503 12:38 03.09.2019
2556 Clear 14 1015 67 10000 2.1 120 12:19 03.09.2019
2557 Clear 14 1015 67 10000 2.1 120 12:19 03.09.2019
2558 Clear 15 1015 63 10000 2.6 70 11:41 03.09.2019
2559 Clear 16 1015 59 10000 2.6 80 11:22 03.09.2019
2560 Clear 17 1014 59 10000 3.1 80 10:56 03.09.2019
2561 Clear 17 1014 59 10000 3.1 80 10:38 03.09.2019
2562 Clear 17 1014 52 10000 4.6 60 10:19 03.09.2019
2563 Clear 19 1014 45 10000 4.1 50 09:44 03.09.2019
2564 Clear 20 1014 45 10000 4.1 50 09:25 03.09.2019
2565 Clear 21 1014 30 10000 4.1 50 08:55 03.09.2019
2566 Clear 21 1014 30 10000 4.1 50 08:36 03.09.2019
2567 Clear 22 1014 28 10000 4.1 50 08:18 03.09.2019
2568 Clear 22 1014 27 10000 4.1 50 07:40 03.09.2019
2569 Clear 22 1014 27 10000 4.1 50 07:40 03.09.2019
2570 Clear 22 1014 27 10000 4.1 50 07:22 03.09.2019
2571 Clear 23 1014 28 10000 4.1 130 06:44 03.09.2019
2572 Clear 23 1015 37 10000 2.6 160 05:53 03.09.2019
2573 Clear 22 1017 40 10000 4.1 120 03:36 03.09.2019
2574 Clear 20 1017 45 10000 4.1 120 02:44 03.09.2019
2575 Clear 19 1017 48 10000 4.1 120 02:23 03.09.2019
2576 Clear 18 1018 59 10000 3.1 290 01:50 03.09.2019
2577 Clear 18 1018 59 10000 3.1 290 01:32 03.09.2019
2578 Clear 14 1017 67 10000 4.1 310 00:43 03.09.2019
2579 Clear 13 1017 76 10000 4.6 290 00:23 03.09.2019
2580 Clear 11 1017 81 10000 4.6 300 23:40 02.09.2019
2581 Clear 10 1017 81 10000 4.6 290 23:20 02.09.2019
2582 Clear 9 1017 81 10000 4.6 290 22:56 02.09.2019
2583 Clear 9 1017 81 10000 3.6 320 22:38 02.09.2019
2584 Clear 9 1017 81 10000 2.6 320 22:19 02.09.2019
2585 Clear 9 1016 87 10000 2.6 340 21:57 02.09.2019
2586 Clear 9 1016 87 10000 2.6 340 21:39 02.09.2019
2587 Clear 9 1016 81 10000 2.6 340 21:20 02.09.2019
2588 Clear 10 1016 81 10000 2.6 340 20:58 02.09.2019
2589 Clouds 10 1017 93 10000 1.26 295.937 20:39 02.09.2019
2590 Clear 10 1017 81 10000 3.1 270 20:18 02.09.2019
2591 Clear 10 1017 81 10000 2.1 310 19:56 02.09.2019
2592 Clear 10 1017 81 10000 2.1 310 19:38 02.09.2019
2593 Clouds 10 1016 100 10000 1.26 295.937 19:19 02.09.2019
2594 Clouds 10 1017 100 10000 1.26 295.937 18:40 02.09.2019
2595 Clear 10 1017 82 10000 3.1 330 18:40 02.09.2019
2596 Clear 10 1017 82 10000 3.1 330 18:40 02.09.2019
2597 Clear 10 1017 82 10000 3.1 330 18:40 02.09.2019
2598 Clouds 10 1017 100 10000 1.91 289.855 18:22 02.09.2019
2599 Clear 10 1018 82 10000 3.6 310 17:57 02.09.2019
2600 Clouds 10 1018 100 10000 1.5 130 17:39 02.09.2019
2601 Clouds 10 1018 93 10000 1.5 70 17:20 02.09.2019
2602 Clear 11 1018 82 10000 3.6 270 16:54 02.09.2019
2603 Clear 11 1018 82 10000 3.6 270 16:36 02.09.2019
2604 Clear 11 1019 82 10000 4.1 270 16:18 02.09.2019
2605 Clear 11 1019 82 10000 3.6 280 15:44 02.09.2019
2606 Clear 11 1019 82 10000 4.6 280 15:22 02.09.2019
2607 Clear 11 1019 82 10000 4.6 280 14:56 02.09.2019
2608 Clear 11 1019 76 10000 3.6 290 14:37 02.09.2019
2609 Clear 11 1019 76 10000 3.6 280 14:19 02.09.2019
2610 Clouds 12 1019 72 10000 4.6 270 13:45 02.09.2019
2611 Clouds 12 1019 76 10000 4.1 260 13:25 02.09.2019
2612 Clouds 12 1019 77 10000 4.1 250 12:58 02.09.2019
2613 Clouds 12 1019 77 10000 4.1 250 12:40 02.09.2019
2614 Clouds 13 1019 77 10000 3.1 230 12:22 02.09.2019
2615 Clear 13 1019 77 10000 4.1 180 11:55 02.09.2019
2616 Clear 14 1019 77 10000 4.1 180 11:37 02.09.2019
2617 Clouds 14 1018 77 10000 5.1 170 11:19 02.09.2019
2618 Clouds 15 1018 72 10000 6.2 170 10:42 02.09.2019
2619 Clouds 15 1018 67 10000 7.2 170 10:22 02.09.2019
2620 Clouds 16 1018 63 10000 7.7 170 09:58 02.09.2019
2621 Clouds 16 1018 63 10000 7.7 170 09:39 02.09.2019
2622 Clouds 16 1017 63 10000 6.7 170 09:20 02.09.2019
2623 Clouds 17 1017 63 10000 8.2 170 08:43 02.09.2019
2624 Clouds 18 1017 67 10000 8.2 170 08:22 02.09.2019
2625 Clouds 18 1017 67 10000 8.7 180 07:57 02.09.2019
2626 Clouds 18 1017 67 10000 8.7 180 07:37 02.09.2019
2627 Clouds 19 1017 72 10000 9.3 170 07:19 02.09.2019
2628 Clouds 19 1017 67 10000 9.3 180 06:42 02.09.2019
2629 Clouds 20 1017 67 10000 9.8 180 05:54 02.09.2019
2630 Clouds 20 1017 67 10000 9.8 180 05:54 02.09.2019
2631 Clouds 19 1017 67 10000 9.8 180 05:54 02.09.2019
2632 Clouds 20 1017 72 10000 10.3 180 05:25 02.09.2019
2633 Clouds 20 1018 63 10000 9.3 180 04:48 02.09.2019
2634 Clear 19 1018 59 10000 7.2 200 02:29 02.09.2019
2635 Clear 17 1018 55 10000 3.6 280 01:37 02.09.2019
2636 Clear 14 1017 67 10000 3.6 310 00:42 02.09.2019
2637 Clear 13 1017 67 10000 3.6 310 00:20 02.09.2019
2638 Clear 11 1017 76 10000 4.6 320 23:39 01.09.2019
2639 Clear 10 1016 81 10000 4.6 320 23:19 01.09.2019
2640 Clear 9 1016 81 10000 4.6 320 22:57 01.09.2019
2641 Clear 9 1016 81 10000 4.1 310 22:38 01.09.2019
2642 Clear 9 1016 81 10000 3.6 330 22:18 01.09.2019
2643 Clear 9 1016 81 10000 3.6 320 21:54 01.09.2019
2644 Rain 9 1016 81 10000 3.6 320 21:36 01.09.2019
2645 Rain 10 1016 81 10000 4.1 310 21:18 01.09.2019
2646 Clear 10 1016 87 10000 3.6 310 20:54 01.09.2019
2647 Clear 10 1016 87 10000 2.6 300 20:36 01.09.2019
2648 Clear 10 1016 87 10000 2.6 300 20:18 01.09.2019
2649 Clear 10 1016 82 10000 2.1 310 19:40 01.09.2019
2650 Clear 10 1016 82 10000 2.1 310 19:21 01.09.2019
2651 Clear 10 1016 82 10000 2.1 310 19:21 01.09.2019
2652 Clear 10 1017 87 10000 2.1 300 18:55 01.09.2019
2653 Clear 11 1017 87 10000 2.1 280 18:37 01.09.2019
2654 Clear 11 1017 87 10000 2.1 280 18:18 01.09.2019
2655 Clear 11 1018 87 10000 2.1 260 17:40 01.09.2019
2656 Clear 11 1017 76 10000 1.5 10 17:22 01.09.2019
2657 Clear 11 1018 76 10000 3.1 30 16:58 01.09.2019
2658 Clear 12 1018 76 10000 3.1 30 16:38 01.09.2019
2659 Clouds 11 1018 93 10000 1.66 291.211 16:18 01.09.2019
2660 Clear 12 1019 77 10000 3.1 310 15:42 01.09.2019
2661 Clouds 12 1018 87 10000 1.23 268.233 15:24 01.09.2019
2662 Clouds 13 1019 87 10000 1.23 268.233 14:45 01.09.2019
2663 Clouds 13 1018 82 10000 1.23 268.233 14:27 01.09.2019
2664 Clouds 14 1018 82 10000 1.23 268.233 13:59 01.09.2019
2665 Clouds 14 1018 82 10000 1 330 13:41 01.09.2019
2666 Clouds 14 1019 82 10000 1.56 240.684 13:23 01.09.2019
2667 Clouds 15 1018 72 10000 2.6 10 12:45 01.09.2019
2668 Clear 15 1018 72 10000 3.1 20 12:26 01.09.2019
2669 Clear 15 1018 72 10000 3.1 20 11:59 01.09.2019
2670 Clear 15 1017 72 10000 3.6 40 11:39 01.09.2019
2671 Clear 16 1017 63 10000 4.1 60 11:19 01.09.2019
2672 Clear 16 1017 63 10000 4.1 60 11:19 01.09.2019
2673 Clear 17 1017 63 10000 5.7 30 10:45 01.09.2019
2674 Rain 17 1017 63 10000 5.7 30 10:23 01.09.2019
2675 Rain 18 1017 45 10000 5.7 40 09:59 01.09.2019
2676 Rain 18 1017 45 10000 5.7 40 09:41 01.09.2019
2677 Clear 19 1017 52 10000 7.7 40 09:22 01.09.2019
2678 Clear 20 1017 52 10000 8.2 50 08:43 01.09.2019
2679 Clear 20 1017 43 10000 8.2 50 08:22 01.09.2019
2680 Clear 21 1017 46 10000 7.7 40 07:47 01.09.2019
2681 Clear 22 1018 43 10000 6.7 40 07:23 01.09.2019
2682 Clear 22 1018 40 10000 4.6 80 06:41 01.09.2019
2683 Clouds 23 1018 40 10000 5.1 60 06:18 01.09.2019
2684 Clouds 22 1019 37 10000 2.1 120 05:38 01.09.2019
2685 Clouds 21 1020 45 10000 5.1 60 04:22 01.09.2019
2686 Clouds 20 1021 49 10000 5.1 60 03:39 01.09.2019
2687 Clouds 19 1021 52 10000 5.1 60 02:57 01.09.2019
2688 Clouds 17 1022 59 10000 4.1 310 02:25 01.09.2019
2689 Clouds 17 1022 59 10000 4.1 310 02:25 01.09.2019
2690 Clouds 15 1022 59 10000 4.1 320 01:41 01.09.2019
2691 Clouds 15 1022 67 10000 4.6 300 01:22 01.09.2019
2692 Clouds 13 1022 71 10000 3.6 310 00:42 01.09.2019
2693 Clouds 11 1022 76 10000 3.6 320 00:21 01.09.2019
2694 Clouds 11 1022 76 10000 3.6 320 00:21 01.09.2019
2695 Clouds 10 1021 81 10000 3.6 320 23:48 31.08.2019
2696 Clouds 9 1021 81 10000 3.1 340 23:22 31.08.2019
2697 Clouds 8 1021 81 10000 2.6 340 22:57 31.08.2019
2698 Clouds 8 1021 81 10000 2.6 340 22:39 31.08.2019
2699 Clouds 8 1020 87 10000 3.1 320 22:20 31.08.2019
2700 Clear 8 1020 87 10000 3.6 330 21:55 31.08.2019
2701 Clear 8 1020 87 10000 3.6 330 21:37 31.08.2019
2702 Clear 8 1020 87 10000 3.1 330 21:18 31.08.2019
2703 Clouds 9 1020 81 10000 3.1 330 20:43 31.08.2019
2704 Clouds 9 1020 81 10000 3.1 340 20:24 31.08.2019
2705 Clouds 9 1020 81 10000 3.1 310 19:47 31.08.2019
2706 Clouds 9 1020 81 10000 3.1 310 19:23 31.08.2019
2707 Clouds 10 1021 81 10000 3.6 310 18:59 31.08.2019
2708 Clouds 10 1021 81 10000 3.6 310 18:39 31.08.2019
2709 Clear 10 1021 82 0 2.24 290 18:20 31.08.2019
2710 Clear 10 1021 100 10000 2.06 248.978 17:55 31.08.2019
2711 Clouds 11 1021 71 10000 4.1 250 17:37 31.08.2019
2712 Clear 11 1021 100 10000 2.06 248.978 17:18 31.08.2019
2713 Clear 11 1021 100 10000 2.06 248.978 16:55 31.08.2019
2714 Clear 11 1022 93 10000 2.06 248.978 16:37 31.08.2019
2715 Clear 11 1022 93 10000 0.5 250 16:19 31.08.2019
2716 Clear 12 1022 87 10000 0.5 240 15:42 31.08.2019
2717 Clouds 12 1022 76 10000 5.1 240 15:19 31.08.2019
2718 Clouds 12 1022 76 10000 5.1 240 14:56 31.08.2019
2719 Clouds 12 1022 76 10000 4.6 230 14:37 31.08.2019
2720 Clouds 13 1022 77 10000 5.1 220 14:19 31.08.2019
2721 Clouds 13 1022 77 10000 5.1 220 14:19 31.08.2019
2722 Clouds 13 1022 76 10000 4.1 230 13:41 31.08.2019
2723 Clouds 14 1022 77 10000 5.1 220 13:22 31.08.2019
2724 Clouds 14 1022 77 10000 5.1 220 12:58 31.08.2019
2725 Rain 14 1022 77 10000 5.7 210 12:39 31.08.2019
2726 Rain 14 1022 77 10000 5.7 220 12:20 31.08.2019
2727 Rain 15 1022 82 10000 6.7 220 11:54 31.08.2019
2728 Rain 15 1022 82 10000 6.7 220 11:36 31.08.2019
2729 Rain 15 1022 82 10000 5.1 200 11:18 31.08.2019
2730 Clouds 15 1021 77 10000 6.7 190 10:41 31.08.2019
2731 Clouds 15 1021 77 10000 6.2 180 10:19 31.08.2019
2732 Clouds 15 1021 77 10000 7.7 180 09:56 31.08.2019
2733 Clouds 15 1021 77 10000 7.7 180 09:37 31.08.2019
2734 Clouds 16 1021 77 10000 8.2 180 09:19 31.08.2019
2735 Clouds 16 1021 77 10000 7.7 190 08:42 31.08.2019
2736 Rain 16 1021 77 10000 8.7 190 08:23 31.08.2019
2737 Rain 16 1022 77 10000 8.2 190 07:40 31.08.2019
2738 Rain 16 1022 77 10000 8.2 180 07:22 31.08.2019
2739 Rain 16 1022 82 10000 8.7 180 06:28 31.08.2019
2740 Rain 16 1022 82 10000 9.3 170 05:59 31.08.2019
2741 Rain 16 1023 82 10000 9.3 180 05:32 31.08.2019
2742 Rain 16 1023 77 10000 7.7 190 04:34 31.08.2019
2743 Rain 16 1024 82 10000 8.2 200 03:45 31.08.2019
2744 Rain 15 1025 82 10000 8.2 200 02:36 31.08.2019
2745 Clouds 15 1025 82 10000 8.2 200 01:53 31.08.2019
2746 Clouds 14 1025 82 10000 8.2 200 01:33 31.08.2019
2747 Clouds 13 1025 82 10000 8.2 200 00:50 31.08.2019
2748 Clouds 13 1025 82 10000 8.2 200 00:50 31.08.2019
2749 Clouds 13 1025 82 10000 8.2 200 00:30 31.08.2019
2750 Clouds 12 1024 87 10000 8.7 210 23:57 30.08.2019
2751 Rain 11 1025 81 10000 3.6 210 23:39 30.08.2019
2752 Rain 11 1025 93 10000 1.5 150 23:18 30.08.2019
2753 Clouds 11 1024 93 10000 8.2 210 23:18 30.08.2019
2754 Rain 11 1024 93 10000 2.6 210 22:42 30.08.2019
2755 Rain 11 1024 93 8000 3.1 220 22:24 30.08.2019
2756 Rain 11 1023 93 10000 8.7 200 21:58 30.08.2019
2757 Rain 11 1023 93 10000 8.7 200 21:38 30.08.2019
2758 Rain 11 1024 76 10000 5.1 210 21:20 30.08.2019
2759 Rain 11 1024 76 10000 5.1 210 20:59 30.08.2019
2760 Rain 11 1024 76 10000 5.1 210 20:40 30.08.2019
2761 Rain 11 1023 71 10000 5.7 210 20:20 30.08.2019
2762 Rain 12 1023 87 10000 10.8 190 19:58 30.08.2019
2763 Rain 11 1023 87 10000 10.8 190 19:39 30.08.2019
2764 Rain 11 1023 87 10000 10.8 190 19:19 30.08.2019
2765 Rain 11 1023 87 10000 10.3 180 18:55 30.08.2019
2766 Rain 11 1024 71 10000 5.7 220 18:37 30.08.2019
2767 Rain 11 1024 71 10000 5.7 220 18:18 30.08.2019
2768 Rain 11 1024 93 10000 9.8 200 17:55 30.08.2019
2769 Rain 11 1024 93 10000 9.8 200 17:55 30.08.2019
2770 Rain 11 1024 93 10000 9.8 200 17:37 30.08.2019
2771 Rain 11 1025 71 10000 4.6 200 17:18 30.08.2019
2772 Clouds 11 1025 71 10000 5.7 210 16:43 30.08.2019
2773 Rain 11 1025 71 10000 4.6 200 16:24 30.08.2019
2774 Rain 12 1025 71 10000 5.1 200 15:45 30.08.2019
2775 Rain 12 1025 71 10000 5.1 200 15:45 30.08.2019
2776 Rain 12 1025 71 10000 5.7 210 15:25 30.08.2019
2777 Rain 12 1025 71 10000 5.7 210 14:58 30.08.2019
2778 Rain 12 1025 71 10000 4.6 200 14:40 30.08.2019
2779 Clouds 12 1025 72 10000 9.8 170 14:22 30.08.2019
2780 Rain 12 1025 66 10000 5.1 200 13:43 30.08.2019
2781 Rain 13 1025 76 10000 9.8 170 13:23 30.08.2019
2782 Rain 13 1025 62 10000 8.7 170 12:58 30.08.2019
2783 Rain 13 1025 62 10000 8.7 170 12:40 30.08.2019
2784 Rain 13 1025 77 10000 9.3 170 12:21 30.08.2019
2785 Rain 13 1025 77 10000 9.3 170 12:21 30.08.2019
2786 Clouds 13 1025 66 10000 5.7 190 11:42 30.08.2019
2787 Rain 13 1024 72 10000 10.8 170 11:24 30.08.2019
2788 Rain 13 1024 72 10000 9.3 180 10:42 30.08.2019
2789 Rain 13 1024 67 10000 11.8 170 10:23 30.08.2019
2790 Rain 13 1024 71 10000 11.8 170 09:59 30.08.2019
2791 Rain 13 1024 71 10000 11.8 170 09:40 30.08.2019
2792 Rain 13 1023 82 10000 11.3 170 09:19 30.08.2019
2793 Rain 13 1023 82 10000 11.3 170 08:56 30.08.2019
2794 Rain 13 1023 72 10000 12.9 180 08:38 30.08.2019
2795 Rain 13 1023 76 10000 13.9 170 08:20 30.08.2019
2796 Rain 13 1023 76 10000 12.9 170 07:40 30.08.2019
2797 Rain 13 1023 82 10000 11.8 170 07:21 30.08.2019
2798 Rain 13 1023 87 8000 12.9 170 06:47 30.08.2019
2799 Rain 13 1023 76 6000 12.3 170 06:28 30.08.2019
2800 Rain 13 1024 93 8000 9.8 190 05:46 30.08.2019
2801 Rain 13 1024 76 6000 11.3 170 04:20 30.08.2019
2802 Rain 13 1024 76 6000 11.3 170 04:20 30.08.2019
2803 Rain 13 1025 67 6000 11.3 160 03:38 30.08.2019
2804 Rain 13 1025 67 6000 11.3 160 03:38 30.08.2019
2805 Rain 13 1024 72 10000 11.8 170 03:18 30.08.2019
2806 Rain 13 1024 72 10000 11.8 170 03:18 30.08.2019
2807 Rain 12 1024 72 10000 12.3 170 02:29 30.08.2019
2808 Rain 12 1025 81 10000 4.6 200 01:30 30.08.2019
2809 Rain 11 1025 87 10000 4.6 200 00:45 30.08.2019
2810 Rain 11 1025 87 10000 4.6 220 00:18 30.08.2019
2811 Rain 11 1025 93 10000 3.6 200 23:41 29.08.2019
2812 Rain 11 1024 100 10000 3.6 230 23:21 29.08.2019
2813 Rain 11 1024 100 10000 4.1 220 22:44 29.08.2019
2814 Rain 11 1024 100 10000 3.6 210 22:26 29.08.2019
2815 Rain 10 1024 100 10000 3.1 220 21:57 29.08.2019
2816 Rain 11 1024 100 10000 3.1 220 21:39 29.08.2019
2817 Rain 11 1024 100 10000 3.1 220 21:21 29.08.2019
2818 Rain 10 1024 100 10000 3.1 220 20:56 29.08.2019
2819 Rain 10 1024 100 10000 2.6 210 20:38 29.08.2019
2820 Rain 10 1024 100 10000 2.1 250 20:18 29.08.2019
2821 Rain 10 1024 93 10000 2.1 250 19:46 29.08.2019
2822 Rain 10 1024 93 10000 2.1 250 19:26 29.08.2019
2823 Rain 10 1025 93 10000 0.5 230 18:57 29.08.2019
2824 Rain 10 1025 93 10000 2.1 210 18:39 29.08.2019
2825 Rain 10 1025 93 10000 3.6 220 18:18 29.08.2019
2826 Rain 10 1025 93 10000 3.6 220 17:54 29.08.2019
2827 Rain 11 1024 87 7000 10.3 160 17:36 29.08.2019
2828 Rain 11 1024 93 7000 8.2 160 17:18 29.08.2019
2829 Rain 11 1025 87 10000 5.7 210 16:41 29.08.2019
2830 Rain 11 1025 87 10000 5.7 210 16:23 29.08.2019
2831 Rain 11 1025 87 10000 6.7 210 15:41 29.08.2019
2832 Rain 11 1025 93 10000 6.2 210 15:22 29.08.2019
2833 Rain 11 1025 93 10000 6.2 210 14:59 29.08.2019
2834 Rain 11 1025 87 10000 5.1 220 14:41 29.08.2019
2835 Rain 11 1025 93 10000 4.6 220 14:20 29.08.2019
2836 Rain 11 1025 93 10000 4.6 220 13:57 29.08.2019
2837 Rain 11 1025 93 10000 5.1 210 13:39 29.08.2019
2838 Rain 11 1025 93 10000 5.1 210 13:39 29.08.2019
2839 Rain 10 1025 93 10000 5.7 210 13:19 29.08.2019
2840 Rain 10 1024 93 10000 4.6 220 12:57 29.08.2019
2841 Rain 10 1024 93 10000 4.6 220 12:38 29.08.2019
2842 Rain 10 1023 100 10000 7.7 200 12:20 29.08.2019
2843 Rain 10 1024 100 10000 3.1 220 11:56 29.08.2019
2844 Rain 10 1024 100 10000 3.1 220 11:36 29.08.2019
2845 Rain 10 1024 100 10000 2.6 220 11:18 29.08.2019
2846 Rain 11 1023 93 10000 6.7 220 10:41 29.08.2019
2847 Rain 11 1024 87 10000 3.1 230 10:23 29.08.2019
2848 Rain 11 1023 93 8000 7.7 170 09:42 29.08.2019
2849 Rain 11 1022 93 10000 7.2 170 09:20 29.08.2019
2850 Rain 11 1022 93 5000 8.2 190 08:58 29.08.2019
2851 Rain 11 1022 93 5000 8.2 190 08:39 29.08.2019
2852 Rain 11 1022 87 4000 10.3 220 08:21 29.08.2019
2853 Rain 12 1022 87 10000 10.8 210 07:43 29.08.2019
2854 Rain 12 1022 87 10000 11.3 200 07:25 29.08.2019
2855 Rain 12 1022 87 10000 11.8 200 06:46 29.08.2019
2856 Rain 12 1022 87 10000 8.7 200 06:28 29.08.2019
2857 Rain 12 1022 87 10000 11.3 170 05:41 29.08.2019
2858 Rain 12 1023 93 2500 8.7 160 04:50 29.08.2019
2859 Rain 12 1023 93 2500 8.7 160 04:29 29.08.2019
2860 Rain 13 1023 87 7000 13.4 190 02:49 29.08.2019
2861 Rain 13 1022 82 10000 11.3 200 01:49 29.08.2019
2862 Rain 13 1022 82 10000 12.9 190 01:30 29.08.2019
2863 Clouds 12 1021 76 10000 13.9 190 00:40 29.08.2019
2864 Clouds 12 1021 76 10000 13.9 190 00:20 29.08.2019
2865 Clouds 11 1021 82 10000 11.8 190 23:43 28.08.2019
2866 Rain 11 1020 82 10000 11.3 210 23:24 28.08.2019
2867 Rain 11 1020 71 10000 7.7 230 22:58 28.08.2019
2868 Rain 11 1020 71 10000 7.7 230 22:39 28.08.2019
2869 Rain 10 1020 57 10000 10.3 180 22:18 28.08.2019
2870 Clouds 10 1019 54 10000 5.1 260 21:57 28.08.2019
2871 Clouds 10 1019 54 10000 5.1 260 21:38 28.08.2019
2872 Clouds 9 1019 54 10000 5.7 260 21:20 28.08.2019
2873 Rain 8 1019 57 10000 10.3 180 20:41 28.08.2019
2874 Rain 8 1019 57 10000 10.3 180 20:22 28.08.2019
2875 Rain 8 1019 61 10000 10.3 180 19:57 28.08.2019
2876 Rain 9 1019 61 10000 10.3 180 19:39 28.08.2019
2877 Rain 9 1019 61 10000 10.3 180 19:20 28.08.2019
2878 Clear 9 1019 54 10000 3.6 270 18:42 28.08.2019
2879 Clear 9 1019 54 10000 3.6 270 18:21 28.08.2019
2880 Clear 9 1019 54 10000 3.6 270 17:55 28.08.2019
2881 Clear 9 1019 54 10000 3.6 270 17:37 28.08.2019
2882 Clear 9 1019 58 10000 3.6 290 17:19 28.08.2019
2883 Clear 9 1019 50 10000 3.1 310 16:42 28.08.2019
2884 Clear 9 1019 54 10000 3.1 290 16:19 28.08.2019
2885 Clear 10 1019 54 10000 3.1 270 15:58 28.08.2019
2886 Clear 10 1019 54 10000 3.1 270 15:37 28.08.2019
2887 Clear 10 1019 50 10000 4.1 280 15:18 28.08.2019
2888 Clear 11 1019 58 10000 4.6 290 14:56 28.08.2019
2889 Clear 11 1019 58 10000 4.6 290 14:37 28.08.2019
2890 Clear 11 1019 62 10000 1.5 230 14:19 28.08.2019
2891 Clouds 11 1019 50 10000 2.1 40 13:56 28.08.2019
2892 Clouds 11 1019 50 10000 2.1 40 13:36 28.08.2019
2893 Clear 12 1019 87 10000 2.1 250 13:18 28.08.2019
2894 Clear 12 1019 82 10000 1.5 240 12:41 28.08.2019
2895 Clear 13 1018 82 10000 1 220 12:23 28.08.2019
2896 Clear 13 1018 82 10000 4.1 40 11:41 28.08.2019
2897 Clear 14 1017 77 10000 4.1 40 11:23 28.08.2019
2898 Clear 15 1017 72 10000 3.1 140 10:59 28.08.2019
2899 Clear 15 1017 72 10000 3.1 140 10:41 28.08.2019
2900 Clear 16 1016 72 10000 4.1 40 10:20 28.08.2019
2901 Clear 16 1016 67 10000 4.1 100 09:56 28.08.2019
2902 Clear 17 1016 67 10000 4.1 100 09:38 28.08.2019
2903 Clear 18 1016 63 10000 4.1 40 09:18 28.08.2019
2904 Clear 19 1016 63 10000 4.1 40 08:38 28.08.2019
2905 Clear 19 1016 63 10000 5.1 80 08:20 28.08.2019
2906 Clear 20 1016 59 10000 5.1 90 07:39 28.08.2019
2907 Clear 20 1016 59 10000 4.1 40 07:20 28.08.2019
2908 Clear 20 1016 52 10000 5.1 80 06:51 28.08.2019
2909 Clear 20 1016 63 10000 4.6 80 06:32 28.08.2019
2910 Clouds 20 1017 45 10000 2.1 110 05:32 28.08.2019
2911 Clouds 18 1020 67 10000 2.1 210 02:46 28.08.2019
2912 Clouds 15 1021 72 10000 2.1 290 01:32 28.08.2019
2913 Clouds 14 1021 71 10000 2.1 320 00:55 28.08.2019
2914 Clouds 13 1021 71 10000 2.1 320 00:37 28.08.2019
2915 Clouds 11 1020 87 10000 3.1 290 23:58 27.08.2019
2916 Clouds 10 1020 87 10000 3.1 290 23:39 27.08.2019
2917 Clouds 9 1020 87 10000 3.1 260 23:20 27.08.2019
2918 Clouds 9 1020 87 10000 3.1 250 22:42 27.08.2019
2919 Clouds 9 1019 87 10000 3.1 250 22:23 27.08.2019
2920 Clouds 9 1019 87 10000 1.84 249.182 21:57 27.08.2019
2921 Clouds 9 1019 87 10000 1.84 249.182 21:39 27.08.2019
2922 Clouds 9 1019 87 10000 2.6 350 21:21 27.08.2019
2923 Clouds 9 1019 87 10000 1.83 236.24 20:59 27.08.2019
2924 Clouds 9 1019 87 10000 1.83 236.24 20:40 27.08.2019
2925 Clouds 9 1019 87 10000 2.1 310 20:20 27.08.2019
2926 Clouds 9 1019 87 10000 2.1 310 19:56 27.08.2019
2927 Clouds 9 1020 87 10000 3.6 310 19:38 27.08.2019
2928 Clouds 9 1020 87 10000 3.6 310 19:20 27.08.2019
2929 Clouds 10 1020 87 10000 3.1 310 18:42 27.08.2019
2930 Clouds 10 1021 93 10000 3.6 300 18:19 27.08.2019
2931 -273 0 0 0 0 0 17:56 27.08.2019
2932 Clouds 10 1021 87 10000 3.6 310 17:38 27.08.2019
2933 Rain 11 1021 87 10000 3.1 300 17:19 27.08.2019
2934 Clouds 11 1021 87 10000 4.6 140 16:47 27.08.2019
2935 Rain 11 1021 87 10000 2.6 220 16:28 27.08.2019
2936 Clouds 11 1022 76 10000 4.1 170 15:57 27.08.2019
2937 Clouds 12 1022 76 10000 4.1 170 15:39 27.08.2019
2938 Clear 12 1022 87 10000 2.6 230 15:20 27.08.2019
2939 Clear 12 1022 87 10000 2.6 240 14:54 27.08.2019
2940 Clear 12 1022 87 10000 2.6 240 14:36 27.08.2019
2941 Clear 12 1022 93 10000 2.6 230 14:18 27.08.2019
2942 Clear 12 1022 87 10000 2.6 240 13:41 27.08.2019
2943 Clouds 12 1022 87 10000 2.1 230 13:20 27.08.2019
2944 Clouds 12 1022 87 10000 2.1 230 12:42 27.08.2019
2945 Clouds 12 1021 87 10000 3.6 190 12:21 27.08.2019
2946 Clouds 12 1021 87 10000 3.6 190 12:21 27.08.2019
2947 Clouds 12 1021 87 10000 4.6 220 11:58 27.08.2019
2948 Clouds 13 1021 87 10000 4.6 220 11:40 27.08.2019
2949 Clouds 13 1022 76 10000 2.6 150 11:21 27.08.2019
2950 Rain 13 1021 87 10000 6.7 170 10:41 27.08.2019
2951 Rain 14 1021 87 10000 7.7 180 10:20 27.08.2019
2952 Rain 14 1021 87 10000 8.2 170 09:57 27.08.2019
2953 Rain 14 1021 87 10000 8.2 170 09:37 27.08.2019
2954 Clouds 15 1021 87 10000 7.7 180 09:19 27.08.2019
2955 -273 0 0 0 0 0 08:45 27.08.2019
2956 Rain 15 1020 87 10000 9.3 180 08:24 27.08.2019
2957 Rain 15 1021 93 10000 9.8 180 07:55 27.08.2019
2958 Rain 15 1021 93 10000 9.8 180 07:37 27.08.2019
2959 Rain 16 1021 93 10000 8.2 170 07:18 27.08.2019
2960 Rain 16 1021 93 10000 8.2 170 07:18 27.08.2019
2961 Rain 15 1021 93 10000 7.2 180 06:45 27.08.2019
2962 Rain 15 1021 87 10000 9.3 190 06:19 27.08.2019
2963 Rain 16 1022 87 10000 8.7 190 05:29 27.08.2019
2964 Rain 16 1022 82 10000 8.2 200 03:45 27.08.2019
2965 Rain 15 1022 87 10000 8.7 200 03:21 27.08.2019
2966 Rain 15 1023 82 10000 6.7 170 01:55 27.08.2019
2967 Rain 14 1023 82 10000 5.7 170 01:30 27.08.2019
2968 Rain 13 1023 77 10000 5.7 190 00:50 27.08.2019
2969 Rain 13 1023 77 10000 5.7 190 00:29 27.08.2019
2970 Rain 12 1022 82 10000 5.7 160 23:46 26.08.2019
2971 Rain 12 1022 87 10000 2.6 220 23:26 26.08.2019
2972 Rain 12 1022 93 10000 2.1 230 22:59 26.08.2019
2973 Rain 12 1022 93 10000 2.1 230 22:38 26.08.2019
2974 Rain 12 1022 93 10000 3.1 210 22:19 26.08.2019
2975 Rain 12 1022 93 10000 2.6 250 21:55 26.08.2019
2976 Rain 12 1022 93 10000 2.6 250 21:37 26.08.2019
2977 Rain 12 1021 93 10000 2.1 230 21:18 26.08.2019
2978 Rain 12 1021 93 10000 3.1 200 20:41 26.08.2019
2979 Clouds 12 1021 93 10000 8.2 180 20:22 26.08.2019
2980 Rain 12 1021 93 10000 8.2 190 19:59 26.08.2019
2981 Rain 12 1021 93 10000 8.2 190 19:41 26.08.2019
2982 Rain 12 1022 87 10000 5.1 220 19:19 26.08.2019
2983 Rain 12 1021 93 10000 7.7 200 18:56 26.08.2019
2984 Rain 12 1021 93 10000 7.7 200 18:37 26.08.2019
2985 Rain 12 1021 93 10000 7.7 200 18:37 26.08.2019
2986 Rain 12 1022 93 10000 2.6 220 18:19 26.08.2019
2987 Rain 12 1022 93 10000 2.6 200 17:44 26.08.2019
2988 Rain 12 1022 87 10000 3.1 80 17:20 26.08.2019
2989 Rain 12 1022 87 10000 3.1 80 16:57 26.08.2019
2990 Rain 12 1022 93 10000 4.6 80 16:39 26.08.2019
2991 Rain 12 1022 87 10000 4.1 90 16:18 26.08.2019
2992 Rain 12 1022 87 10000 4.1 90 15:54 26.08.2019
2993 Rain 12 1022 87 10000 6.2 110 15:36 26.08.2019
2994 Rain 12 1022 87 10000 7.2 110 15:18 26.08.2019
2995 Rain 13 1023 93 10000 3.6 230 14:42 26.08.2019
2996 Rain 13 1023 93 10000 3.6 230 14:22 26.08.2019
2997 Rain 13 1023 93 10000 3.6 220 13:54 26.08.2019
2998 Rain 13 1023 93 10000 3.6 220 13:36 26.08.2019
2999 Rain 13 1023 93 10000 3.6 220 13:18 26.08.2019
3000 Rain 13 1023 93 10000 3.6 230 12:42 26.08.2019
3001 Rain 13 1022 87 10000 3.1 220 12:21 26.08.2019
3002 Rain 13 1022 87 10000 2.6 240 11:43 26.08.2019
3003 -273 0 0 0 0 0 11:25 26.08.2019
3004 Rain 13 1022 87 10000 2.1 210 11:25 26.08.2019
3005 Rain 13 1022 87 10000 2.6 190 10:58 26.08.2019
3006 Rain 13 1022 87 10000 2.6 190 10:58 26.08.2019
3007 Rain 13 1022 87 10000 2.6 190 10:40 26.08.2019
3008 Drizzle 13 1022 87 10000 7.2 140 10:19 26.08.2019
3009 Rain 13 1021 87 10000 6.7 170 09:45 26.08.2019
3010 Rain 14 1021 87 10000 8.2 190 09:25 26.08.2019
3011 Rain 14 1021 87 10000 8.2 190 08:59 26.08.2019
3012 Rain 14 1021 87 10000 8.2 190 08:40 26.08.2019
3013 Rain 14 1021 82 10000 7.7 180 08:21 26.08.2019
3014 Clouds 15 1021 82 10000 8.7 180 07:45 26.08.2019
3015 Clouds 15 1021 87 10000 7.7 200 07:25 26.08.2019
3016 Clouds 15 1021 82 10000 8.2 190 06:58 26.08.2019
3017 Clouds 14 1021 82 10000 8.2 190 06:39 26.08.2019
3018 Clouds 14 1021 87 10000 7.7 200 06:19 26.08.2019
3019 Clouds 14 1021 82 10000 8.7 190 05:41 26.08.2019
3020 Rain 13 1022 82 10000 7.7 170 04:22 26.08.2019
3021 Rain 13 1023 100 10000 8.2 170 02:42 26.08.2019
3022 Rain 13 1023 93 7000 8.2 180 01:23 26.08.2019
3023 Clouds 13 1022 93 10000 6.7 200 00:45 26.08.2019
3024 Drizzle 13 1022 93 10000 6.7 180 00:27 26.08.2019
3025 Rain 13 1022 93 10000 6.2 170 23:55 25.08.2019
3026 Rain 13 1022 93 10000 6.2 170 23:36 25.08.2019
3027 Rain 13 1022 93 10000 7.7 190 23:18 25.08.2019
3028 Rain 13 1021 93 10000 7.7 190 22:41 25.08.2019
3029 Rain 13 1021 93 10000 7.7 190 22:21 25.08.2019
3030 Rain 13 1021 93 10000 7.7 190 22:21 25.08.2019
3031 Rain 13 1021 82 10000 3.1 210 21:59 25.08.2019
3032 Drizzle 13 1021 93 10000 7.7 180 21:41 25.08.2019
3033 Clouds 13 1021 93 10000 7.7 200 21:19 25.08.2019
3034 Clouds 13 1021 93 10000 7.7 200 20:59 25.08.2019
3035 Clouds 13 1020 87 10000 7.7 200 20:39 25.08.2019
3036 Rain 13 1020 82 10000 2.1 260 20:19 25.08.2019
3037 Rain 13 1020 76 10000 2.38 162.206 19:56 25.08.2019
3038 Rain 13 1020 76 10000 2.38 162.206 19:37 25.08.2019
3039 Rain 13 1020 76 10000 2.38 162.206 19:18 25.08.2019
3040 Clouds 13 1021 87 10000 8.2 170 18:55 25.08.2019
3041 Clouds 13 1021 82 10000 6.2 200 18:37 25.08.2019
3042 Clouds 13 1021 82 10000 6.2 200 18:18 25.08.2019
3043 Clouds 13 1021 87 10000 4.6 190 17:40 25.08.2019
3044 Clouds 13 1021 87 10000 4.6 190 17:22 25.08.2019
3045 Clouds 13 1021 87 10000 4.6 160 16:45 25.08.2019
3046 Clouds 13 1021 87 10000 6.2 190 16:24 25.08.2019
3047 Clouds 13 1021 87 10000 6.2 190 15:59 25.08.2019
3048 Clouds 13 1021 87 10000 6.2 200 15:40 25.08.2019
3049 Clouds 13 1021 87 10000 6.2 200 15:21 25.08.2019
3050 Clouds 13 1021 87 10000 6.2 200 15:21 25.08.2019
3051 Clouds 14 1021 82 10000 5.1 200 14:41 25.08.2019
3052 Clouds 14 1021 82 10000 5.1 200 14:23 25.08.2019
3053 Clouds 14 1021 63 10000 4.1 150 13:55 25.08.2019
3054 Clouds 14 1021 63 10000 4.1 150 13:36 25.08.2019
3055 Clouds 15 1020 67 10000 5.1 150 13:18 25.08.2019
3056 Clouds 15 1020 67 10000 5.7 150 12:41 25.08.2019
3057 Clouds 15 1020 67 10000 5.1 140 12:22 25.08.2019
3058 Clouds 15 1020 67 10000 5.1 140 11:57 25.08.2019
3059 Clouds 15 1020 67 10000 5.7 150 11:37 25.08.2019
3060 Clouds 15 1020 67 10000 5.7 150 11:19 25.08.2019
3061 Clouds 15 1020 67 10000 5.7 150 10:56 25.08.2019
3062 Clouds 15 1019 67 10000 6.2 150 10:37 25.08.2019
3063 Clouds 15 1019 67 10000 7.7 150 10:19 25.08.2019
3064 Clouds 16 1018 67 10000 6.2 140 09:42 25.08.2019
3065 Clouds 16 1018 67 10000 6.2 140 09:24 25.08.2019
3066 Clouds 17 1018 63 10000 7.7 150 08:47 25.08.2019
3067 Clouds 17 1018 63 10000 7.7 150 08:29 25.08.2019
3068 Clouds 18 1017 67 10000 7.7 160 07:54 25.08.2019
3069 Clouds 18 1017 67 10000 8.2 150 07:32 25.08.2019
3070 Clouds 19 1017 63 10000 9.3 150 06:38 25.08.2019
3071 Clear 21 1016 18 10000 3.6 130 05:27 25.08.2019
3072 Clouds 22 1017 37 10000 7.7 180 03:45 25.08.2019
3073 Clear 20 1017 39 10000 1.5 100 02:43 25.08.2019
3074 Clear 19 1017 39 10000 3.1 340 01:54 25.08.2019
3075 Clear 16 1017 47 10000 1.5 300 00:54 25.08.2019
3076 Clear 12 1016 54 10000 7.7 180 00:23 25.08.2019
3077 Clear 9 1016 54 10000 7.7 180 23:58 24.08.2019
3078 Clear 9 1016 57 10000 1.5 350 23:40 24.08.2019
3079 Clear 8 1016 62 10000 2.1 270.902 23:22 24.08.2019
3080 Clear 8 1015 61 10000 2.6 350 22:54 24.08.2019
3081 Clear 8 1015 61 10000 2.6 350 22:36 24.08.2019
3082 Clear 8 1015 61 10000 2.1 310 22:18 24.08.2019
3083 Clear 8 1015 61 10000 2.6 250 21:42 24.08.2019
3084 Clear 8 1015 61 10000 2.6 250 21:42 24.08.2019
3085 Clear 9 1014 61 10000 2.6 250 21:23 24.08.2019
3086 Clear 9 1014 61 10000 2.6 250 20:58 24.08.2019
3087 Clear 9 1014 61 10000 2.6 250 20:58 24.08.2019
3088 Clear 9 1014 57 10000 2.1 330 20:39 24.08.2019
3089 Clear 10 1014 57 10000 2.1 260 20:20 24.08.2019
3090 Clear 9 1014 57 10000 2.1 260 19:58 24.08.2019
3091 Clear 10 1014 66 10000 2.6 210 19:39 24.08.2019
3092 Clear 10 1014 71 10000 4.1 210 19:21 24.08.2019
3093 Clear 11 1014 71 10000 4.1 210 19:21 24.08.2019
3094 Clear 11 1014 62 10000 3.6 200 18:47 24.08.2019
3095 Clear 12 1014 62 10000 3.6 200 18:25 24.08.2019
3096 Clear 12 1014 47 10000 3.1 350 17:59 24.08.2019
3097 Clear 12 1014 47 10000 3.1 350 17:41 24.08.2019
3098 Clear 12 1014 44 10000 2.1 320 17:22 24.08.2019
3099 Clear 13 1014 38 10000 2.6 270 16:42 24.08.2019
3100 Clear 12 1014 31 10000 2.6 360 16:19 24.08.2019
3101 Clear 13 1015 29 10000 3.6 330 15:55 24.08.2019
3102 Clear 13 1015 29 10000 3.6 330 15:37 24.08.2019
3103 Clear 14 1014 29 10000 3.1 360 15:18 24.08.2019
3104 Clear 15 1014 27 10000 4.6 350 14:41 24.08.2019
3105 Clear 15 1014 27 10000 4.6 360 14:20 24.08.2019
3106 Clear 14 1015 53 10000 4.1 360 13:55 24.08.2019
3107 Clear 14 1015 52 10000 4.1 360 13:37 24.08.2019
3108 Clear 14 1015 27 10000 3.6 360 13:18 24.08.2019
3109 Clear 15 1015 22 10000 3.6 330 12:42 24.08.2019
3110 Clear 15 1015 22 10000 3.6 330 12:42 24.08.2019
3111 Clear 17 1015 28 10000 4.6 340 12:23 24.08.2019
3112 Clear 17 1015 28 10000 4.6 340 11:55 24.08.2019
3113 Clear 17 1015 30 10000 3.6 340 11:37 24.08.2019
3114 Clear 17 1015 32 10000 3.6 350 11:18 24.08.2019
3115 Clear 18 1014 42 10000 3.6 10 10:41 24.08.2019
3116 Clear 19 1014 18 10000 5.7 320 10:21 24.08.2019
3117 Clear 21 1014 14 10000 5.1 310 09:44 24.08.2019
3118 Clear 23 1014 13 10000 5.1 310 09:19 24.08.2019
3119 Clear 24 1014 14 10000 5.7 290 08:44 24.08.2019
3120 Clear 24 1014 14 10000 8.7 290 08:26 24.08.2019
3121 Clear 24 1014 13 10000 8.2 300 07:54 24.08.2019
3122 Clear 24 1014 13 10000 8.2 300 07:54 24.08.2019
3123 Clear 24 1014 16 10000 7.7 250 07:33 24.08.2019
3124 Clear 25 1014 14 10000 9.8 290 06:58 24.08.2019
3125 Clear 24 1015 14 10000 9.3 300 06:23 24.08.2019
3126 Clear 24 1015 16 10000 7.7 290 05:40 24.08.2019
3127 Clear 22 1019 24 10000 5.1 320 03:54 24.08.2019
3128 Clear 21 1019 24 10000 5.1 320 03:34 24.08.2019
3129 Clear 17 1020 41 10000 3.6 310 02:24 24.08.2019
3130 Clear 14 1021 41 10000 3.1 310 01:30 24.08.2019
3131 Clear 13 1021 53 10000 3.6 320 00:49 24.08.2019
3132 Clear 9 1021 53 10000 3.6 320 00:24 24.08.2019
3133 Clear 7 1020 70 10000 4.1 300 23:57 23.08.2019
3134 Clear 6 1020 70 10000 4.1 300 23:37 23.08.2019
3135 Clear 5 1020 70 10000 3.6 340 23:18 23.08.2019
3136 Clear 4 1020 75 10000 4.1 350 22:41 23.08.2019
3137 Clear 5 1020 75 10000 3.6 320 22:23 23.08.2019
3138 Clear 5 1020 75 10000 4.1 310 21:39 23.08.2019
3139 Clear 5 1020 75 10000 3.6 310 21:20 23.08.2019
3140 Clear 5 1020 75 10000 3.6 310 20:56 23.08.2019
3141 Clear 5 1020 70 10000 4.1 320 20:37 23.08.2019
3142 Clear 6 1020 75 10000 4.1 320 20:19 23.08.2019
3143 Clear 6 1020 75 10000 4.1 290 19:43 23.08.2019
3144 Clear 6 1020 70 10000 3.1 300 19:18 23.08.2019
3145 Clear 7 1021 76 10000 3.1 290 18:45 23.08.2019
3146 Clear 7 1021 76 10000 3.1 290 18:27 23.08.2019
3147 Clear 7 1021 71 10000 4.1 360 17:54 23.08.2019
3148 Clear 7 1021 71 10000 4.1 360 17:36 23.08.2019
3149 Clear 7 1022 66 10000 3.6 350 17:18 23.08.2019
3150 Clear 8 1022 66 10000 3.6 360 16:44 23.08.2019
3151 Clear 8 1022 66 10000 3.6 360 16:25 23.08.2019
3152 Clear 9 1022 66 10000 3.1 10 15:56 23.08.2019
3153 Clear 9 1022 66 10000 3.1 10 15:37 23.08.2019
3154 Clear 9 1022 66 10000 3.6 360 15:19 23.08.2019
3155 Clear 10 1023 62 10000 3.6 360 14:41 23.08.2019
3156 Clear 10 1023 75 10000 1.23 308.842 14:21 23.08.2019
3157 Clear 11 1023 58 10000 5.1 10 13:57 23.08.2019
3158 Clear 11 1023 58 10000 5.1 10 13:39 23.08.2019
3159 Clear 11 1023 75 10000 1.42 291.516 13:20 23.08.2019
3160 Clear 11 1023 65 10000 1.42 291.516 12:57 23.08.2019
3161 Clear 11 1023 65 10000 1.42 291.516 12:38 23.08.2019
3162 Clear 11 1023 66 10000 2.05 35.742 12:20 23.08.2019
3163 Clear 12 1023 66 10000 2.05 35.742 11:56 23.08.2019
3164 Clear 12 1023 61 10000 2.05 35.742 11:37 23.08.2019
3165 Clear 12 1023 47 10000 2.6 70 11:18 23.08.2019
3166 Clear 13 1023 54 10000 4.6 50 10:43 23.08.2019
3167 Clear 13 1023 54 10000 4.6 50 10:43 23.08.2019
3168 Clear 13 1023 54 10000 4.6 50 10:43 23.08.2019
3169 Clear 14 1023 51 10000 4.6 40 10:22 23.08.2019
3170 Clear 15 1023 51 10000 4.6 40 09:57 23.08.2019
3171 Clear 16 1023 45 10000 5.7 40 09:39 23.08.2019
3172 Clear 16 1023 39 10000 6.2 30 09:20 23.08.2019
3173 Clear 17 1023 39 10000 5.1 70 08:43 23.08.2019
3174 Clear 17 1023 32 10000 4.1 20 08:19 23.08.2019
3175 Clear 18 1023 29 10000 3.6 310 07:43 23.08.2019
3176 Clear 18 1024 32 10000 4.1 40 07:24 23.08.2019
3177 Clear 18 1023 29 10000 3.6 310 07:24 23.08.2019
3178 Clear 18 1023 29 10000 3.6 310 07:24 23.08.2019
3179 Clear 18 1023 29 10000 3.6 310 07:24 23.08.2019
3180 Clear 18 1024 34 10000 4.1 40 06:57 23.08.2019
3181 Clear 18 1024 34 10000 4.1 40 06:39 23.08.2019
3182 Clear 18 1024 42 10000 4.1 40 06:20 23.08.2019
3183 Clouds 17 1025 44 10000 4.1 40 05:42 23.08.2019
3184 Clouds 17 1025 44 10000 4.1 40 05:21 23.08.2019
3185 Clouds 16 1027 47 10000 4.6 260 03:23 23.08.2019
3186 Clouds 14 1027 41 10000 4.6 270 02:24 23.08.2019
3187 Clouds 12 1027 44 10000 4.6 310 01:52 23.08.2019
3188 Clouds 10 1027 43 10000 4.6 320 00:46 23.08.2019
3189 Clouds 8 1026 49 10000 4.1 320 00:22 23.08.2019
3190 Clouds 8 1027 63 10000 4.6 320 00:22 23.08.2019
3191 Clouds 7 1026 49 10000 3.6 330 23:50 22.08.2019
3192 Clouds 6 1026 49 10000 3.6 330 23:32 22.08.2019
3193 Clouds 6 1025 49 10000 3.6 300 22:58 22.08.2019
3194 Clouds 5 1025 56 10000 5.7 250 22:40 22.08.2019
3195 Clouds 5 1025 56 10000 5.7 250 22:22 22.08.2019
3196 Clouds 5 1024 63 10000 6.7 260 21:57 22.08.2019
3197 Clouds 5 1024 56 10000 6.7 260 21:39 22.08.2019
3198 Clear 6 1024 61 10000 6.7 260 21:20 22.08.2019
3199 Clear 6 1024 61 10000 6.7 260 20:57 22.08.2019
3200 Clear 6 1024 52 10000 6.2 260 20:39 22.08.2019
3201 Clouds 6 1024 49 10000 6.2 250 20:19 22.08.2019
3202 Clouds 6 1024 49 10000 6.2 250 19:56 22.08.2019
3203 Clouds 7 1023 61 10000 6.7 250 19:37 22.08.2019
3204 Clouds 7 1023 61 10000 5.7 260 19:19 22.08.2019
3205 Clouds 7 1023 61 10000 5.7 260 18:56 22.08.2019
3206 Clouds 7 1023 53 10000 6.7 230 18:38 22.08.2019
3207 Clouds 7 1023 57 10000 7.7 220 18:18 22.08.2019
3208 Clouds 8 1023 57 10000 7.7 220 17:42 22.08.2019
3209 Clouds 8 1023 58 10000 8.2 220 17:23 22.08.2019
3210 Clouds 9 1023 57 10000 9.3 200 16:58 22.08.2019
3211 Clouds 9 1023 57 10000 9.3 200 16:40 22.08.2019
3212 Clouds 9 1023 58 10000 8.2 210 16:21 22.08.2019
3213 Clouds 9 1023 58 10000 8.2 210 16:21 22.08.2019
3214 Clouds 9 1023 58 10000 8.2 210 16:21 22.08.2019
3215 Clouds 9 1023 58 10000 8.2 210 15:59 22.08.2019
3216 Clouds 10 1023 58 10000 9.3 200 15:40 22.08.2019
3217 Clear 10 1023 53 10000 2.6 240 15:21 22.08.2019
3218 Clear 10 1023 53 10000 2.6 240 14:57 22.08.2019
3219 Clouds 11 1022 54 10000 10.3 200 14:38 22.08.2019
3220 Clear 11 1022 54 10000 10.8 190 14:18 22.08.2019
3221 Clear 11 1022 54 10000 10.8 190 13:56 22.08.2019
3222 Clear 12 1021 54 10000 11.3 190 13:37 22.08.2019
3223 Clear 12 1021 54 10000 11.8 190 13:18 22.08.2019
3224 Clear 12 1021 54 10000 12.3 190 12:40 22.08.2019
3225 Clear 13 1020 54 10000 12.3 190 12:21 22.08.2019
3226 Clear 13 1020 54 10000 12.3 190 11:57 22.08.2019
3227 Clouds 13 1020 54 10000 13.4 190 11:39 22.08.2019
3228 Clouds 13 1019 54 10000 12.9 190 11:19 22.08.2019
3229 Clouds 13 1019 54 10000 12.9 190 10:57 22.08.2019
3230 Clouds 14 1018 54 10000 13.9 190 10:37 22.08.2019
3231 Clouds 14 1018 58 10000 13.9 190 10:19 22.08.2019
3232 Clear 14 1017 58 10000 13.9 180 09:54 22.08.2019
3233 Clear 14 1017 58 10000 13.9 180 09:36 22.08.2019
3234 Clear 14 1017 58 10000 13.9 180 09:36 22.08.2019
3235 Clear 14 1017 58 10000 13.9 180 09:18 22.08.2019
3236 Rain 15 1016 51 10000 14.9 180 08:40 22.08.2019
3237 Rain 15 1015 51 10000 14.4 180 08:21 22.08.2019
3238 Rain 15 1015 51 10000 14.4 180 07:55 22.08.2019
3239 Rain 15 1015 51 10000 14.4 180 07:37 22.08.2019
3240 Clear 15 1014 58 10000 13.9 180 07:18 22.08.2019
3241 Clouds 15 1014 62 10000 13.9 180 06:44 22.08.2019
3242 Clear 15 1013 54 10000 14.4 190 06:20 22.08.2019
3243 Clouds 16 1013 58 10000 13.4 180 04:58 22.08.2019
3244 Rain 18 1012 39 10000 15.4 180 03:22 22.08.2019
3245 Clear 18 1012 39 10000 10.3 250 02:36 22.08.2019
3246 Clear 17 1011 42 10000 10.3 270 01:36 22.08.2019
3247 Clear 16 1011 44 10000 12.9 270 00:52 22.08.2019
3248 Clear 15 1011 44 10000 6.7 270 00:30 22.08.2019
3249 Clear 14 1011 44 10000 10.3 260 23:59 21.08.2019
3250 Clear 14 1011 44 10000 10.3 260 23:40 21.08.2019
3251 Clear 13 1011 44 10000 10.3 260 23:21 21.08.2019
3252 Clear 12 1011 44 10000 10.3 260 22:58 21.08.2019
3253 Clear 12 1011 44 10000 10.3 260 22:39 21.08.2019
3254 Clear 12 1010 50 10000 7.7 270 22:20 21.08.2019
3255 Clear 12 1010 50 10000 7.7 270 21:55 21.08.2019
3256 Clear 12 1010 50 10000 7.2 260 21:37 21.08.2019
3257 Clear 12 1010 50 10000 7.7 270 21:19 21.08.2019
3258 Clear 13 1010 47 10000 6.2 270 20:55 21.08.2019
3259 Clear 13 1010 47 10000 6.2 270 20:37 21.08.2019
3260 Clear 13 1010 54 10000 7.7 270 20:19 21.08.2019
3261 Clear 13 1010 50 10000 1.5 290 19:42 21.08.2019
3262 Clear 13 1010 47 10000 5.1 330 19:23 21.08.2019
3263 Clear 13 1011 50 10000 4.6 350 18:56 21.08.2019
3264 Clear 13 1011 50 10000 4.6 350 18:56 21.08.2019
3265 Clear 14 1011 50 10000 4.6 350 18:38 21.08.2019
3266 Clear 14 1011 47 10000 7.7 290 18:20 21.08.2019
3267 Clear 14 1012 44 10000 8.2 270 17:44 21.08.2019
3268 Clear 14 1012 44 10000 7.7 290 17:22 21.08.2019
3269 Clear 14 1012 44 10000 7.7 290 16:58 21.08.2019
3270 Clear 14 1012 44 10000 9.8 280 16:39 21.08.2019
3271 Clear 14 1012 41 10000 10.8 280 16:20 21.08.2019
3272 Clear 14 1012 41 10000 10.8 280 15:57 21.08.2019
3273 Clear 15 1013 44 10000 6.7 280 15:38 21.08.2019
3274 Clear 15 1013 41 10000 9.3 280 15:19 21.08.2019
3275 Clear 15 1013 41 10000 9.3 280 14:56 21.08.2019
3276 Clear 15 1014 41 10000 8.2 280 14:38 21.08.2019
3277 Clear 15 1014 44 10000 7.2 280 14:19 21.08.2019
3278 Clear 15 1014 42 10000 8.7 280 13:43 21.08.2019
3279 Clear 15 1014 39 10000 8.7 270 13:21 21.08.2019
3280 Clear 15 1014 39 10000 8.7 270 12:58 21.08.2019
3281 Clear 16 1014 39 10000 9.3 270 12:40 21.08.2019
3282 Clear 16 1014 39 10000 11.3 270 12:20 21.08.2019
3283 Clear 16 1014 39 10000 11.3 270 11:56 21.08.2019
3284 Clear 16 1013 42 10000 11.8 270 11:37 21.08.2019
3285 Clear 17 1013 36 10000 12.3 270 11:19 21.08.2019
3286 Clear 17 1013 36 10000 12.3 270 10:56 21.08.2019
3287 Clear 17 1013 39 10000 13.4 270 10:37 21.08.2019
3288 Clear 17 1012 36 10000 12.9 270 10:19 21.08.2019
3289 Clear 18 1012 34 10000 13.9 270 09:42 21.08.2019
3290 Clear 19 1014 37 10000 7.7 270 09:23 21.08.2019
3291 Clear 20 1013 34 10000 9.3 260 08:57 21.08.2019
3292 Clear 20 1012 30 10000 12.3 270 08:38 21.08.2019
3293 Clear 20 1012 28 10000 12.9 270 08:19 21.08.2019
3294 Clear 21 1012 28 10000 11.8 280 07:40 21.08.2019
3295 Clear 21 1012 30 10000 10.8 270 07:20 21.08.2019
3296 Clear 21 1013 28 10000 10.8 270 06:47 21.08.2019
3297 Clear 21 1013 26 10000 9.3 270 06:21 21.08.2019
3298 Clear 21 1013 28 10000 10.3 250 05:41 21.08.2019
3299 Clear 21 1014 28 10000 10.3 250 05:19 21.08.2019
3300 Clear 19 1014 34 10000 4.6 280 03:28 21.08.2019
3301 Clear 16 1015 77 10000 10.3 270 01:42 21.08.2019
3302 Clear 14 1016 44 10000 9.3 280 00:45 21.08.2019
3303 Clear 13 1015 50 10000 10.3 270 00:24 21.08.2019
3304 Clear 12 1015 50 10000 10.3 270 23:57 20.08.2019
3305 Clear 11 1016 54 10000 8.7 290 23:38 20.08.2019
3306 Clear 9 1016 54 10000 7.7 270 23:18 20.08.2019
3307 Clear 8 1016 62 10000 6.7 300 22:56 20.08.2019
3308 Clear 8 1016 62 10000 6.7 300 22:37 20.08.2019
3309 Clear 8 1016 61 10000 1.5 350 22:18 20.08.2019
3310 Clear 8 1016 61 10000 2.1 360 21:57 20.08.2019
3311 Clear 8 1016 61 10000 2.1 360 21:37 20.08.2019
3312 Clear 8 1015 61 10000 2.1 10 21:19 20.08.2019
3313 Clear 8 1016 61 10000 3.6 360 20:43 20.08.2019
3314 Clear 8 1016 61 10000 3.6 360 20:24 20.08.2019
3315 Clear 9 1016 57 10000 4.1 360 19:58 20.08.2019
3316 Clear 9 1016 57 10000 4.1 360 19:38 20.08.2019
3317 Clear 9 1017 57 10000 3.6 350 19:20 20.08.2019
3318 Clouds 9 1016 73 0 1.78 318.479 18:55 20.08.2019
3319 Clouds 9 1018 61 10000 3.6 30 18:37 20.08.2019
3320 Clear 9 1018 61 10000 3.6 30 18:18 20.08.2019
3321 Clear 9 1018 53 10000 3.1 310 17:54 20.08.2019
3322 Clear 9 1018 53 10000 3.1 310 17:36 20.08.2019
3323 Clear 10 1018 50 10000 4.1 310 17:18 20.08.2019
3324 Clear 10 1018 47 10000 3.6 310 16:41 20.08.2019
3325 Clear 10 1019 47 10000 2.6 340 16:23 20.08.2019
3326 Clear 11 1018 47 10000 5.7 310 15:42 20.08.2019
3327 Clear 11 1019 47 10000 7.7 280 15:19 20.08.2019
3328 Clear 11 1019 47 10000 7.7 280 14:56 20.08.2019
3329 Clear 11 1019 47 10000 6.2 270 14:38 20.08.2019
3330 Clear 11 1019 44 10000 8.2 280 14:20 20.08.2019
3331 Clear 12 1020 44 10000 7.7 290 13:56 20.08.2019
3332 Clear 12 1020 44 10000 7.7 290 13:37 20.08.2019
3333 Clear 12 1020 41 10000 5.1 300 13:18 20.08.2019
3334 Clear 12 1020 41 10000 8.7 280 12:50 20.08.2019
3335 Clear 13 1020 41 10000 9.3 290 12:25 20.08.2019
3336 Clear 13 1020 38 10000 8.7 270 11:56 20.08.2019
3337 Clear 13 1020 38 10000 8.7 270 11:38 20.08.2019
3338 Clear 14 1020 54 10000 10.8 270 11:18 20.08.2019
3339 Clear 14 1019 29 10000 8.7 260 10:56 20.08.2019
3340 Clear 15 1019 29 10000 8.7 260 10:37 20.08.2019
3341 Clear 15 1019 25 10000 10.3 260 10:19 20.08.2019
3342 Clear 17 1018 25 10000 8.2 270 09:42 20.08.2019
3343 Clear 17 1018 24 10000 10.8 260 09:24 20.08.2019
3344 Clear 18 1018 24 10000 10.8 270 08:43 20.08.2019
3345 Clear 18 1018 24 10000 10.8 270 08:43 20.08.2019
3346 Clear 19 1018 22 10000 8.2 260 08:25 20.08.2019
3347 Clear 19 1018 22 10000 8.2 260 08:25 20.08.2019
3348 Clear 19 1018 22 10000 8.2 260 07:59 20.08.2019
3349 Clear 19 1010 31 0 0.89 125 07:41 20.08.2019
3350 Clear 20 1018 22 10000 9.3 230 07:22 20.08.2019
3351 Clear 20 1018 22 10000 9.3 230 06:59 20.08.2019
3352 Clear 20 1019 21 10000 6.7 270 06:25 20.08.2019
3353 Clear 20 1019 24 10000 8.7 270 05:49 20.08.2019
3354 Clear 19 1020 27 10000 9.3 270 04:57 20.08.2019
3355 Clear 18 1022 31 10000 10.8 270 03:52 20.08.2019
3356 Clear 15 1022 39 10000 8.7 270 02:36 20.08.2019
3357 Clear 12 1023 40 10000 9.8 270 01:38 20.08.2019
3358 Clear 11 1023 50 10000 10.3 250 00:57 20.08.2019
3359 Clear 10 1023 50 10000 10.3 250 00:39 20.08.2019
3360 Clear 9 1023 50 10000 10.3 250 00:19 20.08.2019
3361 Clear 7 1023 57 10000 10.3 250 23:39 19.08.2019
3362 Clear 6 1023 63 10000 4.6 300 23:18 19.08.2019
3363 Clear 6 1023 57 10000 6.2 290 22:54 19.08.2019
3364 Clear 6 1023 57 10000 6.2 290 22:36 19.08.2019
3365 Clear 6 1022 63 10000 6.2 290 22:18 19.08.2019
3366 Clear 6 1022 62 10000 5.7 300 21:55 19.08.2019
3367 Clear 6 1022 62 10000 5.7 300 21:36 19.08.2019
3368 Clear 6 1022 59 10000 6.7 290 21:18 19.08.2019
3369 Clear 6 1022 49 10000 6.7 290 20:39 19.08.2019
3370 Clear 6 1022 49 10000 6.7 290 20:39 19.08.2019
3371 Clear 6 1022 49 10000 4.1 320 20:20 19.08.2019
3372 Clear 6 1023 59 10000 5.1 290 19:58 19.08.2019
3373 Clear 6 1023 59 10000 5.1 290 19:39 19.08.2019
3374 Clear 6 1023 59 10000 5.1 290 19:19 19.08.2019
3375 Clear 6 1023 49 10000 5.7 280 18:47 19.08.2019
3376 Clear 6 1023 49 10000 5.7 280 18:29 19.08.2019
3377 Clear 7 1023 49 10000 5.7 280 17:59 19.08.2019
3378 Clear 7 1023 45 10000 5.7 280 17:41 19.08.2019
3379 Clear 7 1023 45 10000 6.7 270 17:22 19.08.2019
3380 Clear 8 1023 45 10000 7.2 270 16:58 19.08.2019
3381 Clear 8 1023 45 10000 7.2 270 16:38 19.08.2019
3382 Clear 8 1023 43 10000 7.7 270 16:20 19.08.2019
3383 Clear 9 1023 39 10000 8.2 260 15:56 19.08.2019
3384 Clear 9 1023 39 10000 8.2 260 15:37 19.08.2019
3385 Clear 9 1023 39 10000 8.2 260 15:19 19.08.2019
3386 Clear 9 1023 43 10000 9.3 260 14:43 19.08.2019
3387 Clear 9 1022 39 10000 7.7 260 14:23 19.08.2019
3388 Clear 9 1022 37 10000 8.7 260 13:58 19.08.2019
3389 Clear 10 1022 37 10000 8.7 260 13:38 19.08.2019
3390 Clear 10 1022 37 10000 9.8 260 13:19 19.08.2019
3391 Clear 10 1021 37 10000 9.3 270 12:57 19.08.2019
3392 Clear 10 1022 37 10000 9.8 260 12:57 19.08.2019
3393 Clear 10 1021 37 10000 9.3 270 12:39 19.08.2019
3394 Clear 10 1021 37 10000 8.2 270 12:19 19.08.2019
3395 Clear 11 1020 34 10000 9.8 270 11:40 19.08.2019
3396 Clear 11 1020 34 10000 10.8 270 11:21 19.08.2019
3397 Clear 11 1020 34 10000 10.8 270 10:58 19.08.2019
3398 Clear 11 1019 32 10000 10.8 260 10:37 19.08.2019
3399 Clear 12 1019 30 10000 12.9 250 10:18 19.08.2019
3400 Clear 12 1019 32 10000 6.7 260 09:45 19.08.2019
3401 Clear 13 1018 26 10000 11.8 260 09:24 19.08.2019
3402 Clear 13 1018 26 10000 11.8 260 09:24 19.08.2019
3403 Clear 14 1018 26 10000 11.8 260 08:59 19.08.2019
3404 Clear 14 1017 24 10000 12.9 260 08:41 19.08.2019
3405 Clear 14 1016 22 10000 12.9 270 08:20 19.08.2019
3406 Clear 14 1016 24 10000 13.9 270 07:50 19.08.2019
3407 Clear 15 1016 24 10000 13.9 270 07:31 19.08.2019
3408 Clear 15 1016 21 10000 14.4 270 06:58 19.08.2019
3409 Clear 15 1016 26 10000 12.9 260 06:36 19.08.2019
3410 Clear 16 1015 25 10000 12.3 260 05:25 19.08.2019
3411 Clear 16 1015 29 10000 12.3 270 04:32 19.08.2019
3412 Clear 15 1016 29 10000 10.3 270 03:24 19.08.2019
3413 Clear 15 1015 30 10000 12.3 280 02:29 19.08.2019
3414 Clear 14 1015 30 10000 10.3 270 01:36 19.08.2019
3415 Clear 12 1014 35 10000 9.3 280 00:44 19.08.2019
3416 Clear 12 1014 35 10000 9.3 280 00:23 19.08.2019
3417 Clear 11 1013 40 10000 10.3 270 23:43 18.08.2019
3418 Clear 11 1013 40 10000 10.3 270 23:22 18.08.2019
3419 Clear 10 1013 40 10000 10.3 270 23:22 18.08.2019
3420 Clear 10 1013 40 10000 10.3 270 22:59 18.08.2019
3421 Clear 10 1012 52 10000 6.7 300 22:40 18.08.2019
3422 Clear 10 1012 40 10000 8.7 300 22:21 18.08.2019
3423 Clear 10 1012 40 10000 8.7 300 21:57 18.08.2019
3424 Clear 11 1012 52 10000 9.8 290 21:38 18.08.2019
3425 Clear 11 1011 46 10000 6.7 280 21:20 18.08.2019
3426 Clear 12 1011 50 10000 7.2 280 20:45 18.08.2019
3427 Clear 12 1011 50 10000 7.2 280 20:45 18.08.2019
3428 Clear 12 1011 50 10000 7.2 280 20:45 18.08.2019
3429 Clear 12 1011 50 10000 7.2 280 20:26 18.08.2019
3430 Clear 12 1011 43 10000 9.3 290 19:59 18.08.2019
3431 Clear 13 1011 43 10000 10.8 280 19:41 18.08.2019
3432 Clear 14 1011 44 10000 8.7 280 19:23 18.08.2019
3433 Clear 14 1011 44 10000 8.7 280 18:56 18.08.2019
3434 Clear 15 1011 44 10000 12.3 270 18:38 18.08.2019
3435 Clear 15 1011 44 10000 12.3 270 18:38 18.08.2019
3436 Clear 15 1011 50 10000 12.9 260 18:20 18.08.2019
3437 Clear 15 1010 48 10000 10.3 270 17:54 18.08.2019
3438 Clear 15 1010 48 10000 10.3 270 17:36 18.08.2019
3439 Clear 15 1010 55 10000 10.3 270 17:18 18.08.2019
3440 Clear 15 1009 77 10000 9.8 270 16:42 18.08.2019
3441 Clear 15 1008 67 10000 10.3 270 16:23 18.08.2019
3442 Clear 15 1008 67 10000 10.3 270 15:59 18.08.2019
3443 Clear 15 1009 67 10000 10.3 270 15:39 18.08.2019
3444 Clear 16 1009 63 10000 10.8 270 15:20 18.08.2019
3445 Clear 16 1009 63 10000 10.8 270 15:20 18.08.2019
3446 Clear 16 1006 68 10000 10.3 270 14:57 18.08.2019
3447 Clear 16 1006 68 10000 10.3 270 14:38 18.08.2019
3448 Clear 16 1007 68 10000 10.3 270 14:19 18.08.2019
3449 Clear 16 1007 68 10000 10.3 270 13:56 18.08.2019
3450 Clear 14 1008 72 10000 10.8 30 13:38 18.08.2019
3451 Clear 14 1009 72 10000 10.3 10 13:19 18.08.2019
3452 Clear 15 1009 72 10000 11.8 30 12:41 18.08.2019
3453 Clear 16 1009 72 10000 13.9 30 12:22 18.08.2019
3454 Clear 16 1009 72 10000 13.9 30 11:55 18.08.2019
3455 Clear 16 1010 77 10000 13.4 30 11:37 18.08.2019
3456 Clear 17 1010 77 10000 7.7 10 11:18 18.08.2019
3457 Clear 19 1011 72 10000 10.3 30 10:41 18.08.2019
3458 Clear 19 1011 72 10000 10.3 30 10:22 18.08.2019
3459 Clear 20 1011 72 10000 11.3 30 09:52 18.08.2019
3460 Clear 20 1011 72 10000 11.3 30 09:24 18.08.2019
3461 Clear 21 1011 72 10000 7.7 10 08:59 18.08.2019
3462 Clouds 22 1011 68 10000 11.8 30 08:41 18.08.2019
3463 Clouds 22 1011 68 10000 11.8 30 08:23 18.08.2019
3464 Clouds 22 1012 64 10000 10.8 40 07:49 18.08.2019
3465 Clouds 22 1012 64 10000 10.8 40 07:29 18.08.2019
3466 Clear 22 1015 52 10000 9.8 30 05:49 18.08.2019
3467 Clouds 21 1016 60 10000 8.2 30 04:54 18.08.2019
3468 Clouds 19 1018 60 10000 6.2 30 03:42 18.08.2019
3469 Clouds 16 1019 55 10000 3.1 310 02:46 18.08.2019
3470 Clouds 16 1019 55 10000 3.1 310 02:25 18.08.2019
3471 Clear 12 1020 62 10000 3.1 320 01:47 18.08.2019
3472 Clear 10 1020 66 10000 3.1 320 01:20 18.08.2019
3473 Clear 9 1020 71 10000 4.1 320 00:38 18.08.2019
3474 Clear 7 1020 81 10000 3.6 320 00:19 18.08.2019
3475 Clear 6 1020 81 10000 3.6 320 23:57 17.08.2019
3476 Clear 6 1020 81 10000 3.6 320 23:37 17.08.2019
3477 Clouds 6 1020 81 10000 3.6 310 23:18 17.08.2019
3478 Clouds 6 1020 81 10000 3.6 310 23:18 17.08.2019
3479 Clouds 6 1020 81 10000 3.6 310 22:56 17.08.2019
3480 Clouds 5 1020 87 10000 3.6 310 22:38 17.08.2019
3481 Clouds 6 1020 87 10000 3.6 320 22:20 17.08.2019
3482 Clouds 6 1020 81 10000 3.6 320 21:42 17.08.2019
3483 Clouds 6 1020 87 10000 2.6 350 21:23 17.08.2019
3484 Clouds 6 1020 87 10000 2.6 350 20:56 17.08.2019
3485 Clouds 5 1020 81 10000 2.6 310 20:36 17.08.2019
3486 Clear 8 1020 87 10000 3.1 350 20:18 17.08.2019
3487 Clear 8 1020 81 10000 2.6 330 19:41 17.08.2019
3488 Clear 8 1020 81 10000 3.1 330 19:22 17.08.2019
3489 Clear 8 1020 81 10000 3.1 330 19:22 17.08.2019
3490 Clear 8 1020 81 10000 3.1 330 18:55 17.08.2019
3491 Clear 8 1021 81 10000 3.6 340 18:37 17.08.2019
3492 Clear 8 1021 81 10000 3.6 360 18:18 17.08.2019
3493 Clear 8 1021 81 10000 2.6 340 17:42 17.08.2019
3494 Clear 9 1021 76 10000 3.1 320 17:22 17.08.2019
3495 Clear 9 1021 76 10000 3.1 320 16:56 17.08.2019
3496 Clear 9 1021 81 10000 3.6 340 16:37 17.08.2019
3497 Clear 9 1021 76 10000 2.6 340 16:19 17.08.2019
3498 Clear 9 1021 81 10000 4.6 300 15:42 17.08.2019
3499 Clear 9 1022 93 10000 1.89 271.429 15:22 17.08.2019
3500 Clear 10 1022 93 10000 0.5 290 14:58 17.08.2019
3501 Clear 10 1022 93 10000 0.5 290 14:39 17.08.2019
3502 Clear 10 1021 87 10000 1.89 271.429 14:21 17.08.2019
3503 Clear 10 1021 87 10000 2.1 280 13:45 17.08.2019
3504 Clear 10 1021 87 10000 2.1 280 13:45 17.08.2019
3505 Clear 11 1021 76 10000 4.6 140 13:21 17.08.2019
3506 Clear 11 1021 82 10000 4.6 140 12:45 17.08.2019
3507 Clear 12 1021 77 10000 2.6 160 12:20 17.08.2019
3508 Clear 12 1021 77 10000 2.6 160 11:59 17.08.2019
3509 Clear 13 1020 72 10000 3.6 160 11:39 17.08.2019
3510 Clear 13 1020 62 10000 1.5 150 11:20 17.08.2019
3511 Clouds 13 1020 72 10000 4.1 160 10:42 17.08.2019
3512 Clouds 14 1020 63 10000 4.1 160 10:22 17.08.2019
3513 Clouds 15 1020 63 10000 4.1 160 09:59 17.08.2019
3514 Clouds 15 1019 63 10000 4.6 150 09:41 17.08.2019
3515 Clouds 15 1019 63 10000 4.6 150 09:41 17.08.2019
3516 Clouds 16 1019 63 10000 4.6 150 09:23 17.08.2019
3517 Clouds 17 1019 67 10000 6.7 160 08:52 17.08.2019
3518 Clouds 17 1019 67 10000 6.7 160 08:23 17.08.2019
3519 Clouds 18 1019 59 10000 7.2 170 07:44 17.08.2019
3520 Clouds 18 1019 63 10000 8.2 170 07:20 17.08.2019
3521 Clouds 18 1019 63 10000 8.2 170 07:20 17.08.2019
3522 Clouds 18 1019 59 10000 8.2 170 06:34 17.08.2019
3523 Clear 19 1019 42 10000 3.1 160 04:52 17.08.2019
3524 Clear 19 1019 42 10000 3.1 160 04:27 17.08.2019
3525 Clouds 18 1019 48 10000 5.1 170 02:49 17.08.2019
3526 Clouds 16 1019 55 10000 4.1 250 01:40 17.08.2019
3527 Clouds 15 1019 51 10000 4.6 250 01:21 17.08.2019
3528 Clouds 14 1018 50 10000 5.1 260 00:48 17.08.2019
3529 Clouds 13 1018 50 10000 5.1 260 00:26 17.08.2019
3530 Clouds 11 1017 50 10000 4.1 230 23:47 16.08.2019
3531 Clouds 11 1017 50 10000 4.1 230 23:25 16.08.2019
3532 Clouds 11 1017 43 10000 5.1 250 22:55 16.08.2019
3533 Clouds 11 1016 41 10000 6.2 250 22:36 16.08.2019
3534 Clouds 11 1016 66 10000 6.2 270 22:18 16.08.2019
3535 Clear 11 1015 33 10000 6.7 260 21:39 16.08.2019
3536 Clear 10 1015 40 10000 4.6 270 21:19 16.08.2019
3537 Clear 9 1015 40 10000 4.6 270 20:55 16.08.2019
3538 Clear 10 1015 44 10000 4.1 280 20:37 16.08.2019
3539 Clear 11 1014 44 10000 3.6 330 20:18 16.08.2019
3540 Clear 11 1014 35 10000 2.66 262.661 19:41 16.08.2019
3541 Clear 11 1015 33 10000 2.1 50 19:22 16.08.2019
3542 Clear 12 1015 33 10000 0.5 270 18:43 16.08.2019
3543 Clear 12 1015 33 10000 0.5 270 18:25 16.08.2019
3544 Clear 12 1015 33 10000 0.5 270 18:25 16.08.2019
3545 Clear 12 1014 43 10000 3.1 230 17:56 16.08.2019
3546 Clear 13 1014 35 10000 3.1 240 17:37 16.08.2019
3547 Clear 12 1014 71 10000 3.6 220 17:18 16.08.2019
3548 Clear 12 1014 67 10000 2.1 230 16:41 16.08.2019
3549 Clear 13 1014 67 10000 2.1 230 16:21 16.08.2019
3550 Clear 13 1014 38 10000 2.1 330 16:21 16.08.2019
3551 Clear 13 1014 38 10000 2.1 330 15:59 16.08.2019
3552 Clear 14 1014 41 10000 1.5 310 15:40 16.08.2019
3553 Clear 15 1015 36 10000 1.5 270 15:21 16.08.2019
3554 Clear 15 1015 36 10000 1.5 270 14:57 16.08.2019
3555 Clear 15 1015 22 10000 2.6 30 14:38 16.08.2019
3556 Clouds 15 1015 43 10000 2.6 20 14:19 16.08.2019
3557 Clouds 14 1015 50 10000 2.6 360 13:41 16.08.2019
3558 Clouds 15 1015 50 10000 2.6 360 13:41 16.08.2019
3559 Clouds 14 1015 46 10000 1.5 360 13:23 16.08.2019
3560 Clouds 15 1015 46 10000 1.5 360 12:58 16.08.2019
3561 Clouds 15 1016 46 10000 2.26 319.074 12:37 16.08.2019
3562 Clear 15 1015 18 10000 2.6 270 12:19 16.08.2019
3563 Clear 17 1015 18 10000 3.6 260 11:42 16.08.2019
3564 Clear 17 1015 18 10000 3.6 260 11:24 16.08.2019
3565 Clouds 18 1015 22 10000 3.1 250 10:43 16.08.2019
3566 Clouds 19 1015 22 10000 3.1 240 10:25 16.08.2019
3567 Clouds 19 1015 22 10000 3.1 240 09:56 16.08.2019
3568 Clear 20 1014 28 10000 4.6 50 09:37 16.08.2019
3569 Clear 21 1014 26 10000 5.1 40 09:18 16.08.2019
3570 Clear 21 1014 26 10000 5.1 40 09:18 16.08.2019
3571 Clear 22 1014 23 10000 5.1 60 08:41 16.08.2019
3572 Clear 23 1014 14 10000 3.1 290 08:21 16.08.2019
3573 Clear 23 1014 14 10000 3.6 310 07:55 16.08.2019
3574 Clear 23 1014 14 10000 3.6 310 07:33 16.08.2019
3575 Clear 24 1015 14 10000 4.6 320 06:59 16.08.2019
3576 Clear 24 1015 14 10000 4.6 320 06:32 16.08.2019
3577 Clear 23 1016 16 10000 3.6 300 05:43 16.08.2019
3578 Clear 22 1017 18 10000 4.1 330 04:32 16.08.2019
3579 Clear 18 1019 27 10000 4.1 310 02:47 16.08.2019
3580 Clear 15 1019 41 10000 4.6 310 01:42 16.08.2019
3581 Clear 13 1019 43 10000 4.6 330 01:19 16.08.2019
3582 Clear 11 1020 50 10000 4.6 310 00:41 16.08.2019
3583 Clear 8 1020 57 10000 5.1 300 00:21 16.08.2019
3584 Clear 6 1020 61 10000 5.1 310 23:45 15.08.2019
3585 Clear 5 1020 61 10000 5.1 310 23:22 15.08.2019
3586 Clear 5 1020 63 10000 5.1 310 22:58 15.08.2019
3587 Clear 5 1020 61 10000 5.1 310 22:39 15.08.2019
3588 Clear 5 1020 61 10000 5.7 310 22:21 15.08.2019
3589 Clear 5 1020 61 10000 5.7 310 21:56 15.08.2019
3590 Clear 5 1020 62 10000 4.6 310 21:38 15.08.2019
3591 Clear 4 1020 61 10000 4.1 330 21:18 15.08.2019
3592 Clear 5 1020 57 10000 3.6 350 20:43 15.08.2019
3593 Clear 5 1020 57 10000 2.6 320 20:22 15.08.2019
3594 Clear 6 1020 57 10000 2.6 320 19:58 15.08.2019
3595 Clear 6 1021 61 10000 2.6 340 19:39 15.08.2019
3596 Clear 6 1021 57 10000 1.5 300 19:21 15.08.2019
3597 Clear 6 1021 57 10000 1.5 300 19:21 15.08.2019
3598 Clear 6 1021 61 10000 2.6 330 18:47 15.08.2019
3599 Clear 7 1021 66 10000 4.1 350 18:23 15.08.2019
3600 Clear 7 1022 61 10000 3.1 330 17:58 15.08.2019
3601 Clear 7 1022 61 10000 3.1 330 17:38 15.08.2019
3602 Clear 7 1022 62 10000 3.1 320 17:19 15.08.2019
3603 Clear 7 1022 62 10000 3.1 320 16:57 15.08.2019
3604 Clear 7 1022 62 10000 3.1 320 16:57 15.08.2019
3605 Clear 7 1022 62 10000 2.1 340 16:38 15.08.2019
3606 Clear 8 1022 62 10000 3.1 320 16:20 15.08.2019
3607 Clear 8 1022 62 10000 2.21 274.449 15:39 15.08.2019
3608 Clear 8 1023 66 10000 1.5 310 15:20 15.08.2019
3609 Clear 8 1023 59 10000 1.68 273.755 14:57 15.08.2019
3610 Clear 8 1023 59 10000 1.68 273.755 14:38 15.08.2019
3611 Clear 9 1023 59 10000 1.5 330 14:19 15.08.2019
3612 Clear 9 1023 59 10000 1.5 330 13:56 15.08.2019
3613 Clear 9 1023 52 10000 1.95 266.973 13:38 15.08.2019
3614 Clear 11 1023 58 10000 4.1 290 13:19 15.08.2019
3615 Clear 11 1023 37 10000 3.1 260 12:40 15.08.2019
3616 Clear 12 1022 58 10000 4.1 290 12:21 15.08.2019
3617 Clear 13 1022 54 10000 4.1 290 11:59 15.08.2019
3618 Clear 13 1022 54 10000 4.1 290 11:39 15.08.2019
3619 Clear 14 1022 51 10000 4.1 290 11:20 15.08.2019
3620 Clear 14 1022 51 10000 4.1 290 10:59 15.08.2019
3621 Clear 15 1022 42 10000 4.1 290 10:37 15.08.2019
3622 Clear 15 1022 42 10000 4.1 290 10:37 15.08.2019
3623 Clear 15 1021 42 10000 0.5 220 10:19 15.08.2019
3624 Clear 17 1021 32 10000 3.6 20 09:44 15.08.2019
3625 Clear 18 1021 22 10000 2.1 300 09:23 15.08.2019
3626 Clear 19 1021 22 10000 2.1 300 08:55 15.08.2019
3627 Clear 19 1021 22 10000 3.6 330 08:36 15.08.2019
3628 Clear 19 1021 22 10000 4.6 340 08:18 15.08.2019
3629 Clear 20 1021 22 10000 3.1 310 07:41 15.08.2019
3630 Clear 20 1021 22 10000 3.1 310 07:21 15.08.2019
3631 Clear 20 1021 22 10000 5.7 330 06:53 15.08.2019
3632 Clear 20 1022 25 10000 5.7 280 06:32 15.08.2019
3633 Clear 20 1023 24 10000 4.1 260 05:43 15.08.2019
3634 Clear 19 1023 24 10000 5.1 290 05:23 15.08.2019
3635 Clear 18 1024 27 10000 3.1 230 04:30 15.08.2019
3636 Clear 17 1025 27 10000 2.6 300 03:30 15.08.2019
3637 Clear 15 1026 38 10000 3.1 310 02:37 15.08.2019
3638 Clear 13 1026 46 10000 3.1 340 01:50 15.08.2019
3639 Clear 12 1026 46 10000 3.1 340 01:27 15.08.2019
3640 Clear 9 1026 57 10000 3.1 320 00:39 15.08.2019
3641 Clear 7 1026 57 10000 3.1 320 00:20 15.08.2019
3642 Clear 5 1026 70 10000 4.6 320 23:57 14.08.2019
3643 Clear 4 1026 70 10000 4.6 320 23:37 14.08.2019
3644 Clear 4 1026 65 10000 4.1 320 23:19 14.08.2019
3645 Clear 3 1026 65 10000 4.1 320 22:56 14.08.2019
3646 Clear 3 1026 70 10000 4.6 300 22:38 14.08.2019
3647 Clear 4 1025 75 10000 4.6 320 22:19 14.08.2019
3648 Clear 4 1025 75 10000 4.6 320 21:55 14.08.2019
3649 Clear 4 1025 81 10000 5.1 320 21:36 14.08.2019
3650 Clear 4 1025 81 10000 4.6 320 21:18 14.08.2019
3651 Clear 5 1025 87 10000 5.7 340 20:41 14.08.2019
3652 Clear 5 1025 87 10000 4.1 330 20:21 14.08.2019
3653 Clear 5 1025 87 10000 3.6 330 19:56 14.08.2019
3654 Clear 4 1026 65 7000 2.6 268.477 19:37 14.08.2019
3655 Clear 4 1025 87 10000 3.1 340 19:19 14.08.2019
3656 Clear 4 1025 87 10000 4.1 340 18:56 14.08.2019
3657 Clear 4 1025 87 10000 4.1 340 18:38 14.08.2019
3658 Clear 5 1026 81 10000 2.6 350 18:19 14.08.2019
3659 Clear 5 1026 76 10000 2.1 340 17:56 14.08.2019
3660 Clear 5 1026 76 10000 2.1 340 17:37 14.08.2019
3661 Clear 5 1026 76 10000 2.1 340 17:37 14.08.2019
3662 Clear 6 1026 76 10000 2.6 360 17:18 14.08.2019
3663 Clear 6 1026 76 10000 2.6 350 16:42 14.08.2019
3664 Clear 7 1026 76 10000 2.4 253.655 16:20 14.08.2019
3665 Clear 7 1026 76 10000 0.5 310 15:55 14.08.2019
3666 Clear 7 1026 76 10000 0.5 310 15:55 14.08.2019
3667 Clear 7 1026 76 10000 0.5 310 15:36 14.08.2019
3668 Clear 8 1026 76 10000 1.5 330 15:18 14.08.2019
3669 Clear 8 1026 76 10000 2.6 270 14:40 14.08.2019
3670 Clear 9 1026 76 10000 3.6 260 14:19 14.08.2019
3671 Clear 9 1026 76 10000 3.6 260 13:59 14.08.2019
3672 Clear 9 1026 76 10000 3.1 230 13:40 14.08.2019
3673 Clear 10 1026 62 10000 1.66 249.027 13:22 14.08.2019
3674 Clear 10 1026 62 10000 1.66 249.027 12:56 14.08.2019
3675 Clear 11 1026 62 10000 3.1 20 12:37 14.08.2019
3676 Clear 12 1026 62 10000 3.6 30 12:19 14.08.2019
3677 Clear 12 1025 62 10000 3.1 30 11:46 14.08.2019
3678 Clear 13 1025 62 10000 3.6 40 11:23 14.08.2019
3679 Clear 13 1025 62 10000 3.6 40 10:58 14.08.2019
3680 Clear 13 1025 62 10000 3.6 50 10:38 14.08.2019
3681 Clear 13 1025 62 10000 3.6 50 10:38 14.08.2019
3682 Clear 13 1025 62 10000 3.6 50 10:38 14.08.2019
3683 Clear 15 1025 55 10000 4.1 60 10:20 14.08.2019
3684 Clear 17 1025 51 10000 4.6 70 09:44 14.08.2019
3685 Clear 18 1025 42 10000 5.1 80 09:21 14.08.2019
3686 Clear 18 1025 45 10000 4.6 90 08:49 14.08.2019
3687 Clear 18 1025 45 10000 4.6 90 08:30 14.08.2019
3688 Clear 19 1025 42 10000 4.6 90 07:57 14.08.2019
3689 Clear 19 1025 45 10000 5.1 40 07:39 14.08.2019
3690 Clear 19 1025 45 10000 5.1 40 07:20 14.08.2019
3691 Clear 19 1025 45 10000 4.6 120 06:43 14.08.2019
3692 Clear 18 1026 25 10000 3.1 40 05:47 14.08.2019
3693 Clear 17 1027 42 10000 3.1 290 04:45 14.08.2019
3694 Clouds 12 1029 47 10000 4.1 310 02:52 14.08.2019
3695 Clouds 12 1029 47 10000 4.6 300 02:25 14.08.2019
3696 Clouds 10 1029 54 10000 4.6 290 01:38 14.08.2019
3697 Clouds 7 1029 62 10000 3.6 310 00:51 14.08.2019
3698 Clouds 5 1029 70 10000 3.6 320 23:47 13.08.2019
3699 Clouds 5 1028 66 10000 4.6 310 23:23 13.08.2019
3700 Clouds 5 1028 66 10000 4.6 310 22:58 13.08.2019
3701 Clouds 5 1028 66 10000 4.6 310 22:39 13.08.2019
3702 Clouds 5 1028 70 10000 4.1 330 22:21 13.08.2019
3703 Clouds 5 1028 70 10000 4.1 330 21:58 13.08.2019
3704 Clouds 5 1027 70 10000 4.1 330 21:37 13.08.2019
3705 Clouds 5 1027 75 10000 2.6 330 21:19 13.08.2019
3706 Clouds 6 1027 70 10000 4.1 320 20:56 13.08.2019
3707 Clouds 6 1027 70 10000 4.1 320 20:36 13.08.2019
3708 Clouds 6 1027 70 10000 4.1 320 20:18 13.08.2019
3709 Clouds 6 1027 70 10000 4.1 320 19:42 13.08.2019
3710 Clouds 7 1027 76 10000 3.6 330 19:21 13.08.2019
3711 Clouds 7 1027 71 10000 3.6 330 18:56 13.08.2019
3712 Clouds 7 1027 71 10000 3.6 330 18:37 13.08.2019
3713 Clouds 7 1027 71 10000 3.1 340 18:18 13.08.2019
3714 Clouds 7 1027 76 10000 2.1 300 17:41 13.08.2019
3715 Clouds 7 1027 76 10000 2.1 300 17:21 13.08.2019
3716 Clouds 7 1027 76 10000 2.1 300 16:57 13.08.2019
3717 Clear 7 1027 76 10000 3.1 340 16:39 13.08.2019
3718 Clear 8 1027 76 10000 2.6 320 16:20 13.08.2019
3719 Clear 8 1027 71 10000 3.6 330 15:58 13.08.2019
3720 Clear 8 1027 71 10000 3.6 330 15:36 13.08.2019
3721 Clear 8 1027 76 10000 3.1 310 15:18 13.08.2019
3722 Clear 8 1027 86 10000 2.13 242.398 14:41 13.08.2019
3723 Clear 8 1027 81 10000 3.6 220 14:20 13.08.2019
3724 Clear 9 1027 81 10000 3.6 220 13:56 13.08.2019
3725 Clear 9 1027 81 10000 3.6 220 13:56 13.08.2019
3726 Clear 9 1027 76 10000 3.6 230 13:37 13.08.2019
3727 Clear 9 1027 76 10000 3.6 230 13:18 13.08.2019
3728 Clear 9 1026 71 10000 2.6 240 12:42 13.08.2019
3729 Clear 10 1026 71 10000 1.55 160.583 12:24 13.08.2019
3730 Clear 10 1026 71 10000 1.55 160.583 11:59 13.08.2019
3731 Clear 11 1026 67 10000 0.5 100 11:40 13.08.2019
3732 Clear 11 1025 67 10000 3.1 110 11:21 13.08.2019
3733 Clouds 12 1025 58 10000 3.6 90 10:57 13.08.2019
3734 Clouds 13 1025 58 10000 3.6 90 10:38 13.08.2019
3735 Clouds 13 1024 62 10000 3.6 90 10:19 13.08.2019
3736 Clouds 14 1024 54 10000 4.1 90 09:44 13.08.2019
3737 Clouds 15 1024 51 10000 4.1 110 09:24 13.08.2019
3738 Clouds 16 1024 51 10000 4.1 130 08:57 13.08.2019
3739 Clouds 16 1024 51 10000 4.1 130 08:39 13.08.2019
3740 Clouds 16 1024 51 10000 3.6 130 08:19 13.08.2019
3741 Clouds 17 1024 48 10000 4.6 130 07:40 13.08.2019
3742 Clouds 17 1023 48 10000 4.6 120 07:20 13.08.2019
3743 Clouds 17 1023 48 10000 4.6 120 06:43 13.08.2019
3744 Clear 17 1024 41 10000 3.1 140 05:47 13.08.2019
3745 Clear 16 1024 38 10000 4.1 120 04:24 13.08.2019
3746 Clouds 13 1026 47 10000 4.1 220 02:22 13.08.2019
3747 Clouds 11 1025 53 10000 5.7 290 01:26 13.08.2019
3748 Clear 10 1025 61 10000 5.7 280 00:48 13.08.2019
3749 Clear 8 1025 66 10000 6.7 290 00:22 13.08.2019
3750 Clouds 6 1024 66 10000 6.2 290 23:43 12.08.2019
3751 Clouds 5 1024 70 10000 6.2 290 23:21 12.08.2019
3752 Clear 5 1023 66 10000 6.7 280 22:41 12.08.2019
3753 Clear 5 1023 70 10000 5.7 290 22:20 12.08.2019
3754 Clear 5 1023 70 10000 5.7 290 21:57 12.08.2019
3755 Clear 5 1023 70 10000 5.7 290 21:38 12.08.2019
3756 Clear 5 1023 70 10000 4.1 310 21:19 12.08.2019
3757 Clear 5 1023 70 10000 4.1 310 20:59 12.08.2019
3758 Clear 5 1022 70 10000 4.6 310 20:41 12.08.2019
3759 Clear 5 1022 70 10000 4.1 320 20:20 12.08.2019
3760 Clear 6 1022 70 10000 4.1 320 19:57 12.08.2019
3761 Clear 6 1022 70 10000 3.6 300 19:39 12.08.2019
3762 Clear 6 1022 65 10000 4.1 310 19:20 12.08.2019
3763 Clear 6 1022 66 10000 3.1 330 18:58 12.08.2019
3764 Clear 7 1022 66 10000 3.1 330 18:39 12.08.2019
3765 Clear 7 1022 61 10000 3.6 330 18:20 12.08.2019
3766 Clear 7 1022 61 10000 3.1 300 17:48 12.08.2019
3767 Clear 7 1022 61 10000 3.1 300 17:29 12.08.2019
3768 Clear 8 1022 57 10000 3.6 260 16:58 12.08.2019
3769 Clear 8 1022 57 10000 3.6 260 16:39 12.08.2019
3770 Clear 8 1022 53 10000 3.6 270 16:20 12.08.2019
3771 Clear 8 1022 53 10000 3.6 270 16:20 12.08.2019
3772 Clear 8 1022 53 10000 3.6 270 15:59 12.08.2019
3773 Clear 8 1022 53 10000 3.6 270 15:59 12.08.2019
3774 Clear 8 1022 57 10000 3.1 280 15:41 12.08.2019
3775 Clear 8 1022 54 10000 4.1 290 15:22 12.08.2019
3776 Clear 8 1022 70 10000 2.8 245.561 14:58 12.08.2019
3777 Clear 8 1022 70 10000 2.8 245.561 14:39 12.08.2019
3778 Clear 8 1022 70 10000 2.8 245.561 14:39 12.08.2019
3779 Clear 8 1022 70 10000 2.8 245.561 14:39 12.08.2019
3780 Clear 8 1022 70 10000 2.8 245.561 14:39 12.08.2019
3781 Clear 8 1022 58 10000 4.1 290 14:20 12.08.2019
3782 Clear 8 1022 65 10000 2.8 245.561 13:55 12.08.2019
3783 Clear 8 1022 65 10000 2.8 245.561 13:55 12.08.2019
3784 Clear 8 1022 68 10000 2.8 245.561 13:55 12.08.2019
3785 Clear 9 1022 67 10000 2.95 245.161 13:37 12.08.2019
3786 Clear 9 1022 50 10000 2.95 245.161 13:19 12.08.2019
3787 Clear 10 1021 62 10000 3.1 310 12:43 12.08.2019
3788 Clear 11 1021 47 10000 4.1 250 12:19 12.08.2019
3789 Clear 11 1021 62 10000 2.6 250 11:44 12.08.2019
3790 Clear 11 1021 62 10000 2.6 250 11:26 12.08.2019
3791 Clear 11 1020 62 10000 2.1 210 10:58 12.08.2019
3792 Clear 12 1020 58 10000 3.1 160 10:40 12.08.2019
3793 Clear 13 1019 54 10000 2.6 130 10:21 12.08.2019
3794 Clear 14 1019 54 10000 2.6 130 09:54 12.08.2019
3795 Clouds 15 1019 51 10000 3.6 160 09:36 12.08.2019
3796 Clouds 15 1019 51 10000 4.1 160 09:18 12.08.2019
3797 Clouds 16 1019 51 10000 4.1 170 08:40 12.08.2019
3798 Clouds 17 1019 51 10000 4.1 170 08:22 12.08.2019
3799 Clouds 16 1019 54 10000 5.7 170 08:22 12.08.2019
3800 Clouds 17 1019 54 10000 5.7 170 07:56 12.08.2019
3801 Clouds 17 1019 55 10000 6.7 170 07:35 12.08.2019
3802 Clouds 17 1018 62 10000 7.2 180 06:54 12.08.2019
3803 Clouds 18 1018 55 10000 7.7 170 06:18 12.08.2019
3804 Clouds 17 1019 58 10000 7.7 200 04:26 12.08.2019
3805 Clouds 15 1019 50 10000 7.2 230 02:43 12.08.2019
3806 Rain 13 1018 54 10000 7.7 230 01:42 12.08.2019
3807 Rain 12 1018 53 10000 7.7 230 01:18 12.08.2019
3808 Rain 11 1017 57 10000 7.7 230 00:54 12.08.2019
3809 Rain 11 1017 57 10000 7.7 230 00:36 12.08.2019
3810 Rain 10 1017 61 10000 7.7 230 00:18 12.08.2019
3811 Clouds 9 1016 61 10000 7.7 270 23:39 11.08.2019
3812 Clouds 9 1016 61 10000 7.7 270 23:39 11.08.2019
3813 Clouds 9 1016 61 10000 6.2 270 23:19 11.08.2019
3814 Clouds 9 1015 57 10000 7.2 250 22:56 11.08.2019
3815 Clouds 9 1015 57 10000 7.2 250 22:37 11.08.2019
3816 Rain 9 1014 57 10000 6.7 260 22:18 11.08.2019
3817 Rain 9 1014 57 10000 6.7 260 21:56 11.08.2019
3818 Rain 9 1014 57 10000 7.2 260 21:38 11.08.2019
3819 Rain 9 1013 57 10000 6.7 250 21:19 11.08.2019
3820 Rain 9 1013 57 10000 6.7 250 21:19 11.08.2019
3821 Rain 10 1013 62 10000 8.2 250 20:44 11.08.2019
3822 Rain 10 1013 57 10000 7.7 250 20:23 11.08.2019
3823 Rain 10 1012 62 10000 8.2 240 19:56 11.08.2019
3824 Rain 10 1012 62 10000 8.2 240 19:37 11.08.2019
3825 Rain 10 1012 66 10000 8.7 240 19:18 11.08.2019
3826 Clouds 9 1012 66 10000 9.8 250 18:40 11.08.2019
3827 Rain 9 1012 66 10000 9.8 250 18:20 11.08.2019
3828 Rain 9 1012 70 10000 9.8 260 17:54 11.08.2019
3829 Rain 9 1012 70 10000 9.8 260 17:36 11.08.2019
3830 Rain 9 1012 66 10000 6.7 250 17:18 11.08.2019
3831 Rain 9 1012 61 10000 8.7 240 16:40 11.08.2019
3832 Rain 9 1011 57 10000 8.2 260 16:22 11.08.2019
3833 Rain 9 1011 57 10000 8.2 260 15:59 11.08.2019
3834 Clear 9 1010 81 10000 8.2 260 15:41 11.08.2019
3835 Clear 9 1010 58 10000 8.2 260 15:22 11.08.2019
3836 Clear 9 1010 58 10000 8.2 260 14:56 11.08.2019
3837 Clear 9 1010 58 10000 6.7 270 14:37 11.08.2019
3838 Clear 9 1009 46 10000 7.7 280 14:19 11.08.2019
3839 Clear 8 1009 46 10000 6.7 280 13:43 11.08.2019
3840 Clear 8 1009 46 10000 6.7 280 13:24 11.08.2019
3841 Clear 9 1008 58 10000 6.7 280 12:46 11.08.2019
3842 Clear 9 1008 46 10000 7.2 270 12:22 11.08.2019
3843 Clear 10 1008 55 10000 8.7 270 11:42 11.08.2019
3844 Clear 10 1007 43 10000 7.7 270 11:23 11.08.2019
3845 Clear 10 1007 43 10000 7.7 270 10:59 11.08.2019
3846 Clear 10 1006 40 10000 7.7 270 10:40 11.08.2019
3847 Clear 11 1006 40 10000 7.7 270 10:21 11.08.2019
3848 Clear 11 1006 40 10000 5.1 250 09:56 11.08.2019
3849 Clear 11 1006 40 10000 5.1 250 09:38 11.08.2019
3850 Clouds 12 1006 37 10000 5.7 260 09:19 11.08.2019
3851 Clear 13 1004 33 10000 9.3 260 08:44 11.08.2019
3852 Clear 13 1004 30 10000 9.8 280 08:25 11.08.2019
3853 Clear 13 1004 30 10000 9.8 280 07:54 11.08.2019
3854 Clear 14 1003 30 10000 9.3 250 07:22 11.08.2019
3855 Clear 14 1003 30 10000 9.3 250 06:41 11.08.2019
3856 Clear 15 1002 29 10000 10.3 270 05:35 11.08.2019
3857 Clear 14 1003 37 10000 9.3 250 03:41 11.08.2019
3858 Clear 13 1003 41 10000 9.8 290 02:48 11.08.2019
3859 Clouds 12 1002 46 10000 9.3 310 01:38 11.08.2019
3860 Clouds 12 1002 43 10000 9.3 250 01:19 11.08.2019
3861 Clouds 10 1003 43 10000 6.7 330 00:43 11.08.2019
3862 Clouds 9 1002 46 10000 5.7 330 00:23 11.08.2019
3863 Clouds 9 1002 46 10000 10.8 320 23:43 10.08.2019
3864 Clouds 9 1002 49 10000 8.7 310 23:24 10.08.2019
3865 Clouds 8 1002 60 10000 3.6 350 22:43 10.08.2019
3866 Clouds 8 1002 60 10000 3.6 350 22:25 10.08.2019
3867 Clear 8 1002 61 10000 4.6 300 21:58 10.08.2019
3868 Clear 8 1003 57 10000 3.6 280 21:58 10.08.2019
3869 Clear 8 1003 57 10000 3.6 280 21:38 10.08.2019
3870 Clear 9 1002 58 10000 0.5 260 21:19 10.08.2019
3871 Clear 8 1002 58 10000 0.5 260 20:56 10.08.2019
3872 Clear 9 1002 57 10000 4.6 260 20:37 10.08.2019
3873 Clear 9 1002 58 10000 6.2 280 20:18 10.08.2019
3874 Clear 9 1002 58 10000 4.1 290 19:39 10.08.2019
3875 Clear 9 1002 58 10000 3.1 310 19:21 10.08.2019
3876 Clear 9 1002 58 10000 5.7 300 18:41 10.08.2019
3877 Clear 10 1002 51 10000 5.7 300 18:22 10.08.2019
3878 Clear 10 1002 53 10000 9.8 280 17:46 10.08.2019
3879 Clear 10 1002 53 10000 9.8 280 17:25 10.08.2019
3880 Clear 10 1002 50 10000 14.4 270 16:47 10.08.2019
3881 Clear 10 1002 50 10000 14.4 270 16:29 10.08.2019
3882 Clear 11 1002 51 10000 10.8 280 15:59 10.08.2019
3883 Clear 11 1002 51 10000 9.8 290 15:40 10.08.2019
3884 Clear 11 1002 55 10000 9.8 290 15:21 10.08.2019
3885 Clear 11 1002 55 10000 9.8 290 14:43 10.08.2019
3886 Clear 10 1002 55 10000 9.3 280 14:19 10.08.2019
3887 Clear 10 1002 55 10000 8.7 280 13:40 10.08.2019
3888 Clear 10 1002 56 10000 9.3 280 13:19 10.08.2019
3889 Clouds 10 1002 43 10000 8.2 280 12:44 10.08.2019
3890 Clouds 10 1002 43 10000 10.3 270 12:23 10.08.2019
3891 Clouds 10 1002 43 10000 10.3 270 11:58 10.08.2019
3892 Clouds 10 1002 40 10000 10.3 270 11:39 10.08.2019
3893 Clouds 10 1001 37 10000 10.3 270 11:21 10.08.2019
3894 Clouds 11 1001 37 10000 10.3 270 10:55 10.08.2019
3895 Clouds 11 1001 37 10000 10.3 270 10:36 10.08.2019
3896 Clouds 11 1001 37 10000 10.3 270 10:18 10.08.2019
3897 Clouds 11 1001 37 10000 10.3 270 10:18 10.08.2019
3898 Clear 11 1000 37 10000 14.4 270 09:40 10.08.2019
3899 Clear 12 1000 35 10000 15.4 270 09:21 10.08.2019
3900 Clear 12 1001 40 10000 7.7 280 08:41 10.08.2019
3901 Clear 13 999 30 10000 14.4 270 08:20 10.08.2019
3902 Clear 13 999 30 10000 14.4 270 07:54 10.08.2019
3903 Clear 14 999 26 10000 14.4 280 07:28 10.08.2019
3904 Clear 14 999 26 10000 11.8 270 06:49 10.08.2019
3905 Clear 14 999 26 10000 11.8 270 06:26 10.08.2019
3906 Clear 14 1000 28 10000 10.3 290 05:25 10.08.2019
3907 Clear 14 1000 30 10000 10.3 300 04:35 10.08.2019
3908 Clouds 13 1001 33 10000 10.3 290 02:56 10.08.2019
3909 Clouds 12 1001 45 10000 12.3 300 02:26 10.08.2019
3910 Clouds 12 1001 46 10000 13.4 300 01:42 10.08.2019
3911 Clouds 11 1001 50 10000 10.3 260 01:22 10.08.2019
3912 Clear 10 1003 57 10000 2.1 310 00:49 10.08.2019
3913 Clouds 9 1001 53 10000 10.8 310 00:25 10.08.2019
3914 Clouds 9 1001 53 10000 11.8 310 23:45 09.08.2019
3915 Clear 9 1001 53 10000 11.8 310 23:24 09.08.2019
3916 Clear 9 1001 53 10000 11.8 310 22:58 09.08.2019
3917 Clear 9 1001 54 10000 11.3 300 22:39 09.08.2019
3918 Clear 9 1001 54 10000 11.3 300 22:21 09.08.2019
3919 Clear 9 1001 46 10000 12.3 310 21:56 09.08.2019
3920 Clear 9 1000 49 10000 10.3 320 21:38 09.08.2019
3921 Clear 9 1000 43 10000 11.3 310 21:20 09.08.2019
3922 Clear 9 1001 43 10000 11.8 310 20:56 09.08.2019
3923 Clear 9 1001 43 10000 11.8 310 20:37 09.08.2019
3924 Clear 9 1001 43 10000 12.3 310 20:18 09.08.2019
3925 Clear 9 1001 43 10000 13.9 300 19:41 09.08.2019
3926 Clear 9 1002 39 10000 12.3 310 19:22 09.08.2019
3927 Clear 10 1002 39 10000 12.9 300 18:42 09.08.2019
3928 Clear 9 1003 34 10000 12.9 290 18:23 09.08.2019
3929 Clear 10 1003 34 10000 12.9 290 17:59 09.08.2019
3930 Clear 10 1004 34 10000 12.9 290 17:41 09.08.2019
3931 Clear 10 1004 34 10000 12.9 290 17:23 09.08.2019
3932 -273 0 0 0 0 0 16:54 09.08.2019
3933 Clear 10 1004 34 10000 12.9 290 16:36 09.08.2019
3934 Clear 10 1005 43 10000 5.7 250 16:18 09.08.2019
3935 Clear 11 1004 32 10000 14.9 280 15:41 09.08.2019
3936 Clear 11 1004 32 10000 14.9 290 15:21 09.08.2019
3937 Clear 11 1004 32 10000 13.9 290 14:57 09.08.2019
3938 Clear 11 1004 32 10000 13.9 290 14:37 09.08.2019
3939 Clear 11 1004 37 10000 14.9 290 14:19 09.08.2019
3940 Clear 11 1003 37 10000 14.4 290 13:44 09.08.2019
3941 Rain 12 1003 37 10000 13.4 300 13:21 09.08.2019
3942 Clear 12 1003 35 10000 14.4 300 12:48 09.08.2019
3943 -273 0 0 0 0 0 12:26 09.08.2019
3944 Clear 12 1002 37 10000 14.9 300 11:59 09.08.2019
3945 Clear 12 1002 37 10000 14.9 300 11:41 09.08.2019
3946 Clear 12 1002 37 10000 13.9 300 11:20 09.08.2019
3947 Clear 12 1002 37 10000 13.9 290 10:41 09.08.2019
3948 Clear 13 1002 37 10000 13.9 290 10:22 09.08.2019
3949 Clear 13 1002 35 10000 13.4 300 09:59 09.08.2019
3950 Clear 13 1001 33 10000 12.9 300 09:38 09.08.2019
3951 Clear 14 1001 33 10000 12.9 290 09:19 09.08.2019
3952 Clear 14 1001 31 10000 13.4 290 08:44 09.08.2019
3953 Clear 15 1001 31 10000 13.4 290 08:25 09.08.2019
3954 Clear 15 1000 29 10000 14.9 290 07:56 09.08.2019
3955 Clear 15 1000 29 10000 14.9 290 07:56 09.08.2019
3956 Clear 15 1000 29 10000 14.9 290 07:56 09.08.2019
3957 Clear 15 1000 29 10000 14.9 290 07:37 09.08.2019
3958 Clear 15 1000 27 10000 14.9 280 07:19 09.08.2019
3959 Clouds 16 1000 29 10000 15.4 290 06:40 09.08.2019
3960 Clouds 16 1000 26 10000 16.5 290 06:20 09.08.2019
3961 Clouds 16 1000 25 10000 15.9 300 05:30 09.08.2019
3962 Clouds 15 1000 38 10000 16.5 300 02:27 09.08.2019
3963 Clouds 15 1000 38 10000 15.4 300 01:23 09.08.2019
3964 Clouds 15 1000 41 10000 12.9 300 00:41 09.08.2019
3965 Clouds 14 999 44 10000 11.3 310 00:22 09.08.2019
3966 Clouds 14 999 44 10000 11.3 310 23:56 08.08.2019
3967 Clouds 13 999 44 10000 10.8 310 23:37 08.08.2019
3968 Clouds 13 999 41 10000 10.3 310 23:18 08.08.2019
3969 Clear 13 999 41 10000 10.8 310 22:54 08.08.2019
3970 Clear 13 999 41 10000 10.8 310 22:36 08.08.2019
3971 Clear 12 999 41 10000 13.9 300 22:18 08.08.2019
3972 Clear 12 999 41 10000 13.9 300 22:18 08.08.2019
3973 Clear 12 999 55 10000 10.8 300 21:42 08.08.2019
3974 Clear 13 999 50 10000 10.8 300 21:23 08.08.2019
3975 Clear 13 999 35 10000 9.3 310 20:57 08.08.2019
3976 Clear 13 999 35 10000 8.7 310 20:39 08.08.2019
3977 Clear 13 999 35 10000 8.7 310 20:39 08.08.2019
3978 Clear 13 1000 33 10000 9.8 300 20:19 08.08.2019
3979 Clear 13 1000 35 10000 9.8 310 19:48 08.08.2019
3980 Clear 13 1000 35 10000 9.8 310 19:29 08.08.2019
3981 Clear 13 1000 35 10000 9.8 310 19:29 08.08.2019
3982 Clear 13 1001 33 10000 12.9 310 18:59 08.08.2019
3983 Clear 13 1001 33 10000 11.3 310 18:40 08.08.2019
3984 Clear 13 1001 33 10000 6.7 320 18:19 08.08.2019
3985 Clear 13 1002 33 10000 5.7 320 17:42 08.08.2019
3986 Clear 13 1002 35 10000 6.2 320 17:24 08.08.2019
3987 Clear 13 1002 35 10000 8.2 310 16:58 08.08.2019
3988 Clear 13 1002 35 10000 8.2 310 16:40 08.08.2019
3989 Clear 13 1003 33 10000 7.2 310 16:22 08.08.2019
3990 Clear 13 1003 33 10000 7.2 310 15:57 08.08.2019
3991 Clear 13 1003 33 10000 7.7 310 15:38 08.08.2019
3992 Clear 13 1003 33 10000 7.7 310 15:20 08.08.2019
3993 Clear 13 1004 33 10000 7.2 300 14:38 08.08.2019
3994 Clear 13 1004 33 10000 6.2 310 14:19 08.08.2019
3995 Clear 13 1004 33 10000 5.1 320 13:43 08.08.2019
3996 Clear 13 1004 33 10000 4.6 320 13:24 08.08.2019
3997 Clear 13 1004 33 10000 5.1 310 12:58 08.08.2019
3998 Clear 13 1004 33 10000 5.1 310 12:58 08.08.2019
3999 Clear 13 1004 33 10000 5.1 310 12:38 08.08.2019
4000 Clear 14 1004 45 10000 9.3 310 12:18 08.08.2019
4001 Clear 14 1003 45 10000 9.3 310 11:43 08.08.2019
4002 Clear 14 1004 38 10000 7.7 290 11:24 08.08.2019
4003 Clear 14 1002 45 10000 9.3 290 10:56 08.08.2019
4004 Clear 14 1002 45 10000 9.3 290 10:37 08.08.2019
4005 Clear 15 1003 45 10000 8.2 270 10:19 08.08.2019
4006 Clear 15 1003 36 10000 7.7 270 09:40 08.08.2019
4007 Clouds 16 1001 34 10000 15.4 290 09:20 08.08.2019
4008 Clouds 17 1000 31 10000 14.4 290 08:42 08.08.2019
4009 Clouds 17 1000 31 10000 14.4 290 08:22 08.08.2019
4010 Clouds 18 1000 32 10000 12.9 280 07:56 08.08.2019
4011 Clouds 18 1000 32 10000 12.9 280 07:37 08.08.2019
4012 Clouds 18 1000 32 10000 12.9 280 07:18 08.08.2019
4013 Clouds 19 1001 32 10000 7.7 270 06:44 08.08.2019
4014 Clear 19 1000 32 10000 14.9 300 05:58 08.08.2019
4015 Clear 19 1000 32 10000 12.9 290 05:39 08.08.2019
4016 Clear 20 1001 28 10000 12.9 290 04:18 08.08.2019
4017 Clear 19 1001 28 10000 9.3 320 03:41 08.08.2019
4018 Clear 17 1003 44 10000 3.6 320 01:54 08.08.2019
4019 Clear 15 1003 38 10000 2.6 310 01:20 08.08.2019
4020 Clear 12 1004 50 10000 2.6 290 00:25 08.08.2019
4021 Clear 9 1004 57 10000 2.6 310 23:39 07.08.2019
4022 Clear 9 1004 57 10000 3.6 310 23:18 07.08.2019
4023 Clear 9 1004 57 10000 2.6 310 22:41 07.08.2019
4024 Clear 9 1004 53 10000 3.1 320 22:21 07.08.2019
4025 Clear 9 1005 61 10000 3.6 320 21:59 07.08.2019
4026 Clear 8 1005 61 10000 3.6 320 21:40 07.08.2019
4027 Clear 10 1005 61 10000 2.6 300 21:21 07.08.2019
4028 Clear 10 1005 61 10000 2.6 300 20:59 07.08.2019
4029 Clear 10 1005 61 10000 3.1 310 20:41 07.08.2019
4030 Clear 10 1005 61 10000 3.6 300 20:22 07.08.2019
4031 Clear 10 1005 61 10000 3.6 300 19:56 07.08.2019
4032 Clear 10 1006 61 10000 3.1 310 19:38 07.08.2019
4033 Clear 10 1006 61 10000 3.1 300 19:19 07.08.2019
4034 Clear 9 1007 57 10000 2.6 340 18:41 07.08.2019
4035 Clear 9 1007 57 10000 2.6 290 18:20 07.08.2019
4036 Clear 9 1007 57 10000 2.6 290 17:57 07.08.2019
4037 Clear 9 1008 62 10000 3.6 280 17:38 07.08.2019
4038 Clear 9 1008 54 10000 3.1 350 17:20 07.08.2019
4039 Clear 9 1008 54 10000 3.1 350 16:57 07.08.2019
4040 Clear 9 1008 58 10000 4.1 320 16:57 07.08.2019
4041 Clear 9 1008 58 10000 4.1 320 16:38 07.08.2019
4042 Clear 9 1009 71 10000 4.6 340 16:19 07.08.2019
4043 Clear 9 1009 71 10000 2.6 330 15:56 07.08.2019
4044 Clear 9 1009 71 10000 2.6 330 15:37 07.08.2019
4045 Clear 9 1009 71 10000 2.1 300 15:18 07.08.2019
4046 Clear 10 1009 67 10000 1.5 330 14:45 07.08.2019
4047 Clear 10 1010 67 10000 1.5 320 14:26 07.08.2019
4048 Clear 10 1010 67 10000 2.6 330 13:45 07.08.2019
4049 Clear 11 1010 61 10000 1.48 300.99 13:19 07.08.2019
4050 Clear 11 1010 61 10000 1.48 300.99 13:19 07.08.2019
4051 Clear 11 1010 61 10000 1.48 300.99 12:58 07.08.2019
4052 Clear 12 1010 61 10000 3.1 320 12:39 07.08.2019
4053 Clear 12 1010 53 10000 0.5 300 12:21 07.08.2019
4054 Clear 13 1009 55 10000 3.6 50 12:00 07.08.2019
4055 Clear 13 1009 55 10000 3.6 50 11:41 07.08.2019
4056 Clear 14 1009 51 10000 5.1 60 11:19 07.08.2019
4057 Clear 14 1009 51 10000 5.1 60 11:19 07.08.2019
4058 Clear 15 1009 51 10000 5.1 60 10:56 07.08.2019
4059 Clear 16 1009 48 10000 5.1 40 10:38 07.08.2019
4060 Clear 17 1009 45 10000 5.7 50 10:18 07.08.2019
4061 Clear 18 1009 48 10000 6.7 50 09:44 07.08.2019
4062 Clear 19 1009 34 10000 6.2 60 09:22 07.08.2019
4063 Clear 20 1009 34 10000 6.2 60 08:55 07.08.2019
4064 Clear 20 1009 30 10000 5.7 60 08:37 07.08.2019
4065 Clear 21 1009 30 10000 4.1 60 08:19 07.08.2019
4066 Clear 22 1009 19 10000 4.1 60 07:39 07.08.2019
4067 Clear 22 1009 16 10000 4.1 60 07:20 07.08.2019
4068 Clear 22 1009 19 10000 4.1 60 06:29 07.08.2019
4069 Clear 22 1010 19 10000 4.1 60 05:50 07.08.2019
4070 Clear 21 1012 24 10000 2.6 70 04:53 07.08.2019
4071 Clear 19 1013 31 10000 4.1 20 03:21 07.08.2019
4072 Clear 17 1014 48 10000 2.6 40 02:47 07.08.2019
4073 Clear 15 1015 46 10000 2.1 270 01:58 07.08.2019
4074 Clear 13 1015 46 10000 2.1 270 01:39 07.08.2019
4075 Clear 11 1015 50 10000 2.1 340 00:43 07.08.2019
4076 Clear 9 1014 61 10000 3.6 350 00:22 07.08.2019
4077 Clear 7 1014 61 10000 3.6 360 23:41 06.08.2019
4078 Clear 6 1014 57 10000 3.6 350 23:21 06.08.2019
4079 Clear 5 1014 57 10000 3.6 350 22:57 06.08.2019
4080 Clear 5 1014 57 10000 3.1 330 22:38 06.08.2019
4081 Clear 5 1014 65 10000 4.6 340 22:19 06.08.2019
4082 Clear 5 1014 61 10000 3.6 340 21:43 06.08.2019
4083 Clear 6 1014 57 10000 2.6 320 21:25 06.08.2019
4084 Clear 6 1014 57 10000 2.6 320 20:59 06.08.2019
4085 Clear 6 1014 64 10000 2.6 320 20:40 06.08.2019
4086 Clear 6 1014 64 10000 2.6 320 20:22 06.08.2019
4087 Clear 6 1015 57 10000 5.1 330 19:45 06.08.2019
4088 Clear 6 1015 57 10000 5.1 330 19:26 06.08.2019
4089 Clear 6 1015 57 10000 4.1 330 18:55 06.08.2019
4090 Clear 6 1015 61 10000 4.1 330 18:36 06.08.2019
4091 Clear 6 1015 57 10000 3.1 330 18:18 06.08.2019
4092 Clear 6 1015 57 10000 3.1 330 17:55 06.08.2019
4093 Clear 6 1015 66 10000 3.6 340 17:36 06.08.2019
4094 Clear 7 1015 62 10000 3.6 330 17:18 06.08.2019
4095 Clear 7 1016 66 10000 3.1 310 16:42 06.08.2019
4096 Clear 7 1016 71 10000 3.1 350 16:21 06.08.2019
4097 Clear 8 1016 71 10000 3.1 350 15:57 06.08.2019
4098 Clear 8 1016 66 10000 3.6 290 15:39 06.08.2019
4099 Clear 8 1016 66 10000 3.6 290 15:39 06.08.2019
4100 Clear 8 1016 66 10000 3.6 310 15:20 06.08.2019
4101 Clear 8 1016 66 10000 3.1 330 14:44 06.08.2019
4102 Clear 8 1016 66 10000 3.1 330 14:26 06.08.2019
4103 Clear 9 1017 66 10000 3.1 310 13:58 06.08.2019
4104 Clear 9 1017 71 10000 2.1 310 13:40 06.08.2019
4105 Clear 9 1017 75 10000 2.15 252.57 13:21 06.08.2019
4106 Clear 10 1017 75 10000 2.15 252.57 12:58 06.08.2019
4107 Clear 10 1016 62 10000 2.6 250 12:39 06.08.2019
4108 Clear 11 1016 62 10000 1 340 12:21 06.08.2019
4109 Clear 12 1016 59 10000 2.6 20 11:43 06.08.2019
4110 Clear 12 1016 55 10000 4.1 30 11:19 06.08.2019
4111 Clear 13 1016 55 10000 4.1 30 10:56 06.08.2019
4112 Clear 13 1016 51 10000 3.6 30 10:37 06.08.2019
4113 Clear 14 1015 33 10000 0.62 174.234 10:19 06.08.2019
4114 Clear 16 1016 39 10000 4.1 50 09:40 06.08.2019
4115 Clear 17 1016 34 10000 4.1 50 09:20 06.08.2019
4116 Clear 18 1016 36 10000 3.6 80 08:48 06.08.2019
4117 Clear 19 1016 32 10000 3.6 70 08:26 06.08.2019
4118 Clear 19 1016 34 10000 3.6 70 07:47 06.08.2019
4119 Clear 20 1016 34 10000 5.1 30 07:23 06.08.2019
4120 Clear 20 1016 31 10000 5.1 30 06:43 06.08.2019
4121 Clear 20 1017 22 10000 1.27 32.201 06:19 06.08.2019
4122 Clear 18 1018 31 10000 3.1 310 04:36 06.08.2019
4123 Clear 13 1021 47 10000 3.6 320 01:59 06.08.2019
4124 Clear 11 1021 47 10000 3.6 320 01:24 06.08.2019
4125 Clear 9 1021 57 10000 4.1 320 00:39 06.08.2019
4126 Clear 5 1021 61 10000 3.1 330 23:51 05.08.2019
4127 Clear 4 1021 65 10000 3.6 320 23:19 05.08.2019
4128 Clear 4 1021 65 10000 3.6 320 23:19 05.08.2019
4129 Clear 4 1021 65 10000 4.1 320 22:42 05.08.2019
4130 Clear 5 1021 65 10000 4.1 320 22:23 05.08.2019
4131 Clear 5 1021 70 10000 4.1 310 21:58 05.08.2019
4132 Clear 5 1020 75 10000 3.6 310 21:39 05.08.2019
4133 Clear 5 1020 75 10000 3.6 310 21:39 05.08.2019
4134 Clear 5 1020 75 10000 3.1 320 21:19 05.08.2019
4135 Clear 5 1020 81 10000 3.1 320 20:56 05.08.2019
4136 Clear 6 1020 81 10000 3.1 320 20:37 05.08.2019
4137 Clear 6 1020 81 10000 4.1 330 20:19 05.08.2019
4138 Clear 6 1020 87 10000 3.1 300 19:43 05.08.2019
4139 Clear 7 1020 87 10000 4.1 330 19:24 05.08.2019
4140 Clear 7 1020 87 10000 4.1 330 18:58 05.08.2019
4141 Clear 7 1020 93 10000 3.6 350 18:40 05.08.2019
4142 Clear 8 1021 93 9000 3.6 310 18:19 05.08.2019
4143 Clear 8 1021 93 10000 3.1 320 17:45 05.08.2019
4144 Clear 8 1021 93 10000 3.1 320 17:45 05.08.2019
4145 Clear 8 1021 93 10000 3.1 320 17:26 05.08.2019
4146 Clear 9 1021 87 10000 3.1 260 16:46 05.08.2019
4147 Clear 9 1021 87 10000 3.1 260 16:26 05.08.2019
4148 Clear 9 1021 87 10000 3.1 330 15:56 05.08.2019
4149 Clear 9 1021 87 10000 3.1 350 15:38 05.08.2019
4150 Clear 10 1022 100 10000 2.1 215.423 15:19 05.08.2019
4151 Clear 11 1021 87 10000 2.6 300 14:39 05.08.2019
4152 Clear 11 1022 87 10000 0.5 340 14:19 05.08.2019
4153 Clear 11 1022 87 10000 2.1 215.423 13:45 05.08.2019
4154 Clear 12 1022 77 10000 2.12 210.876 13:23 05.08.2019
4155 Clear 12 1022 77 10000 2.1 50 12:49 05.08.2019
4156 Clear 13 1021 77 10000 3.1 20 12:21 05.08.2019
4157 Clear 13 1021 77 10000 3.6 40 11:54 05.08.2019
4158 Clear 14 1021 77 10000 3.6 40 11:36 05.08.2019
4159 Clear 14 1021 77 10000 4.1 40 11:18 05.08.2019
4160 Clear 15 1021 77 10000 4.6 40 10:43 05.08.2019
4161 Clear 15 1021 77 10000 4.6 50 10:22 05.08.2019
4162 Clear 17 1021 68 10000 5.7 50 09:44 05.08.2019
4163 Clear 17 1021 63 10000 6.7 40 09:26 05.08.2019
4164 Clear 18 1021 63 10000 6.7 40 08:59 05.08.2019
4165 Clear 18 1021 63 10000 6.2 50 08:41 05.08.2019
4166 Clear 19 1021 60 10000 6.2 30 08:20 05.08.2019
4167 Clouds 20 1021 52 10000 5.7 70 07:45 05.08.2019
4168 Clouds 20 1021 52 10000 5.7 70 07:27 05.08.2019
4169 Clouds 20 1021 52 10000 2.6 10 06:39 05.08.2019
4170 Clouds 20 1022 52 10000 3.6 350 05:52 05.08.2019
4171 Clouds 19 1023 56 10000 3.1 10 05:20 05.08.2019
4172 Clouds 19 1023 59 10000 4.1 360 04:28 05.08.2019
4173 Clouds 18 1024 63 10000 2.6 300 03:42 05.08.2019
4174 Clouds 16 1025 63 10000 3.1 330 02:37 05.08.2019
4175 Clouds 14 1025 76 10000 2.6 310 01:36 05.08.2019
4176 Clouds 11 1026 76 10000 2.6 300 00:54 05.08.2019
4177 Clouds 10 1025 81 10000 3.6 320 00:36 05.08.2019
4178 Clouds 9 1025 81 10000 3.1 310 00:18 05.08.2019
4179 Clouds 8 1025 87 10000 3.6 330 23:41 04.08.2019
4180 Clouds 8 1025 87 10000 2.6 320 23:20 04.08.2019
4181 Clouds 8 1025 87 10000 2.6 320 22:56 04.08.2019
4182 Clouds 8 1025 87 10000 3.1 320 22:37 04.08.2019
4183 Clouds 8 1025 87 10000 3.1 330 22:19 04.08.2019
4184 Clouds 8 1025 87 10000 3.6 320 21:44 04.08.2019
4185 Clouds 9 1025 87 10000 3.6 320 21:22 04.08.2019
4186 Clouds 9 1025 93 10000 3.6 310 20:56 04.08.2019
4187 Clouds 9 1025 93 10000 3.1 320 20:37 04.08.2019
4188 Clouds 9 1025 87 10000 3.1 330 20:18 04.08.2019
4189 Clear 9 1025 87 10000 0.46 212.27 19:43 04.08.2019
4190 Clear 9 1025 81 10000 2.1 300 19:24 04.08.2019
4191 Clouds 9 1026 87 10000 3.1 300 18:44 04.08.2019
4192 Clear 10 1026 87 10000 4.1 330 18:21 04.08.2019
4193 Clear 10 1026 87 10000 4.1 330 17:59 04.08.2019
4194 Clouds 10 1026 93 9000 0.75 185.581 17:40 04.08.2019
4195 Clouds 11 1026 82 10000 0.5 270 17:21 04.08.2019
4196 Clouds 11 1027 100 10000 0.75 185.581 16:44 04.08.2019
4197 Clouds 11 1027 100 10000 0.75 185.581 16:44 04.08.2019
4198 Clouds 11 1027 100 10000 0.75 185.581 16:26 04.08.2019
4199 Clouds 11 1027 76 10000 3.1 260 15:45 04.08.2019
4200 Clouds 12 1027 76 10000 2.1 260 15:23 04.08.2019
4201 Clouds 12 1027 76 10000 2.1 260 14:57 04.08.2019
4202 Clouds 12 1027 82 10000 4.1 290 14:39 04.08.2019
4203 Clouds 12 1027 82 10000 4.1 290 14:20 04.08.2019
4204 Clouds 12 1027 72 10000 2.6 130 13:43 04.08.2019
4205 Clouds 12 1027 81 10000 2.1 280 13:23 04.08.2019
4206 Clouds 13 1027 82 10000 2.6 270 12:46 04.08.2019
4207 Clouds 12 1026 87 10000 2.05 149.036 12:27 04.08.2019
4208 Clouds 13 1026 82 10000 2.1 200 11:57 04.08.2019
4209 Clouds 13 1026 82 10000 2.1 200 11:38 04.08.2019
4210 Clouds 13 1026 87 10000 2.05 149.036 11:19 04.08.2019
4211 Clouds 14 1026 82 10000 2.1 180 10:41 04.08.2019
4212 Clouds 14 1026 82 10000 3.1 170 10:21 04.08.2019
4213 Clouds 15 1026 67 10000 3.6 160 09:45 04.08.2019
4214 Clouds 15 1026 63 10000 3.6 150 09:25 04.08.2019
4215 Clouds 16 1026 63 10000 3.6 150 08:53 04.08.2019
4216 Clouds 16 1026 67 10000 3.6 150 08:32 04.08.2019
4217 Clouds 17 1026 63 10000 4.6 170 07:53 04.08.2019
4218 Clouds 17 1026 67 10000 5.7 170 07:22 04.08.2019
4219 Clouds 17 1026 63 10000 4.6 180 06:28 04.08.2019
4220 Clouds 18 1027 67 10000 5.1 180 05:42 04.08.2019
4221 Clouds 13 1029 50 10000 4.1 160 02:47 04.08.2019
4222 Clouds 12 1029 57 10000 4.6 300 01:51 04.08.2019
4223 Clouds 11 1029 57 10000 4.6 300 01:27 04.08.2019
4224 Clouds 9 1029 66 10000 4.6 320 00:41 04.08.2019
4225 Clouds 8 1029 66 10000 3.1 300 00:22 04.08.2019
4226 Clouds 7 1028 66 10000 4.1 300 23:42 03.08.2019
4227 Clouds 7 1028 66 10000 4.1 310 23:19 03.08.2019
4228 Clouds 7 1028 66 10000 4.1 310 22:57 03.08.2019
4229 Clouds 7 1028 66 10000 4.1 330 22:38 03.08.2019
4230 Clouds 7 1028 66 10000 3.1 300 22:18 03.08.2019
4231 Clouds 8 1027 66 10000 3.1 290 21:39 03.08.2019
4232 Clouds 8 1027 66 10000 3.1 290 21:20 03.08.2019
4233 Clouds 8 1027 66 10000 4.1 280 20:43 03.08.2019
4234 Clouds 8 1027 61 10000 4.6 270 20:24 03.08.2019
4235 Clouds 8 1027 57 10000 4.6 270 19:43 03.08.2019
4236 Clouds 8 1027 57 10000 4.6 270 19:43 03.08.2019
4237 Clouds 8 1027 62 10000 4.1 270 19:25 03.08.2019
4238 Clouds 8 1027 62 10000 4.1 270 18:57 03.08.2019
4239 Clouds 8 1027 62 10000 4.6 270 18:39 03.08.2019
4240 Clouds 9 1027 66 10000 3.6 270 18:20 03.08.2019
4241 Clouds 9 1027 66 10000 3.1 270 17:42 03.08.2019
4242 Clouds 9 1027 76 10000 3.6 250 17:18 03.08.2019
4243 Clouds 9 1027 76 10000 2.6 310 16:38 03.08.2019
4244 Clouds 9 1027 81 10000 2.6 320 16:19 03.08.2019
4245 Clouds 9 1027 81 10000 2.6 360 15:45 03.08.2019
4246 Clouds 9 1027 81 10000 1.5 360 15:25 03.08.2019
4247 Clouds 9 1027 81 10000 1.5 360 15:25 03.08.2019
4248 Clouds 9 1027 76 10000 2.6 320 14:46 03.08.2019
4249 Clear 10 1027 87 10000 3.1 226.479 14:23 03.08.2019
4250 Clouds 10 1026 76 10000 2.6 300 13:57 03.08.2019
4251 Clouds 10 1026 82 10000 3.6 250 13:36 03.08.2019
4252 Clouds 10 1026 76 10000 3.1 240 13:18 03.08.2019
4253 Clear 11 1026 76 10000 3.1 240 12:41 03.08.2019
4254 Clear 11 1026 71 10000 2.1 240 12:23 03.08.2019
4255 Clear 11 1026 76 10000 2.6 170 11:52 03.08.2019
4256 Clear 12 1026 76 10000 2.6 170 11:34 03.08.2019
4257 Clear 13 1025 67 10000 3.1 150 10:46 03.08.2019
4258 Clouds 14 1025 67 10000 4.1 150 10:24 03.08.2019
4259 Clear 14 1025 67 10000 3.1 150 10:24 03.08.2019
4260 Clouds 15 1025 59 10000 4.6 160 09:45 03.08.2019
4261 Clear 16 1025 51 10000 5.7 150 09:24 03.08.2019
4262 Clear 17 1025 51 10000 5.7 150 08:57 03.08.2019
4263 Clear 17 1024 45 10000 6.2 160 08:25 03.08.2019
4264 Clear 19 1024 42 10000 6.2 150 07:38 03.08.2019
4265 Clear 21 1024 55 10000 1.5 230 06:47 03.08.2019
4266 Clear 21 1024 28 10000 5.1 170 05:59 03.08.2019
4267 Clear 15 1027 58 10000 4.1 270 02:59 03.08.2019
4268 Clear 13 1028 62 10000 4.1 290 02:23 03.08.2019
4269 Clear 10 1028 71 10000 3.6 310 00:58 03.08.2019
4270 Clear 9 1028 81 10000 4.1 320 00:32 03.08.2019
4271 Clear 6 1028 87 10000 4.6 320 23:42 02.08.2019
4272 Clear 6 1027 87 10000 4.1 330 23:20 02.08.2019
4273 Clear 6 1027 87 10000 4.1 330 23:20 02.08.2019
4274 Clear 5 1027 87 10000 4.1 330 22:59 02.08.2019
4275 Clear 6 1027 87 10000 3.6 330 22:40 02.08.2019
4276 Clear 6 1027 93 10000 4.6 320 22:21 02.08.2019
4277 Clear 6 1027 93 10000 3.6 330 21:56 02.08.2019
4278 Clear 7 1027 93 10000 3.6 330 21:37 02.08.2019
4279 Clear 7 1027 93 10000 4.1 320 21:19 02.08.2019
4280 Clear 7 1027 93 10000 4.1 310 20:43 02.08.2019
4281 Clear 7 1027 93 10000 3.6 310 20:22 02.08.2019
4282 Rain 7 1027 93 10000 3.6 310 19:53 02.08.2019
4283 Rain 7 1027 87 10000 3.1 340 19:32 02.08.2019
4284 Clear 7 1028 81 10000 2.6 320 18:50 02.08.2019
4285 Clear 8 1028 81 10000 2.6 320 18:32 02.08.2019
4286 Clear 8 1028 87 10000 3.1 340 17:57 02.08.2019
4287 Clear 8 1028 87 10000 3.1 350 17:39 02.08.2019
4288 Clear 8 1028 81 10000 3.1 350 17:20 02.08.2019
4289 Clear 9 1028 81 10000 2.1 340 16:39 02.08.2019
4290 Clear 9 1029 81 10000 2.6 330 16:20 02.08.2019
4291 Clear 9 1029 81 10000 2.6 330 15:57 02.08.2019
4292 Clear 9 1029 76 10000 2.6 290 15:37 02.08.2019
4293 Clear 9 1029 100 1700 1.62 254.478 15:18 02.08.2019
4294 Clear 10 1029 82 10000 3.1 300 14:43 02.08.2019
4295 Clear 10 1029 100 5000 1.62 254.478 14:18 02.08.2019
4296 Clear 10 1029 100 10000 1.62 254.478 13:46 02.08.2019
4297 Clouds 10 1029 100 10000 1.48 256.675 13:21 02.08.2019
4298 Clouds 11 1029 93 10000 1.48 256.675 12:44 02.08.2019
4299 Clear 11 1029 87 10000 0.82 150.524 12:20 02.08.2019
4300 Clear 12 1029 72 10000 1 40 11:41 02.08.2019
4301 Clear 12 1029 72 10000 1 40 11:23 02.08.2019
4302 Clouds 13 1028 67 10000 3.1 50 10:48 02.08.2019
4303 Clouds 14 1028 63 10000 3.6 50 10:24 02.08.2019
4304 Clouds 14 1028 63 10000 3.6 50 09:59 02.08.2019
4305 Clouds 15 1028 63 10000 3.1 70 09:41 02.08.2019
4306 Clouds 16 1028 63 10000 3.1 70 09:23 02.08.2019
4307 Clouds 17 1028 59 10000 2.6 150 08:42 02.08.2019
4308 Clouds 17 1028 67 10000 2.6 190 08:20 02.08.2019
4309 Clouds 17 1028 72 10000 2.6 190 07:46 02.08.2019
4310 Clouds 17 1028 67 10000 3.1 170 07:28 02.08.2019
4311 Clouds 17 1029 63 10000 3.6 170 06:42 02.08.2019
4312 Clouds 17 1029 67 10000 5.1 170 05:50 02.08.2019
4313 Clouds 16 1031 67 10000 5.1 180 03:55 02.08.2019
4314 Clouds 16 1031 63 10000 4.6 200 03:25 02.08.2019
4315 Clouds 12 1031 71 10000 3.1 310 01:44 02.08.2019
4316 Rain 10 1031 76 10000 3.1 340 00:35 02.08.2019
4317 Rain 9 1031 81 10000 3.6 350 23:46 01.08.2019
4318 Rain 8 1031 81 10000 3.6 350 23:27 01.08.2019
4319 Clouds 9 1030 81 10000 2.6 330 22:56 01.08.2019
4320 Clouds 9 1030 81 10000 2.6 330 22:37 01.08.2019
4321 Clouds 9 1030 87 10000 3.6 320 22:19 01.08.2019
4322 Clouds 9 1030 81 10000 3.6 340 21:42 01.08.2019
4323 Clouds 9 1029 81 10000 3.6 330 21:23 01.08.2019
4324 Clouds 9 1029 87 10000 1.5 280 20:47 01.08.2019
4325 Clouds 9 1029 87 10000 3.1 270 20:24 01.08.2019
4326 Clouds 9 1029 87 10000 3.1 270 20:00 01.08.2019
4327 Clouds 9 1029 87 10000 2.6 310 19:40 01.08.2019
4328 Rain 9 1029 87 10000 3.6 330 19:19 01.08.2019
4329 Clear 9 1030 81 10000 3.6 310 18:44 01.08.2019
4330 Clear 9 1030 81 10000 3.1 330 18:24 01.08.2019
4331 Rain 9 1030 93 10000 2.2 221.259 17:51 01.08.2019
4332 Rain 10 1030 93 10000 2.2 221.259 17:32 01.08.2019
4333 Clouds 10 1030 100 10000 2.2 221.259 16:59 01.08.2019
4334 Clouds 10 1030 93 10000 2.2 221.259 16:40 01.08.2019
4335 Clear 10 1030 82 10000 4.1 240 16:20 01.08.2019
4336 Rain 10 1030 82 10000 4.6 220 15:41 01.08.2019
4337 Clouds 10 1030 82 10000 4.1 230 15:20 01.08.2019
4338 Clouds 11 1030 82 10000 3.1 230 14:43 01.08.2019
4339 Clouds 11 1029 82 10000 3.1 250 14:20 01.08.2019
4340 Clouds 11 1029 82 10000 3.1 250 13:58 01.08.2019
4341 Clear 10 1029 93 10000 0.5 230 13:40 01.08.2019
4342 Clear 11 1029 93 10000 2.1 190 13:21 01.08.2019
4343 Clear 11 1029 87 10000 2.6 190 12:49 01.08.2019
4344 Clear 12 1028 87 10000 2.6 190 12:28 01.08.2019
4345 Clear 12 1028 87 10000 2.6 190 12:28 01.08.2019
4346 Clear 12 1028 72 10000 2.1 120 11:55 01.08.2019
4347 Clear 13 1028 72 10000 2.1 120 11:36 01.08.2019
4348 Clear 13 1028 67 10000 1.62 170.346 11:18 01.08.2019
4349 Clear 14 1027 63 10000 2.1 70 10:41 01.08.2019
4350 Clear 14 1027 63 10000 2.1 70 10:41 01.08.2019
4351 Clear 15 1027 63 10000 3.6 60 10:22 01.08.2019
4352 Clear 15 1027 63 10000 5.1 60 09:50 01.08.2019
4353 Clear 17 1027 55 10000 5.7 50 09:24 01.08.2019
4354 Clear 17 1027 55 10000 5.7 50 08:57 01.08.2019
4355 Clear 18 1027 52 10000 5.1 80 08:39 01.08.2019
4356 Clouds 18 1027 52 10000 5.1 80 08:18 01.08.2019
4357 Clouds 19 1027 45 10000 3.6 90 07:42 01.08.2019
4358 Clouds 19 1027 39 10000 1 90 07:18 01.08.2019
4359 Clouds 19 1027 42 10000 2.1 80 06:39 01.08.2019
4360 Clouds 19 1027 45 10000 2.1 90 05:32 01.08.2019
4361 Clouds 15 1030 58 10000 4.1 300 02:36 01.08.2019
4362 Clouds 13 1030 66 10000 5.1 200 01:41 01.08.2019
4363 Clouds 10 1029 76 10000 3.6 320 00:37 01.08.2019
4364 Clear 9 1030 81 0 3.13 271 00:18 01.08.2019
4365 Clouds 8 1029 76 10000 3.1 300 23:42 31.07.2019
4366 Rain 8 1029 81 10000 3.1 260 23:20 31.07.2019
4367 Rain 8 1028 81 10000 4.1 270 22:46 31.07.2019
4368 Rain 8 1028 81 10000 4.1 270 22:28 31.07.2019
4369 Drizzle 9 1028 87 10000 3.1 330 21:45 31.07.2019
4370 Drizzle 9 1028 87 10000 3.1 330 21:24 31.07.2019
4371 Rain 9 1028 87 10000 4.6 310 20:56 31.07.2019
4372 Rain 9 1028 87 10000 4.6 310 20:38 31.07.2019
4373 Rain 9 1028 93 10000 4.6 300 20:20 31.07.2019
4374 Rain 9 1028 87 7000 3.6 310 19:41 31.07.2019
4375 Rain 9 1029 93 10000 3.6 10 19:22 31.07.2019
4376 Rain 9 1029 93 10000 3.1 360 18:41 31.07.2019
4377 Rain 10 1029 93 10000 3.6 310 18:23 31.07.2019
4378 Rain 10 1029 93 10000 3.6 310 17:56 31.07.2019
4379 Rain 10 1029 93 10000 3.6 270 17:37 31.07.2019
4380 Rain 10 1029 93 10000 3.6 260 17:19 31.07.2019
4381 Rain 10 1029 93 10000 2.6 270 16:42 31.07.2019
4382 Rain 10 1030 87 10000 3.6 270 16:19 31.07.2019
4383 Rain 10 1030 87 10000 3.1 270 15:44 31.07.2019
4384 Rain 11 1030 87 10000 4.1 110 15:24 31.07.2019
4385 Rain 11 1030 87 10000 6.2 140 14:43 31.07.2019
4386 Rain 11 1030 87 10000 6.2 140 14:21 31.07.2019
4387 Rain 11 1030 87 10000 8.2 140 13:57 31.07.2019
4388 Rain 10 1030 93 10000 2.1 230 13:38 31.07.2019
4389 Rain 11 1030 77 10000 5.1 150 13:20 31.07.2019
4390 Rain 12 1029 77 10000 5.7 150 12:45 31.07.2019
4391 Rain 11 1029 77 10000 5.7 150 12:27 31.07.2019
4392 Rain 12 1029 82 10000 6.2 160 11:58 31.07.2019
4393 Rain 12 1029 77 10000 6.2 160 11:38 31.07.2019
4394 Rain 12 1029 82 10000 6.2 180 11:19 31.07.2019
4395 Rain 13 1029 82 10000 6.7 190 10:41 31.07.2019
4396 Clouds 13 1029 77 10000 7.2 190 10:20 31.07.2019
4397 Clouds 14 1028 77 10000 7.7 190 09:43 31.07.2019
4398 Clouds 14 1028 77 10000 7.7 180 09:24 31.07.2019
4399 Clouds 15 1028 77 10000 7.7 180 08:56 31.07.2019
4400 Clouds 15 1028 77 10000 8.2 180 08:37 31.07.2019
4401 Rain 16 1028 77 10000 8.7 190 08:19 31.07.2019
4402 Clouds 16 1028 77 10000 8.7 190 07:34 31.07.2019
4403 Clouds 16 1028 72 10000 8.7 190 06:31 31.07.2019
4404 Rain 16 1029 72 10000 8.7 190 04:49 31.07.2019
4405 Rain 11 1030 76 10000 7.7 180 01:32 31.07.2019
4406 Rain 9 1029 81 10000 7.7 180 23:58 30.07.2019
4407 Clouds 9 1029 81 10000 4.6 280 23:39 30.07.2019
4408 Clouds 8 1029 87 10000 4.1 270 23:18 30.07.2019
4409 Rain 8 1028 87 10000 5.1 290 22:45 30.07.2019
4410 Rain 8 1028 87 10000 5.1 290 22:25 30.07.2019
4411 Rain 8 1028 87 10000 5.1 260 21:39 30.07.2019
4412 Clouds 8 1027 87 10000 4.6 260 21:20 30.07.2019
4413 Clouds 8 1027 87 10000 4.6 260 20:59 30.07.2019
4414 Clouds 8 1027 87 10000 5.7 240 20:41 30.07.2019
4415 Clouds 8 1027 87 10000 6.2 230 20:23 30.07.2019
4416 Rain 9 1027 87 10000 6.7 220 19:56 30.07.2019
4417 Rain 9 1027 87 10000 6.7 220 19:38 30.07.2019
4418 Rain 9 1027 93 10000 5.7 230 18:55 30.07.2019
4419 Rain 9 1027 93 10000 5.7 230 18:37 30.07.2019
4420 Rain 9 1027 93 10000 3.6 240 18:18 30.07.2019
4421 Rain 9 1027 93 10000 4.6 210 17:41 30.07.2019
4422 Rain 10 1027 93 10000 4.6 300 17:19 30.07.2019
4423 Rain 9 1027 93 7000 5.7 210 16:50 30.07.2019
4424 Rain 9 1027 93 8000 4.6 250 16:20 30.07.2019
4425 Rain 10 1027 93 7000 3.6 180 15:56 30.07.2019
4426 Rain 10 1027 93 7000 3.6 180 15:37 30.07.2019
4427 Rain 10 1028 93 4000 6.7 200 15:18 30.07.2019
4428 Rain 10 1027 93 10000 8.2 170 14:41 30.07.2019
4429 Rain 10 1027 93 9000 8.2 190 14:19 30.07.2019
4430 Rain 10 1027 93 6000 9.3 190 13:46 30.07.2019
4431 Rain 11 1027 87 9000 9.3 190 13:28 30.07.2019
4432 Rain 11 1027 87 9000 9.3 190 12:58 30.07.2019
4433 Rain 11 1026 76 10000 9.3 190 12:39 30.07.2019
4434 Rain 11 1026 76 10000 9.3 190 12:21 30.07.2019
4435 Rain 11 1026 76 10000 8.2 200 11:40 30.07.2019
4436 Rain 12 1025 76 10000 8.2 200 11:20 30.07.2019
4437 Clouds 12 1025 71 10000 8.7 200 10:46 30.07.2019
4438 Clouds 13 1025 71 10000 8.7 200 10:27 30.07.2019
4439 Clouds 13 1024 66 10000 2.6 60 09:50 30.07.2019
4440 Clouds 14 1024 67 10000 9.3 190 09:31 30.07.2019
4441 Clouds 14 1024 67 10000 9.8 190 08:58 30.07.2019
4442 Clouds 15 1024 62 10000 8.7 190 08:31 30.07.2019
4443 Clouds 15 1023 62 10000 9.8 200 07:48 30.07.2019
4444 Clouds 15 1023 62 10000 9.8 200 07:29 30.07.2019
4445 Clouds 15 1023 67 10000 9.3 200 06:48 30.07.2019
4446 Clouds 15 1024 67 10000 9.3 200 06:28 30.07.2019
4447 Clouds 15 1023 67 10000 9.3 210 05:34 30.07.2019
4448 Clouds 14 1024 71 10000 9.3 210 03:28 30.07.2019
4449 Rain 12 1024 100 10000 5.29 178.124 01:22 30.07.2019
4450 Rain 11 1024 93 10000 2.13 221.484 00:25 30.07.2019
4451 Rain 11 1023 93 10000 2.13 221.484 23:47 29.07.2019
4452 Rain 11 1023 93 10000 2.13 221.484 23:28 29.07.2019
4453 Rain 11 1022 87 10000 3.6 320 22:58 29.07.2019
4454 Rain 11 1022 87 10000 3.6 320 22:58 29.07.2019
4455 Rain 11 1022 87 10000 3.6 320 22:39 29.07.2019
4456 Rain 11 1021 87 10000 5.1 190 22:20 29.07.2019
4457 Rain 11 1021 87 10000 5.1 190 21:59 29.07.2019
4458 Rain 11 1021 87 9000 0.5 190 21:41 29.07.2019
4459 Rain 11 1021 82 10000 3.1 230 21:22 29.07.2019
4460 Rain 11 1021 82 10000 3.1 230 20:55 29.07.2019
4461 Clouds 11 1021 82 10000 2.6 30 20:37 29.07.2019
4462 Rain 11 1020 81 10000 5.1 230 20:19 29.07.2019
4463 Rain 11 1020 76 10000 4.6 220 19:42 29.07.2019
4464 Rain 11 1020 76 10000 5.1 230 19:21 29.07.2019
4465 Clouds 11 1020 100 10000 1.92 199.142 18:55 29.07.2019
4466 Clouds 11 1020 82 10000 4.6 230 18:36 29.07.2019
4467 Clear 11 1020 82 10000 4.1 230 18:18 29.07.2019
4468 Clear 11 1020 82 10000 4.6 250 17:46 29.07.2019
4469 Clear 12 1020 82 10000 4.6 250 17:26 29.07.2019
4470 Clouds 12 1020 93 10000 0.5 110 16:46 29.07.2019
4471 Clouds 12 1020 93 10000 0.5 110 16:26 29.07.2019
4472 Rain 12 1021 87 10000 2.1 220 15:54 29.07.2019
4473 Rain 12 1021 93 10000 1.5 230 15:35 29.07.2019
4474 Rain 12 1021 93 10000 2.1 220 14:57 29.07.2019
4475 Rain 12 1021 87 10000 1.5 290 14:39 29.07.2019
4476 Rain 13 1020 87 10000 0.5 330 14:21 29.07.2019
4477 Rain 13 1020 87 10000 2.29 238.83 13:45 29.07.2019
4478 Rain 13 1020 87 10000 2.1 230 13:23 29.07.2019
4479 Rain 13 1020 82 10000 2.6 210 12:45 29.07.2019
4480 Rain 13 1020 82 10000 2.6 210 12:26 29.07.2019
4481 Rain 13 1020 82 10000 2.6 210 12:26 29.07.2019
4482 Rain 14 1020 82 10000 2.1 250 11:59 29.07.2019
4483 -273 0 0 0 0 0 11:39 29.07.2019
4484 Rain 14 1020 72 10000 2.1 270 11:18 29.07.2019
4485 Rain 15 1019 72 10000 2.6 250 10:42 29.07.2019
4486 Rain 15 1019 72 10000 2.6 250 10:21 29.07.2019
4487 Rain 16 1018 59 10000 2.1 240 09:43 29.07.2019
4488 Rain 16 1018 59 10000 2.1 240 09:21 29.07.2019
4489 Rain 18 1018 42 10000 2.6 140 08:43 29.07.2019
4490 Clear 18 1017 42 10000 2.6 150 08:24 29.07.2019
4491 Clear 18 1017 39 10000 2.6 120 07:46 29.07.2019
4492 Clear 19 1017 37 10000 3.1 130 07:26 29.07.2019
4493 Clear 20 1018 37 10000 3.1 310 05:57 29.07.2019
4494 Clear 19 1018 37 10000 3.1 310 05:32 29.07.2019
4495 Clear 15 1021 51 10000 3.1 310 02:49 29.07.2019
4496 Clear 13 1022 66 10000 4.6 300 01:48 29.07.2019
4497 Clear 11 1022 66 10000 4.6 300 01:27 29.07.2019
4498 Clear 10 1021 71 10000 4.6 300 00:56 29.07.2019
4499 Clear 8 1021 71 10000 4.6 310 00:23 29.07.2019
4500 Clear 6 1021 76 10000 4.1 310 23:42 28.07.2019
4501 Clear 6 1021 76 10000 4.1 310 23:23 28.07.2019
4502 Clear 6 1021 81 10000 4.6 310 22:43 28.07.2019
4503 Clear 5 1021 81 10000 4.6 310 22:25 28.07.2019
4504 Clear 6 1020 81 10000 4.1 310 21:51 28.07.2019
4505 Clear 6 1020 81 10000 3.6 320 21:20 28.07.2019
4506 Clear 6 1020 81 10000 3.6 320 20:57 28.07.2019
4507 Clear 7 1021 81 10000 3.1 340 20:39 28.07.2019
4508 Clear 7 1021 81 10000 3.6 320 20:21 28.07.2019
4509 Clouds 7 1021 81 10000 3.6 310 19:40 28.07.2019
4510 Clouds 7 1021 87 10000 2.6 310 19:20 28.07.2019
4511 Clouds 7 1021 87 10000 2.6 310 19:20 28.07.2019
4512 Clouds 7 1021 81 10000 3.6 290 18:46 28.07.2019
4513 Clouds 7 1022 87 10000 3.6 330 18:26 28.07.2019
4514 Clouds 7 1022 87 10000 4.1 320 17:56 28.07.2019
4515 Clouds 7 1022 87 10000 4.1 320 17:38 28.07.2019
4516 Clouds 8 1022 81 10000 3.6 330 17:19 28.07.2019
4517 Clouds 8 1022 87 10000 4.1 360 16:42 28.07.2019
4518 Clouds 8 1022 87 10000 4.1 360 16:23 28.07.2019
4519 Clouds 8 1023 81 10000 2.6 300 15:48 28.07.2019
4520 Clouds 9 1023 81 10000 2.6 300 15:27 28.07.2019
4521 Clouds 9 1023 81 10000 3.1 290 14:56 28.07.2019
4522 Clear 9 1024 87 10000 2.03 263.84 14:36 28.07.2019
4523 Clouds 9 1023 82 10000 3.6 260 14:18 28.07.2019
4524 Clouds 10 1024 76 10000 4.6 260 13:39 28.07.2019
4525 Clouds 10 1023 82 10000 3.1 270 13:20 28.07.2019
4526 Clouds 10 1024 87 10000 0.5 260 12:45 28.07.2019
4527 Clouds 11 1023 71 10000 2.6 280 12:27 28.07.2019
4528 Clear 11 1023 71 10000 0.5 150 11:50 28.07.2019
4529 Clouds 12 1023 71 10000 4.1 290 11:29 28.07.2019
4530 Clouds 12 1023 71 10000 2.6 230 10:59 28.07.2019
4531 Clouds 12 1023 71 10000 1.5 230 10:38 28.07.2019
4532 Clouds 14 1022 76 10000 2.6 180 10:19 28.07.2019
4533 Clouds 15 1022 67 10000 3.6 170 09:40 28.07.2019
4534 Clouds 15 1022 63 10000 3.6 170 09:22 28.07.2019
4535 Clouds 16 1022 67 10000 4.6 170 08:42 28.07.2019
4536 Clouds 17 1022 63 10000 4.6 170 08:22 28.07.2019
4537 Clouds 18 1022 63 10000 4.6 170 07:44 28.07.2019
4538 Clouds 18 1022 63 10000 6.2 170 07:25 28.07.2019
4539 Clear 19 1022 37 10000 2.6 140 06:36 28.07.2019
4540 Clouds 19 1023 63 10000 6.7 170 05:22 28.07.2019
4541 Clouds 15 1025 55 10000 3.6 290 02:43 28.07.2019
4542 Clouds 14 1025 58 10000 4.1 300 02:00 28.07.2019
4543 Clouds 12 1025 71 10000 4.1 310 01:18 28.07.2019
4544 Clouds 11 1025 71 10000 3.6 320 00:43 28.07.2019
4545 Clouds 7 1024 81 10000 3.6 350 23:56 27.07.2019
4546 Clouds 7 1024 81 10000 3.6 350 23:29 27.07.2019
4547 Clear 6 1024 87 10000 2.6 330 22:56 27.07.2019
4548 Clear 7 1024 87 10000 2.6 330 22:37 27.07.2019
4549 Clear 7 1023 87 10000 3.1 350 22:18 27.07.2019
4550 Clear 7 1023 87 10000 3.1 350 21:38 27.07.2019
4551 Clear 8 1023 87 10000 2.6 350 21:19 27.07.2019
4552 Rain 8 1023 87 10000 2.6 320 20:49 27.07.2019
4553 Rain 8 1023 87 10000 2.6 320 20:23 27.07.2019
4554 Clear 8 1023 93 10000 2.6 330 19:43 27.07.2019
4555 Clear 8 1023 87 10000 3.6 330 19:25 27.07.2019
4556 Clear 8 1023 87 10000 3.6 330 18:50 27.07.2019
4557 Clear 8 1023 87 10000 4.1 320 18:32 27.07.2019
4558 Clear 9 1023 81 10000 3.6 340 17:52 27.07.2019
4559 Clear 9 1023 81 10000 3.6 330 17:33 27.07.2019
4560 Clear 9 1023 81 10000 3.6 350 16:59 27.07.2019
4561 Clear 9 1023 81 10000 2.6 360 16:39 27.07.2019
4562 Clouds 9 1023 93 6000 2.02 240.463 16:20 27.07.2019
4563 Clouds 10 1024 100 10000 2.02 240.463 15:46 27.07.2019
4564 Clouds 10 1024 93 10000 1.92 246.621 15:20 27.07.2019
4565 Clouds 10 1024 93 10000 1.92 246.621 14:49 27.07.2019
4566 Clouds 11 1024 93 10000 1.92 246.621 14:31 27.07.2019
4567 Clouds 11 1023 76 10000 3.6 280 13:52 27.07.2019
4568 Clouds 11 1024 100 10000 1.5 240 13:25 27.07.2019
4569 Clouds 12 1023 87 10000 0.5 260 12:57 27.07.2019
4570 Clouds 12 1023 87 10000 0.5 260 12:37 27.07.2019
4571 Clouds 12 1023 82 10000 2.1 280 12:19 27.07.2019
4572 Clouds 13 1023 77 10000 2.6 130 11:41 27.07.2019
4573 Clouds 13 1022 77 10000 2.6 140 11:23 27.07.2019
4574 Clouds 13 1022 77 10000 3.6 150 10:41 27.07.2019
4575 Clouds 14 1022 77 10000 3.6 150 10:23 27.07.2019
4576 Clouds 15 1021 63 10000 3.6 150 09:43 27.07.2019
4577 Clouds 16 1021 63 10000 3.6 150 09:23 27.07.2019
4578 Clouds 16 1021 77 10000 4.1 170 08:50 27.07.2019
4579 Clouds 17 1021 77 10000 4.1 170 08:32 27.07.2019
4580 Clouds 17 1021 72 10000 5.7 180 07:57 27.07.2019
4581 Clouds 17 1021 72 10000 5.7 180 07:38 27.07.2019
4582 Clouds 18 1021 72 10000 6.2 180 07:18 27.07.2019
4583 Clouds 18 1021 72 10000 5.7 180 06:49 27.07.2019
4584 Clouds 18 1021 72 10000 6.7 180 06:20 27.07.2019
4585 Clouds 19 1021 63 10000 7.7 170 05:34 27.07.2019
4586 Clouds 19 1022 67 10000 4.6 200 04:38 27.07.2019
4587 Clouds 18 1022 63 10000 5.1 190 03:40 27.07.2019
4588 Clouds 16 1023 55 10000 3.1 250 02:43 27.07.2019
4589 Clouds 15 1022 59 10000 3.6 300 01:57 27.07.2019
4590 Clouds 14 1022 59 10000 3.6 300 01:32 27.07.2019
4591 Clouds 11 1022 66 10000 3.6 270 00:38 27.07.2019
4592 Clouds 10 1022 71 10000 4.1 230 00:19 27.07.2019
4593 Clouds 9 1022 71 10000 5.1 290 23:42 26.07.2019
4594 Clouds 9 1022 76 10000 4.6 300 23:23 26.07.2019
4595 Clear 9 1022 76 10000 4.1 310 22:43 26.07.2019
4596 Clear 9 1022 76 10000 4.1 310 22:25 26.07.2019
4597 Clear 9 1021 71 10000 2.6 310 21:52 26.07.2019
4598 Clear 10 1021 71 10000 3.6 300 21:20 26.07.2019
4599 Clouds 10 1021 66 10000 4.1 290 20:52 26.07.2019
4600 Clouds 10 1021 66 10000 4.1 290 20:33 26.07.2019
4601 Clouds 10 1021 66 10000 5.1 300 19:56 26.07.2019
4602 Clouds 11 1021 66 10000 5.1 300 19:38 26.07.2019
4603 Clear 11 1021 71 10000 3.6 300 19:20 26.07.2019
4604 Clear 11 1021 71 10000 4.1 330 18:41 26.07.2019
4605 Clear 11 1021 66 10000 2.6 290 18:21 26.07.2019
4606 Clear 11 1021 66 10000 2.6 290 17:56 26.07.2019
4607 Clear 11 1021 66 10000 3.1 260 17:37 26.07.2019
4608 Clear 12 1021 66 10000 3.6 270 17:18 26.07.2019
4609 Clear 12 1021 66 10000 3.6 270 16:54 26.07.2019
4610 Clear 12 1021 62 10000 3.6 270 16:36 26.07.2019
4611 Clear 12 1021 62 10000 4.1 270 16:18 26.07.2019
4612 Clear 12 1021 67 10000 3.6 250 15:44 26.07.2019
4613 Clear 12 1021 67 10000 3.6 250 15:21 26.07.2019
4614 Clear 12 1021 82 10000 3.6 200 14:46 26.07.2019
4615 Clear 13 1021 82 10000 3.6 200 14:25 26.07.2019
4616 Clear 13 1021 82 10000 3.6 210 13:54 26.07.2019
4617 Clear 13 1021 82 10000 4.1 200 13:36 26.07.2019
4618 Clear 13 1022 82 10000 3.6 210 13:18 26.07.2019
4619 Clear 13 1021 77 10000 3.6 210 12:42 26.07.2019
4620 Clear 13 1021 77 10000 3.6 220 12:18 26.07.2019
4621 Clear 14 1021 77 10000 4.1 220 11:38 26.07.2019
4622 Clear 14 1020 72 10000 4.1 220 11:19 26.07.2019
4623 Clear 14 1020 72 10000 7.7 190 10:47 26.07.2019
4624 Clear 14 1020 72 10000 7.7 190 10:28 26.07.2019
4625 Clouds 15 1019 71 10000 2.84 172.788 09:53 26.07.2019
4626 Clouds 15 1019 71 10000 2.84 172.788 09:34 26.07.2019
4627 Clear 17 1019 48 10000 1 310 08:42 26.07.2019
4628 Clear 17 1019 48 10000 1 310 08:22 26.07.2019
4629 Clear 18 1018 39 10000 2.1 300 07:57 26.07.2019
4630 Clear 18 1019 42 10000 1.5 280 07:27 26.07.2019
4631 Clear 18 1018 42 10000 2.1 290 06:41 26.07.2019
4632 Clear 17 1019 51 10000 3.6 320 05:19 26.07.2019
4633 Clear 16 1020 48 10000 3.6 330 04:21 26.07.2019
4634 Clear 13 1021 62 10000 3.1 350 02:41 26.07.2019
4635 Clear 12 1022 71 10000 3.1 320 01:42 26.07.2019
4636 Clear 9 1022 76 10000 3.1 330 00:43 26.07.2019
4637 Clear 7 1022 87 10000 4.1 300 23:57 25.07.2019
4638 Clear 7 1022 81 10000 4.1 320 23:24 25.07.2019
4639 Clear 6 1021 81 10000 2.6 360 22:56 25.07.2019
4640 Clear 6 1022 87 10000 3.6 320 22:37 25.07.2019
4641 Clear 6 1021 87 10000 3.6 350 22:18 25.07.2019
4642 Clear 7 1021 81 10000 3.6 320 21:44 25.07.2019
4643 Clear 7 1021 81 10000 3.1 310 21:21 25.07.2019
4644 Clear 7 1021 87 10000 2.1 340 20:47 25.07.2019
4645 Clear 7 1021 87 10000 2.6 340 20:22 25.07.2019
4646 Clouds 8 1022 87 10000 2.6 310 19:44 25.07.2019
4647 Clouds 8 1022 87 10000 2.6 310 19:26 25.07.2019
4648 Clear 8 1022 81 10000 2.6 300 18:57 25.07.2019
4649 Clear 8 1022 81 10000 2.6 300 18:38 25.07.2019
4650 Clear 8 1023 81 10000 3.1 350 18:20 25.07.2019
4651 Clear 8 1023 76 10000 3.1 350 17:43 25.07.2019
4652 Clear 8 1023 76 10000 2.6 350 17:24 25.07.2019
4653 Clear 9 1023 76 10000 2.6 340 16:44 25.07.2019
4654 Clear 9 1023 81 10000 3.1 300 16:26 25.07.2019
4655 Clear 9 1024 76 10000 3.6 310 15:56 25.07.2019
4656 Clear 9 1024 82 10000 4.1 310 15:21 25.07.2019
4657 Clear 10 1024 82 10000 4.1 310 14:59 25.07.2019
4658 Clear 10 1023 71 10000 3.1 280 14:40 25.07.2019
4659 Clear 10 1024 93 10000 1.15 311.219 14:21 25.07.2019
4660 Clear 11 1024 93 10000 1.15 311.219 13:43 25.07.2019
4661 Clear 11 1016 70 0 1.79 311 13:25 25.07.2019
4662 Clear 12 1023 67 10000 3.1 40 12:39 25.07.2019
4663 Clear 12 1023 81 10000 1.57 53.094 12:21 25.07.2019
4664 Clear 13 1024 63 10000 4.1 30 11:42 25.07.2019
4665 Clear 13 1024 63 10000 4.1 30 11:23 25.07.2019
4666 Clear 13 1024 63 10000 4.6 40 10:46 25.07.2019
4667 Clear 14 1024 63 10000 4.6 40 10:26 25.07.2019
4668 Clear 15 1023 51 10000 4.6 50 09:57 25.07.2019
4669 Clear 15 1023 51 10000 4.6 50 09:39 25.07.2019
4670 Clear 17 1023 45 10000 5.1 60 08:54 25.07.2019
4671 Clear 17 1023 42 10000 4.6 70 08:36 25.07.2019
4672 Clear 18 1023 34 10000 1 340 07:49 25.07.2019
4673 Clouds 19 1023 32 10000 2.6 350 07:26 25.07.2019
4674 Clouds 19 1023 32 10000 3.6 320 06:40 25.07.2019
4675 Clouds 19 1024 34 10000 2.6 300 05:37 25.07.2019
4676 Clouds 18 1025 31 10000 3.6 300 04:56 25.07.2019
4677 Clear 17 1025 36 10000 3.6 280 04:19 25.07.2019
4678 Clouds 10 1027 50 10000 4.1 290 01:31 25.07.2019
4679 Clouds 8 1026 61 10000 3.6 320 00:42 25.07.2019
4680 Clouds 7 1026 66 10000 4.1 330 00:19 25.07.2019
4681 Clouds 6 1026 65 10000 5.1 320 23:44 24.07.2019
4682 Clouds 5 1025 61 10000 4.1 320 23:25 24.07.2019
4683 Clear 5 1025 66 10000 3.1 330 22:47 24.07.2019
4684 Clear 5 1025 61 10000 3.1 310 22:23 24.07.2019
4685 Clear 5 1025 61 10000 3.1 310 21:59 24.07.2019
4686 Clear 5 1024 61 10000 2.6 330 21:41 24.07.2019
4687 Clear 6 1024 66 10000 3.6 270 21:20 24.07.2019
4688 Clear 6 1024 61 10000 3.6 290 20:48 24.07.2019
4689 Clear 6 1024 61 10000 3.6 290 20:29 24.07.2019
4690 Clear 6 1024 57 10000 4.6 270 19:59 24.07.2019
4691 Clear 7 1024 57 10000 5.1 250 19:41 24.07.2019
4692 Clear 7 1024 57 10000 5.1 260 19:21 24.07.2019
4693 Clear 7 1024 57 10000 4.6 280 18:45 24.07.2019
4694 Clear 8 1024 53 10000 4.6 270 18:25 24.07.2019
4695 Clear 8 1024 53 10000 4.6 270 17:55 24.07.2019
4696 Clear 8 1024 53 10000 5.7 250 17:37 24.07.2019
4697 Clear 8 1024 53 10000 5.7 250 17:37 24.07.2019
4698 Clear 8 1024 50 10000 6.2 260 17:18 24.07.2019
4699 Clear 9 1024 50 10000 7.2 250 16:40 24.07.2019
4700 Clear 9 1024 50 10000 7.2 240 16:21 24.07.2019
4701 Clear 10 1024 50 10000 6.2 250 15:39 24.07.2019
4702 Clear 10 1024 50 10000 5.7 240 15:21 24.07.2019
4703 Clear 10 1024 54 10000 4.6 250 14:47 24.07.2019
4704 Clear 11 1024 54 10000 4.6 250 14:23 24.07.2019
4705 Clouds 11 1024 62 10000 5.1 250 13:58 24.07.2019
4706 Clouds 11 1024 71 10000 4.6 250 13:36 24.07.2019
4707 Clouds 11 1024 71 10000 4.1 250 13:18 24.07.2019
4708 Clouds 12 1023 76 10000 3.1 260 12:46 24.07.2019
4709 Clouds 12 1023 76 10000 3.6 230 12:23 24.07.2019
4710 Clouds 12 1022 82 10000 3.6 170 11:38 24.07.2019
4711 Clouds 13 1022 72 10000 3.1 170 11:19 24.07.2019
4712 Clear 14 1021 77 10000 3.6 160 10:43 24.07.2019
4713 Clear 14 1021 77 10000 3.6 160 10:24 24.07.2019
4714 Clear 15 1020 63 10000 5.1 150 09:45 24.07.2019
4715 Clear 16 1020 63 10000 4.6 140 09:24 24.07.2019
4716 Clear 17 1020 63 10000 4.6 140 08:56 24.07.2019
4717 Clear 18 1020 45 10000 4.6 160 08:30 24.07.2019
4718 Clear 19 1019 42 10000 5.1 170 07:51 24.07.2019
4719 Clear 19 1019 48 10000 6.2 160 07:24 24.07.2019
4720 Clear 20 1018 29 10000 2.6 260 06:29 24.07.2019
4721 Clear 19 1018 36 10000 4.1 250 05:40 24.07.2019
4722 Clear 18 1019 59 10000 4.6 210 02:45 24.07.2019
4723 Clear 16 1018 48 10000 3.1 240 01:30 24.07.2019
4724 Clear 14 1017 48 10000 2.1 310 00:57 24.07.2019
4725 Clear 15 1018 45 10000 6.2 240 00:57 24.07.2019
4726 Clear 12 1017 47 10000 2.6 300 00:23 24.07.2019
4727 Clear 11 1017 50 10000 4.1 230 23:42 23.07.2019
4728 Clear 11 1017 50 10000 4.1 230 23:24 23.07.2019
4729 Clear 11 1016 58 10000 4.1 250 22:40 23.07.2019
4730 Clear 11 1015 58 10000 3.1 250 22:20 23.07.2019
4731 Clear 11 1015 58 10000 3.1 250 21:59 23.07.2019
4732 Clear 11 1015 66 10000 2.1 200 21:41 23.07.2019
4733 Clear 12 1015 66 10000 2.1 200 21:22 23.07.2019
4734 Clear 12 1014 66 10000 1 210 20:47 23.07.2019
4735 Clear 12 1014 66 10000 1 210 20:25 23.07.2019
4736 Clear 12 1014 76 10000 2.6 190 19:43 23.07.2019
4737 Clear 12 1014 56 10000 0.5 240 19:22 23.07.2019
4738 Clear 13 1014 56 10000 0.5 240 18:52 23.07.2019
4739 Clear 13 1014 49 10000 3.1 20 18:25 23.07.2019
4740 Clear 13 1014 49 10000 4.1 360 17:56 23.07.2019
4741 Clear 13 1014 49 10000 4.1 360 17:38 23.07.2019
4742 Clear 13 1014 49 10000 4.6 360 17:19 23.07.2019
4743 Clear 13 1014 49 10000 5.1 350 16:41 23.07.2019
4744 Clear 13 1015 49 10000 3.1 360 16:21 23.07.2019
4745 Clear 13 1015 31 10000 4.1 20 15:46 23.07.2019
4746 Clear 14 1015 31 10000 4.1 20 15:24 23.07.2019
4747 Clear 14 1015 29 10000 5.7 350 14:40 23.07.2019
4748 Clear 14 1015 41 10000 3.1 350 14:22 23.07.2019
4749 Clear 14 1015 41 10000 3.6 350 13:59 23.07.2019
4750 Clear 14 1015 41 10000 3.6 350 13:40 23.07.2019
4751 Clear 15 1015 27 10000 2.6 330 13:21 23.07.2019
4752 Clear 15 1015 45 10000 5.1 300 12:48 23.07.2019
4753 Clear 15 1015 27 10000 3.6 290 12:26 23.07.2019
4754 Clear 16 1015 25 10000 3.6 290 11:51 23.07.2019
4755 Clear 16 1015 25 10000 3.6 290 11:32 23.07.2019
4756 Clear 17 1014 25 10000 4.6 280 10:59 23.07.2019
4757 Clear 17 1014 22 10000 7.2 290 10:41 23.07.2019
4758 Clear 18 1014 36 10000 1.5 270 10:21 23.07.2019
4759 Clear 18 1014 36 10000 1.5 270 10:21 23.07.2019
4760 Clear 19 1013 36 10000 2.6 290 09:41 23.07.2019
4761 Clear 20 1013 21 10000 6.2 280 09:20 23.07.2019
4762 Clear 21 1012 18 10000 6.7 330 08:43 23.07.2019
4763 Clear 22 1012 17 10000 6.7 340 08:20 23.07.2019
4764 Clear 22 1012 17 10000 6.7 340 07:55 23.07.2019
4765 Clear 22 1012 17 10000 7.7 350 07:36 23.07.2019
4766 Clear 23 1013 18 10000 7.7 340 06:48 23.07.2019
4767 Clear 23 1013 18 10000 7.7 340 06:29 23.07.2019
4768 Clear 19 1016 32 10000 5.7 320 03:27 23.07.2019
4769 Clear 15 1016 58 10000 4.1 320 01:34 23.07.2019
4770 Clear 9 1016 62 10000 3.1 310 00:31 23.07.2019
4771 Clear 9 1016 71 10000 3.6 300 23:56 22.07.2019
4772 Clear 9 1016 76 10000 3.1 310 23:36 22.07.2019
4773 Clear 8 1015 76 10000 3.6 300 23:18 22.07.2019
4774 Clear 9 1015 76 10000 3.1 310 22:42 22.07.2019
4775 Clear 9 1015 76 10000 3.1 310 22:21 22.07.2019
4776 Clear 9 1015 81 10000 2.6 290 21:43 22.07.2019
4777 Clear 10 1015 81 10000 2.6 290 21:23 22.07.2019
4778 Clear 9 1015 81 10000 3.1 300 20:51 22.07.2019
4779 Clear 10 1015 81 10000 3.1 300 20:33 22.07.2019
4780 Clear 10 1015 81 10000 3.1 320 19:58 22.07.2019
4781 Clear 10 1015 81 10000 2.6 300 19:40 22.07.2019
4782 Clear 10 1015 81 10000 2.6 310 19:20 22.07.2019
4783 Clear 11 1015 81 10000 3.1 360 18:47 22.07.2019
4784 Clear 11 1015 71 10000 2.6 340 18:28 22.07.2019
4785 Clear 11 1015 76 10000 2.1 270 17:57 22.07.2019
4786 Clear 11 1015 76 10000 2.1 270 17:38 22.07.2019
4787 Clear 12 1015 76 10000 2.1 270 17:19 22.07.2019
4788 Clear 12 1015 76 10000 1.75 298.524 16:40 22.07.2019
4789 Clear 12 1016 71 10000 1.75 298.524 16:21 22.07.2019
4790 Clear 12 1016 71 10000 1.75 298.524 15:44 22.07.2019
4791 Clear 12 1016 71 10000 1.75 298.524 15:44 22.07.2019
4792 Clear 13 1016 72 10000 2.26 303.817 15:20 22.07.2019
4793 Clear 13 1016 72 10000 2.1 260 14:44 22.07.2019
4794 -273 0 0 0 0 0 14:26 22.07.2019
4795 Clear 14 1016 82 10000 1.5 330 13:52 22.07.2019
4796 Clear 14 1015 72 10000 2.1 200 13:33 22.07.2019
4797 Clear 14 1015 52 10000 2.1 20 12:56 22.07.2019
4798 Clear 15 1015 52 10000 3.6 10 12:36 22.07.2019
4799 Clear 15 1015 48 10000 4.6 10 11:59 22.07.2019
4800 Clear 16 1015 48 10000 4.6 10 11:40 22.07.2019
4801 Clear 16 1015 48 10000 4.6 10 11:20 22.07.2019
4802 Clouds 17 1014 59 10000 2.68 329.977 10:41 22.07.2019
4803 Clouds 17 1014 59 10000 2.6 50 10:23 22.07.2019
4804 Clouds 18 1014 59 10000 3.1 50 09:42 22.07.2019
4805 Clouds 19 1014 55 10000 3.6 60 09:22 22.07.2019
4806 Clouds 20 1014 46 10000 3.6 70 08:44 22.07.2019
4807 Clear 20 1014 35 10000 4.6 20 08:24 22.07.2019
4808 Clear 21 1014 35 10000 4.6 20 07:54 22.07.2019
4809 Clear 21 1014 28 10000 4.1 20 07:31 22.07.2019
4810 Clear 21 1014 28 10000 2.6 30 06:42 22.07.2019
4811 Clear 19 1017 36 10000 3.1 310 03:50 22.07.2019
4812 Clear 13 1017 50 10000 2.6 280 01:51 22.07.2019
4813 Clear 13 1017 50 10000 2.6 310 00:50 22.07.2019
4814 Clear 11 1017 50 10000 2.6 310 00:24 22.07.2019
4815 Clear 10 1017 54 10000 3.1 340 23:54 21.07.2019
4816 Clear 10 1016 50 10000 3.1 330 23:28 21.07.2019
4817 Clear 10 1016 54 10000 2.6 310 22:42 21.07.2019
4818 Clear 10 1016 54 10000 2.6 310 22:22 21.07.2019
4819 Clear 10 1016 50 10000 3.1 320 21:57 21.07.2019
4820 Clear 10 1015 50 10000 2.6 330 21:37 21.07.2019
4821 Clear 11 1015 50 10000 2.6 340 21:19 21.07.2019
4822 Clear 11 1015 47 10000 2.1 350 20:44 21.07.2019
4823 Clear 11 1015 54 10000 2.1 330 20:26 21.07.2019
4824 Clear 11 1015 54 10000 2.6 330 19:55 21.07.2019
4825 Clear 11 1015 54 10000 2.6 330 19:36 21.07.2019
4826 Rain 12 1015 58 10000 2.1 290 19:18 21.07.2019
4827 Rain 12 1015 66 10000 3.6 220 18:44 21.07.2019
4828 Rain 12 1015 62 10000 1.63 282.053 18:25 21.07.2019
4829 Rain 13 1015 66 10000 3.6 220 18:25 21.07.2019
4830 Rain 12 1015 66 10000 1.5 250 17:42 21.07.2019
4831 Clear 12 1015 50 10000 2.1 320 17:20 21.07.2019
4832 Clear 11 1015 47 10000 4.1 340 16:45 21.07.2019
4833 Clear 11 1015 47 10000 3.6 360 16:25 21.07.2019
4834 Clear 11 1015 47 10000 3.6 360 15:57 21.07.2019
4835 Clear 11 1015 47 10000 4.1 350 15:37 21.07.2019
4836 Clear 12 1015 44 10000 2.6 330 15:18 21.07.2019
4837 Clear 12 1015 38 10000 3.1 360 14:41 21.07.2019
4838 Clear 12 1015 38 10000 3.1 360 14:22 21.07.2019
4839 Clear 12 1015 66 10000 2.1 340 13:49 21.07.2019
4840 Clear 12 1015 66 10000 2.1 340 13:29 21.07.2019
4841 Clear 13 1015 66 10000 1.5 240 12:43 21.07.2019
4842 Clear 14 1015 41 10000 2.6 330 12:24 21.07.2019
4843 Clear 15 1014 47 10000 2.1 310 11:49 21.07.2019
4844 Clear 15 1014 47 10000 2.1 310 11:29 21.07.2019
4845 Clear 16 1014 41 10000 3.1 340 10:57 21.07.2019
4846 Clear 16 1013 30 10000 3.6 330 10:39 21.07.2019
4847 Clear 17 1013 42 10000 2.6 10 10:20 21.07.2019
4848 Clear 19 1013 40 10000 2.6 30 09:38 21.07.2019
4849 Clear 20 1013 37 10000 2.1 50 09:20 21.07.2019
4850 Clear 21 1013 35 10000 2.6 20 08:43 21.07.2019
4851 Clear 21 1013 22 10000 2.6 40 08:25 21.07.2019
4852 Clear 23 1013 27 10000 4.1 290 07:37 21.07.2019
4853 Clear 23 1013 22 10000 3.6 320 06:50 21.07.2019
4854 Clear 23 1014 28 10000 1.5 10 05:41 21.07.2019
4855 Clear 17 1016 34 10000 1.5 360 02:43 21.07.2019
4856 Clear 13 1017 62 10000 2.1 20 01:19 21.07.2019
4857 Clear 11 1017 66 10000 2.1 10 00:40 21.07.2019
4858 Clear 7 1017 70 10000 1.5 360 00:18 21.07.2019
4859 Clear 7 1017 75 10000 2.6 280 23:40 20.07.2019
4860 Clear 7 1017 75 10000 4.1 290 23:21 20.07.2019
4861 Clear 7 1017 75 10000 2.6 330 22:44 20.07.2019
4862 Clear 7 1017 81 10000 2.6 360 22:22 20.07.2019
4863 Clear 7 1017 75 10000 3.6 320 21:56 20.07.2019
4864 Clear 7 1017 75 10000 3.6 320 21:37 20.07.2019
4865 Clear 8 1017 76 10000 4.1 310 21:18 20.07.2019
4866 Clear 8 1017 75 10000 4.1 330 20:40 20.07.2019
4867 Clear 8 1017 76 10000 3.6 300 20:18 20.07.2019
4868 Clear 7 1017 75 10000 4.1 280 19:45 20.07.2019
4869 Clear 7 1017 71 10000 3.6 280 19:20 20.07.2019
4870 Clear 8 1017 70 10000 4.1 350 18:42 20.07.2019
4871 Clear 8 1018 66 10000 3.6 310 18:20 20.07.2019
4872 Clear 8 1018 58 10000 3.1 310 17:53 20.07.2019
4873 Clear 8 1018 54 10000 3.6 340 17:23 20.07.2019
4874 Clear 9 1018 58 10000 4.6 350 16:44 20.07.2019
4875 Clear 9 1018 58 10000 4.6 350 16:26 20.07.2019
4876 Clear 9 1019 54 10000 4.6 350 15:58 20.07.2019
4877 Clear 10 1019 54 10000 4.6 350 15:38 20.07.2019
4878 Clear 10 1019 54 10000 3.6 330 15:20 20.07.2019
4879 Clear 10 1019 51 10000 4.6 340 14:47 20.07.2019
4880 Clear 10 1019 51 10000 4.6 340 14:28 20.07.2019
4881 Clear 11 1019 51 10000 3.1 320 13:39 20.07.2019
4882 Clear 12 1019 51 10000 6.2 10 13:21 20.07.2019
4883 Clear 12 1019 51 10000 6.2 10 12:57 20.07.2019
4884 Clear 12 1019 48 10000 5.7 20 12:26 20.07.2019
4885 Clear 12 1019 48 10000 5.7 20 12:26 20.07.2019
4886 Clear 12 1019 48 10000 5.7 20 11:59 20.07.2019
4887 Clear 13 1019 51 10000 5.7 10 11:37 20.07.2019
4888 Clear 13 1019 71 10000 1.5 240 11:19 20.07.2019
4889 Clear 14 1019 59 10000 4.1 30 10:37 20.07.2019
4890 Clear 14 1019 59 10000 5.1 30 10:18 20.07.2019
4891 Clear 15 1019 55 10000 5.7 30 09:45 20.07.2019
4892 Clear 17 1018 52 10000 6.2 40 09:24 20.07.2019
4893 Clear 18 1019 48 10000 6.2 40 08:47 20.07.2019
4894 Clear 18 1019 45 10000 5.7 30 08:20 20.07.2019
4895 Clear 19 1019 45 10000 5.7 40 07:28 20.07.2019
4896 Clear 19 1019 39 10000 5.7 30 06:43 20.07.2019
4897 Clear 18 1021 39 10000 4.1 360 05:21 20.07.2019
4898 Clear 18 1021 45 10000 4.6 350 04:30 20.07.2019
4899 Clear 10 1024 62 10000 3.6 330 01:23 20.07.2019
4900 Clear 9 1023 76 10000 4.6 310 00:50 20.07.2019
4901 Clear 6 1023 76 10000 4.1 320 00:28 20.07.2019
4902 Clear 5 1023 76 10000 4.1 320 23:56 19.07.2019
4903 Clear 4 1023 81 10000 3.6 320 23:37 19.07.2019
4904 Clear 4 1023 81 10000 4.1 330 23:18 19.07.2019
4905 Clear 4 1023 81 10000 3.1 330 22:40 19.07.2019
4906 Clear 5 1023 75 10000 3.1 340 22:20 19.07.2019
4907 Clear 5 1023 81 10000 4.1 320 21:43 19.07.2019
4908 Clear 5 1022 81 10000 4.1 330 21:24 19.07.2019
4909 Clear 5 1022 81 10000 3.6 320 20:44 19.07.2019
4910 Clear 6 1022 81 10000 3.6 320 20:25 19.07.2019
4911 Clear 6 1023 76 10000 4.1 330 19:40 19.07.2019
4912 Clear 6 1023 76 10000 4.1 340 19:19 19.07.2019
4913 Clear 6 1023 76 10000 4.1 350 18:41 19.07.2019
4914 Clear 7 1023 71 10000 2.6 340 18:19 19.07.2019
4915 Clear 7 1023 76 10000 3.6 340 17:47 19.07.2019
4916 Clear 7 1023 76 10000 3.6 340 17:26 19.07.2019
4917 Clear 8 1023 66 10000 3.6 270 16:48 19.07.2019
4918 Clear 8 1023 66 10000 3.6 270 16:26 19.07.2019
4919 Clear 8 1023 62 10000 3.1 290 15:50 19.07.2019
4920 Clear 9 1023 58 10000 3.1 250 15:30 19.07.2019
4921 Clear 9 1023 58 10000 4.6 240 14:56 19.07.2019
4922 Clear 9 1023 58 10000 4.6 240 14:38 19.07.2019
4923 Clear 9 1023 58 10000 5.1 250 14:20 19.07.2019
4924 Clear 10 1022 58 10000 4.6 250 13:43 19.07.2019
4925 Clear 10 1022 58 10000 4.6 250 13:43 19.07.2019
4926 Clear 10 1022 58 10000 4.6 250 13:43 19.07.2019
4927 Clear 10 1022 62 10000 3.6 270 13:24 19.07.2019
4928 Clear 10 1022 62 10000 3.6 270 12:54 19.07.2019
4929 Clear 10 1022 62 10000 2.6 250 12:31 19.07.2019
4930 Clear 11 1022 62 10000 0.5 310 11:58 19.07.2019
4931 Clear 11 1021 58 10000 0.46 197.81 11:40 19.07.2019
4932 Clear 12 1021 76 10000 1.5 240 11:18 19.07.2019
4933 Clear 13 1020 51 10000 2.6 70 10:41 19.07.2019
4934 Clear 14 1020 48 10000 2.6 110 10:21 19.07.2019
4935 Clear 14 1020 41 10000 3.1 120 09:44 19.07.2019
4936 Clear 16 1019 39 10000 3.6 120 09:22 19.07.2019
4937 Clear 17 1019 36 10000 4.1 130 08:59 19.07.2019
4938 Clear 17 1019 36 10000 4.1 130 08:40 19.07.2019
4939 Clear 18 1019 29 10000 3.6 130 07:48 19.07.2019
4940 Clear 19 1019 29 10000 3.6 120 07:26 19.07.2019
4941 Clear 19 1018 42 10000 3.6 220 05:55 19.07.2019
4942 Clear 13 1020 47 10000 7.7 270 02:23 19.07.2019
4943 Clear 10 1020 50 10000 7.7 270 00:59 19.07.2019
4944 Clear 7 1019 53 10000 7.7 270 00:31 19.07.2019
4945 Clear 5 1019 57 10000 5.1 310 23:43 18.07.2019
4946 Clouds 4 1019 100 10000 2.6 100 23:24 18.07.2019
4947 Clouds 4 1019 100 10000 2.6 100 22:59 18.07.2019
4948 Clouds 4 1019 66 10000 1.5 20 22:39 18.07.2019
4949 Clear 5 1018 65 10000 4.1 330 22:19 18.07.2019
4950 Clear 5 1018 61 10000 4.1 310 21:44 18.07.2019
4951 Clear 4 1018 61 10000 4.1 310 21:26 18.07.2019
4952 Clear 5 1018 69 10000 3.1 310 20:51 18.07.2019
4953 Clear 4 1018 69 10000 3.1 310 20:29 18.07.2019
4954 Clear 5 1018 69 10000 3.6 290 19:54 18.07.2019
4955 Clear 5 1018 61 10000 5.1 260 19:32 18.07.2019
4956 Clear 5 1018 65 10000 3.6 320 18:58 18.07.2019
4957 Clear 5 1018 65 10000 3.6 320 18:40 18.07.2019
4958 Clear 6 1018 61 10000 4.1 310 18:20 18.07.2019
4959 Clear 6 1018 65 10000 4.1 300 17:42 18.07.2019
4960 Clear 6 1018 65 10000 3.1 280 17:24 18.07.2019
4961 Clear 6 1018 65 10000 3.1 280 16:56 18.07.2019
4962 Clear 6 1018 61 10000 3.6 310 16:30 18.07.2019
4963 Clear 7 1018 57 10000 3.6 260 15:59 18.07.2019
4964 Clear 7 1018 57 10000 3.6 260 15:39 18.07.2019
4965 Clear 8 1018 53 10000 4.6 240 15:21 18.07.2019
4966 Clear 8 1018 57 10000 3.6 260 14:45 18.07.2019
4967 Clear 9 1018 53 10000 4.1 260 14:26 18.07.2019
4968 Clear 9 1018 50 10000 3.6 270 13:48 18.07.2019
4969 Clear 9 1018 50 10000 3.6 270 13:23 18.07.2019
4970 Clear 10 1017 47 10000 2.6 260 12:50 18.07.2019
4971 Clear 11 1017 44 10000 4.1 290 12:22 18.07.2019
4972 Clear 11 1017 44 10000 4.1 290 12:22 18.07.2019
4973 Clear 11 1017 53 10000 1.5 340 11:58 18.07.2019
4974 Clear 11 1017 53 10000 1.5 340 11:39 18.07.2019
4975 Clear 12 1016 58 10000 3.1 240 11:21 18.07.2019
4976 Clear 12 1016 82 10000 2.1 210 10:49 18.07.2019
4977 Clear 14 1015 48 10000 3.1 160 09:50 18.07.2019
4978 Clear 15 1015 44 10000 2.6 140 09:27 18.07.2019
4979 Clear 17 1015 42 10000 4.1 150 08:53 18.07.2019
4980 Clear 18 1014 30 10000 2.25 210.802 08:25 18.07.2019
4981 Clear 18 1014 34 10000 4.1 140 07:57 18.07.2019
4982 Clear 19 1014 34 10000 4.1 140 07:35 18.07.2019
4983 Clear 20 1014 29 10000 3.6 190 06:48 18.07.2019
4984 Clear 19 1014 27 10000 5.1 250 06:20 18.07.2019
4985 Clear 17 1015 36 10000 6.2 240 03:41 18.07.2019
4986 Clear 15 1015 47 10000 9.3 250 02:23 18.07.2019
4987 Clear 14 1015 47 10000 9.3 250 01:36 18.07.2019
4988 Clear 10 1014 58 10000 6.7 300 00:22 18.07.2019
4989 Clear 8 1013 58 10000 5.7 300 23:22 17.07.2019
4990 Clear 7 1013 58 10000 3.1 320 22:59 17.07.2019
4991 Clear 8 1013 58 10000 3.1 320 22:41 17.07.2019
4992 Clear 7 1013 58 10000 6.2 270 22:22 17.07.2019
4993 Clear 8 1013 58 10000 6.2 270 21:57 17.07.2019
4994 Clear 8 1013 58 10000 6.2 260 21:38 17.07.2019
4995 Clear 9 1013 57 10000 5.7 280 21:19 17.07.2019
4996 Clear 9 1013 54 10000 7.2 270 20:55 17.07.2019
4997 Clear 9 1013 54 10000 7.2 270 20:37 17.07.2019
4998 Clear 8 1013 54 10000 7.2 270 20:18 17.07.2019
4999 Clear 9 1013 54 10000 7.7 280 19:41 17.07.2019
5000 Clear 9 1013 54 10000 8.7 270 19:20 17.07.2019
5001 Clear 10 1013 54 10000 7.2 290 18:45 17.07.2019
5002 Clear 10 1012 50 10000 7.7 300 18:21 17.07.2019
5003 Clear 10 1012 50 10000 7.7 300 17:57 17.07.2019
5004 Clear 11 1012 50 10000 7.7 300 17:39 17.07.2019
5005 Clear 11 1013 43 10000 7.2 310 17:20 17.07.2019
5006 Clear 11 1013 43 10000 3.6 340 16:40 17.07.2019
5007 Clear 11 1014 47 10000 6.2 280 16:20 17.07.2019
5008 Clear 12 1014 43 10000 6.7 280 15:51 17.07.2019
5009 Clear 12 1014 43 10000 6.7 280 15:31 17.07.2019
5010 Clear 12 1014 43 10000 7.2 300 14:57 17.07.2019
5011 Clouds 12 1015 46 10000 3.6 300 14:38 17.07.2019
5012 Clouds 12 1016 43 10000 5.7 250 14:20 17.07.2019
5013 Clouds 13 1015 43 10000 8.7 260 13:49 17.07.2019
5014 Clouds 13 1015 43 10000 8.7 260 13:31 17.07.2019
5015 Clear 13 1014 44 10000 9.3 260 12:56 17.07.2019
5016 Clear 13 1014 44 10000 9.3 260 12:38 17.07.2019
5017 Clear 13 1014 44 10000 8.7 270 12:19 17.07.2019
5018 Clear 13 1013 44 10000 6.2 270 11:40 17.07.2019
5019 Clear 13 1013 41 10000 6.2 270 11:19 17.07.2019
5020 Clear 14 1013 41 10000 6.2 260 10:45 17.07.2019
5021 Clear 14 1012 36 10000 7.2 270 10:21 17.07.2019
5022 Clear 15 1013 44 10000 5.7 290 09:45 17.07.2019
5023 Clear 16 1013 44 10000 5.7 290 09:27 17.07.2019
5024 Clear 17 1013 36 10000 6.2 290 08:45 17.07.2019
5025 Clear 18 1012 34 10000 5.1 330 08:24 17.07.2019
5026 Clear 19 1012 34 10000 5.1 330 07:59 17.07.2019
5027 Clear 19 1013 34 10000 3.1 270 07:40 17.07.2019
5028 Clear 19 1013 34 10000 5.1 270 07:21 17.07.2019
5029 Clear 19 1013 32 10000 6.2 300 06:45 17.07.2019
5030 Clear 19 1014 32 10000 5.7 280 06:24 17.07.2019
5031 Clear 18 1014 37 10000 5.1 280 05:38 17.07.2019
5032 Clear 18 1016 39 10000 6.7 280 04:58 17.07.2019
5033 Clear 16 1017 41 10000 6.7 290 03:55 17.07.2019
5034 Clear 14 1018 47 10000 7.2 290 02:43 17.07.2019
5035 Clear 13 1018 54 10000 4.1 300 01:42 17.07.2019
5036 Clear 12 1018 62 10000 4.6 310 01:22 17.07.2019
5037 Clear 10 1018 66 10000 4.6 330 00:42 17.07.2019
5038 Clear 9 1018 66 10000 4.1 340 00:22 17.07.2019
5039 Clear 8 1018 71 10000 4.6 320 23:46 16.07.2019
5040 Clear 8 1018 71 10000 3.6 310 23:25 16.07.2019
5041 Clear 7 1018 71 10000 3.6 310 22:57 16.07.2019
5042 Clear 7 1018 71 10000 3.6 310 22:39 16.07.2019
5043 Clear 7 1018 71 10000 4.1 310 22:19 16.07.2019
5044 Clear 7 1017 71 10000 4.1 310 21:43 16.07.2019
5045 Clear 8 1017 71 10000 4.6 300 21:20 16.07.2019
5046 Clear 8 1018 66 10000 4.1 320 20:41 16.07.2019
5047 Clear 9 1018 66 10000 4.1 320 20:23 16.07.2019
5048 Clear 9 1018 71 10000 4.6 310 19:56 16.07.2019
5049 Clear 9 1018 71 10000 4.6 310 19:37 16.07.2019
5050 Clear 9 1018 66 10000 5.1 290 19:19 16.07.2019
5051 Clear 8 1018 66 10000 6.2 290 18:45 16.07.2019
5052 -273 0 0 0 0 0 18:21 16.07.2019
5053 Clear 9 1018 66 10000 4.6 280 17:55 16.07.2019
5054 Clear 9 1018 62 10000 3.1 330 17:36 16.07.2019
5055 Clear 10 1019 62 10000 5.1 280 16:59 16.07.2019
5056 Clear 10 1019 62 10000 7.2 270 16:38 16.07.2019
5057 Clear 10 1019 58 10000 3.6 330 16:18 16.07.2019
5058 Clear 10 1019 54 10000 4.6 290 15:40 16.07.2019
5059 Clear 10 1019 58 10000 5.7 270 15:21 16.07.2019
5060 Clear 10 1019 58 10000 6.7 270 14:58 16.07.2019
5061 Clear 11 1019 58 10000 6.7 270 14:39 16.07.2019
5062 Clear 11 1019 54 10000 7.7 260 14:20 16.07.2019
5063 Clear 12 1019 54 10000 7.7 260 13:45 16.07.2019
5064 Clear 12 1019 47 10000 8.2 260 13:24 16.07.2019
5065 Clear 12 1019 47 10000 8.7 260 12:45 16.07.2019
5066 Clear 13 1019 47 10000 8.2 250 12:21 16.07.2019
5067 Clear 13 1018 47 10000 7.7 260 11:58 16.07.2019
5068 Clear 13 1018 47 10000 7.7 260 11:40 16.07.2019
5069 Clear 14 1018 44 10000 7.7 260 11:22 16.07.2019
5070 Clear 14 1017 41 10000 8.7 250 10:47 16.07.2019
5071 Clear 14 1017 44 10000 8.2 250 10:22 16.07.2019
5072 Clear 15 1017 39 10000 6.2 250 09:59 16.07.2019
5073 Clear 15 1017 39 10000 6.2 250 09:40 16.07.2019
5074 Clear 16 1016 34 10000 8.2 250 09:19 16.07.2019
5075 Clear 17 1016 32 10000 7.7 260 08:42 16.07.2019
5076 Clear 18 1016 34 10000 7.7 260 08:20 16.07.2019
5077 Clear 19 1015 28 10000 7.2 260 07:42 16.07.2019
5078 Clear 20 1015 28 10000 8.2 250 07:24 16.07.2019
5079 Clear 20 1015 32 10000 6.7 250 06:49 16.07.2019
5080 Clear 20 1015 32 10000 6.7 250 06:31 16.07.2019
5081 Clear 19 1016 32 10000 6.7 270 05:39 16.07.2019
5082 Clear 19 1016 34 10000 5.7 270 05:21 16.07.2019
5083 Clear 18 1017 37 10000 5.1 270 04:19 16.07.2019
5084 Clear 16 1018 45 10000 5.1 270 03:21 16.07.2019
5085 Clear 15 1018 44 10000 5.1 290 02:31 16.07.2019
5086 Clear 14 1018 50 10000 4.6 310 01:49 16.07.2019
5087 Clear 11 1018 58 10000 5.1 290 00:53 16.07.2019
5088 Clear 9 1018 62 10000 5.1 320 00:22 16.07.2019
5089 Clear 8 1018 66 10000 5.7 290 23:54 15.07.2019
5090 Clear 8 1018 66 10000 5.7 290 23:36 15.07.2019
5091 Clear 7 1017 66 10000 5.7 310 22:55 15.07.2019
5092 Clear 7 1017 66 10000 5.7 310 22:37 15.07.2019
5093 Clear 7 1016 66 10000 4.6 300 22:18 15.07.2019
5094 Clear 7 1016 66 10000 4.1 320 21:42 15.07.2019
5095 Clear 7 1016 61 10000 4.1 290 21:21 15.07.2019
5096 Clear 7 1016 66 10000 6.2 280 20:58 15.07.2019
5097 Clear 7 1016 66 10000 6.2 280 20:39 15.07.2019
5098 Clear 8 1016 66 10000 5.7 280 20:21 15.07.2019
5099 Clear 8 1017 61 10000 4.6 300 19:45 15.07.2019
5100 Clear 8 1017 57 10000 4.6 310 19:22 15.07.2019
5101 Clear 8 1017 61 10000 5.7 290 18:57 15.07.2019
5102 Clear 8 1017 61 10000 5.7 290 18:57 15.07.2019
5103 Clear 8 1017 61 10000 5.7 290 18:38 15.07.2019
5104 Clear 8 1017 61 10000 4.6 300 18:19 15.07.2019
5105 Clear 8 1017 61 10000 4.6 300 17:55 15.07.2019
5106 Clear 9 1017 57 10000 6.2 290 17:37 15.07.2019
5107 Clear 8 1017 53 10000 5.7 290 17:18 15.07.2019
5108 Clear 8 1017 57 10000 5.7 290 16:39 15.07.2019
5109 Clear 8 1017 57 10000 5.7 290 16:39 15.07.2019
5110 Clear 8 1018 53 10000 4.6 300 16:21 15.07.2019
5111 Clear 9 1018 53 10000 5.7 290 15:57 15.07.2019
5112 Clear 9 1018 53 10000 5.7 290 15:37 15.07.2019
5113 Clear 9 1018 50 10000 7.2 290 15:19 15.07.2019
5114 Clear 9 1018 54 10000 5.7 300 14:45 15.07.2019
5115 Clear 9 1018 47 10000 6.7 290 14:25 15.07.2019
5116 Clear 10 1018 47 10000 6.7 290 13:57 15.07.2019
5117 Clear 10 1018 50 10000 5.1 290 13:36 15.07.2019
5118 Clear 10 1018 50 10000 6.7 270 13:18 15.07.2019
5119 Clear 11 1018 47 10000 7.7 260 12:41 15.07.2019
5120 Clear 11 1018 47 10000 6.7 260 12:21 15.07.2019
5121 Clear 11 1018 47 10000 7.2 250 11:43 15.07.2019
5122 Clear 12 1018 41 10000 5.7 250 11:25 15.07.2019
5123 Clear 12 1018 41 10000 5.7 250 11:25 15.07.2019
5124 Clear 12 1018 38 10000 5.7 270 10:48 15.07.2019
5125 Clear 12 1018 54 10000 4.1 310 10:30 15.07.2019
5126 Clear 13 1017 38 10000 6.7 270 09:57 15.07.2019
5127 Clear 13 1017 44 10000 3.6 290 09:39 15.07.2019
5128 Clear 15 1017 36 10000 3.6 240 09:18 15.07.2019
5129 Clear 16 1016 39 10000 8.7 260 08:41 15.07.2019
5130 Clear 16 1016 29 10000 7.7 260 08:23 15.07.2019
5131 Clear 17 1016 27 10000 7.7 270 07:41 15.07.2019
5132 Clear 17 1016 33 10000 6.2 230 07:20 15.07.2019
5133 Clear 17 1016 33 10000 5.7 200 06:39 15.07.2019
5134 Clear 17 1016 36 10000 7.7 210 05:50 15.07.2019
5135 Clear 17 1016 36 10000 7.7 210 05:30 15.07.2019
5136 Clear 17 1016 36 10000 9.8 220 04:43 15.07.2019
5137 Clear 16 1017 44 10000 10.8 220 03:51 15.07.2019
5138 Clear 15 1016 47 10000 8.7 240 02:47 15.07.2019
5139 Clouds 14 1016 47 10000 8.7 250 01:53 15.07.2019
5140 Clouds 14 1016 47 10000 8.7 250 01:28 15.07.2019
5141 Clouds 13 1014 50 10000 10.3 230 00:53 15.07.2019
5142 Clouds 12 1014 54 10000 10.3 250 00:23 15.07.2019
5143 Clouds 12 1014 54 10000 10.3 250 23:57 14.07.2019
5144 Clouds 11 1014 54 10000 8.7 260 23:37 14.07.2019
5145 Clouds 11 1012 54 10000 10.3 250 23:18 14.07.2019
5146 Clouds 11 1012 54 10000 10.3 250 23:18 14.07.2019
5147 Clear 11 1012 54 10000 8.2 270 22:55 14.07.2019
5148 Clear 11 1012 54 10000 8.2 270 22:37 14.07.2019
5149 Clear 11 1011 54 10000 10.3 250 22:18 14.07.2019
5150 Clear 11 1010 50 10000 10.3 250 21:42 14.07.2019
5151 Clear 11 1010 50 10000 10.8 280 21:19 14.07.2019
5152 Clear 11 1010 50 10000 10.8 280 20:57 14.07.2019
5153 Clear 11 1010 50 10000 11.3 270 20:37 14.07.2019
5154 Clear 11 1010 50 10000 9.3 280 20:19 14.07.2019
5155 Clear 11 1011 53 10000 3.1 10 19:45 14.07.2019
5156 Clear 10 1011 53 10000 2.6 350 19:26 14.07.2019
5157 Clear 10 1010 53 10000 8.7 300 18:58 14.07.2019
5158 Clear 10 1010 53 10000 8.7 300 18:39 14.07.2019
5159 Clear 10 1011 53 10000 9.8 320 18:21 14.07.2019
5160 Clear 9 1011 57 10000 7.7 330 17:49 14.07.2019
5161 Clouds 9 1012 57 10000 5.7 350 17:21 14.07.2019
5162 Clouds 9 1013 61 10000 4.1 360 16:47 14.07.2019
5163 Clouds 9 1013 53 10000 4.6 350 16:24 14.07.2019
5164 Clouds 9 1013 53 10000 4.6 350 15:56 14.07.2019
5165 Clouds 9 1014 53 10000 5.1 350 15:34 14.07.2019
5166 Clouds 9 1014 50 10000 4.1 330 14:55 14.07.2019
5167 Clouds 9 1014 50 10000 4.1 330 14:36 14.07.2019
5168 Clouds 9 1015 50 10000 4.6 330 14:18 14.07.2019
5169 Clouds 9 1015 50 10000 3.6 330 13:44 14.07.2019
5170 Clouds 9 1015 56 10000 5.1 290 13:21 14.07.2019
5171 Clouds 9 1015 50 10000 6.7 300 12:43 14.07.2019
5172 Clouds 9 1016 57 10000 3.1 300 12:22 14.07.2019
5173 Clouds 10 1016 57 10000 5.1 320 11:56 14.07.2019
5174 Clouds 10 1016 57 10000 5.1 320 11:37 14.07.2019
5175 Clouds 10 1016 57 10000 5.7 320 11:19 14.07.2019
5176 Clouds 10 1016 53 10000 6.2 320 10:42 14.07.2019
5177 Clouds 11 1016 57 10000 5.7 320 10:19 14.07.2019
5178 Clouds 11 1015 56 10000 8.2 270 09:44 14.07.2019
5179 Clouds 12 1015 46 10000 9.3 270 09:24 14.07.2019
5180 Clouds 13 1015 33 10000 11.8 270 08:44 14.07.2019
5181 Clouds 14 1014 33 10000 8.7 280 08:20 14.07.2019
5182 Clouds 15 1015 46 10000 9.8 260 07:39 14.07.2019
5183 Clear 16 1015 27 10000 7.7 260 06:58 14.07.2019
5184 Clear 16 1016 29 10000 7.2 280 05:45 14.07.2019
5185 Clear 14 1020 35 10000 8.2 270 03:49 14.07.2019
5186 Clear 13 1021 40 10000 8.7 270 03:30 14.07.2019
5187 Clear 12 1021 40 10000 7.7 280 02:50 14.07.2019
5188 Clear 11 1021 43 10000 6.7 270 02:22 14.07.2019
5189 Clear 10 1022 43 10000 6.2 290 01:34 14.07.2019
5190 Clear 8 1022 46 10000 4.6 300 00:58 14.07.2019
5191 Clear 8 1022 46 10000 4.6 330 00:39 14.07.2019
5192 Clear 6 1021 57 10000 7.7 270 00:20 14.07.2019
5193 Clear 5 1021 63 10000 4.1 280 23:45 13.07.2019
5194 Clear 5 1021 63 10000 4.1 280 23:25 13.07.2019
5195 Clear 5 1021 63 10000 5.1 280 22:59 13.07.2019
5196 Clear 5 1021 63 10000 5.1 280 22:39 13.07.2019
5197 Clear 5 1021 61 10000 5.1 300 22:20 13.07.2019
5198 Clear 5 1021 63 10000 4.1 280 21:43 13.07.2019
5199 Clear 6 1020 61 10000 4.1 270 21:19 13.07.2019
5200 Clear 6 1020 61 10000 6.7 270 20:46 13.07.2019
5201 Clear 6 1020 61 10000 6.7 270 20:27 13.07.2019
5202 Clear 7 1020 61 10000 6.2 260 19:47 13.07.2019
5203 Clear 7 1020 61 10000 6.2 260 19:29 13.07.2019
5204 Clear 8 1020 57 10000 6.2 260 18:45 13.07.2019
5205 Clear 8 1020 57 10000 6.7 250 18:22 13.07.2019
5206 Clear 9 1019 57 10000 6.7 270 17:41 13.07.2019
5207 Clear 9 1019 57 10000 8.2 260 17:21 13.07.2019
5208 Clear 9 1019 57 10000 8.2 260 16:58 13.07.2019
5209 Clear 9 1019 57 10000 7.7 270 16:37 13.07.2019
5210 Clear 9 1019 57 10000 8.2 270 16:19 13.07.2019
5211 Clear 10 1019 57 10000 10.3 270 15:44 13.07.2019
5212 Clear 10 1019 50 10000 12.3 270 15:21 13.07.2019
5213 Clear 9 1019 50 10000 10.3 280 14:45 13.07.2019
5214 Clear 9 1019 50 10000 9.8 280 14:24 13.07.2019
5215 Clear 9 1019 53 10000 9.3 280 13:46 13.07.2019
5216 Clear 10 1018 56 10000 9.3 280 13:26 13.07.2019
5217 Clear 10 1018 56 10000 9.3 280 12:59 13.07.2019
5218 Clear 10 1018 56 10000 10.8 280 12:39 13.07.2019
5219 Clear 10 1017 54 10000 12.9 280 12:20 13.07.2019
5220 Clear 10 1017 54 10000 12.9 280 11:43 13.07.2019
5221 Clear 11 1016 54 10000 12.3 270 11:19 13.07.2019
5222 Clear 11 1016 54 10000 12.3 270 11:19 13.07.2019
5223 Clear 11 1016 40 10000 12.3 280 10:45 13.07.2019
5224 Clear 11 1017 54 10000 3.1 300 10:24 13.07.2019
5225 Clear 11 1016 37 10000 13.4 270 09:59 13.07.2019
5226 Clear 12 1015 35 10000 12.3 270 09:40 13.07.2019
5227 Clear 12 1015 33 10000 13.9 270 09:18 13.07.2019
5228 Clouds 13 1015 38 10000 6.2 290 08:36 13.07.2019
5229 Clear 14 1013 28 10000 11.8 280 08:18 13.07.2019
5230 Clear 15 1013 26 10000 11.3 270 07:30 13.07.2019
5231 Clear 15 1012 26 10000 11.8 280 06:49 13.07.2019
5232 Clear 15 1012 26 10000 13.9 280 05:59 13.07.2019
5233 Clear 15 1012 24 10000 14.9 280 05:33 13.07.2019
5234 Clear 14 1012 28 10000 15.4 290 04:24 13.07.2019
5235 Clear 14 1012 28 10000 13.4 270 03:57 13.07.2019
5236 Clear 14 1012 28 10000 13.4 270 03:39 13.07.2019
5237 Clear 14 1012 33 10000 10.3 280 02:20 13.07.2019
5238 Clouds 13 1012 35 10000 8.7 290 01:43 13.07.2019
5239 Clouds 12 1012 35 10000 12.9 260 01:19 13.07.2019
5240 Clouds 12 1012 35 10000 12.9 260 00:57 13.07.2019
5241 Clouds 12 1011 46 10000 12.9 260 00:20 13.07.2019
5242 Rain 12 1011 50 10000 11.3 270 23:49 12.07.2019
5243 Rain 12 1011 50 10000 11.3 270 23:29 12.07.2019
5244 Rain 12 1010 66 10000 12.9 260 22:56 12.07.2019
5245 Rain 13 1010 62 10000 11.8 250 22:37 12.07.2019
5246 Clear 14 1008 41 10000 10.3 260 22:18 12.07.2019
5247 Clear 14 1007 41 10000 10.3 260 21:41 12.07.2019
5248 Clear 14 1007 41 10000 8.2 310 21:19 12.07.2019
5249 Clear 14 1007 41 10000 5.7 310 20:43 12.07.2019
5250 Clear 14 1007 41 10000 9.3 320 20:22 12.07.2019
5251 Clear 14 1008 41 10000 6.7 340 19:42 12.07.2019
5252 Clear 14 1008 41 10000 6.7 340 19:24 12.07.2019
5253 Clouds 14 1009 50 10000 4.1 340 18:49 12.07.2019
5254 Clear 14 1008 41 10000 9.8 310 18:22 12.07.2019
5255 Clear 15 1008 41 10000 8.2 310 17:55 12.07.2019
5256 Clear 14 1008 41 10000 8.2 310 17:37 12.07.2019
5257 Clear 15 1009 41 10000 8.7 310 17:19 12.07.2019
5258 Clear 15 1009 41 10000 8.2 320 16:36 12.07.2019
5259 Clouds 15 1010 44 10000 5.1 320 16:18 12.07.2019
5260 Clear 15 1010 44 10000 8.7 310 15:38 12.07.2019
5261 Clouds 15 1011 48 10000 5.1 310 15:19 12.07.2019
5262 Clear 15 1010 42 10000 10.3 320 14:44 12.07.2019
5263 Clear 15 1010 42 10000 8.2 320 14:21 12.07.2019
5264 Clear 15 1010 48 10000 5.7 330 13:47 12.07.2019
5265 Clear 14 1010 44 10000 5.1 340 13:24 12.07.2019
5266 Clouds 14 1011 54 10000 5.1 330 12:44 12.07.2019
5267 Clear 14 1011 51 10000 4.1 330 12:24 12.07.2019
5268 Clear 14 1011 51 10000 5.1 330 11:58 12.07.2019
5269 Clear 14 1011 51 10000 5.1 330 11:39 12.07.2019
5270 Clear 14 1011 54 10000 4.6 320 11:19 12.07.2019
5271 Clear 15 1010 42 10000 8.7 310 10:41 12.07.2019
5272 Clear 15 1010 51 10000 5.1 320 10:23 12.07.2019
5273 Clear 16 1010 48 10000 6.2 320 09:53 12.07.2019
5274 Clouds 16 1010 48 10000 6.2 320 09:29 12.07.2019
5275 Clouds 17 1010 42 10000 8.7 310 08:52 12.07.2019
5276 Clouds 18 1010 42 10000 7.2 300 08:25 12.07.2019
5277 Clear 18 1009 37 10000 8.7 310 07:54 12.07.2019
5278 Clear 19 1009 37 10000 9.3 320 07:32 12.07.2019
5279 Clear 19 1010 34 10000 10.8 310 06:44 12.07.2019
5280 Clear 19 1010 34 10000 10.8 310 06:25 12.07.2019
5281 Clear 19 1011 37 10000 8.2 330 05:24 12.07.2019
5282 Clear 17 1013 45 10000 9.3 330 03:20 12.07.2019
5283 Clear 15 1014 48 10000 8.7 330 01:39 12.07.2019
5284 Clear 13 1014 47 10000 7.7 330 00:49 12.07.2019
5285 Clear 12 1014 50 10000 8.2 330 00:20 12.07.2019
5286 Clear 11 1014 50 10000 6.7 320 23:43 11.07.2019
5287 Clouds 11 1015 66 10000 4.1 360 23:24 11.07.2019
5288 Clear 12 1014 54 10000 5.1 330 22:52 11.07.2019
5289 Clear 11 1014 54 10000 6.2 330 22:26 11.07.2019
5290 Clear 11 1014 54 10000 5.1 330 22:26 11.07.2019
5291 Clear 11 1014 58 10000 3.1 360 21:57 11.07.2019
5292 Clear 12 1014 58 10000 3.1 360 21:38 11.07.2019
5293 Clear 12 1014 58 10000 3.6 330 21:18 11.07.2019
5294 Clear 12 1014 54 10000 2.6 320 20:42 11.07.2019
5295 Clear 12 1014 54 10000 4.1 330 20:23 11.07.2019
5296 Clear 12 1014 50 10000 3.6 330 19:58 11.07.2019
5297 Clear 12 1014 50 10000 3.6 330 19:39 11.07.2019
5298 Clear 12 1014 54 10000 3.6 360 19:21 11.07.2019
5299 Clear 12 1014 50 10000 3.6 330 18:42 11.07.2019
5300 Clear 12 1014 50 10000 4.6 320 18:24 11.07.2019
5301 Clear 12 1014 50 10000 4.6 340 17:50 11.07.2019
5302 Clear 12 1014 50 10000 4.6 340 17:31 11.07.2019
5303 Clear 12 1014 50 10000 5.7 340 16:56 11.07.2019
5304 Clear 12 1014 50 10000 5.7 340 16:37 11.07.2019
5305 Clear 12 1014 47 10000 7.7 330 16:18 11.07.2019
5306 Clouds 12 1007 53 0 2.24 307 15:40 11.07.2019
5307 Clear 12 1015 54 10000 3.1 360 15:21 11.07.2019
5308 Clear 12 1015 58 10000 2.6 10 14:46 11.07.2019
5309 Clear 12 1015 54 10000 2.6 10 14:25 11.07.2019
5310 Clear 12 1015 54 10000 2.6 10 13:59 11.07.2019
5311 Clear 12 1015 50 10000 4.1 350 13:41 11.07.2019
5312 Clouds 12 1015 50 10000 4.1 330 13:23 11.07.2019
5313 Clouds 12 1015 50 10000 5.1 310 12:38 11.07.2019
5314 Clear 13 1014 41 10000 4.1 270 12:19 11.07.2019
5315 Clear 13 1014 52 10000 3.1 290 11:45 11.07.2019
5316 Clear 13 1013 38 10000 7.2 290 11:27 11.07.2019
5317 Clear 13 1013 38 10000 7.2 290 10:52 11.07.2019
5318 Clear 14 1013 32 0 4.47 315 10:20 11.07.2019
5319 Clear 14 1013 32 0 4.47 315 10:20 11.07.2019
5320 Clear 15 1012 31 10000 8.7 290 09:54 11.07.2019
5321 Clear 15 1012 31 10000 8.7 290 09:36 11.07.2019
5322 Clear 15 1011 29 10000 6.7 270 09:18 11.07.2019
5323 Clear 16 1011 29 10000 9.8 270 08:42 11.07.2019
5324 Clear 17 1011 27 10000 8.2 260 08:20 11.07.2019
5325 Clear 18 1010 27 10000 7.7 260 07:45 11.07.2019
5326 Clear 18 1010 25 10000 8.7 270 07:23 11.07.2019
5327 Clear 19 1009 24 10000 7.7 270 06:19 11.07.2019
5328 Clear 19 1009 23 10000 6.7 240 05:32 11.07.2019
5329 Clear 19 1010 23 10000 6.2 250 04:57 11.07.2019
5330 Clear 18 1010 29 10000 7.2 270 03:58 11.07.2019
5331 Clear 18 1010 34 10000 8.7 280 02:31 11.07.2019
5332 Clear 15 1008 44 10000 10.3 270 00:42 11.07.2019
5333 Clear 13 1008 58 10000 6.2 360 23:52 10.07.2019
5334 Clear 12 1008 58 10000 6.2 360 23:31 10.07.2019
5335 Clouds 12 1008 66 10000 4.1 360 22:58 10.07.2019
5336 Clear 12 1007 58 10000 8.7 10 22:27 10.07.2019
5337 Clear 12 1007 58 10000 8.7 10 21:59 10.07.2019
5338 Clear 12 1007 58 10000 9.3 360 21:39 10.07.2019
5339 Clear 12 1007 58 10000 8.7 360 21:21 10.07.2019
5340 Clear 12 1008 62 10000 7.7 360 20:48 10.07.2019
5341 Clear 12 1009 62 10000 8.7 360 20:27 10.07.2019
5342 Clear 12 1009 62 10000 8.7 360 19:59 10.07.2019
5343 Clear 11 1009 66 10000 4.6 360 19:41 10.07.2019
5344 Clear 11 1010 66 10000 6.2 360 19:21 10.07.2019
5345 Clear 11 1010 66 10000 6.7 360 18:47 10.07.2019
5346 Clear 10 1011 57 10000 5.1 350 18:25 10.07.2019
5347 Clear 10 1011 54 10000 6.2 360 17:51 10.07.2019
5348 Clear 10 1012 71 10000 4.1 20 17:30 10.07.2019
5349 Clear 10 1013 70 10000 2.1 10 16:59 10.07.2019
5350 Clear 9 1013 70 10000 2.6 30 16:22 10.07.2019
5351 Clear 10 1012 50 10000 6.7 340 15:58 10.07.2019
5352 Clear 10 1013 50 10000 8.2 340 15:39 10.07.2019
5353 Clear 10 1013 54 10000 7.7 340 15:18 10.07.2019
5354 Clear 10 1014 70 10000 4.1 10 14:39 10.07.2019
5355 Clear 10 1014 66 10000 3.6 360 14:20 10.07.2019
5356 Clear 10 1015 66 10000 3.1 360 13:44 10.07.2019
5357 Clear 11 1014 50 10000 4.6 330 13:19 10.07.2019
5358 Clear 11 1015 62 10000 2.1 10 13:19 10.07.2019
5359 Clear 11 1015 62 10000 4.6 320 12:55 10.07.2019
5360 Clear 11 1015 62 10000 4.6 320 12:36 10.07.2019
5361 Clear 11 1015 62 10000 3.6 340 12:18 10.07.2019
5362 Clear 11 1015 58 10000 3.6 330 11:40 10.07.2019
5363 Clear 11 1015 58 10000 3.6 310 11:20 10.07.2019
5364 Clear 12 1015 58 10000 4.1 300 10:40 10.07.2019
5365 Clear 12 1015 54 10000 3.6 280 10:19 10.07.2019
5366 Clear 13 1014 50 10000 5.1 270 09:44 10.07.2019
5367 Clear 14 1014 47 10000 4.6 270 09:21 10.07.2019
5368 Clear 15 1014 39 10000 4.6 300 08:50 10.07.2019
5369 Clear 16 1014 48 10000 1.5 350 08:29 10.07.2019
5370 Clear 16 1014 34 10000 4.6 310 07:54 10.07.2019
5371 Clear 16 1014 34 10000 4.6 310 07:31 10.07.2019
5372 Clear 17 1014 39 10000 7.2 300 06:42 10.07.2019
5373 Clear 16 1015 42 10000 5.1 310 05:44 10.07.2019
5374 Clear 15 1016 44 10000 5.1 310 04:35 10.07.2019
5375 Clear 14 1018 51 10000 5.1 310 03:20 10.07.2019
5376 Clear 9 1018 66 10000 7.7 270 00:45 10.07.2019
5377 Clear 7 1018 70 10000 7.7 270 23:59 09.07.2019
5378 Clear 6 1018 75 10000 5.1 310 23:41 09.07.2019
5379 Clouds 6 1018 70 10000 4.1 320 23:21 09.07.2019
5380 Clear 6 1018 70 10000 5.1 310 22:40 09.07.2019
5381 Clear 6 1018 75 10000 4.6 320 22:22 09.07.2019
5382 Clear 6 1018 75 10000 4.6 320 21:56 09.07.2019
5383 Clear 6 1017 75 10000 4.6 330 21:37 09.07.2019
5384 Clear 6 1017 75 10000 4.1 330 21:19 09.07.2019
5385 Clear 6 1017 75 10000 4.1 330 20:43 09.07.2019
5386 Clear 6 1017 75 10000 4.1 330 20:24 09.07.2019
5387 Clear 7 1018 70 10000 4.6 290 19:40 09.07.2019
5388 Clear 7 1018 70 10000 5.1 300 19:21 09.07.2019
5389 Clear 7 1018 76 10000 5.7 310 18:45 09.07.2019
5390 Clear 7 1018 76 10000 5.7 310 18:45 09.07.2019
5391 Clear 7 1018 76 10000 5.7 310 18:23 09.07.2019
5392 Clear 7 1018 71 10000 5.1 320 17:55 09.07.2019
5393 Clear 7 1018 71 10000 5.1 320 17:37 09.07.2019
5394 Clear 7 1018 71 10000 5.1 320 17:18 09.07.2019
5395 Clear 8 1019 71 10000 5.1 310 16:47 09.07.2019
5396 Clear 8 1019 66 10000 6.2 310 16:24 09.07.2019
5397 Clear 8 1019 66 10000 5.1 310 15:49 09.07.2019
5398 Clear 8 1019 66 10000 5.1 310 15:31 09.07.2019
5399 Clear 8 1019 87 10000 2.93 275.761 14:55 09.07.2019
5400 Clear 8 1019 87 10000 2.93 275.761 14:37 09.07.2019
5401 Clear 9 1019 87 10000 2.93 275.761 14:18 09.07.2019
5402 Clear 9 1019 87 10000 2.93 275.761 14:18 09.07.2019
5403 Clear 9 1019 87 10000 2.93 275.761 13:43 09.07.2019
5404 Clear 9 1019 81 10000 2.98 276.503 13:22 09.07.2019
5405 Clear 10 1019 76 10000 2.98 276.503 12:40 09.07.2019
5406 Clear 10 1019 76 10000 2.98 276.503 12:40 09.07.2019
5407 Clear 10 1019 71 10000 4.92 244.92 12:22 09.07.2019
5408 Clear 11 1019 58 10000 3.6 250 11:57 09.07.2019
5409 Clear 11 1019 58 10000 3.6 250 11:38 09.07.2019
5410 Clear 11 1019 50 10000 3.6 260 11:20 09.07.2019
5411 Clear 12 1018 50 10000 5.7 250 10:49 09.07.2019
5412 Clear 12 1018 50 10000 5.7 250 10:30 09.07.2019
5413 Clear 14 1018 62 10000 4.1 250 09:41 09.07.2019
5414 Clear 15 1018 51 10000 4.1 250 09:22 09.07.2019
5415 Clear 15 1017 45 10000 4.1 250 08:55 09.07.2019
5416 Clear 16 1017 45 10000 4.1 250 08:35 09.07.2019
5417 Rain 16 1035 87 10000 6.7 110 03:58 05.07.2019
5418 Rain 15 1036 87 6000 5.7 100 03:38 05.07.2019
5419 Rain 15 1036 87 6000 5.7 100 03:38 05.07.2019
5420 Rain 15 1036 87 10000 4.1 70 03:19 05.07.2019
5421 Rain 15 1036 77 10000 5.7 110 02:45 05.07.2019
5422 Rain 14 1036 87 10000 5.7 120 01:42 05.07.2019
5423 Rain 14 1036 82 10000 5.1 110 01:23 05.07.2019
5424 Rain 13 1036 87 10000 4.1 110 00:46 05.07.2019
5425 Rain 13 1035 100 10000 2.6 220 23:56 04.07.2019
5426 Clouds 13 1035 100 10000 2.6 210 23:21 04.07.2019
5427 Rain 13 1035 93 10000 6.7 150 22:58 04.07.2019
5428 Rain 13 1035 93 10000 6.7 150 22:40 04.07.2019
5429 Rain 13 1035 87 10000 5.1 110 22:19 04.07.2019
5430 Rain 13 1035 100 3300 3.1 210 21:40 04.07.2019
5431 Rain 13 1034 87 10000 4.1 120 21:22 04.07.2019
5432 Rain 13 1034 100 10000 2.6 240 20:55 04.07.2019
5433 Rain 13 1034 100 10000 2.6 240 20:37 04.07.2019
5434 Rain 13 1034 100 6000 2.6 230 20:18 04.07.2019
5435 Rain 13 1034 93 10000 4.6 70 19:41 04.07.2019
5436 Rain 13 1034 100 3300 1.5 170 19:20 04.07.2019
5437 Rain 13 1034 93 10000 3.6 210 18:44 04.07.2019
5438 Rain 13 1034 93 10000 3.1 70 18:26 04.07.2019
5439 Rain 13 1034 100 10000 2.6 210 17:55 04.07.2019
5440 Rain 13 1034 100 10000 2.6 210 17:37 04.07.2019
5441 Rain 13 1034 93 10000 3.6 90 17:18 04.07.2019
5442 Rain 13 1035 100 5000 5.7 110 15:43 04.07.2019
5443 Rain 13 1035 93 5000 7.2 120 15:24 04.07.2019
5444 Rain 13 1035 93 5000 7.2 120 14:58 04.07.2019
5445 Rain 13 1035 87 10000 7.2 130 14:38 04.07.2019
5446 Rain 13 1035 93 8000 5.7 120 14:19 04.07.2019
5447 Rain 13 1035 93 8000 5.7 120 13:56 04.07.2019
5448 Rain 13 1035 93 7000 7.2 110 13:38 04.07.2019
5449 Rain 13 1035 93 5000 7.7 110 13:18 04.07.2019
5450 Rain 13 1035 93 10000 3.1 210 12:38 04.07.2019
5451 Rain 13 1034 87 10000 8.2 160 12:19 04.07.2019
5452 Rain 13 1034 82 10000 6.2 150 11:43 04.07.2019
5453 Rain 13 1034 100 10000 3.6 210 11:20 04.07.2019
5454 Rain 13 1034 100 10000 3.6 210 11:20 04.07.2019
5455 Rain 14 1034 77 10000 7.2 130 10:46 04.07.2019
5456 Rain 14 1034 77 10000 7.2 130 10:27 04.07.2019
5457 Rain 14 1034 67 10000 6.7 120 09:57 04.07.2019
5458 Rain 14 1034 67 10000 6.7 120 09:38 04.07.2019
5459 Rain 14 1033 67 10000 8.2 150 09:19 04.07.2019
5460 Rain 15 1033 63 10000 6.7 130 08:44 04.07.2019
5461 Rain 15 1033 67 10000 6.7 140 08:18 04.07.2019
5462 Clouds 16 1033 77 10000 2.6 180 07:39 04.07.2019
5463 Clouds 16 1033 82 10000 3.1 190 07:18 04.07.2019
5464 Rain 16 1033 59 10000 7.2 150 06:30 04.07.2019
5465 Clouds 16 1033 77 10000 7.2 180 05:41 04.07.2019
5466 Rain 15 1035 72 10000 8.2 140 04:28 04.07.2019
5467 Rain 13 1035 87 5000 2.6 140 02:23 04.07.2019
5468 Rain 13 1035 93 6000 6.7 110 01:27 04.07.2019
5469 Rain 12 1034 100 8000 7.7 160 00:51 04.07.2019
5470 Rain 11 1033 93 5000 8.7 170 23:53 03.07.2019
5471 Rain 11 1033 93 10000 8.2 180 23:21 03.07.2019
5472 Clouds 11 1033 100 10000 2.8 163.821 22:57 03.07.2019
5473 Rain 12 1033 82 10000 6.7 170 22:38 03.07.2019
5474 Rain 11 1032 82 10000 6.7 160 22:20 03.07.2019
5475 Rain 11 1032 82 10000 6.7 160 21:55 03.07.2019
5476 Clouds 11 1032 77 10000 6.2 160 21:36 03.07.2019
5477 Rain 11 1032 77 10000 7.7 150 20:55 03.07.2019
5478 Rain 11 1032 77 10000 7.7 150 20:36 03.07.2019
5479 Rain 11 1032 72 10000 7.7 160 20:18 03.07.2019
5480 Clouds 11 1032 67 10000 6.7 160 19:44 03.07.2019
5481 Clouds 10 1032 87 10000 3.13 191.741 19:25 03.07.2019
5482 Clouds 11 1032 67 10000 7.7 160 18:45 03.07.2019
5483 Clouds 11 1032 81 10000 1.5 220 18:23 03.07.2019
5484 Clouds 12 1032 67 10000 6.2 160 17:51 03.07.2019
5485 Clouds 12 1032 67 10000 5.1 160 17:20 03.07.2019
5486 Clouds 12 1032 76 10000 2.1 210 16:58 03.07.2019
5487 Clouds 12 1032 76 10000 2.1 210 16:39 03.07.2019
5488 Clouds 13 1032 82 10000 0.5 150 16:18 03.07.2019
5489 Clouds 13 1032 67 10000 5.7 150 15:46 03.07.2019
5490 Clouds 13 1032 67 10000 5.7 150 15:27 03.07.2019
5491 Clouds 14 1031 67 10000 6.7 160 14:49 03.07.2019
5492 Clouds 14 1031 67 10000 7.7 160 14:22 03.07.2019
5493 Clouds 14 1031 67 10000 7.7 160 13:50 03.07.2019
5494 Clouds 14 1031 67 10000 7.7 160 13:31 03.07.2019
5495 Clouds 14 1031 67 10000 7.2 160 12:54 03.07.2019
5496 Clouds 14 1031 67 10000 7.2 160 12:20 03.07.2019
5497 Clouds 15 1030 67 10000 6.2 160 11:57 03.07.2019
5498 Clouds 15 1030 67 10000 6.2 160 11:39 03.07.2019
5499 Clouds 15 1030 67 10000 5.1 170 11:19 03.07.2019
5500 Clouds 15 1030 77 10000 6.2 170 10:40 03.07.2019
5501 Clouds 15 1030 67 10000 5.7 160 10:21 03.07.2019
5502 Clouds 16 1029 63 10000 6.2 160 09:42 03.07.2019
5503 Clouds 16 1029 72 10000 6.2 170 09:21 03.07.2019
5504 Clouds 16 1029 77 10000 6.7 170 08:53 03.07.2019
5505 Clouds 16 1029 77 10000 6.7 170 08:32 03.07.2019
5506 Clouds 17 1028 72 10000 6.7 170 07:53 03.07.2019
5507 Clouds 17 1028 72 10000 7.7 190 07:35 03.07.2019
5508 Clouds 18 1028 72 10000 6.2 170 06:48 03.07.2019
5509 Clouds 18 1028 63 10000 6.2 160 05:44 03.07.2019
5510 Clouds 18 1028 63 10000 6.2 150 05:21 03.07.2019
5511 Rain 17 1029 59 10000 1.5 220 03:36 03.07.2019
5512 Rain 14 1029 55 10000 2.1 330 02:38 03.07.2019
5513 Rain 12 1028 58 10000 3.6 350 01:23 03.07.2019
5514 Rain 11 1028 58 10000 3.1 330 00:58 03.07.2019
5515 Clouds 9 1028 57 10000 3.1 340 00:36 03.07.2019
5516 Clouds 8 1027 61 10000 3.6 330 23:49 02.07.2019
5517 Clouds 7 1026 61 10000 3.6 330 23:21 02.07.2019
5518 Clouds 7 1026 61 10000 3.6 330 22:59 02.07.2019
5519 Clouds 7 1025 57 10000 4.1 350 22:41 02.07.2019
5520 Clouds 7 1025 57 10000 4.1 350 22:22 02.07.2019
5521 Clouds 7 1025 57 10000 4.1 350 22:22 02.07.2019
5522 Clouds 7 1025 61 10000 4.1 350 21:57 02.07.2019
5523 Clouds 7 1025 61 10000 4.1 350 21:38 02.07.2019
5524 Clouds 6 1025 61 10000 4.1 350 21:19 02.07.2019
5525 Clouds 7 1025 52 10000 4.1 330 20:42 02.07.2019
5526 Clouds 6 1025 52 10000 4.1 330 20:24 02.07.2019
5527 Clouds 7 1024 52 10000 3.6 330 19:59 02.07.2019
5528 Clouds 6 1024 52 10000 3.6 330 19:40 02.07.2019
5529 Clear 6 1024 61 10000 4.1 350 19:21 02.07.2019
5530 Clear 6 1024 49 10000 3.1 330 18:45 02.07.2019
5531 Clear 6 1023 46 10000 3.1 310 18:18 02.07.2019
5532 Clear 6 1023 46 10000 3.1 310 17:41 02.07.2019
5533 Clear 7 1023 46 10000 1.5 350 17:22 02.07.2019
5534 Clear 7 1023 53 10000 2.6 320 16:49 02.07.2019
5535 Clear 7 1023 53 10000 2.6 330 16:31 02.07.2019
5536 Clear 7 1023 61 10000 3.1 10 15:46 02.07.2019
5537 Clear 7 1022 62 10000 3.6 310 15:25 02.07.2019
5538 Clear 7 1022 62 10000 3.6 310 15:25 02.07.2019
5539 Clear 7 1022 62 10000 3.6 310 14:56 02.07.2019
5540 Clear 8 1022 62 10000 3.6 300 14:38 02.07.2019
5541 Clear 8 1022 93 10000 1 340 13:58 02.07.2019
5542 Clear 8 1022 93 10000 1 340 13:36 02.07.2019
5543 Clear 9 1022 62 10000 3.6 310 13:18 02.07.2019
5544 Clear 9 1021 87 10000 3.24 244.962 12:43 02.07.2019
5545 Clear 10 1021 54 10000 2.1 310 12:22 02.07.2019
5546 Clear 10 1021 75 10000 1 10 11:43 02.07.2019
5547 Clear 10 1020 75 10000 1 230 11:23 02.07.2019
5548 Clear 11 1020 66 10000 2.6 280 10:51 02.07.2019
5549 Clear 12 1020 66 10000 1.94 225.711 10:26 02.07.2019
5550 Clear 13 1019 58 10000 0.5 360 09:49 02.07.2019
5551 Clouds 15 1019 51 10000 2.6 10 09:22 02.07.2019
5552 Clouds 16 1019 42 10000 0.22 311.035 08:55 02.07.2019
5553 Clouds 17 1019 42 10000 0.22 311.035 08:35 02.07.2019
5554 Clear 18 1018 28 10000 1.5 70 07:57 02.07.2019
5555 Clear 19 1018 28 10000 1.5 70 07:21 02.07.2019
5556 Clear 18 1018 29 10000 2.6 290 06:54 02.07.2019
5557 Clear 19 1018 29 10000 2.6 290 06:35 02.07.2019
5558 Clear 17 1019 29 10000 3.6 280 05:19 02.07.2019
5559 Clear 12 1020 54 10000 3.6 320 02:30 02.07.2019
5560 Clear 7 1020 71 10000 4.1 290 00:26 02.07.2019
5561 Rain 5 1019 81 10000 4.1 320 23:30 01.07.2019
5562 Clear 5 1019 81 10000 3.6 330 22:54 01.07.2019
5563 Clear 5 1019 81 10000 4.1 320 22:28 01.07.2019
5564 Clear 5 1019 81 10000 3.1 340 21:56 01.07.2019
5565 Clear 5 1019 81 10000 3.1 340 21:37 01.07.2019
5566 Clouds 5 1019 55 10000 2 286.291 21:19 01.07.2019
5567 Clear 6 1019 81 10000 3.6 340 20:45 01.07.2019
5568 Clouds 5 1019 93 10000 2.09 279.99 20:20 01.07.2019
5569 Clear 6 1019 81 10000 3.1 300 19:54 01.07.2019
5570 Clouds 6 1019 100 600 2.09 279.99 19:36 01.07.2019
5571 Clouds 6 1019 100 600 2.09 279.99 19:18 01.07.2019
5572 Clear 6 1019 87 10000 3.6 340 18:42 01.07.2019
5573 Clear 6 1019 87 10000 2.6 360 18:21 01.07.2019
5574 Clouds 7 1020 100 500 1.5 360 17:45 01.07.2019
5575 Clear 7 1020 87 10000 3.1 350 17:25 01.07.2019
5576 -273 0 0 0 0 0 16:56 01.07.2019
5577 Clouds 7 1021 100 2300 1.47 277.992 16:38 01.07.2019
5578 Clear 8 1020 76 10000 2.6 320 16:19 01.07.2019
5579 Clear 8 1021 71 10000 2.6 300 15:42 01.07.2019
5580 Clear 8 1020 71 10000 4.1 30 15:22 01.07.2019
5581 Clouds 9 1021 93 10000 1.17 297.179 14:44 01.07.2019
5582 Clouds 9 1021 93 10000 1.17 297.179 14:20 01.07.2019
5583 Clouds 10 1022 87 10000 0.5 170 13:45 01.07.2019
5584 Clouds 10 1021 87 10000 1 60 13:24 01.07.2019
5585 Clouds 10 1021 87 10000 1.31 301.936 12:56 01.07.2019
5586 Clouds 11 1021 87 10000 1.31 301.936 12:37 01.07.2019
5587 Clouds 11 1021 87 10000 0.5 70 12:19 01.07.2019
5588 Clouds 11 1021 87 10000 0.5 140 11:43 01.07.2019
5589 Clouds 11 1021 76 10000 1.06 2.105 11:22 01.07.2019
5590 Clouds 12 1021 71 10000 1.06 2.105 10:48 01.07.2019
5591 Clouds 12 1021 62 10000 1.06 2.105 10:24 01.07.2019
5592 Clouds 13 1021 50 10000 2.1 360 09:58 01.07.2019
5593 Clouds 13 1021 50 10000 2.1 360 09:40 01.07.2019
5594 Clouds 14 1021 54 10000 2.1 60 09:21 01.07.2019
5595 Clear 15 1021 55 10000 3.6 50 08:38 01.07.2019
5596 Clear 16 1021 51 10000 4.1 20 08:19 01.07.2019
5597 Clear 17 1021 42 10000 3.1 360 07:28 01.07.2019
5598 Clear 17 1021 42 10000 3.6 340 06:30 01.07.2019
5599 Clear 10 1026 50 10000 4.6 290 02:21 01.07.2019
5600 Clouds 7 1025 53 10000 4.1 320 00:50 01.07.2019
5601 Clear 6 1025 61 10000 3.6 300 00:30 01.07.2019
5602 Clear 4 1025 61 10000 4.6 300 23:57 30.06.2019
5603 Clouds 4 1025 76 6000 2.44 266.564 23:22 30.06.2019
5604 Clear 4 1024 61 10000 3.6 340 22:53 30.06.2019
5605 Clear 4 1024 61 10000 3.6 290 22:22 30.06.2019
5606 Clear 4 1024 65 10000 3.6 310 21:44 30.06.2019
5607 Clear 5 1024 65 10000 3.6 310 21:26 30.06.2019
5608 Clear 5 1024 65 10000 3.6 310 21:26 30.06.2019
5609 Clear 5 1024 61 10000 3.6 300 20:59 30.06.2019
5610 Clear 5 1024 61 10000 4.1 310 20:40 30.06.2019
5611 Clear 5 1024 65 10000 5.1 270 20:21 30.06.2019
5612 Clear 5 1024 57 10000 6.7 270 19:47 30.06.2019
5613 Clear 5 1024 61 10000 5.7 270 19:25 30.06.2019
5614 Clear 6 1024 61 10000 5.1 280 18:41 30.06.2019
5615 Clear 6 1024 57 10000 4.1 280 18:21 30.06.2019
5616 Clear 7 1024 61 10000 4.6 280 17:40 30.06.2019
5617 Clear 7 1024 57 10000 5.1 270 17:19 30.06.2019
5618 Clear 7 1024 53 10000 3.6 360 16:52 30.06.2019
5619 Clear 7 1024 53 10000 3.6 360 16:32 30.06.2019
5620 Clear 8 1024 46 10000 2.6 270 15:55 30.06.2019
5621 Clear 8 1024 46 10000 2.6 270 15:36 30.06.2019
5622 Clear 8 1024 50 10000 4.1 260 15:18 30.06.2019
5623 Clear 9 1024 46 10000 3.6 270 14:43 30.06.2019
5624 Clear 9 1024 46 10000 4.6 250 14:22 30.06.2019
5625 Clear 10 1023 46 10000 4.6 260 13:42 30.06.2019
5626 Clear 10 1023 43 10000 5.1 260 13:20 30.06.2019
5627 Clear 10 1023 43 10000 7.7 260 12:47 30.06.2019
5628 Clear 10 1023 43 10000 5.1 250 12:24 30.06.2019
5629 Clouds 10 1022 61 10000 2.1 300 11:47 30.06.2019
5630 Clouds 11 1022 58 10000 4.6 300 11:24 30.06.2019
5631 Clouds 12 1022 57 10000 3.6 290 10:57 30.06.2019
5632 Clear 12 1021 44 10000 4.1 260 10:38 30.06.2019
5633 Clouds 13 1021 54 10000 4.1 300 10:18 30.06.2019
5634 Clouds 12 1021 54 10000 4.1 300 10:18 30.06.2019
5635 Clouds 14 1021 50 10000 4.1 300 09:43 30.06.2019
5636 Clouds 14 1021 44 10000 4.6 300 09:23 30.06.2019
5637 Clear 15 1020 33 10000 6.2 280 08:57 30.06.2019
5638 Clear 16 1020 34 10000 7.2 270 08:29 30.06.2019
5639 Clear 17 1020 36 10000 5.7 280 07:58 30.06.2019
5640 Clear 17 1020 36 10000 5.7 280 07:29 30.06.2019
5641 Clear 17 1020 34 10000 5.1 290 06:41 30.06.2019
5642 Clear 17 1020 34 10000 5.1 290 05:34 30.06.2019
5643 Clouds 15 1022 47 10000 2.6 160 02:53 30.06.2019
5644 Clouds 14 1022 54 10000 3.1 190 01:30 30.06.2019
5645 Clouds 11 1020 62 10000 2.6 200 00:32 30.06.2019
5646 Clouds 10 1020 66 10000 2.1 250 23:56 29.06.2019
5647 Clouds 10 1020 66 10000 2.1 250 23:25 29.06.2019
5648 Clouds 10 1019 58 10000 1.5 270 22:58 29.06.2019
5649 Clouds 11 1019 54 10000 1.64 175.802 22:40 29.06.2019
5650 Clouds 11 1019 54 10000 3.6 280 22:21 29.06.2019
5651 Clouds 12 1018 54 10000 4.6 280 21:49 29.06.2019
5652 Clouds 12 1018 54 10000 5.7 260 21:23 29.06.2019
5653 Clouds 13 1018 50 10000 7.7 240 20:42 29.06.2019
5654 Clouds 13 1019 59 0 2.68 241 20:24 29.06.2019
5655 Clouds 14 1017 76 10000 3.6 290 19:48 29.06.2019
5656 Clear 15 1016 55 10000 6.7 350 19:24 29.06.2019
5657 Clouds 15 1015 55 10000 6.7 360 18:51 29.06.2019
5658 Clear 15 1015 59 10000 5.1 360 18:27 29.06.2019
5659 Clear 15 1015 59 10000 5.1 360 17:55 29.06.2019
5660 Clear 16 1015 55 10000 6.2 360 17:36 29.06.2019
5661 Clear 16 1015 59 10000 7.7 360 17:18 29.06.2019
5662 Clear 16 1016 82 10000 4.6 30 16:42 29.06.2019
5663 Clear 15 1016 67 10000 7.7 360 15:54 29.06.2019
5664 Clear 15 1016 67 10000 7.7 360 15:31 29.06.2019
5665 Clear 15 1017 67 10000 8.7 10 14:45 29.06.2019
5666 Clear 15 1017 67 10000 8.7 10 14:26 29.06.2019
5667 Clear 15 1018 72 10000 5.1 360 13:50 29.06.2019
5668 Clear 15 1018 72 10000 5.1 360 13:27 29.06.2019
5669 Clear 15 1018 72 10000 8.2 20 12:57 29.06.2019
5670 Clear 15 1018 72 10000 8.2 20 12:37 29.06.2019
5671 Clear 15 1018 76 10000 3.1 70 12:18 29.06.2019
5672 Clear 15 1018 72 10000 3.6 80 11:40 29.06.2019
5673 Clear 15 1018 76 10000 3.6 70 11:21 29.06.2019
5674 Clear 16 1019 58 10000 1.5 360 10:41 29.06.2019
5675 Clear 16 1018 68 10000 9.8 30 10:20 29.06.2019
5676 Clouds 17 1019 68 10000 10.3 30 09:48 29.06.2019
5677 Clouds 18 1019 59 10000 10.3 20 08:55 29.06.2019
5678 Clouds 19 1020 56 10000 9.3 20 08:28 29.06.2019
5679 Clouds 19 1020 56 10000 9.8 30 07:45 29.06.2019
5680 Clouds 20 1021 52 10000 7.7 30 06:48 29.06.2019
5681 Clouds 20 1022 46 10000 6.7 10 06:25 29.06.2019
5682 Clouds 17 1026 67 10000 3.1 320 03:55 29.06.2019
5683 Fog 13 1027 87 8000 3.1 310 01:42 29.06.2019
5684 Fog 13 1027 87 8000 3.1 310 01:42 29.06.2019
5685 Fog 10 1027 93 900 3.1 330 00:41 29.06.2019
5686 Fog 8 1027 93 1800 2.6 330 23:39 28.06.2019
5687 Fog 8 1027 100 600 3.1 310 23:20 28.06.2019
5688 Fog 8 1027 100 900 3.6 320 22:47 28.06.2019
5689 Rain 8 1027 93 900 3.6 320 22:19 28.06.2019
5690 Rain 8 1027 93 10000 2.6 340 21:45 28.06.2019
5691 Rain 8 1027 93 10000 2.6 320 21:19 28.06.2019
5692 Mist 9 1027 93 10000 2.6 320 20:41 28.06.2019
5693 Fog 9 1027 93 10000 2.6 320 20:19 28.06.2019
5694 Clear 9 1027 93 10000 2.6 350 19:40 28.06.2019
5695 Fog 9 1027 93 10000 2.6 320 19:21 28.06.2019
5696 Fog 9 1028 93 10000 2.6 320 18:41 28.06.2019
5697 Clouds 9 1028 93 150 0.5 70 18:21 28.06.2019
5698 Clear 9 1028 87 10000 1.45 280.199 17:46 28.06.2019
5699 Clear 10 1028 82 10000 1.45 280.199 17:25 28.06.2019
5700 -273 0 0 0 0 0 16:46 28.06.2019
5701 Clear 10 1029 77 10000 2.1 300 16:20 28.06.2019
5702 Clear 11 1029 72 10000 4.1 20 15:45 28.06.2019
5703 Clouds 11 1029 100 250 1.85 269.814 15:18 28.06.2019
5704 Clouds 12 1029 100 600 1.85 269.814 14:42 28.06.2019
5705 Clear 12 1029 67 10000 2.6 10 14:21 28.06.2019
5706 Clear 13 1029 100 6000 1.85 269.814 13:49 28.06.2019
5707 Clear 13 1029 72 10000 3.1 10 13:29 28.06.2019
5708 Clouds 13 1029 72 10000 3.6 10 12:53 28.06.2019
5709 Clouds 14 1029 72 10000 2.6 10 12:33 28.06.2019
5710 Clouds 14 1029 72 10000 3.1 20 11:44 28.06.2019
5711 Clear 14 1029 93 10000 2.87 40.301 11:19 28.06.2019
5712 Clear 14 1029 93 10000 2.87 40.301 11:19 28.06.2019
5713 Clear 15 1028 87 10000 2.87 40.301 10:42 28.06.2019
5714 Clear 15 1028 82 10000 2.1 80 10:19 28.06.2019
5715 Clouds 16 1028 63 10000 5.1 30 09:46 28.06.2019
5716 Clouds 17 1028 63 10000 3.1 50 09:28 28.06.2019
5717 Clouds 18 1028 59 10000 6.2 40 08:43 28.06.2019
5718 Clouds 18 1028 56 10000 6.2 30 08:24 28.06.2019
5719 Clouds 19 1029 56 10000 6.2 20 07:43 28.06.2019
5720 Clouds 19 1029 52 10000 6.7 30 06:54 28.06.2019
5721 Clouds 19 1031 63 10000 3.6 360 04:42 28.06.2019
5722 Clouds 11 1033 87 10000 3.6 320 00:48 28.06.2019
5723 Clouds 10 1033 93 10000 2.6 320 00:22 28.06.2019
5724 Clouds 10 1033 87 10000 2.6 290 23:47 27.06.2019
5725 Clouds 10 1032 93 10000 3.1 290 23:25 27.06.2019
5726 Clouds 10 1032 93 10000 3.6 300 22:44 27.06.2019
5727 Clouds 10 1032 93 10000 3.6 310 22:25 27.06.2019
5728 Clouds 9 1033 100 700 1.61 278.6 21:59 27.06.2019
5729 Clouds 9 1033 100 700 1.61 278.6 21:41 27.06.2019
5730 Clouds 10 1032 93 10000 4.1 310 21:21 27.06.2019
5731 Rain 10 1032 93 10000 3.1 10 20:49 27.06.2019
5732 Rain 10 1032 93 10000 3.1 10 20:31 27.06.2019
5733 Rain 10 1032 93 10000 3.6 310 19:57 27.06.2019
5734 Rain 9 1032 93 10000 3.6 310 19:39 27.06.2019
5735 Rain 10 1032 93 10000 2.1 350 19:21 27.06.2019
5736 Rain 10 1032 93 10000 1.42 267.9 18:41 27.06.2019
5737 Rain 9 1033 93 10000 4.1 300 18:19 27.06.2019
5738 Rain 10 1033 93 10000 3.1 330 17:39 27.06.2019
5739 Rain 10 1033 93 10000 3.6 320 17:21 27.06.2019
5740 Rain 10 1033 93 10000 3.6 350 16:39 27.06.2019
5741 Rain 10 1034 93 10000 2.1 20 16:19 27.06.2019
5742 Clouds 10 1034 93 10000 1.6 258.226 15:50 27.06.2019
5743 Clouds 10 1034 93 10000 1.5 270 15:30 27.06.2019
5744 Clouds 10 1034 100 200 1.1 266.492 14:52 27.06.2019
5745 Clouds 10 1034 100 200 1.1 266.492 14:31 27.06.2019
5746 Rain 10 1033 87 10000 1.5 260 13:57 27.06.2019
5747 Rain 11 1033 87 10000 2.1 250 13:38 27.06.2019
5748 Clear 11 1034 100 10000 1.33 261.041 13:20 27.06.2019
5749 Clouds 11 1033 87 10000 2.1 250 12:43 27.06.2019
5750 Clouds 12 1033 87 10000 2.6 240 12:23 27.06.2019
5751 Clear 12 1033 93 10000 1.06 69.754 11:45 27.06.2019
5752 Clouds 13 1033 82 10000 1.5 110 11:22 27.06.2019
5753 Clear 13 1033 93 10000 1.06 69.754 10:57 27.06.2019
5754 Clear 13 1033 93 10000 1.06 69.754 10:37 27.06.2019
5755 Clouds 13 1033 77 10000 2.6 60 10:19 27.06.2019
5756 Clouds 15 1033 77 10000 3.1 130 09:38 27.06.2019
5757 Clouds 15 1033 77 10000 3.1 130 09:38 27.06.2019
5758 Clouds 16 1032 77 10000 3.6 60 09:20 27.06.2019
5759 Clouds 16 1032 68 10000 4.1 60 08:48 27.06.2019
5760 Clouds 17 1032 68 10000 4.1 60 08:26 27.06.2019
5761 Clouds 18 1032 72 10000 4.1 60 07:45 27.06.2019
5762 Clouds 18 1032 77 10000 4.1 60 06:57 27.06.2019
5763 Clouds 18 1033 77 10000 2.6 150 06:30 27.06.2019
5764 Clouds 17 1035 72 10000 2.1 260 03:51 27.06.2019
5765 Rain 15 1035 77 10000 2.6 310 02:42 27.06.2019
5766 Clouds 12 1035 87 10000 2.6 320 01:29 27.06.2019
5767 Clouds 12 1035 93 10000 3.1 320 00:50 27.06.2019
5768 Clouds 11 1035 93 10000 3.6 330 00:26 27.06.2019
5769 Clouds 10 1035 93 10000 3.6 330 23:51 26.06.2019
5770 Clouds 10 1035 93 10000 3.1 310 23:23 26.06.2019
5771 Clouds 10 1035 93 10000 3.1 310 23:23 26.06.2019
5772 Clouds 10 1035 93 10000 3.1 310 22:58 26.06.2019
5773 Clouds 10 1034 93 10000 2.6 310 22:40 26.06.2019
5774 Clouds 10 1034 93 10000 2.6 310 22:40 26.06.2019
5775 Rain 10 1034 93 10000 2.6 350 22:19 26.06.2019
5776 Rain 10 1034 93 10000 2.1 330 21:42 26.06.2019
5777 Rain 10 1034 93 10000 2.6 280 21:21 26.06.2019
5778 Rain 10 1034 93 10000 2.6 280 20:57 26.06.2019
5779 Rain 10 1034 93 8000 3.1 320 20:38 26.06.2019
5780 Rain 10 1034 93 10000 3.6 340 20:20 26.06.2019
5781 Rain 10 1034 100 10000 3.1 270 19:43 26.06.2019
5782 Rain 10 1034 100 10000 3.6 320 19:25 26.06.2019
5783 Rain 10 1034 93 8000 5.7 30 18:46 26.06.2019
5784 Rain 11 1034 93 10000 3.1 320 18:23 26.06.2019
5785 Rain 10 1034 93 10000 3.6 350 17:58 26.06.2019
5786 Rain 10 1034 93 10000 3.6 350 17:38 26.06.2019
5787 Clouds 10 1034 93 10000 3.1 340 17:19 26.06.2019
5788 Clouds 10 1034 93 10000 2.1 310 16:46 26.06.2019
5789 Rain 10 1034 93 10000 2.6 260 16:23 26.06.2019
5790 Rain 11 1034 93 10000 2.6 270 15:42 26.06.2019
5791 Rain 11 1034 93 10000 3.6 250 15:23 26.06.2019
5792 Rain 11 1034 93 10000 4.1 230 14:38 26.06.2019
5793 Rain 11 1034 93 10000 4.6 220 14:19 26.06.2019
5794 Rain 12 1034 100 10000 4.1 230 13:44 26.06.2019
5795 Rain 12 1035 100 10000 3.1 220 13:20 26.06.2019
5796 Rain 12 1035 93 9000 3.6 210 12:42 26.06.2019
5797 Rain 12 1035 87 8000 4.6 190 12:23 26.06.2019
5798 Rain 12 1034 87 10000 3.1 220 11:51 26.06.2019
5799 Rain 13 1034 93 10000 4.6 170 11:23 26.06.2019
5800 Rain 13 1034 93 10000 5.1 160 10:47 26.06.2019
5801 Rain 13 1034 87 10000 4.6 150 10:28 26.06.2019
5802 Rain 14 1034 82 10000 4.1 190 09:51 26.06.2019
5803 Rain 14 1034 77 10000 6.7 150 09:26 26.06.2019
5804 Clouds 15 1034 82 10000 5.1 180 08:49 26.06.2019
5805 Rain 15 1034 77 10000 6.7 180 08:21 26.06.2019
5806 Rain 15 1034 77 10000 6.7 180 07:55 26.06.2019
5807 Clouds 16 1034 72 10000 7.2 170 07:35 26.06.2019
5808 Rain 17 1034 72 10000 5.7 150 06:32 26.06.2019
5809 Rain 13 1035 93 10000 4.6 200 01:36 26.06.2019
5810 Rain 12 1035 100 10000 1.78 180.611 00:32 26.06.2019
5811 Clouds 11 1035 93 10000 1.78 180.611 23:49 25.06.2019
5812 Clouds 11 1035 93 10000 1.78 180.611 23:31 25.06.2019
5813 Clouds 11 1034 93 10000 1.5 270 22:59 25.06.2019
5814 Clouds 11 1034 93 10000 1.5 270 22:41 25.06.2019
5815 Rain 11 1034 100 10000 1.5 290 22:22 25.06.2019
5816 Rain 11 1034 93 10000 2.1 270 21:46 25.06.2019
5817 Rain 11 1033 93 10000 3.6 250 21:24 25.06.2019
5818 Rain 12 1034 100 10000 2.6 270 20:48 25.06.2019
5819 Rain 12 1034 93 10000 3.1 170 20:24 25.06.2019
5820 Rain 12 1034 93 10000 3.1 170 20:24 25.06.2019
5821 Rain 12 1034 93 10000 3.1 160 19:56 25.06.2019
5822 Rain 12 1034 93 10000 3.1 170 19:56 25.06.2019
5823 Rain 12 1034 93 10000 3.1 160 19:37 25.06.2019
5824 Rain 12 1033 93 10000 3.1 140 19:19 25.06.2019
5825 Rain 12 1033 93 10000 5.7 190 18:41 25.06.2019
5826 Rain 12 1033 93 10000 2.1 190 18:23 25.06.2019
5827 Rain 12 1033 87 9000 2.1 230 17:44 25.06.2019
5828 Rain 13 1033 87 9000 4.1 110 17:24 25.06.2019
5829 Rain 13 1033 87 9000 4.1 110 17:24 25.06.2019
5830 Rain 13 1033 87 9000 4.1 110 17:23 25.06.2019
5831 Rain 13 1033 87 6000 3.6 140 16:44 25.06.2019
5832 Rain 13 1034 100 10000 1.41 154.652 16:25 25.06.2019
5833 Rain 13 1034 87 10000 5.7 140 15:54 25.06.2019
5834 Rain 13 1034 87 10000 5.7 140 15:36 25.06.2019
5835 Rain 13 1034 93 9000 3.6 100 15:18 25.06.2019
5836 Rain 13 1034 82 10000 2.6 220 14:42 25.06.2019
5837 Rain 13 1034 87 10000 2.1 220 14:23 25.06.2019
5838 Rain 13 1033 77 10000 5.7 170 13:42 25.06.2019
5839 Rain 13 1034 93 10000 2.11 152.925 13:21 25.06.2019
5840 Clouds 13 1033 93 10000 2.11 152.925 12:42 25.06.2019
5841 Rain 13 1033 87 10000 2.6 220 12:24 25.06.2019
5842 Clouds 13 1033 87 10000 2.6 220 12:24 25.06.2019
5843 Rain 14 1033 87 10000 2.6 200 11:44 25.06.2019
5844 Rain 14 1033 87 10000 4.1 190 11:23 25.06.2019
5845 Rain 14 1033 87 10000 4.1 190 11:23 25.06.2019
5846 Rain 14 1033 87 10000 4.1 190 10:56 25.06.2019
5847 Rain 14 1033 87 10000 4.1 190 10:36 25.06.2019
5848 Rain 14 1032 82 10000 5.7 160 10:18 25.06.2019
5849 Rain 14 1032 93 10000 4.1 230 09:39 25.06.2019
5850 Rain 15 1032 87 10000 5.1 170 09:21 25.06.2019
5851 Rain 15 1032 87 10000 5.1 170 09:21 25.06.2019
5852 Rain 15 1032 82 10000 6.7 170 08:51 25.06.2019
5853 Rain 15 1032 82 10000 6.7 190 08:31 25.06.2019
5854 Rain 16 1032 82 10000 5.7 180 07:44 25.06.2019
5855 Rain 16 1032 77 10000 6.2 190 07:25 25.06.2019
5856 Rain 16 1032 82 10000 7.7 190 06:44 25.06.2019
5857 Rain 16 1032 82 10000 6.7 190 05:56 25.06.2019
5858 Rain 15 1034 87 10000 4.1 210 02:43 25.06.2019
5859 -273 0 0 0 0 0 00:56 25.06.2019
5860 Clouds 11 1033 93 10000 4.6 210 00:20 25.06.2019
5861 Clouds 11 1033 93 10000 5.7 200 23:51 24.06.2019
5862 Clouds 11 1033 93 10000 5.7 200 23:32 24.06.2019
5863 Rain 11 1032 93 10000 5.7 190 22:48 24.06.2019
5864 Rain 11 1032 93 10000 4.6 220 22:21 24.06.2019
5865 Rain 11 1032 93 10000 4.1 210 21:57 24.06.2019
5866 Clouds 11 1032 100 10000 3.1 220 21:37 24.06.2019
5867 Clouds 11 1032 93 10000 2.6 200 21:18 24.06.2019
5868 Rain 12 1032 93 10000 1 10 20:43 24.06.2019
5869 Rain 11 1032 93 10000 1 10 20:43 24.06.2019
5870 Rain 12 1032 93 10000 4.6 350 20:23 24.06.2019
5871 Rain 12 1032 93 10000 5.7 150 19:58 24.06.2019
5872 Rain 11 1032 93 10000 5.7 150 19:39 24.06.2019
5873 Rain 12 1032 93 10000 5.1 140 19:21 24.06.2019
5874 Rain 11 1032 100 10000 2.53 194.349 18:41 24.06.2019
5875 Rain 11 1032 93 10000 3.1 350 18:20 24.06.2019
5876 Rain 11 1032 100 10000 2.1 240 17:37 24.06.2019
5877 Rain 11 1032 100 10000 2.6 240 17:18 24.06.2019
5878 Rain 11 1032 93 10000 2.1 250 16:45 24.06.2019
5879 Clouds 11 1032 100 10000 1.5 210 16:20 24.06.2019
5880 Clouds 11 1032 100 10000 2.1 240 15:44 24.06.2019
5881 Clouds 11 1032 100 10000 2.1 240 15:44 24.06.2019
5882 Clouds 11 1032 93 10000 2 181.781 15:25 24.06.2019
5883 Rain 11 1032 87 10000 6.2 120 14:39 24.06.2019
5884 Rain 11 1031 87 7000 6.2 180 14:21 24.06.2019
5885 Rain 11 1031 87 8000 6.7 170 13:44 24.06.2019
5886 Rain 11 1031 82 10000 5.1 150 13:23 24.06.2019
5887 Rain 11 1032 100 10000 2.6 230 12:42 24.06.2019
5888 Rain 11 1031 72 10000 4.6 160 12:20 24.06.2019
5889 Rain 11 1031 72 10000 5.7 160 11:45 24.06.2019
5890 Clouds 12 1031 67 10000 5.7 150 11:27 24.06.2019
5891 Clouds 12 1031 100 10000 2.45 170.615 10:53 24.06.2019
5892 Rain 12 1031 72 10000 6.7 160 10:34 24.06.2019
5893 Rain 12 1030 72 10000 5.1 150 09:57 24.06.2019
5894 Rain 12 1030 72 10000 5.1 150 09:57 24.06.2019
5895 Rain 13 1030 67 10000 7.2 160 09:39 24.06.2019
5896 Rain 13 1030 67 10000 7.2 160 09:18 24.06.2019
5897 Rain 14 1030 82 10000 8.2 160 08:36 24.06.2019
5898 Rain 14 1030 87 10000 6.2 200 07:59 24.06.2019
5899 Rain 14 1030 87 10000 6.7 200 07:40 24.06.2019
5900 Rain 14 1030 82 10000 8.2 200 07:21 24.06.2019
5901 Rain 15 1030 82 10000 9.8 190 06:23 24.06.2019
5902 Rain 15 1030 87 10000 10.3 180 05:40 24.06.2019
5903 Rain 15 1030 87 10000 9.3 190 04:43 24.06.2019
5904 Rain 14 1031 82 10000 9.3 190 03:48 24.06.2019
5905 Rain 13 1031 93 10000 5.7 210 02:47 24.06.2019
5906 Rain 12 1030 93 10000 8.7 200 01:55 24.06.2019
5907 Rain 11 1030 93 10000 8.7 200 01:33 24.06.2019
5908 Rain 10 1030 93 8000 7.2 220 00:50 24.06.2019
5909 Rain 10 1030 93 10000 1.5 190 00:20 24.06.2019
5910 Rain 10 1030 93 10000 2.6 150 23:56 23.06.2019
5911 Rain 10 1030 93 10000 2.6 150 23:37 23.06.2019
5912 Rain 10 1029 93 10000 2.6 200 23:18 23.06.2019
5913 Rain 10 1029 100 10000 2.6 220 22:41 23.06.2019
5914 Rain 10 1029 93 10000 3.6 210 22:20 23.06.2019
5915 Rain 10 1029 93 10000 4.1 200 21:42 23.06.2019
5916 Rain 10 1029 93 10000 4.6 210 21:22 23.06.2019
5917 Rain 10 1028 100 10000 3.6 210 20:51 23.06.2019
5918 Rain 10 1028 100 10000 3.6 210 20:31 23.06.2019
5919 Rain 9 1028 93 10000 3.6 230 19:55 23.06.2019
5920 Rain 9 1028 93 10000 3.6 230 19:37 23.06.2019
5921 Rain 9 1029 93 10000 3.6 250 19:19 23.06.2019
5922 Rain 10 1028 93 10000 8.2 220 18:43 23.06.2019
5923 Rain 10 1029 100 6000 0.5 200 18:19 23.06.2019
5924 Rain 10 1028 93 10000 7.7 230 17:41 23.06.2019
5925 Rain 10 1028 100 10000 6.7 240 17:22 23.06.2019
5926 Rain 10 1028 93 9000 6.7 260 16:44 23.06.2019
5927 Rain 10 1028 93 6000 3.6 260 16:25 23.06.2019
5928 Rain 10 1028 93 3000 5.7 330 15:45 23.06.2019
5929 Rain 10 1028 93 5000 9.3 220 15:25 23.06.2019
5930 Rain 10 1028 93 9000 8.7 220 14:59 23.06.2019
5931 Rain 10 1028 93 9000 8.7 220 14:38 23.06.2019
5932 Rain 10 1027 93 5000 9.3 210 14:20 23.06.2019
5933 Rain 10 1027 87 10000 9.3 200 13:42 23.06.2019
5934 Rain 10 1027 87 10000 10.3 210 13:21 23.06.2019
5935 Rain 11 1027 87 10000 10.3 210 12:58 23.06.2019
5936 Rain 11 1027 87 8000 9.3 200 12:39 23.06.2019
5937 Rain 11 1027 81 10000 8.7 210 12:19 23.06.2019
5938 Rain 11 1026 87 10000 9.3 210 11:45 23.06.2019
5939 Rain 11 1026 81 10000 8.7 220 11:25 23.06.2019
5940 Rain 12 1026 81 10000 9.8 210 10:48 23.06.2019
5941 Rain 12 1026 81 10000 8.7 210 10:21 23.06.2019
5942 Rain 12 1026 76 10000 8.7 210 09:57 23.06.2019
5943 Rain 12 1026 87 10000 10.3 200 09:22 23.06.2019
5944 Rain 13 1025 71 10000 11.3 190 08:47 23.06.2019
5945 Clouds 14 1025 71 10000 8.7 200 08:28 23.06.2019
5946 Clouds 14 1025 71 10000 9.3 200 07:57 23.06.2019
5947 Clouds 14 1025 71 10000 9.3 200 07:39 23.06.2019
5948 Clouds 15 1025 72 10000 10.8 190 07:18 23.06.2019
5949 Clouds 15 1025 67 10000 10.3 190 06:46 23.06.2019
5950 Clouds 15 1025 67 10000 8.7 200 05:44 23.06.2019
5951 Clouds 14 1027 76 10000 9.8 210 02:51 23.06.2019
5952 Clouds 11 1026 76 10000 10.3 200 01:39 23.06.2019
5953 Clouds 10 1026 81 10000 8.2 210 01:20 23.06.2019
5954 Rain 9 1026 87 10000 8.7 210 00:31 23.06.2019
5955 Clouds 7 1027 77 0 2.68 267 23:47 22.06.2019
5956 Clouds 7 1027 77 0 3.13 305 23:26 22.06.2019
5957 Clouds 7 1026 75 0 1.79 267 22:47 22.06.2019
5958 Clouds 7 1018 77 0 0.45 182 22:27 22.06.2019
5959 Clouds 6 1025 81 10000 5.1 260 21:56 22.06.2019
5960 Clouds 6 1025 81 10000 5.1 260 21:36 22.06.2019
5961 Clouds 7 1025 75 10000 5.7 250 21:18 22.06.2019
5962 Clouds 7 1025 75 10000 4.6 270 20:43 22.06.2019
5963 Clouds 7 1025 75 10000 7.7 210 20:24 22.06.2019
5964 Rain 7 1026 93 10000 2.97 226.267 19:41 22.06.2019
5965 Clouds 7 1025 75 10000 4.6 250 19:20 22.06.2019
5966 Clouds 7 1025 75 10000 4.6 250 18:43 22.06.2019
5967 Clouds 7 1025 71 10000 7.7 210 18:23 22.06.2019
5968 Clouds 8 1025 76 10000 7.2 210 17:46 22.06.2019
5969 Clouds 8 1025 76 10000 7.2 210 17:26 22.06.2019
5970 Clouds 8 1025 76 10000 4.6 260 16:46 22.06.2019
5971 Clouds 8 1025 76 10000 8.2 210 16:24 22.06.2019
5972 Clouds 8 1026 93 10000 2.86 234.204 15:46 22.06.2019
5973 Clouds 9 1026 93 10000 2.86 234.204 15:27 22.06.2019
5974 Clouds 9 1025 76 10000 8.7 200 14:52 22.06.2019
5975 Clouds 9 1025 76 10000 8.7 200 14:32 22.06.2019
5976 Rain 9 1025 66 10000 2.6 270 13:58 22.06.2019
5977 Rain 10 1025 66 10000 2.6 270 13:39 22.06.2019
5978 Rain 10 1026 66 10000 3.6 260 13:19 22.06.2019
5979 Rain 10 1026 66 10000 3.1 260 12:45 22.06.2019
5980 Rain 10 1025 71 10000 5.1 240 12:26 22.06.2019
5981 Rain 11 1025 66 10000 4.6 250 11:46 22.06.2019
5982 Rain 11 1026 71 10000 3.6 240 11:27 22.06.2019
5983 Rain 12 1025 81 10000 4.6 250 10:47 22.06.2019
5984 Rain 12 1025 76 10000 8.2 190 10:19 22.06.2019
5985 Rain 13 1025 82 10000 8.7 200 09:37 22.06.2019
5986 Rain 13 1025 62 10000 8.7 210 08:56 22.06.2019
5987 Rain 13 1025 62 10000 8.7 210 08:37 22.06.2019
5988 Rain 14 1025 71 10000 8.2 190 07:56 22.06.2019
5989 Rain 14 1024 67 10000 9.3 210 07:30 22.06.2019
5990 Clouds 14 1025 67 10000 9.8 210 06:46 22.06.2019
5991 Rain 14 1025 62 10000 10.3 210 04:38 22.06.2019
5992 Clouds 12 1026 62 10000 10.3 200 02:31 22.06.2019
5993 Clouds 9 1025 65 10000 7.2 270 00:59 22.06.2019
5994 Clouds 8 1025 65 10000 7.2 270 00:35 22.06.2019
5995 Rain 8 1025 65 10000 8.7 270 23:59 21.06.2019
5996 Clouds 7 1025 65 10000 7.7 270 23:37 21.06.2019
5997 Clouds 7 1025 61 10000 8.7 260 23:19 21.06.2019
5998 Clouds 7 1024 65 10000 8.2 270 22:41 21.06.2019
5999 Rain 7 1024 65 10000 8.7 260 22:22 21.06.2019
6000 Clouds 6 1024 70 10000 7.7 270 21:40 21.06.2019
6001 Rain 6 1024 65 10000 7.7 270 21:22 21.06.2019
6002 Rain 6 1024 65 10000 5.7 270 20:49 21.06.2019
6003 Clouds 6 1024 65 10000 6.2 270 20:27 21.06.2019
6004 Clouds 6 1024 65 10000 7.7 270 19:55 21.06.2019
6005 Clouds 6 1024 70 10000 7.7 260 19:23 21.06.2019
6006 Clouds 6 1024 65 10000 7.2 270 18:46 21.06.2019
6007 Clouds 6 1024 65 10000 7.2 260 18:28 21.06.2019
6008 Clouds 7 1024 65 10000 7.7 250 17:45 21.06.2019
6009 Clouds 7 1025 70 10000 6.7 260 17:27 21.06.2019
6010 Clouds 6 1025 70 10000 7.2 250 16:38 21.06.2019
6011 Clouds 7 1025 61 10000 6.7 250 16:19 21.06.2019
6012 Clouds 7 1025 50 10000 8.2 240 15:39 21.06.2019
6013 Clouds 7 1025 57 10000 7.7 230 15:19 21.06.2019
6014 Clouds 8 1025 54 10000 7.7 230 14:45 21.06.2019
6015 Clouds 8 1025 54 10000 7.2 230 14:25 21.06.2019
6016 Clouds 8 1025 58 10000 6.7 230 13:46 21.06.2019
6017 Clouds 8 1024 58 10000 7.2 230 13:27 21.06.2019
6018 Clouds 9 1024 58 10000 7.7 230 12:54 21.06.2019
6019 Clouds 9 1024 54 10000 7.2 230 12:24 21.06.2019
6020 Rain 9 1024 54 10000 7.2 220 11:59 21.06.2019
6021 Rain 9 1024 54 10000 7.2 220 11:40 21.06.2019
6022 Rain 9 1024 54 10000 5.7 210 11:22 21.06.2019
6023 Clouds 10 1023 54 10000 7.2 220 10:48 21.06.2019
6024 Rain 10 1023 54 10000 6.7 240 10:21 21.06.2019
6025 Clouds 11 1023 50 10000 7.2 230 09:55 21.06.2019
6026 Rain 12 1023 50 10000 7.2 230 09:37 21.06.2019
6027 Rain 12 1023 54 10000 7.7 230 09:18 21.06.2019
6028 Rain 13 1022 54 10000 9.3 210 08:42 21.06.2019
6029 Clouds 13 1022 54 10000 8.7 210 08:21 21.06.2019
6030 Clouds 14 1022 54 10000 9.3 200 07:46 21.06.2019
6031 Clouds 14 1022 50 10000 7.2 220 07:26 21.06.2019
6032 Clouds 15 1022 54 10000 8.7 210 06:51 21.06.2019
6033 Clouds 14 1022 50 10000 7.7 210 06:19 21.06.2019
6034 Clouds 14 1022 44 10000 7.7 220 04:58 21.06.2019
6035 Clouds 13 1023 44 10000 7.7 210 03:58 21.06.2019
6036 Clouds 12 1023 47 10000 3.6 290 03:32 21.06.2019
6037 Clouds 11 1023 53 10000 7.7 210 02:47 21.06.2019
6038 Clouds 8 1023 61 10000 4.6 270 01:38 21.06.2019
6039 Clouds 8 1022 65 10000 6.7 270 00:53 21.06.2019
6040 Clouds 7 1022 65 10000 6.7 270 00:19 21.06.2019
6041 Clouds 6 1022 65 10000 7.2 270 23:44 20.06.2019
6042 Clouds 6 1021 65 10000 8.2 260 23:22 20.06.2019
6043 Clouds 6 1021 65 10000 8.2 260 22:56 20.06.2019
6044 Clouds 6 1021 65 10000 6.7 260 22:38 20.06.2019
6045 Clouds 6 1021 66 10000 6.7 260 22:19 20.06.2019
6046 Clouds 7 1021 66 10000 6.2 260 21:44 20.06.2019
6047 Clouds 7 1021 70 10000 6.7 260 21:19 20.06.2019
6048 Clouds 7 1021 81 10000 6.2 270 20:48 20.06.2019
6049 Clouds 7 1021 81 10000 6.2 270 20:27 20.06.2019
6050 Clouds 7 1021 81 10000 5.1 300 19:58 20.06.2019
6051 Clouds 7 1021 81 10000 5.1 300 19:39 20.06.2019
6052 Clouds 7 1021 81 10000 4.6 250 19:18 20.06.2019
6053 Rain 7 1021 87 10000 4.1 240 18:43 20.06.2019
6054 Rain 7 1021 81 10000 3.1 270 18:23 20.06.2019
6055 Rain 8 1021 76 10000 2.1 230 17:55 20.06.2019
6056 Rain 8 1021 76 10000 2.1 230 17:37 20.06.2019
6057 Clouds 8 1021 76 10000 3.1 290 16:57 20.06.2019
6058 Clouds 8 1021 76 10000 3.1 290 16:39 20.06.2019
6059 Clouds 8 1021 76 10000 2.6 280 16:18 20.06.2019
6060 Clouds 8 1022 76 10000 2.6 320 15:42 20.06.2019
6061 Clouds 8 1022 76 10000 2.6 320 15:42 20.06.2019
6062 Clouds 8 1022 83 0 2.68 340 15:22 20.06.2019
6063 Clear 8 1022 71 10000 2.6 310 14:50 20.06.2019
6064 Clouds 8 1022 93 10000 1.92 225.846 14:24 20.06.2019
6065 Clouds 8 1022 93 10000 1.92 225.846 13:56 20.06.2019
6066 Clear 8 1022 66 10000 2.6 310 13:37 20.06.2019
6067 Clear 9 1022 66 10000 3.1 270 13:18 20.06.2019
6068 Clear 9 1022 71 10000 3.6 260 12:40 20.06.2019
6069 Clear 9 1022 66 10000 3.6 250 12:19 20.06.2019
6070 Clouds 10 1022 81 10000 1.5 250 11:40 20.06.2019
6071 Clouds 10 1022 81 10000 1.74 214.265 11:22 20.06.2019
6072 Clear 10 1021 66 10000 2.6 130 10:43 20.06.2019
6073 Clear 10 1021 66 10000 2.6 130 10:23 20.06.2019
6074 Clouds 12 1021 62 10000 3.1 210 09:46 20.06.2019
6075 Clouds 12 1021 62 10000 4.1 200 09:24 20.06.2019
6076 Clouds 13 1022 62 10000 4.1 210 08:58 20.06.2019
6077 Clouds 13 1022 62 10000 4.1 210 08:40 20.06.2019
6078 Clouds 14 1022 62 10000 3.6 190 08:19 20.06.2019
6079 Clouds 14 1021 62 10000 4.6 180 07:42 20.06.2019
6080 Clouds 14 1021 58 10000 4.6 190 07:23 20.06.2019
6081 Clouds 15 1022 62 10000 5.1 180 06:19 20.06.2019
6082 Clouds 14 1024 54 10000 2.6 290 03:40 20.06.2019
6083 Clouds 10 1024 62 10000 3.1 300 01:56 20.06.2019
6084 Clouds 7 1024 70 10000 4.6 310 00:33 20.06.2019
6085 Clouds 6 1024 75 10000 3.6 330 23:45 19.06.2019
6086 Clouds 6 1024 75 10000 4.6 320 23:27 19.06.2019
6087 Clouds 5 1024 81 10000 4.6 340 22:49 19.06.2019
6088 Clouds 6 1024 81 10000 2.6 330 22:24 19.06.2019
6089 Clouds 5 1024 81 10000 2.6 330 21:58 19.06.2019
6090 Clouds 6 1023 81 10000 4.1 330 21:38 19.06.2019
6091 Clouds 5 1023 75 10000 3.6 330 21:19 19.06.2019
6092 Clouds 5 1023 75 10000 3.6 320 20:41 19.06.2019
6093 Clouds 5 1023 75 10000 4.1 310 20:21 19.06.2019
6094 Clouds 6 1023 81 10000 3.1 310 19:46 19.06.2019
6095 Clouds 6 1023 81 10000 3.1 330 19:26 19.06.2019
6096 Clouds 5 1023 81 10000 3.6 320 18:56 19.06.2019
6097 Clouds 6 1023 75 10000 4.1 340 18:24 19.06.2019
6098 Clouds 6 1023 75 10000 3.6 330 17:48 19.06.2019
6099 Clouds 6 1023 75 10000 4.1 320 17:27 19.06.2019
6100 Clouds 6 1023 70 10000 3.6 350 16:56 19.06.2019
6101 Clouds 6 1023 70 10000 3.6 350 16:37 19.06.2019
6102 Clouds 6 1023 71 10000 3.1 320 16:19 19.06.2019
6103 Clouds 7 1023 71 10000 4.6 320 15:45 19.06.2019
6104 Clear 7 1024 100 10000 2.2 241.381 15:24 19.06.2019
6105 Clear 7 1024 100 10000 2.2 241.381 15:24 19.06.2019
6106 Clear 7 1024 93 10000 2.2 241.381 14:48 19.06.2019
6107 Clear 7 1024 93 10000 2.2 241.381 14:29 19.06.2019
6108 Clear 7 1024 86 10000 1.5 230 13:55 19.06.2019
6109 Clear 7 1024 86 10000 1.5 230 13:37 19.06.2019
6110 Clouds 8 1023 66 10000 5.1 220 13:19 19.06.2019
6111 Clear 8 1024 81 10000 2.1 260 12:42 19.06.2019
6112 Clear 8 1023 81 10000 2.6 250 12:20 19.06.2019
6113 Clear 9 1023 81 10000 2.1 320 11:43 19.06.2019
6114 Clear 9 1023 81 10000 2.1 320 11:24 19.06.2019
6115 Clear 9 1022 66 10000 3.1 140 10:51 19.06.2019
6116 Clouds 11 1022 50 10000 7.2 170 10:32 19.06.2019
6117 Clouds 11 1022 50 10000 7.2 170 09:59 19.06.2019
6118 Clouds 12 1022 50 10000 6.7 180 09:39 19.06.2019
6119 Clouds 13 1021 54 10000 7.2 190 09:19 19.06.2019
6120 Clouds 14 1021 51 10000 7.7 190 08:48 19.06.2019
6121 Clouds 14 1021 51 10000 7.7 190 08:28 19.06.2019
6122 Clouds 15 1021 54 10000 7.2 180 07:47 19.06.2019
6123 Clouds 15 1021 51 10000 7.2 180 07:23 19.06.2019
6124 Clouds 16 1020 54 10000 7.7 180 06:49 19.06.2019
6125 Clouds 16 1020 58 10000 8.2 180 06:24 19.06.2019
6126 Clouds 16 1021 58 10000 7.2 190 05:48 19.06.2019
6127 Clouds 16 1021 58 10000 6.7 210 04:19 19.06.2019
6128 Clouds 14 1022 54 10000 5.7 260 03:27 19.06.2019
6129 Clouds 12 1021 62 10000 6.7 260 01:49 19.06.2019
6130 Clouds 11 1021 62 10000 8.2 260 01:18 19.06.2019
6131 Clouds 9 1021 66 10000 5.7 270 00:43 19.06.2019
6132 Clouds 8 1020 71 10000 6.7 280 00:20 19.06.2019
6133 Clouds 7 1020 71 10000 6.7 280 23:52 18.06.2019
6134 Clouds 7 1020 71 10000 5.1 280 23:27 18.06.2019
6135 Clouds 7 1019 76 10000 4.6 300 22:46 18.06.2019
6136 Clouds 7 1019 76 10000 3.6 230 22:24 18.06.2019
6137 Clouds 7 1019 76 10000 3.6 230 21:57 18.06.2019
6138 Clouds 8 1018 76 10000 6.2 270 21:39 18.06.2019
6139 Clear 8 1018 71 10000 6.7 280 21:20 18.06.2019
6140 Clear 8 1018 71 10000 7.2 280 20:43 18.06.2019
6141 Clear 8 1018 71 10000 7.2 290 20:25 18.06.2019
6142 Clear 8 1018 71 10000 7.2 280 19:42 18.06.2019
6143 Clear 9 1018 71 10000 6.2 270 19:24 18.06.2019
6144 Clear 9 1018 71 10000 6.2 270 18:59 18.06.2019
6145 Clear 9 1018 71 10000 6.2 270 18:39 18.06.2019
6146 Clear 9 1018 71 10000 4.1 270 18:20 18.06.2019
6147 Clear 10 1019 71 10000 5.7 260 17:39 18.06.2019
6148 Clear 10 1018 66 10000 3.1 270 17:20 18.06.2019
6149 Clear 10 1018 66 10000 3.1 270 16:46 18.06.2019
6150 -273 0 0 0 0 0 16:27 18.06.2019
6151 Clear 11 1019 62 10000 4.6 260 15:55 18.06.2019
6152 Clear 12 1019 62 10000 4.6 260 15:36 18.06.2019
6153 Clear 12 1019 62 10000 4.6 260 15:36 18.06.2019
6154 Clear 12 1019 62 10000 5.1 270 15:18 18.06.2019
6155 Clouds 12 1019 62 10000 5.7 250 14:42 18.06.2019
6156 Clouds 13 1018 67 10000 5.7 240 14:22 18.06.2019
6157 Clouds 13 1018 62 10000 4.6 250 13:53 18.06.2019
6158 Clouds 14 1018 62 10000 4.6 250 13:32 18.06.2019
6159 Clouds 14 1018 63 10000 5.1 270 12:59 18.06.2019
6160 Clouds 14 1018 63 10000 5.1 270 12:41 18.06.2019
6161 Clouds 14 1018 100 10000 0.5 350 12:23 18.06.2019
6162 Clouds 14 1018 67 10000 4.1 260 11:42 18.06.2019
6163 Clouds 14 1018 93 10000 0.5 280 11:21 18.06.2019
6164 Rain 14 1017 72 10000 2.6 270 10:57 18.06.2019
6165 Rain 14 1017 72 10000 2.6 270 10:37 18.06.2019
6166 Clouds 15 1017 100 5000 2.87 219.959 10:18 18.06.2019
6167 Rain 15 1017 67 10000 2.1 280 09:39 18.06.2019
6168 Rain 16 1017 67 10000 3.6 240 09:18 18.06.2019
6169 Rain 16 1016 72 10000 3.1 220 08:43 18.06.2019
6170 Rain 16 1016 72 10000 3.1 220 08:43 18.06.2019
6171 Rain 17 1016 72 10000 4.6 220 08:21 18.06.2019
6172 Clouds 17 1016 82 10000 2.6 170 07:40 18.06.2019
6173 Clouds 17 1016 68 10000 3.1 210 07:20 18.06.2019
6174 Clouds 18 1016 63 10000 4.1 250 06:33 18.06.2019
6175 Clouds 18 1017 72 10000 2.6 220 05:20 18.06.2019
6176 Rain 15 1020 93 8000 3.6 290 02:53 18.06.2019
6177 Rain 14 1019 82 10000 4.1 310 01:55 18.06.2019
6178 Rain 13 1019 82 10000 3.6 330 01:25 18.06.2019
6179 Rain 12 1019 82 10000 3.6 330 00:55 18.06.2019
6180 Rain 11 1019 87 10000 3.6 310 00:27 18.06.2019
6181 Rain 11 1019 87 10000 3.1 300 23:41 17.06.2019
6182 Rain 11 1019 87 10000 3.6 290 23:20 17.06.2019
6183 Rain 11 1019 87 10000 3.1 300 22:56 17.06.2019
6184 Rain 11 1019 87 10000 3.1 300 22:38 17.06.2019
6185 Rain 11 1019 93 10000 3.1 320 22:20 17.06.2019
6186 Rain 11 1018 87 10000 3.6 310 21:42 17.06.2019
6187 Clouds 11 1019 87 10000 3.1 300 21:21 17.06.2019
6188 Rain 11 1019 87 10000 3.1 270 20:38 17.06.2019
6189 Rain 11 1019 87 10000 4.6 280 20:20 17.06.2019
6190 Rain 12 1019 87 10000 3.1 310 19:54 17.06.2019
6191 Rain 12 1019 87 10000 3.1 310 19:36 17.06.2019
6192 Rain 12 1019 87 10000 3.6 300 19:18 17.06.2019
6193 Rain 12 1019 87 10000 3.6 310 18:38 17.06.2019
6194 Rain 12 1019 87 10000 3.1 280 18:18 17.06.2019
6195 Rain 12 1019 87 10000 3.1 280 17:48 17.06.2019
6196 Rain 12 1019 87 10000 3.1 280 17:29 17.06.2019
6197 Rain 12 1019 93 10000 4.1 270 16:56 17.06.2019
6198 Rain 12 1020 87 10000 3.6 30 16:38 17.06.2019
6199 Rain 12 1020 87 10000 3.6 300 16:20 17.06.2019
6200 Rain 12 1020 87 10000 3.6 300 15:43 17.06.2019
6201 Rain 12 1020 87 10000 4.1 270 15:20 17.06.2019
6202 Rain 12 1020 87 10000 4.6 280 14:56 17.06.2019
6203 Rain 12 1020 87 10000 4.6 280 14:37 17.06.2019
6204 Rain 12 1021 82 10000 4.1 250 14:18 17.06.2019
6205 Rain 12 1020 82 10000 4.6 250 13:40 17.06.2019
6206 Rain 12 1020 82 10000 5.7 240 13:20 17.06.2019
6207 Rain 12 1020 87 10000 6.7 210 12:42 17.06.2019
6208 Rain 13 1020 82 10000 8.2 200 12:21 17.06.2019
6209 Rain 13 1020 87 10000 7.7 210 11:43 17.06.2019
6210 Clouds 13 1020 82 10000 2.1 190 11:25 17.06.2019
6211 Rain 13 1020 82 10000 7.2 210 10:48 17.06.2019
6212 Rain 13 1020 82 10000 7.2 210 10:48 17.06.2019
6213 Rain 13 1020 82 10000 7.2 210 10:29 17.06.2019
6214 Rain 13 1019 82 10000 6.7 190 09:57 17.06.2019
6215 Rain 13 1019 82 10000 9.8 200 09:39 17.06.2019
6216 Rain 14 1019 87 10000 6.7 190 09:20 17.06.2019
6217 Rain 14 1019 87 10000 10.3 210 08:39 17.06.2019
6218 Rain 14 1019 87 9000 6.7 190 08:21 17.06.2019
6219 Rain 14 1018 87 10000 6.7 190 07:40 17.06.2019
6220 Rain 14 1018 93 9000 9.8 210 07:20 17.06.2019
6221 Rain 14 1018 93 4000 5.1 220 06:29 17.06.2019
6222 Rain 14 1018 93 4000 9.3 210 05:42 17.06.2019
6223 Rain 15 1019 87 4000 8.7 190 04:33 17.06.2019
6224 Rain 14 1019 87 10000 10.8 210 03:33 17.06.2019
6225 Rain 14 1019 87 10000 9.3 220 02:50 17.06.2019
6226 Rain 14 1020 87 10000 8.7 220 02:32 17.06.2019
6227 Rain 13 1019 93 10000 8.7 210 01:41 17.06.2019
6228 Rain 12 1019 93 10000 6.7 230 00:59 17.06.2019
6229 Rain 12 1019 87 10000 5.7 260 00:41 17.06.2019
6230 Rain 11 1019 93 10000 5.1 250 00:21 17.06.2019
6231 Rain 11 1019 93 10000 5.1 210 23:40 16.06.2019
6232 Rain 11 1019 93 10000 5.1 210 23:21 16.06.2019
6233 Rain 11 1019 82 10000 6.7 230 22:47 16.06.2019
6234 Rain 11 1018 82 10000 8.2 220 22:21 16.06.2019
6235 Rain 11 1018 82 10000 8.2 220 21:59 16.06.2019
6236 Clouds 11 1019 87 10000 2.6 240 21:40 16.06.2019
6237 Clouds 11 1019 87 10000 2.6 240 21:40 16.06.2019
6238 Rain 11 1018 82 10000 7.7 210 21:22 16.06.2019
6239 Rain 11 1018 82 10000 4.6 250 20:58 16.06.2019
6240 Rain 11 1018 82 10000 4.6 250 20:37 16.06.2019
6241 Rain 12 1018 82 10000 6.7 220 20:18 16.06.2019
6242 Clouds 12 1019 87 10000 3.6 220 19:41 16.06.2019
6243 Clouds 12 1019 87 10000 3.1 220 19:22 16.06.2019
6244 Rain 11 1019 87 10000 7.7 220 18:58 16.06.2019
6245 Rain 11 1019 87 10000 7.7 220 18:40 16.06.2019
6246 Clouds 11 1019 87 10000 2.6 210 18:20 16.06.2019
6247 Clouds 11 1019 93 10000 2.88 212.873 17:48 16.06.2019
6248 Clouds 11 1019 93 10000 4.6 250 17:22 16.06.2019
6249 Clouds 11 1019 93 10000 6.2 220 16:57 16.06.2019
6250 Clouds 11 1019 93 10000 6.2 220 16:39 16.06.2019
6251 Rain 11 1019 93 10000 5.7 220 16:21 16.06.2019
6252 Clouds 11 1020 87 10000 2.6 230 15:44 16.06.2019
6253 Clouds 11 1020 87 10000 2.6 230 15:24 16.06.2019
6254 Rain 11 1019 93 10000 6.2 220 14:45 16.06.2019
6255 Clouds 11 1020 93 10000 3.6 220 14:24 16.06.2019
6256 Clouds 12 1020 87 10000 4.6 210 13:56 16.06.2019
6257 Clouds 12 1020 87 10000 4.6 210 13:56 16.06.2019
6258 Clouds 12 1020 87 10000 4.6 210 13:38 16.06.2019
6259 Clouds 12 1020 100 10000 3.6 230 13:20 16.06.2019
6260 Clouds 12 1020 100 10000 2.6 240 12:41 16.06.2019
6261 Clouds 12 1020 100 10000 2.6 250 12:20 16.06.2019
6262 Rain 12 1019 87 10000 4.1 250 11:48 16.06.2019
6263 Rain 12 1019 87 10000 4.6 260 11:21 16.06.2019
6264 Clouds 13 1019 93 10000 3.1 230 10:59 16.06.2019
6265 Clouds 13 1019 93 10000 3.1 230 10:41 16.06.2019
6266 Clouds 13 1019 93 10000 3.1 220 10:18 16.06.2019
6267 Clouds 13 1019 87 10000 2.6 220 09:41 16.06.2019
6268 Clouds 13 1019 87 10000 3.6 200 09:23 16.06.2019
6269 Rain 14 1018 87 10000 4.6 170 08:42 16.06.2019
6270 Clouds 14 1018 87 10000 4.6 170 08:19 16.06.2019
6271 Clouds 14 1018 87 10000 4.6 170 08:19 16.06.2019
6272 Clouds 14 1018 82 10000 4.1 120 07:44 16.06.2019
6273 Clouds 14 1019 93 10000 6.7 150 07:20 16.06.2019
6274 Clouds 15 1019 87 10000 5.1 130 06:49 16.06.2019
6275 Rain 15 1018 87 10000 5.7 160 05:53 16.06.2019
6276 Rain 14 1020 93 10000 4.1 110 05:19 16.06.2019
6277 Rain 14 1020 93 1000 3.1 30 04:00 16.06.2019
6278 Rain 14 1020 93 4000 4.1 20 03:38 16.06.2019
6279 Rain 13 1020 93 4000 7.2 180 03:18 16.06.2019
6280 Rain 13 1021 100 10000 7.2 210 01:48 16.06.2019
6281 Rain 12 1021 93 10000 4.1 230 01:28 16.06.2019
6282 Rain 12 1021 100 10000 1.32 227.158 00:43 16.06.2019
6283 Rain 12 1021 100 7000 2.6 330 00:23 16.06.2019
6284 Rain 12 1021 100 5000 3.6 220 23:56 15.06.2019
6285 Rain 12 1021 100 5000 3.6 220 23:38 15.06.2019
6286 Rain 12 1020 93 8000 4.1 230 23:19 15.06.2019
6287 Rain 11 1020 100 6000 1 130 22:43 15.06.2019
6288 Rain 11 1020 100 5000 2.6 320 22:25 15.06.2019
6289 Rain 11 1020 100 5000 5.1 350 21:44 15.06.2019
6290 Rain 11 1020 100 7000 3.1 240 21:21 15.06.2019
6291 Rain 11 1020 100 8000 3.6 350 20:45 15.06.2019
6292 Rain 11 1020 93 10000 3.1 280 20:23 15.06.2019
6293 Rain 11 1020 93 6000 3.1 250 19:50 15.06.2019
6294 Rain 11 1021 93 10000 5.1 310 19:28 15.06.2019
6295 Rain 12 1021 93 10000 3.1 310 18:45 15.06.2019
6296 Rain 12 1021 93 10000 2.1 227.147 18:26 15.06.2019
6297 Rain 12 1021 93 10000 2.1 227.147 17:58 15.06.2019
6298 Rain 12 1021 93 6000 3.6 260 17:40 15.06.2019
6299 Rain 12 1021 93 10000 4.6 240 17:21 15.06.2019
6300 Rain 12 1021 87 10000 5.1 220 16:43 15.06.2019
6301 Rain 12 1021 93 10000 5.1 240 16:18 15.06.2019
6302 Rain 12 1021 87 10000 5.7 200 15:41 15.06.2019
6303 Rain 12 1021 87 8000 5.1 190 15:21 15.06.2019
6304 Rain 13 1021 93 10000 4.6 230 14:38 15.06.2019
6305 Rain 13 1021 93 10000 4.6 230 14:18 15.06.2019
6306 Rain 13 1021 87 10000 6.2 190 13:44 15.06.2019
6307 Rain 12 1021 93 9000 8.2 170 13:21 15.06.2019
6308 Rain 12 1021 93 9000 8.2 170 12:59 15.06.2019
6309 Rain 13 1021 87 10000 3.1 270 12:40 15.06.2019
6310 Rain 13 1021 87 10000 3.1 310 12:21 15.06.2019
6311 Rain 13 1021 87 10000 2.6 20 11:45 15.06.2019
6312 Rain 13 1021 87 10000 2.6 20 11:27 15.06.2019
6313 Rain 13 1020 87 10000 2.6 50 10:43 15.06.2019
6314 Rain 13 1020 82 3000 4.1 180 10:25 15.06.2019
6315 Rain 14 1019 77 10000 3.6 220 09:48 15.06.2019
6316 Rain 15 1019 67 10000 4.6 200 09:26 15.06.2019
6317 Clouds 16 1019 63 10000 4.6 190 08:54 15.06.2019
6318 Clouds 16 1019 63 10000 4.6 190 08:54 15.06.2019
6319 Clouds 17 1019 63 10000 4.6 190 08:34 15.06.2019
6320 Clouds 18 1019 59 10000 4.1 180 07:58 15.06.2019
6321 Clouds 18 1019 42 10000 2.6 90 07:25 15.06.2019
6322 Clouds 18 1019 52 10000 3.1 160 06:48 15.06.2019
6323 Clouds 19 1019 45 10000 1.5 210 06:22 15.06.2019
6324 Clouds 18 1019 42 10000 2.1 180 05:37 15.06.2019
6325 Clouds 18 1020 51 10000 4.1 210 04:49 15.06.2019
6326 Clouds 17 1021 48 10000 4.1 210 03:50 15.06.2019
6327 Clouds 16 1021 51 10000 4.1 210 03:21 15.06.2019
6328 Clouds 14 1021 62 10000 4.1 210 02:30 15.06.2019
6329 Clouds 13 1021 62 10000 4.6 300 01:53 15.06.2019
6330 Clouds 12 1021 66 10000 4.6 300 01:19 15.06.2019
6331 Clouds 10 1020 66 10000 4.1 300 00:40 15.06.2019
6332 Clouds 8 1020 71 10000 5.1 310 00:20 15.06.2019
6333 Clouds 7 1020 76 10000 4.1 320 23:42 14.06.2019
6334 Clouds 6 1020 76 10000 4.1 310 23:19 14.06.2019
6335 Clear 7 1019 76 10000 4.6 310 22:41 14.06.2019
6336 Clear 6 1019 76 10000 4.6 310 22:21 14.06.2019
6337 Clear 7 1019 76 10000 3.6 350 21:48 14.06.2019
6338 Clear 7 1019 71 10000 3.6 340 21:28 14.06.2019
6339 Clear 7 1019 71 10000 3.1 350 20:55 14.06.2019
6340 Clear 7 1019 71 10000 3.1 350 20:36 14.06.2019
6341 Clear 7 1019 71 10000 3.6 340 20:18 14.06.2019
6342 Clear 7 1019 70 10000 3.1 320 19:39 14.06.2019
6343 Clear 8 1019 71 10000 3.6 340 19:21 14.06.2019
6344 Clear 8 1019 93 2800 1.5 40 18:54 14.06.2019
6345 Clear 8 1019 93 2800 1.5 40 18:36 14.06.2019
6346 Clear 8 1019 71 10000 2.6 310 18:18 14.06.2019
6347 Clear 8 1019 66 10000 3.6 300 17:44 14.06.2019
6348 Clear 8 1019 62 10000 4.6 290 17:23 14.06.2019
6349 Clear 8 1019 62 10000 4.6 290 17:23 14.06.2019
6350 Clear 8 1019 62 10000 4.6 310 16:48 14.06.2019
6351 Clear 9 1019 62 10000 4.6 280 16:24 14.06.2019
6352 Clear 9 1019 62 10000 4.6 280 16:24 14.06.2019
6353 Clear 9 1020 62 10000 4.1 270 15:59 14.06.2019
6354 Clear 9 1020 62 10000 4.1 270 15:39 14.06.2019
6355 Clear 9 1020 58 10000 3.6 270 15:19 14.06.2019
6356 Clear 9 1020 58 10000 4.1 260 14:46 14.06.2019
6357 Clear 10 1020 54 10000 3.6 290 14:27 14.06.2019
6358 Clouds 10 1020 87 10000 3.45 240.354 13:46 14.06.2019
6359 Clear 10 1020 54 10000 4.6 260 13:28 14.06.2019
6360 Clouds 10 1020 87 10000 3.45 240.354 12:57 14.06.2019
6361 Clouds 11 1019 58 10000 3.6 250 12:39 14.06.2019
6362 Clear 11 1019 62 10000 4.1 250 12:20 14.06.2019
6363 Clouds 11 1019 81 10000 1.5 190 11:42 14.06.2019
6364 Clouds 11 1019 81 10000 1.5 190 11:42 14.06.2019
6365 Clouds 11 1019 81 10000 1.5 190 11:42 14.06.2019
6366 Clouds 11 1019 81 10000 1.5 190 11:42 14.06.2019
6367 Clear 12 1018 58 10000 3.1 230 11:23 14.06.2019
6368 Clouds 12 1018 71 10000 0.5 360 10:47 14.06.2019
6369 Clouds 13 1018 45 10000 2.1 250 10:21 14.06.2019
6370 Clouds 14 1018 45 10000 2.1 250 09:55 14.06.2019
6371 Clouds 15 1017 42 10000 2.6 280 09:34 14.06.2019
6372 Clouds 16 1017 32 10000 3.1 290 08:49 14.06.2019
6373 Clouds 17 1017 48 10000 2.1 120 08:21 14.06.2019
6374 Clouds 17 1017 48 10000 2.1 120 08:21 14.06.2019
6375 Clouds 18 1017 39 10000 4.1 260 07:57 14.06.2019
6376 Clouds 18 1017 39 10000 4.1 260 07:39 14.06.2019
6377 Clouds 18 1017 37 10000 3.6 280 07:18 14.06.2019
6378 Clouds 18 1017 37 10000 4.1 290 06:20 14.06.2019
6379 Clouds 18 1018 39 10000 4.6 280 05:47 14.06.2019
6380 Clouds 17 1018 42 10000 4.1 300 04:55 14.06.2019
6381 Clouds 17 1019 42 10000 4.6 290 04:27 14.06.2019
6382 Clouds 16 1019 45 10000 5.7 280 03:41 14.06.2019
6383 Clouds 15 1019 48 10000 5.7 270 03:22 14.06.2019
6384 Clouds 14 1019 51 10000 6.2 270 02:36 14.06.2019
6385 Clouds 13 1020 54 10000 6.7 290 01:53 14.06.2019
6386 Clouds 11 1019 58 10000 6.2 290 00:41 14.06.2019
6387 Clouds 10 1019 58 10000 4.6 280 00:22 14.06.2019
6388 Clouds 9 1019 62 10000 4.6 280 23:51 13.06.2019
6389 Clouds 8 1019 93 800 2.3 263.37 23:26 13.06.2019
6390 Clouds 8 1018 62 10000 3.6 310 22:58 13.06.2019
6391 Clouds 8 1018 62 10000 3.6 310 22:38 13.06.2019
6392 Clear 8 1018 62 10000 3.6 320 22:19 13.06.2019
6393 Clear 9 1018 62 10000 3.6 290 21:38 13.06.2019
6394 Clear 9 1017 58 10000 3.6 280 21:19 13.06.2019
6395 Clear 9 1017 58 10000 5.7 260 20:45 13.06.2019
6396 Clear 10 1017 58 10000 6.2 250 20:21 13.06.2019
6397 Clear 10 1017 54 10000 7.7 250 19:56 13.06.2019
6398 Clear 10 1017 54 10000 7.2 260 19:37 13.06.2019
6399 Clear 10 1017 54 10000 7.2 260 19:18 13.06.2019
6400 Clear 11 1017 54 10000 6.7 260 18:45 13.06.2019
6401 Clear 11 1017 47 10000 7.7 260 18:27 13.06.2019
6402 Clear 11 1017 50 10000 7.7 250 17:57 13.06.2019
6403 Clear 12 1017 50 10000 7.7 250 17:39 13.06.2019
6404 Clear 12 1017 62 10000 6.2 250 17:19 13.06.2019
6405 Clear 12 1017 58 10000 6.2 260 16:45 13.06.2019
6406 Clear 13 1018 62 10000 3.1 270 16:21 13.06.2019
6407 Clear 13 1018 62 10000 4.6 210 15:56 13.06.2019
6408 Clear 13 1018 62 10000 4.6 210 15:37 13.06.2019
6409 Clouds 13 1017 72 10000 5.1 210 15:18 13.06.2019
6410 Clouds 13 1018 67 10000 2.6 190 14:44 13.06.2019
6411 Clouds 13 1018 59 10000 4.6 240 14:23 13.06.2019
6412 Clouds 14 1017 55 10000 5.7 250 13:44 13.06.2019
6413 Clouds 14 1017 59 10000 5.7 250 13:21 13.06.2019
6414 Clouds 15 1017 55 10000 5.7 250 12:42 13.06.2019
6415 Clouds 15 1017 55 10000 4.1 270 12:22 13.06.2019
6416 Clear 15 1016 52 10000 5.7 240 11:57 13.06.2019
6417 Clear 16 1016 52 10000 5.7 240 11:39 13.06.2019
6418 Clouds 16 1016 55 10000 3.6 240 11:21 13.06.2019
6419 Clear 17 1015 55 10000 3.6 250 10:45 13.06.2019
6420 Clear 18 1015 63 10000 4.6 230 10:26 13.06.2019
6421 Clear 19 1014 63 10000 4.6 220 09:44 13.06.2019
6422 Clear 19 1014 77 10000 4.6 210 09:24 13.06.2019
6423 Clear 19 1014 77 10000 4.6 210 09:24 13.06.2019
6424 Clear 19 1014 77 10000 4.6 210 09:24 13.06.2019
6425 Clear 20 1013 68 10000 2.6 200 08:49 13.06.2019
6426 Clear 20 1013 64 10000 4.1 230 08:28 13.06.2019
6427 Clear 21 1013 68 10000 3.6 240 07:56 13.06.2019
6428 -273 0 0 0 0 0 07:27 13.06.2019
6429 Clear 21 1012 49 10000 2.6 270 06:51 13.06.2019
6430 Clouds 21 1013 52 10000 2.6 250 06:24 13.06.2019
6431 Clouds 21 1013 52 10000 2.6 250 06:24 13.06.2019
6432 Clouds 20 1013 52 10000 2.1 300 05:56 13.06.2019
6433 Clouds 20 1013 52 10000 2.1 300 05:37 13.06.2019
6434 Clouds 20 1013 55 10000 4.6 250 04:59 13.06.2019
6435 Clear 21 1014 46 10000 2.6 270 03:28 13.06.2019
6436 Clear 20 1015 43 10000 2.6 270 01:27 13.06.2019
6437 Clear 17 1015 42 10000 4.6 340 00:29 13.06.2019
6438 Clear 17 1015 48 10000 6.7 350 23:24 12.06.2019
6439 Clear 17 1014 52 10000 5.1 360 22:47 12.06.2019
6440 Clear 17 1014 52 10000 5.1 360 22:28 12.06.2019
6441 Clear 18 1014 48 10000 4.6 360 21:59 12.06.2019
6442 Clear 18 1014 48 10000 4.6 360 21:40 12.06.2019
6443 Clear 18 1014 52 10000 4.6 360 21:22 12.06.2019
6444 Clear 18 1014 48 10000 4.6 10 20:48 12.06.2019
6445 Clear 18 1014 48 10000 4.6 10 20:29 12.06.2019
6446 Clear 18 1014 52 10000 4.6 360 19:57 12.06.2019
6447 Clear 18 1014 52 10000 4.6 360 19:37 12.06.2019
6448 Clear 18 1014 52 10000 4.6 360 19:19 12.06.2019
6449 Clear 18 1015 52 10000 5.7 360 18:42 12.06.2019
6450 Clear 18 1015 52 10000 5.7 360 18:23 12.06.2019
6451 Clear 17 1015 55 10000 5.7 350 17:45 12.06.2019
6452 Clear 17 1015 55 10000 6.7 350 17:23 12.06.2019
6453 Clear 17 1016 59 10000 5.1 350 16:43 12.06.2019
6454 Clear 17 1016 59 10000 5.1 350 16:25 12.06.2019
6455 Clear 17 1016 59 10000 5.1 360 15:58 12.06.2019
6456 Clear 17 1016 59 10000 5.1 360 15:33 12.06.2019
6457 Clear 17 1017 59 10000 4.6 350 14:58 12.06.2019
6458 Clear 16 1017 59 10000 4.1 360 14:33 12.06.2019
6459 Clear 16 1017 59 10000 4.1 360 13:58 12.06.2019
6460 Clear 16 1017 59 10000 4.1 360 13:58 12.06.2019
6461 Clear 17 1018 63 10000 5.1 350 13:39 12.06.2019
6462 Clear 16 1018 63 10000 5.1 350 13:19 12.06.2019
6463 Clear 16 1018 63 10000 5.1 350 12:44 12.06.2019
6464 Clouds 16 1018 93 10000 1 270 12:21 12.06.2019
6465 Clouds 16 1018 93 10000 1 270 11:58 12.06.2019
6466 Clouds 17 1018 93 10000 0.5 10 11:38 12.06.2019
6467 Clouds 17 1018 87 10000 2.1 40 11:20 12.06.2019
6468 Clouds 17 1018 82 10000 0.5 360 10:44 12.06.2019
6469 Clouds 17 1018 82 10000 2.6 280 10:20 12.06.2019
6470 Clouds 18 1018 77 10000 1.5 240 09:43 12.06.2019
6471 Clear 18 1018 72 10000 3.6 30 09:22 12.06.2019
6472 Clear 19 1018 77 10000 4.1 30 08:38 12.06.2019
6473 Clouds 20 1018 68 10000 0.5 140 08:19 12.06.2019
6474 Clouds 20 1018 68 10000 3.1 210 07:37 12.06.2019
6475 Clouds 20 1018 68 10000 3.1 210 06:41 12.06.2019
6476 Clear 20 1019 63 10000 2.6 290 05:27 12.06.2019
6477 Clear 19 1021 68 10000 3.6 320 03:55 12.06.2019
6478 Clear 14 1022 82 10000 3.6 310 01:26 12.06.2019
6479 Clear 11 1022 82 10000 3.1 330 00:38 12.06.2019
6480 Clear 9 1022 87 10000 3.1 310 23:45 11.06.2019
6481 Clear 9 1022 82 10000 2.6 330 23:27 11.06.2019
6482 Mist 9 1022 87 10000 4.1 340 22:43 11.06.2019
6483 Mist 9 1022 87 10000 4.1 340 22:19 11.06.2019
6484 Fog 9 1023 87 10000 4.1 340 21:57 11.06.2019
6485 Fog 9 1023 93 10000 4.1 340 21:38 11.06.2019
6486 Fog 9 1023 93 10000 4.1 340 21:19 11.06.2019
6487 Clear 10 1023 87 10000 2.6 310 20:48 11.06.2019
6488 Mist 10 1023 100 500 1.41 312.202 20:26 11.06.2019
6489 Clouds 10 1023 100 7000 1.41 312.202 19:55 11.06.2019
6490 -273 0 0 0 0 0 19:33 11.06.2019
6491 -273 0 0 0 0 0 18:57 11.06.2019
6492 Mist 10 1023 93 250 1.41 312.202 18:56 11.06.2019
6493 Mist 10 1024 100 250 1.53 297.153 18:22 11.06.2019
6494 Clouds 11 1024 100 200 1.53 297.153 17:42 11.06.2019
6495 Clouds 11 1024 100 200 1.53 297.153 17:42 11.06.2019
6496 Clear 11 1024 87 10000 3.1 340 17:22 11.06.2019
6497 Clear 11 1024 87 10000 3.6 340 16:58 11.06.2019
6498 Clear 11 1024 87 10000 3.6 340 16:40 11.06.2019
6499 Clear 11 1024 100 6000 1.53 297.153 16:22 11.06.2019
6500 Clear 11 1025 100 10000 1.53 297.153 15:42 11.06.2019
6501 Clear 11 1025 93 10000 1.44 293.032 15:23 11.06.2019
6502 Clear 12 1025 100 10000 1.44 293.032 14:49 11.06.2019
6503 Clear 12 1025 82 10000 3.1 330 14:22 11.06.2019
6504 Clear 12 1025 93 10000 1.44 293.032 13:55 11.06.2019
6505 Clear 12 1025 93 10000 1.44 293.032 13:36 11.06.2019
6506 Clear 13 1025 93 10000 1.41 290.437 13:18 11.06.2019
6507 Clear 13 1025 77 10000 2.1 260 12:40 11.06.2019
6508 Clear 13 1024 93 10000 0.64 93.07 12:20 11.06.2019
6509 Clear 14 1024 87 10000 0.64 93.07 11:40 11.06.2019
6510 Clear 14 1024 87 10000 0.64 93.07 11:40 11.06.2019
6511 Clear 14 1024 82 10000 1.5 250 11:19 11.06.2019
6512 Clear 15 1024 72 10000 0.5 230 10:46 11.06.2019
6513 Clear 16 1024 72 10000 0.5 230 10:26 11.06.2019
6514 Clear 16 1024 67 10000 1.5 100 10:26 11.06.2019
6515 Clear 17 1023 63 10000 3.6 90 09:49 11.06.2019
6516 Clear 18 1023 60 10000 4.1 80 09:24 11.06.2019
6517 Clear 19 1023 60 10000 4.1 90 08:46 11.06.2019
6518 Clear 19 1023 56 10000 4.1 110 08:28 11.06.2019
6519 Clear 20 1023 49 10000 4.6 130 07:55 11.06.2019
6520 Clear 20 1023 49 10000 4.6 130 07:29 11.06.2019
6521 Clear 21 1023 46 10000 4.6 130 06:50 11.06.2019
6522 Clouds 22 1023 52 10000 3.1 170 04:56 11.06.2019
6523 Clouds 21 1024 60 10000 2.6 270 03:43 11.06.2019
6524 Clouds 17 1023 77 10000 2.6 260 01:41 11.06.2019
6525 Rain 14 1022 77 10000 3.1 300 00:48 11.06.2019
6526 Clear 10 1022 82 10000 2.6 310 23:56 10.06.2019
6527 Clear 10 1022 82 10000 2.6 340 23:38 10.06.2019
6528 Clear 10 1021 87 10000 2.6 340 22:58 10.06.2019
6529 Clear 10 1021 87 10000 2.6 340 22:40 10.06.2019
6530 Clear 10 1020 82 10000 2.1 360 22:22 10.06.2019
6531 Clouds 11 1020 87 10000 2.6 320 21:41 10.06.2019
6532 Clouds 10 1020 87 10000 2.6 320 21:23 10.06.2019
6533 Clouds 11 1019 82 10000 2.6 320 20:47 10.06.2019
6534 Clear 11 1019 87 10000 3.6 340 20:26 10.06.2019
6535 Clouds 11 1019 87 10000 2.1 310 19:58 10.06.2019
6536 Clouds 11 1019 87 10000 2.1 310 19:39 10.06.2019
6537 Clouds 12 1019 82 10000 2.1 310 19:21 10.06.2019
6538 Clouds 12 1019 82 10000 2.1 300 18:55 10.06.2019
6539 Clouds 12 1019 87 10000 3.1 290 18:37 10.06.2019
6540 Clouds 12 1019 87 10000 3.1 290 18:18 10.06.2019
6541 Clouds 13 1019 87 10000 2.1 230 17:40 10.06.2019
6542 Clouds 13 1019 87 10000 1 200 17:22 10.06.2019
6543 Clouds 13 1019 76 10000 1.59 272.634 16:46 10.06.2019
6544 Clear 14 1019 82 10000 2.6 340 16:28 10.06.2019
6545 Clear 14 1019 82 10000 2.6 340 15:56 10.06.2019
6546 Clear 14 1019 77 10000 2.1 320 15:37 10.06.2019
6547 Clear 15 1019 72 10000 2.1 350 15:19 10.06.2019
6548 Clear 15 1019 77 10000 2.6 360 14:40 10.06.2019
6549 Clear 15 1019 72 10000 2.23 306.947 14:21 10.06.2019
6550 Clear 15 1019 72 10000 1 220 13:45 10.06.2019
6551 Clear 15 1019 72 10000 2.23 306.947 13:23 10.06.2019
6552 Clear 16 1018 72 10000 2.1 170 12:48 10.06.2019
6553 Clouds 16 1018 59 10000 3.1 270 12:29 10.06.2019
6554 Clouds 17 1018 68 10000 2.6 270 11:52 10.06.2019
6555 Clouds 18 1018 68 10000 2.6 270 11:30 10.06.2019
6556 Clear 18 1017 59 10000 4.1 300 10:59 10.06.2019
6557 Clear 18 1017 59 10000 4.1 300 10:40 10.06.2019
6558 Clear 18 1016 52 10000 5.1 350 10:18 10.06.2019
6559 Clear 19 1015 52 10000 4.1 360 09:50 10.06.2019
6560 Clear 19 1015 52 10000 4.1 360 09:29 10.06.2019
6561 Clear 19 1015 52 10000 4.1 360 09:29 10.06.2019
6562 Clear 20 1015 49 10000 5.7 360 08:48 10.06.2019
6563 Clear 20 1015 46 10000 5.7 360 08:26 10.06.2019
6564 Clear 21 1015 49 10000 6.7 360 07:40 10.06.2019
6565 Clear 20 1017 46 10000 4.1 300 04:42 10.06.2019
6566 Clear 17 1019 63 10000 4.1 310 02:35 10.06.2019
6567 Clear 16 1020 72 10000 3.1 310 01:50 10.06.2019
6568 Clear 14 1020 72 10000 3.1 330 01:19 10.06.2019
6569 Clear 12 1020 82 10000 3.1 320 00:37 10.06.2019
6570 Clear 11 1020 87 10000 3.1 290 23:46 09.06.2019
6571 Clear 10 1019 81 10000 2.6 290 23:22 09.06.2019
6572 Clear 11 1019 87 10000 2.1 320 22:48 09.06.2019
6573 Clear 11 1019 82 10000 3.6 330 22:26 09.06.2019
6574 Clear 11 1019 82 10000 3.6 330 21:59 09.06.2019
6575 Clear 11 1019 87 10000 3.6 320 21:37 09.06.2019
6576 Clear 11 1020 82 10000 3.6 330 21:19 09.06.2019
6577 Clear 11 1020 82 10000 3.6 340 20:42 09.06.2019
6578 Clear 11 1020 87 10000 4.1 340 20:22 09.06.2019
6579 Clouds 11 1020 100 1000 1.58 296.046 19:45 09.06.2019
6580 Clear 12 1020 82 10000 3.1 320 19:19 09.06.2019
6581 Clear 12 1021 82 10000 3.1 290 18:56 09.06.2019
6582 Clear 12 1020 82 10000 2.6 320 18:36 09.06.2019
6583 Clear 12 1020 82 10000 2.6 320 18:18 09.06.2019
6584 Clouds 13 1020 82 10000 3.6 340 17:42 09.06.2019
6585 Clear 13 1020 82 10000 3.6 350 17:23 09.06.2019
6586 Clear 12 1021 82 10000 2.1 330 16:41 09.06.2019
6587 Clear 12 1021 82 10000 1.5 293.459 16:21 09.06.2019
6588 Clear 12 1021 82 10000 1.5 293.459 16:21 09.06.2019
6589 Clear 13 1021 82 10000 1.5 250 15:51 09.06.2019
6590 Clear 13 1021 77 10000 0.66 314.877 15:30 09.06.2019
6591 Clear 13 1021 77 10000 0.66 314.877 14:59 09.06.2019
6592 Clear 13 1022 77 10000 2.1 260 14:41 09.06.2019
6593 Clear 13 1022 72 10000 0.66 314.877 14:20 09.06.2019
6594 Clear 14 1022 77 10000 0.66 314.877 13:48 09.06.2019
6595 Clear 14 1022 72 10000 1.5 270 13:19 09.06.2019
6596 Clear 14 1022 82 10000 3.1 230 12:40 09.06.2019
6597 Clear 14 1022 72 10000 1 310 12:21 09.06.2019
6598 Clear 14 1022 67 10000 1.72 21.042 11:39 09.06.2019
6599 Clouds 14 1022 93 10000 1.5 280 11:20 09.06.2019
6600 Clouds 15 1021 82 10000 1.5 20.561 10:44 09.06.2019
6601 Clouds 16 1021 77 10000 0.5 200 10:22 09.06.2019
6602 Clouds 17 1021 72 10000 2.1 180 09:41 09.06.2019
6603 Clouds 17 1021 72 10000 2.1 180 09:41 09.06.2019
6604 Clouds 17 1021 59 10000 2.1 90 09:21 09.06.2019
6605 Clouds 18 1020 56 10000 2.6 90 08:47 09.06.2019
6606 Clear 19 1020 46 10000 3.1 330 08:28 09.06.2019
6607 Clear 20 1020 43 10000 3.1 330 07:21 09.06.2019
6608 Clear 21 1021 49 10000 3.1 280 06:30 09.06.2019
6609 Clear 20 1022 52 10000 3.6 280 04:59 09.06.2019
6610 Clouds 14 1024 77 10000 4.6 310 01:39 09.06.2019
6611 Clouds 12 1024 82 10000 4.6 320 01:21 09.06.2019
6612 Clouds 12 1024 87 10000 3.6 320 00:59 09.06.2019
6613 Clear 9 1023 87 10000 3.6 300 23:56 08.06.2019
6614 Clear 9 1023 87 10000 3.6 300 23:38 08.06.2019
6615 Mist 9 1023 93 7000 3.6 320 23:19 08.06.2019
6616 Mist 10 1023 93 7000 2.6 320 22:42 08.06.2019
6617 Mist 10 1023 93 8000 2.6 320 22:23 08.06.2019
6618 Clear 10 1023 93 7000 2.6 340 21:52 08.06.2019
6619 Mist 10 1023 93 9000 2.6 320 21:29 08.06.2019
6620 Rain 10 1023 93 9000 2.6 320 20:59 08.06.2019
6621 Rain 10 1023 93 9000 2.1 340 20:40 08.06.2019
6622 Rain 11 1023 93 9000 4.6 330 20:20 08.06.2019
6623 Clear 11 1023 93 10000 3.6 330 19:41 08.06.2019
6624 Clouds 11 1024 93 9000 3.1 320 19:20 08.06.2019
6625 Clouds 12 1024 93 9000 3.6 290 18:58 08.06.2019
6626 Clouds 12 1024 93 9000 3.6 290 18:38 08.06.2019
6627 Clouds 12 1024 87 6000 3.1 280 18:18 08.06.2019
6628 Clouds 12 1024 87 9000 3.1 270 17:41 08.06.2019
6629 Rain 12 1024 93 9000 4.1 310 17:18 08.06.2019
6630 Clouds 12 1024 93 9000 4.1 290 16:44 08.06.2019
6631 Clouds 12 1024 93 9000 4.1 290 16:44 08.06.2019
6632 Clouds 12 1024 93 9000 3.1 360 16:20 08.06.2019
6633 Clear 12 1025 87 10000 2.6 350 15:39 08.06.2019
6634 Clouds 12 1026 100 500 1.03 295.745 14:58 08.06.2019
6635 Clouds 12 1026 100 500 1.03 295.745 14:39 08.06.2019
6636 Clouds 12 1026 93 1600 1.03 295.745 14:21 08.06.2019
6637 Clouds 12 1027 93 1800 1.03 295.745 13:37 08.06.2019
6638 Clear 12 1026 87 10000 2.6 320 12:47 08.06.2019
6639 Clear 12 1027 87 10000 1.85 351.343 12:24 08.06.2019
6640 Clear 12 1027 87 10000 2.6 250 11:44 08.06.2019
6641 Clear 13 1027 87 10000 2.6 280 11:23 08.06.2019
6642 Clouds 13 1027 100 5000 1.85 351.343 10:45 08.06.2019
6643 Clouds 13 1027 93 6000 1.85 351.343 10:23 08.06.2019
6644 Clouds 13 1027 93 9000 1 240 09:50 08.06.2019
6645 Clouds 13 1027 100 10000 1 250 09:24 08.06.2019
6646 Clear 14 1026 82 10000 2.1 290 08:31 08.06.2019
6647 Clouds 14 1027 100 10000 1.74 346.973 07:59 08.06.2019
6648 Clear 14 1028 82 10000 3.1 340 06:50 08.06.2019
6649 Clouds 14 1029 87 10000 2.6 310 05:49 08.06.2019
6650 Clouds 13 1031 87 9000 3.6 310 03:32 08.06.2019
6651 Fog 11 1032 93 3000 3.6 310 01:31 08.06.2019
6652 Rain 10 1032 93 900 3.1 320 00:26 08.06.2019
6653 Rain 10 1032 93 800 3.1 330 23:47 07.06.2019
6654 Rain 10 1032 100 1000 4.6 330 23:20 07.06.2019
6655 Fog 10 1032 100 3000 4.6 330 22:47 07.06.2019
6656 Fog 10 1032 100 3000 4.6 330 22:25 07.06.2019
6657 Fog 10 1032 100 500 3.6 330 21:54 07.06.2019
6658 Fog 10 1032 100 500 3.6 330 21:54 07.06.2019
6659 Fog 10 1032 100 600 3.6 340 21:31 07.06.2019
6660 Fog 10 1032 100 600 3.6 340 20:57 07.06.2019
6661 Fog 11 1032 93 6000 2.1 320 20:37 07.06.2019
6662 Clouds 11 1032 93 10000 2.1 310 19:51 07.06.2019
6663 Clouds 11 1033 93 10000 2.6 310 19:24 07.06.2019
6664 Clouds 11 1033 93 10000 3.6 350 18:59 07.06.2019
6665 Clouds 11 1033 93 10000 3.6 350 18:37 07.06.2019
6666 Rain 11 1033 93 10000 3.6 340 18:18 07.06.2019
6667 Clouds 12 1033 93 10000 2.1 340 17:39 07.06.2019
6668 Clouds 12 1033 93 10000 2.1 320 17:19 07.06.2019
6669 Clouds 12 1033 93 10000 1.15 264.815 16:40 07.06.2019
6670 Rain 12 1034 87 10000 0.5 290 15:54 07.06.2019
6671 Rain 13 1034 87 10000 3.1 290 15:23 07.06.2019
6672 R